<?xml version="1.0" encoding="UTF-8"?>
<gpx xmlns="http://www.topografix.com/GPX/1/1" xmlns:xsi="http://www.w3.org/2001/XMLSchema-instance" version="1.1" xsi:schemaLocation="http://www.topografix.com/GPX/1/1 http://www.topografix.com/GPX/1/1/gpx.xsd">
  <metadata>
    <name>Virginia Anvil Fest 2022 - Single Aquavelo</name>
  </metadata>
  <trk>
    <name>Virginia Anvil Fest 2022 - Single Aquavelo</name>
    <trkseg>
      <trkpt lat="38.114364" lon="-77.832535">
        <ele>92.419047</ele>
        <time>2023-10-13T08:16:00.000Z</time>
      </trkpt>
      <trkpt lat="38.115345" lon="-77.831727">
        <ele>93.214597</ele>
        <time>2023-10-13T08:16:13.000Z</time>
      </trkpt>
      <trkpt lat="38.115894" lon="-77.831442">
        <ele>94.96243</ele>
        <time>2023-10-13T08:16:20.000Z</time>
      </trkpt>
      <trkpt lat="38.116271" lon="-77.831237">
        <ele>96.180304</ele>
        <time>2023-10-13T08:16:25.000Z</time>
      </trkpt>
      <trkpt lat="38.116449" lon="-77.831057">
        <ele>96.844726</ele>
        <time>2023-10-13T08:16:28.000Z</time>
      </trkpt>
      <trkpt lat="38.117266" lon="-77.82987">
        <ele>99.692953</ele>
        <time>2023-10-13T08:16:42.000Z</time>
      </trkpt>
      <trkpt lat="38.117694" lon="-77.829333">
        <ele>100.951751</ele>
        <time>2023-10-13T08:16:49.000Z</time>
      </trkpt>
      <trkpt lat="38.117942" lon="-77.828901">
        <ele>102.0038</ele>
        <time>2023-10-13T08:16:54.000Z</time>
      </trkpt>
      <trkpt lat="38.118021" lon="-77.828493">
        <ele>102.978996</ele>
        <time>2023-10-13T08:16:58.000Z</time>
      </trkpt>
      <trkpt lat="38.118032" lon="-77.826538">
        <ele>107.399086</ele>
        <time>2023-10-13T08:17:15.000Z</time>
      </trkpt>
      <trkpt lat="38.118141" lon="-77.825706">
        <ele>108.878166</ele>
        <time>2023-10-13T08:17:22.000Z</time>
      </trkpt>
      <trkpt lat="38.118144" lon="-77.824863">
        <ele>110.38461</ele>
        <time>2023-10-13T08:17:29.000Z</time>
      </trkpt>
      <trkpt lat="38.118182" lon="-77.824504">
        <ele>110.93308</ele>
        <time>2023-10-13T08:17:32.000Z</time>
      </trkpt>
      <trkpt lat="38.118467" lon="-77.823962">
        <ele>111.200347</ele>
        <time>2023-10-13T08:17:38.000Z</time>
      </trkpt>
      <trkpt lat="38.119157" lon="-77.823176">
        <ele>111.681222</ele>
        <time>2023-10-13T08:17:48.000Z</time>
      </trkpt>
      <trkpt lat="38.118986" lon="-77.822778">
        <ele>111.808875</ele>
        <time>2023-10-13T08:17:52.000Z</time>
      </trkpt>
      <trkpt lat="38.118706" lon="-77.82194">
        <ele>111.212942</ele>
        <time>2023-10-13T08:18:00.000Z</time>
      </trkpt>
      <trkpt lat="38.118458" lon="-77.821587">
        <ele>110.914973</ele>
        <time>2023-10-13T08:18:04.000Z</time>
      </trkpt>
      <trkpt lat="38.117968" lon="-77.82104">
        <ele>110.384344</ele>
        <time>2023-10-13T08:18:11.000Z</time>
      </trkpt>
      <trkpt lat="38.117819" lon="-77.820808">
        <ele>110.066403</ele>
        <time>2023-10-13T08:18:14.000Z</time>
      </trkpt>
      <trkpt lat="38.117705" lon="-77.820397">
        <ele>109.591571</ele>
        <time>2023-10-13T08:18:18.000Z</time>
      </trkpt>
      <trkpt lat="38.117648" lon="-77.819309">
        <ele>108.40582</ele>
        <time>2023-10-13T08:18:28.000Z</time>
      </trkpt>
      <trkpt lat="38.117561" lon="-77.819066">
        <ele>108.129685</ele>
        <time>2023-10-13T08:18:30.000Z</time>
      </trkpt>
      <trkpt lat="38.117344" lon="-77.818816">
        <ele>107.75733</ele>
        <time>2023-10-13T08:18:33.000Z</time>
      </trkpt>
      <trkpt lat="38.117203" lon="-77.818741">
        <ele>107.598134</ele>
        <time>2023-10-13T08:18:35.000Z</time>
      </trkpt>
      <trkpt lat="38.116958" lon="-77.818736">
        <ele>107.345094</ele>
        <time>2023-10-13T08:18:38.000Z</time>
      </trkpt>
      <trkpt lat="38.11665" lon="-77.818767">
        <ele>107.019534</ele>
        <time>2023-10-13T08:18:41.000Z</time>
      </trkpt>
      <trkpt lat="38.115907" lon="-77.818826">
        <ele>106.225195</ele>
        <time>2023-10-13T08:18:49.000Z</time>
      </trkpt>
      <trkpt lat="38.115668" lon="-77.818802">
        <ele>105.967206</ele>
        <time>2023-10-13T08:18:52.000Z</time>
      </trkpt>
      <trkpt lat="38.114351" lon="-77.818079">
        <ele>103.742963</ele>
        <time>2023-10-13T08:19:08.000Z</time>
      </trkpt>
      <trkpt lat="38.114114" lon="-77.817765">
        <ele>103.217031</ele>
        <time>2023-10-13T08:19:12.000Z</time>
      </trkpt>
      <trkpt lat="38.114093" lon="-77.817495">
        <ele>102.774074</ele>
        <time>2023-10-13T08:19:14.000Z</time>
      </trkpt>
      <trkpt lat="38.114263" lon="-77.816318">
        <ele>100.899808</ele>
        <time>2023-10-13T08:19:24.000Z</time>
      </trkpt>
      <trkpt lat="38.114243" lon="-77.816007">
        <ele>100.399802</ele>
        <time>2023-10-13T08:19:27.000Z</time>
      </trkpt>
      <trkpt lat="38.114001" lon="-77.815022">
        <ele>98.986244</ele>
        <time>2023-10-13T08:19:36.000Z</time>
      </trkpt>
      <trkpt lat="38.113972" lon="-77.814666">
        <ele>98.578313</ele>
        <time>2023-10-13T08:19:39.000Z</time>
      </trkpt>
      <trkpt lat="38.114023" lon="-77.814369">
        <ele>98.205935</ele>
        <time>2023-10-13T08:19:42.000Z</time>
      </trkpt>
      <trkpt lat="38.114339" lon="-77.813489">
        <ele>97.079797</ele>
        <time>2023-10-13T08:19:50.000Z</time>
      </trkpt>
      <trkpt lat="38.114354" lon="-77.813072">
        <ele>96.809841</ele>
        <time>2023-10-13T08:19:54.000Z</time>
      </trkpt>
      <trkpt lat="38.114246" lon="-77.812781">
        <ele>96.673139</ele>
        <time>2023-10-13T08:19:57.000Z</time>
      </trkpt>
      <trkpt lat="38.113642" lon="-77.811639">
        <ele>96.09499</ele>
        <time>2023-10-13T08:20:09.000Z</time>
      </trkpt>
      <trkpt lat="38.114244" lon="-77.81278">
        <ele>96.695871</ele>
        <time>2023-10-13T08:20:21.000Z</time>
      </trkpt>
      <trkpt lat="38.114352" lon="-77.813072">
        <ele>96.916693</ele>
        <time>2023-10-13T08:20:24.000Z</time>
      </trkpt>
      <trkpt lat="38.114337" lon="-77.813479">
        <ele>97.197428</ele>
        <time>2023-10-13T08:20:28.000Z</time>
      </trkpt>
      <trkpt lat="38.11401" lon="-77.814362">
        <ele>98.155278</ele>
        <time>2023-10-13T08:20:37.000Z</time>
      </trkpt>
      <trkpt lat="38.113977" lon="-77.814673">
        <ele>98.571144</ele>
        <time>2023-10-13T08:20:40.000Z</time>
      </trkpt>
      <trkpt lat="38.114002" lon="-77.815013">
        <ele>99.026714</ele>
        <time>2023-10-13T08:20:43.000Z</time>
      </trkpt>
      <trkpt lat="38.114238" lon="-77.816007">
        <ele>100.377442</ele>
        <time>2023-10-13T08:20:52.000Z</time>
      </trkpt>
      <trkpt lat="38.114262" lon="-77.816331">
        <ele>100.846809</ele>
        <time>2023-10-13T08:20:55.000Z</time>
      </trkpt>
      <trkpt lat="38.114086" lon="-77.817489">
        <ele>102.705603</ele>
        <time>2023-10-13T08:21:05.000Z</time>
      </trkpt>
      <trkpt lat="38.114124" lon="-77.817773">
        <ele>103.145498</ele>
        <time>2023-10-13T08:21:08.000Z</time>
      </trkpt>
      <trkpt lat="38.114352" lon="-77.818092">
        <ele>103.822621</ele>
        <time>2023-10-13T08:21:12.000Z</time>
      </trkpt>
      <trkpt lat="38.115678" lon="-77.818792">
        <ele>105.856606</ele>
        <time>2023-10-13T08:21:28.000Z</time>
      </trkpt>
      <trkpt lat="38.11591" lon="-77.818831">
        <ele>106.175361</ele>
        <time>2023-10-13T08:21:31.000Z</time>
      </trkpt>
      <trkpt lat="38.116666" lon="-77.818755">
        <ele>107.065942</ele>
        <time>2023-10-13T08:21:39.000Z</time>
      </trkpt>
      <trkpt lat="38.116967" lon="-77.818728">
        <ele>107.404436</ele>
        <time>2023-10-13T08:21:42.000Z</time>
      </trkpt>
      <trkpt lat="38.117208" lon="-77.818758">
        <ele>107.667518</ele>
        <time>2023-10-13T08:21:45.000Z</time>
      </trkpt>
      <trkpt lat="38.11735" lon="-77.81882">
        <ele>107.833034</ele>
        <time>2023-10-13T08:21:47.000Z</time>
      </trkpt>
      <trkpt lat="38.117564" lon="-77.819069">
        <ele>108.166125</ele>
        <time>2023-10-13T08:21:50.000Z</time>
      </trkpt>
      <trkpt lat="38.117656" lon="-77.819297">
        <ele>108.388107</ele>
        <time>2023-10-13T08:21:52.000Z</time>
      </trkpt>
      <trkpt lat="38.117696" lon="-77.820398">
        <ele>109.536212</ele>
        <time>2023-10-13T08:22:02.000Z</time>
      </trkpt>
      <trkpt lat="38.11783" lon="-77.820819">
        <ele>110.00704</ele>
        <time>2023-10-13T08:22:06.000Z</time>
      </trkpt>
      <trkpt lat="38.117985" lon="-77.82105">
        <ele>110.334082</ele>
        <time>2023-10-13T08:22:09.000Z</time>
      </trkpt>
      <trkpt lat="38.118459" lon="-77.821592">
        <ele>111.056405</ele>
        <time>2023-10-13T08:22:16.000Z</time>
      </trkpt>
      <trkpt lat="38.118706" lon="-77.821939">
        <ele>111.25389</ele>
        <time>2023-10-13T08:22:20.000Z</time>
      </trkpt>
      <trkpt lat="38.11898" lon="-77.822792">
        <ele>111.648879</ele>
        <time>2023-10-13T08:22:28.000Z</time>
      </trkpt>
      <trkpt lat="38.119158" lon="-77.823181">
        <ele>111.842536</ele>
        <time>2023-10-13T08:22:32.000Z</time>
      </trkpt>
      <trkpt lat="38.119394" lon="-77.823014">
        <ele>111.901355</ele>
        <time>2023-10-13T08:22:35.000Z</time>
      </trkpt>
      <trkpt lat="38.119774" lon="-77.822868">
        <ele>111.777931</ele>
        <time>2023-10-13T08:22:39.000Z</time>
      </trkpt>
      <trkpt lat="38.119981" lon="-77.822881">
        <ele>111.714389</ele>
        <time>2023-10-13T08:22:41.000Z</time>
      </trkpt>
      <trkpt lat="38.120199" lon="-77.822956">
        <ele>111.642192</ele>
        <time>2023-10-13T08:22:44.000Z</time>
      </trkpt>
      <trkpt lat="38.120636" lon="-77.823183">
        <ele>111.496073</ele>
        <time>2023-10-13T08:22:49.000Z</time>
      </trkpt>
      <trkpt lat="38.121121" lon="-77.823288">
        <ele>111.400129</ele>
        <time>2023-10-13T08:22:54.000Z</time>
      </trkpt>
      <trkpt lat="38.121899" lon="-77.823187">
        <ele>111.614369</ele>
        <time>2023-10-13T08:23:03.000Z</time>
      </trkpt>
      <trkpt lat="38.122737" lon="-77.823271">
        <ele>111.842614</ele>
        <time>2023-10-13T08:23:12.000Z</time>
      </trkpt>
      <trkpt lat="38.123037" lon="-77.823252">
        <ele>112.000398</ele>
        <time>2023-10-13T08:23:15.000Z</time>
      </trkpt>
      <trkpt lat="38.124185" lon="-77.8229">
        <ele>112.695686</ele>
        <time>2023-10-13T08:23:28.000Z</time>
      </trkpt>
      <trkpt lat="38.124782" lon="-77.822484">
        <ele>113.020658</ele>
        <time>2023-10-13T08:23:36.000Z</time>
      </trkpt>
      <trkpt lat="38.12531" lon="-77.822181">
        <ele>113.203497</ele>
        <time>2023-10-13T08:23:42.000Z</time>
      </trkpt>
      <trkpt lat="38.126354" lon="-77.821232">
        <ele>113.635176</ele>
        <time>2023-10-13T08:23:56.000Z</time>
      </trkpt>
      <trkpt lat="38.128378" lon="-77.820207">
        <ele>114.42597</ele>
        <time>2023-10-13T08:24:20.000Z</time>
      </trkpt>
      <trkpt lat="38.129351" lon="-77.8196">
        <ele>114.760928</ele>
        <time>2023-10-13T08:24:32.000Z</time>
      </trkpt>
      <trkpt lat="38.130252" lon="-77.81933">
        <ele>114.949842</ele>
        <time>2023-10-13T08:24:42.000Z</time>
      </trkpt>
      <trkpt lat="38.130972" lon="-77.81891">
        <ele>115.108632</ele>
        <time>2023-10-13T08:24:51.000Z</time>
      </trkpt>
      <trkpt lat="38.131204" lon="-77.818888">
        <ele>115.154844</ele>
        <time>2023-10-13T08:24:54.000Z</time>
      </trkpt>
      <trkpt lat="38.131849" lon="-77.818981">
        <ele>115.284043</ele>
        <time>2023-10-13T08:25:01.000Z</time>
      </trkpt>
      <trkpt lat="38.133029" lon="-77.818824">
        <ele>115.54265</ele>
        <time>2023-10-13T08:25:14.000Z</time>
      </trkpt>
      <trkpt lat="38.133388" lon="-77.818675">
        <ele>115.659012</ele>
        <time>2023-10-13T08:25:18.000Z</time>
      </trkpt>
      <trkpt lat="38.13494" lon="-77.81779">
        <ele>116.168313</ele>
        <time>2023-10-13T08:25:37.000Z</time>
      </trkpt>
      <trkpt lat="38.135368" lon="-77.817608">
        <ele>116.296004</ele>
        <time>2023-10-13T08:25:42.000Z</time>
      </trkpt>
      <trkpt lat="38.135798" lon="-77.817547">
        <ele>116.416707</ele>
        <time>2023-10-13T08:25:47.000Z</time>
      </trkpt>
      <trkpt lat="38.13666" lon="-77.81777">
        <ele>116.58269</ele>
        <time>2023-10-13T08:25:57.000Z</time>
      </trkpt>
      <trkpt lat="38.137475" lon="-77.817814">
        <ele>116.671447</ele>
        <time>2023-10-13T08:26:06.000Z</time>
      </trkpt>
      <trkpt lat="38.138303" lon="-77.818127">
        <ele>116.933236</ele>
        <time>2023-10-13T08:26:16.000Z</time>
      </trkpt>
      <trkpt lat="38.139062" lon="-77.818292">
        <ele>117.430173</ele>
        <time>2023-10-13T08:26:25.000Z</time>
      </trkpt>
      <trkpt lat="38.13944" lon="-77.818273">
        <ele>117.680746</ele>
        <time>2023-10-13T08:26:29.000Z</time>
      </trkpt>
      <trkpt lat="38.140177" lon="-77.817949">
        <ele>118.13666</ele>
        <time>2023-10-13T08:26:38.000Z</time>
      </trkpt>
      <trkpt lat="38.141283" lon="-77.817393">
        <ele>118.784502</ele>
        <time>2023-10-13T08:26:51.000Z</time>
      </trkpt>
      <trkpt lat="38.141371" lon="-77.817328">
        <ele>118.836946</ele>
        <time>2023-10-13T08:26:52.000Z</time>
      </trkpt>
      <trkpt lat="38.14138" lon="-77.817317">
        <ele>118.838108</ele>
        <time>2023-10-13T08:26:52.000Z</time>
      </trkpt>
      <trkpt lat="38.141367" lon="-77.817325">
        <ele>118.839499</ele>
        <time>2023-10-13T08:26:52.000Z</time>
      </trkpt>
      <trkpt lat="38.141378" lon="-77.817322">
        <ele>118.844078</ele>
        <time>2023-10-13T08:26:52.000Z</time>
      </trkpt>
      <trkpt lat="38.141379" lon="-77.81732">
        <ele>118.84508</ele>
        <time>2023-10-13T08:26:52.000Z</time>
      </trkpt>
      <trkpt lat="38.141395" lon="-77.817317">
        <ele>118.846923</ele>
        <time>2023-10-13T08:26:52.000Z</time>
      </trkpt>
      <trkpt lat="38.141387" lon="-77.817303">
        <ele>118.848765</ele>
        <time>2023-10-13T08:26:52.000Z</time>
      </trkpt>
      <trkpt lat="38.141378" lon="-77.817314">
        <ele>118.84976</ele>
        <time>2023-10-13T08:26:52.000Z</time>
      </trkpt>
      <trkpt lat="38.141367" lon="-77.817326">
        <ele>118.854348</ele>
        <time>2023-10-13T08:26:52.000Z</time>
      </trkpt>
      <trkpt lat="38.141364" lon="-77.817315">
        <ele>118.855726</ele>
        <time>2023-10-13T08:26:52.000Z</time>
      </trkpt>
      <trkpt lat="38.141369" lon="-77.817326">
        <ele>118.856883</ele>
        <time>2023-10-13T08:26:52.000Z</time>
      </trkpt>
      <trkpt lat="38.141284" lon="-77.817385">
        <ele>118.814787</ele>
        <time>2023-10-13T08:26:53.000Z</time>
      </trkpt>
      <trkpt lat="38.140185" lon="-77.81795">
        <ele>118.134925</ele>
        <time>2023-10-13T08:27:06.000Z</time>
      </trkpt>
      <trkpt lat="38.13944" lon="-77.818281">
        <ele>117.675603</ele>
        <time>2023-10-13T08:27:15.000Z</time>
      </trkpt>
      <trkpt lat="38.139052" lon="-77.818291">
        <ele>117.431637</ele>
        <time>2023-10-13T08:27:19.000Z</time>
      </trkpt>
      <trkpt lat="38.13829" lon="-77.818113">
        <ele>116.947802</ele>
        <time>2023-10-13T08:27:28.000Z</time>
      </trkpt>
      <trkpt lat="38.137481" lon="-77.817807">
        <ele>116.662937</ele>
        <time>2023-10-13T08:27:37.000Z</time>
      </trkpt>
      <trkpt lat="38.136649" lon="-77.81776">
        <ele>116.578782</ele>
        <time>2023-10-13T08:27:46.000Z</time>
      </trkpt>
      <trkpt lat="38.135807" lon="-77.817559">
        <ele>116.422722</ele>
        <time>2023-10-13T08:27:56.000Z</time>
      </trkpt>
      <trkpt lat="38.135374" lon="-77.817604">
        <ele>116.298483</ele>
        <time>2023-10-13T08:28:01.000Z</time>
      </trkpt>
      <trkpt lat="38.134924" lon="-77.817787">
        <ele>116.167033</ele>
        <time>2023-10-13T08:28:06.000Z</time>
      </trkpt>
      <trkpt lat="38.133382" lon="-77.818661">
        <ele>115.661138</ele>
        <time>2023-10-13T08:28:25.000Z</time>
      </trkpt>
      <trkpt lat="38.133021" lon="-77.818815">
        <ele>115.546689</ele>
        <time>2023-10-13T08:28:29.000Z</time>
      </trkpt>
      <trkpt lat="38.131837" lon="-77.818985">
        <ele>115.28254</ele>
        <time>2023-10-13T08:28:42.000Z</time>
      </trkpt>
      <trkpt lat="38.131202" lon="-77.818893">
        <ele>115.153067</ele>
        <time>2023-10-13T08:28:49.000Z</time>
      </trkpt>
      <trkpt lat="38.130978" lon="-77.818913">
        <ele>115.106733</ele>
        <time>2023-10-13T08:28:51.000Z</time>
      </trkpt>
      <trkpt lat="38.130255" lon="-77.819343">
        <ele>114.948895</ele>
        <time>2023-10-13T08:29:00.000Z</time>
      </trkpt>
      <trkpt lat="38.129349" lon="-77.819618">
        <ele>114.761114</ele>
        <time>2023-10-13T08:29:10.000Z</time>
      </trkpt>
      <trkpt lat="38.128388" lon="-77.820203">
        <ele>114.426054</ele>
        <time>2023-10-13T08:29:22.000Z</time>
      </trkpt>
      <trkpt lat="38.126355" lon="-77.821231">
        <ele>113.63717</ele>
        <time>2023-10-13T08:29:46.000Z</time>
      </trkpt>
      <trkpt lat="38.125311" lon="-77.822187">
        <ele>113.199634</ele>
        <time>2023-10-13T08:30:00.000Z</time>
      </trkpt>
      <trkpt lat="38.124791" lon="-77.822486">
        <ele>113.015175</ele>
        <time>2023-10-13T08:30:06.000Z</time>
      </trkpt>
      <trkpt lat="38.124187" lon="-77.822911">
        <ele>112.703304</ele>
        <time>2023-10-13T08:30:14.000Z</time>
      </trkpt>
      <trkpt lat="38.123045" lon="-77.823255">
        <ele>111.999964</ele>
        <time>2023-10-13T08:30:27.000Z</time>
      </trkpt>
      <trkpt lat="38.122733" lon="-77.823281">
        <ele>111.8219</ele>
        <time>2023-10-13T08:30:30.000Z</time>
      </trkpt>
      <trkpt lat="38.121899" lon="-77.823204">
        <ele>111.616112</ele>
        <time>2023-10-13T08:30:39.000Z</time>
      </trkpt>
      <trkpt lat="38.121131" lon="-77.823296">
        <ele>111.422983</ele>
        <time>2023-10-13T08:30:48.000Z</time>
      </trkpt>
      <trkpt lat="38.120634" lon="-77.823188">
        <ele>111.48737</ele>
        <time>2023-10-13T08:30:54.000Z</time>
      </trkpt>
      <trkpt lat="38.120199" lon="-77.822949">
        <ele>111.632334</ele>
        <time>2023-10-13T08:30:59.000Z</time>
      </trkpt>
      <trkpt lat="38.119981" lon="-77.822868">
        <ele>111.703963</ele>
        <time>2023-10-13T08:31:02.000Z</time>
      </trkpt>
      <trkpt lat="38.119766" lon="-77.822868">
        <ele>111.766999</ele>
        <time>2023-10-13T08:31:04.000Z</time>
      </trkpt>
      <trkpt lat="38.119386" lon="-77.823019">
        <ele>111.889452</ele>
        <time>2023-10-13T08:31:08.000Z</time>
      </trkpt>
      <trkpt lat="38.119164" lon="-77.823171">
        <ele>111.87731</ele>
        <time>2023-10-13T08:31:11.000Z</time>
      </trkpt>
      <trkpt lat="38.118984" lon="-77.822781">
        <ele>111.66883</ele>
        <time>2023-10-13T08:31:15.000Z</time>
      </trkpt>
      <trkpt lat="38.118689" lon="-77.821947">
        <ele>111.243586</ele>
        <time>2023-10-13T08:31:23.000Z</time>
      </trkpt>
      <trkpt lat="38.118454" lon="-77.821588">
        <ele>111.03099</ele>
        <time>2023-10-13T08:31:27.000Z</time>
      </trkpt>
      <trkpt lat="38.117975" lon="-77.821055">
        <ele>110.344548</ele>
        <time>2023-10-13T08:31:34.000Z</time>
      </trkpt>
      <trkpt lat="38.117819" lon="-77.820802">
        <ele>110.015965</ele>
        <time>2023-10-13T08:31:37.000Z</time>
      </trkpt>
      <trkpt lat="38.117704" lon="-77.820397">
        <ele>109.5429</ele>
        <time>2023-10-13T08:31:41.000Z</time>
      </trkpt>
      <trkpt lat="38.117665" lon="-77.819306">
        <ele>108.374533</ele>
        <time>2023-10-13T08:31:51.000Z</time>
      </trkpt>
      <trkpt lat="38.117561" lon="-77.819082">
        <ele>108.154451</ele>
        <time>2023-10-13T08:31:53.000Z</time>
      </trkpt>
      <trkpt lat="38.117343" lon="-77.818827">
        <ele>107.8242</ele>
        <time>2023-10-13T08:31:56.000Z</time>
      </trkpt>
      <trkpt lat="38.117208" lon="-77.81875">
        <ele>107.660103</ele>
        <time>2023-10-13T08:31:58.000Z</time>
      </trkpt>
      <trkpt lat="38.116965" lon="-77.818722">
        <ele>107.399266</ele>
        <time>2023-10-13T08:32:01.000Z</time>
      </trkpt>
      <trkpt lat="38.116662" lon="-77.818759">
        <ele>107.063674</ele>
        <time>2023-10-13T08:32:04.000Z</time>
      </trkpt>
      <trkpt lat="38.115915" lon="-77.818834">
        <ele>106.18868</ele>
        <time>2023-10-13T08:32:12.000Z</time>
      </trkpt>
      <trkpt lat="38.115676" lon="-77.818808">
        <ele>105.864396</ele>
        <time>2023-10-13T08:32:15.000Z</time>
      </trkpt>
      <trkpt lat="38.114359" lon="-77.818079">
        <ele>103.835901</ele>
        <time>2023-10-13T08:32:31.000Z</time>
      </trkpt>
      <trkpt lat="38.114121" lon="-77.817772">
        <ele>103.156323</ele>
        <time>2023-10-13T08:32:35.000Z</time>
      </trkpt>
      <trkpt lat="38.11409" lon="-77.817481">
        <ele>102.714815</ele>
        <time>2023-10-13T08:32:38.000Z</time>
      </trkpt>
      <trkpt lat="38.114267" lon="-77.816319">
        <ele>100.849281</ele>
        <time>2023-10-13T08:32:48.000Z</time>
      </trkpt>
      <trkpt lat="38.114231" lon="-77.816004">
        <ele>100.358928</ele>
        <time>2023-10-13T08:32:51.000Z</time>
      </trkpt>
      <trkpt lat="38.113994" lon="-77.81502">
        <ele>99.01805</ele>
        <time>2023-10-13T08:33:00.000Z</time>
      </trkpt>
      <trkpt lat="38.113973" lon="-77.814667">
        <ele>98.5658</ele>
        <time>2023-10-13T08:33:03.000Z</time>
      </trkpt>
      <trkpt lat="38.114015" lon="-77.814358">
        <ele>98.152958</ele>
        <time>2023-10-13T08:33:06.000Z</time>
      </trkpt>
      <trkpt lat="38.114322" lon="-77.813484">
        <ele>97.115108</ele>
        <time>2023-10-13T08:33:14.000Z</time>
      </trkpt>
      <trkpt lat="38.114354" lon="-77.813066">
        <ele>96.795853</ele>
        <time>2023-10-13T08:33:18.000Z</time>
      </trkpt>
      <trkpt lat="38.114239" lon="-77.812774">
        <ele>96.544709</ele>
        <time>2023-10-13T08:33:21.000Z</time>
      </trkpt>
      <trkpt lat="38.11364" lon="-77.811644">
        <ele>95.732664</ele>
        <time>2023-10-13T08:33:33.000Z</time>
      </trkpt>
      <trkpt lat="38.11344" lon="-77.811753">
        <ele>95.819832</ele>
        <time>2023-10-13T08:33:35.000Z</time>
      </trkpt>
      <trkpt lat="38.113449" lon="-77.811765">
        <ele>95.820367</ele>
        <time>2023-10-13T08:33:35.000Z</time>
      </trkpt>
      <trkpt lat="38.113437" lon="-77.811758">
        <ele>95.82128</ele>
        <time>2023-10-13T08:33:35.000Z</time>
      </trkpt>
      <trkpt lat="38.113444" lon="-77.811753">
        <ele>95.822182</ele>
        <time>2023-10-13T08:33:35.000Z</time>
      </trkpt>
      <trkpt lat="38.11344" lon="-77.811751">
        <ele>95.822726</ele>
        <time>2023-10-13T08:33:35.000Z</time>
      </trkpt>
      <trkpt lat="38.113449" lon="-77.811769">
        <ele>95.82326</ele>
        <time>2023-10-13T08:33:35.000Z</time>
      </trkpt>
      <trkpt lat="38.113437" lon="-77.811758">
        <ele>95.823269</ele>
        <time>2023-10-13T08:33:35.000Z</time>
      </trkpt>
      <trkpt lat="38.113449" lon="-77.811764">
        <ele>95.823269</ele>
        <time>2023-10-13T08:33:35.000Z</time>
      </trkpt>
      <trkpt lat="38.113639" lon="-77.811653">
        <ele>95.913823</ele>
        <time>2023-10-13T08:33:37.000Z</time>
      </trkpt>
      <trkpt lat="38.114249" lon="-77.812783">
        <ele>96.369646</ele>
        <time>2023-10-13T08:33:49.000Z</time>
      </trkpt>
      <trkpt lat="38.114349" lon="-77.813066">
        <ele>96.622012</ele>
        <time>2023-10-13T08:33:52.000Z</time>
      </trkpt>
      <trkpt lat="38.114335" lon="-77.813495">
        <ele>97.081974</ele>
        <time>2023-10-13T08:33:56.000Z</time>
      </trkpt>
      <trkpt lat="38.114006" lon="-77.814352">
        <ele>98.152714</ele>
        <time>2023-10-13T08:34:04.000Z</time>
      </trkpt>
      <trkpt lat="38.113969" lon="-77.814665">
        <ele>98.506789</ele>
        <time>2023-10-13T08:34:07.000Z</time>
      </trkpt>
      <trkpt lat="38.113999" lon="-77.815019">
        <ele>98.894658</ele>
        <time>2023-10-13T08:34:10.000Z</time>
      </trkpt>
      <trkpt lat="38.114231" lon="-77.816005">
        <ele>100.456361</ele>
        <time>2023-10-13T08:34:19.000Z</time>
      </trkpt>
      <trkpt lat="38.114272" lon="-77.816325">
        <ele>100.94353</ele>
        <time>2023-10-13T08:34:22.000Z</time>
      </trkpt>
      <trkpt lat="38.114098" lon="-77.817498">
        <ele>102.731919</ele>
        <time>2023-10-13T08:34:32.000Z</time>
      </trkpt>
      <trkpt lat="38.114117" lon="-77.817759">
        <ele>103.108219</ele>
        <time>2023-10-13T08:34:34.000Z</time>
      </trkpt>
      <trkpt lat="38.114346" lon="-77.818082">
        <ele>103.68747</ele>
        <time>2023-10-13T08:34:38.000Z</time>
      </trkpt>
      <trkpt lat="38.115674" lon="-77.818808">
        <ele>105.917788</ele>
        <time>2023-10-13T08:34:54.000Z</time>
      </trkpt>
      <trkpt lat="38.11591" lon="-77.818833">
        <ele>106.171864</ele>
        <time>2023-10-13T08:34:57.000Z</time>
      </trkpt>
      <trkpt lat="38.116654" lon="-77.818769">
        <ele>106.980152</ele>
        <time>2023-10-13T08:35:05.000Z</time>
      </trkpt>
      <trkpt lat="38.116964" lon="-77.818726">
        <ele>107.311447</ele>
        <time>2023-10-13T08:35:08.000Z</time>
      </trkpt>
      <trkpt lat="38.117209" lon="-77.818756">
        <ele>107.589989</ele>
        <time>2023-10-13T08:35:11.000Z</time>
      </trkpt>
      <trkpt lat="38.117348" lon="-77.818813">
        <ele>107.78943</ele>
        <time>2023-10-13T08:35:13.000Z</time>
      </trkpt>
      <trkpt lat="38.117564" lon="-77.819079">
        <ele>108.190823</ele>
        <time>2023-10-13T08:35:16.000Z</time>
      </trkpt>
      <trkpt lat="38.11766" lon="-77.819296">
        <ele>108.458315</ele>
        <time>2023-10-13T08:35:18.000Z</time>
      </trkpt>
      <trkpt lat="38.117707" lon="-77.820405">
        <ele>109.606989</ele>
        <time>2023-10-13T08:35:28.000Z</time>
      </trkpt>
      <trkpt lat="38.117827" lon="-77.820806">
        <ele>110.026948</ele>
        <time>2023-10-13T08:35:32.000Z</time>
      </trkpt>
      <trkpt lat="38.117978" lon="-77.821048">
        <ele>110.282534</ele>
        <time>2023-10-13T08:35:35.000Z</time>
      </trkpt>
      <trkpt lat="38.118452" lon="-77.821591">
        <ele>110.969132</ele>
        <time>2023-10-13T08:35:42.000Z</time>
      </trkpt>
      <trkpt lat="38.118694" lon="-77.821933">
        <ele>111.354654</ele>
        <time>2023-10-13T08:35:46.000Z</time>
      </trkpt>
      <trkpt lat="38.118993" lon="-77.822793">
        <ele>111.747746</ele>
        <time>2023-10-13T08:35:54.000Z</time>
      </trkpt>
      <trkpt lat="38.119161" lon="-77.823183">
        <ele>111.714719</ele>
        <time>2023-10-13T08:35:58.000Z</time>
      </trkpt>
      <trkpt lat="38.119396" lon="-77.823008">
        <ele>111.690722</ele>
        <time>2023-10-13T08:36:01.000Z</time>
      </trkpt>
      <trkpt lat="38.119776" lon="-77.822863">
        <ele>111.653903</ele>
        <time>2023-10-13T08:36:05.000Z</time>
      </trkpt>
      <trkpt lat="38.11997" lon="-77.822873">
        <ele>111.634962</ele>
        <time>2023-10-13T08:36:07.000Z</time>
      </trkpt>
      <trkpt lat="38.120203" lon="-77.822958">
        <ele>111.613431</ele>
        <time>2023-10-13T08:36:10.000Z</time>
      </trkpt>
      <trkpt lat="38.12064" lon="-77.823181">
        <ele>111.573047</ele>
        <time>2023-10-13T08:36:15.000Z</time>
      </trkpt>
      <trkpt lat="38.121123" lon="-77.823293">
        <ele>111.529666</ele>
        <time>2023-10-13T08:36:20.000Z</time>
      </trkpt>
      <trkpt lat="38.121904" lon="-77.823197">
        <ele>111.462885</ele>
        <time>2023-10-13T08:36:29.000Z</time>
      </trkpt>
      <trkpt lat="38.122741" lon="-77.823269">
        <ele>111.890188</ele>
        <time>2023-10-13T08:36:38.000Z</time>
      </trkpt>
      <trkpt lat="38.123045" lon="-77.823254">
        <ele>112.067397</ele>
        <time>2023-10-13T08:36:41.000Z</time>
      </trkpt>
      <trkpt lat="38.124199" lon="-77.82291">
        <ele>112.672657</ele>
        <time>2023-10-13T08:36:54.000Z</time>
      </trkpt>
      <trkpt lat="38.124792" lon="-77.822484">
        <ele>112.965727</ele>
        <time>2023-10-13T08:37:02.000Z</time>
      </trkpt>
      <trkpt lat="38.125306" lon="-77.822184">
        <ele>113.211844</ele>
        <time>2023-10-13T08:37:08.000Z</time>
      </trkpt>
      <trkpt lat="38.126354" lon="-77.821235">
        <ele>113.649195</ele>
        <time>2023-10-13T08:37:22.000Z</time>
      </trkpt>
      <trkpt lat="38.128392" lon="-77.820218">
        <ele>114.459618</ele>
        <time>2023-10-13T08:37:46.000Z</time>
      </trkpt>
      <trkpt lat="38.129344" lon="-77.819605">
        <ele>114.729167</ele>
        <time>2023-10-13T08:37:58.000Z</time>
      </trkpt>
      <trkpt lat="38.130258" lon="-77.819339">
        <ele>114.933374</ele>
        <time>2023-10-13T08:38:08.000Z</time>
      </trkpt>
      <trkpt lat="38.130977" lon="-77.818912">
        <ele>115.10499</ele>
        <time>2023-10-13T08:38:17.000Z</time>
      </trkpt>
      <trkpt lat="38.131214" lon="-77.818887">
        <ele>115.154859</ele>
        <time>2023-10-13T08:38:20.000Z</time>
      </trkpt>
      <trkpt lat="38.13185" lon="-77.818975">
        <ele>115.294166</ele>
        <time>2023-10-13T08:38:27.000Z</time>
      </trkpt>
      <trkpt lat="38.133022" lon="-77.81882">
        <ele>115.565958</ele>
        <time>2023-10-13T08:38:40.000Z</time>
      </trkpt>
      <trkpt lat="38.133374" lon="-77.81867">
        <ele>115.653434</ele>
        <time>2023-10-13T08:38:44.000Z</time>
      </trkpt>
      <trkpt lat="38.134923" lon="-77.817788">
        <ele>116.192744</ele>
        <time>2023-10-13T08:39:03.000Z</time>
      </trkpt>
      <trkpt lat="38.135369" lon="-77.817597">
        <ele>116.350395</ele>
        <time>2023-10-13T08:39:08.000Z</time>
      </trkpt>
      <trkpt lat="38.135811" lon="-77.817557">
        <ele>116.41487</ele>
        <time>2023-10-13T08:39:13.000Z</time>
      </trkpt>
      <trkpt lat="38.13666" lon="-77.817752">
        <ele>116.534959</ele>
        <time>2023-10-13T08:39:23.000Z</time>
      </trkpt>
      <trkpt lat="38.137468" lon="-77.817819">
        <ele>116.709522</ele>
        <time>2023-10-13T08:39:32.000Z</time>
      </trkpt>
      <trkpt lat="38.138297" lon="-77.818124">
        <ele>116.997371</ele>
        <time>2023-10-13T08:39:42.000Z</time>
      </trkpt>
      <trkpt lat="38.139051" lon="-77.818291">
        <ele>117.316255</ele>
        <time>2023-10-13T08:39:51.000Z</time>
      </trkpt>
      <trkpt lat="38.139443" lon="-77.818273">
        <ele>117.618006</ele>
        <time>2023-10-13T08:39:55.000Z</time>
      </trkpt>
      <trkpt lat="38.140189" lon="-77.817949">
        <ele>118.223072</ele>
        <time>2023-10-13T08:40:04.000Z</time>
      </trkpt>
      <trkpt lat="38.141283" lon="-77.817397">
        <ele>118.563627</ele>
        <time>2023-10-13T08:40:17.000Z</time>
      </trkpt>
      <trkpt lat="38.141367" lon="-77.817316">
        <ele>118.557808</ele>
        <time>2023-10-13T08:40:18.000Z</time>
      </trkpt>
      <trkpt lat="38.141369" lon="-77.817325">
        <ele>118.557688</ele>
        <time>2023-10-13T08:40:18.000Z</time>
      </trkpt>
      <trkpt lat="38.14138" lon="-77.817317">
        <ele>118.557536</ele>
        <time>2023-10-13T08:40:18.000Z</time>
      </trkpt>
      <trkpt lat="38.141379" lon="-77.81732">
        <ele>118.557018</ele>
        <time>2023-10-13T08:40:18.000Z</time>
      </trkpt>
      <trkpt lat="38.14138" lon="-77.817312">
        <ele>118.5569</ele>
        <time>2023-10-13T08:40:18.000Z</time>
      </trkpt>
      <trkpt lat="38.141384" lon="-77.817309">
        <ele>118.556698</ele>
        <time>2023-10-13T08:40:18.000Z</time>
      </trkpt>
      <trkpt lat="38.141385" lon="-77.817307">
        <ele>118.556502</ele>
        <time>2023-10-13T08:40:18.000Z</time>
      </trkpt>
      <trkpt lat="38.141379" lon="-77.817311">
        <ele>118.556387</ele>
        <time>2023-10-13T08:40:18.000Z</time>
      </trkpt>
      <trkpt lat="38.141374" lon="-77.81731">
        <ele>118.555883</ele>
        <time>2023-10-13T08:40:18.000Z</time>
      </trkpt>
      <trkpt lat="38.141382" lon="-77.817325">
        <ele>118.55573</ele>
        <time>2023-10-13T08:40:18.000Z</time>
      </trkpt>
      <trkpt lat="38.14137" lon="-77.817319">
        <ele>118.555603</ele>
        <time>2023-10-13T08:40:18.000Z</time>
      </trkpt>
      <trkpt lat="38.141293" lon="-77.817386">
        <ele>118.549777</ele>
        <time>2023-10-13T08:40:19.000Z</time>
      </trkpt>
      <trkpt lat="38.14018" lon="-77.817965">
        <ele>118.243777</ele>
        <time>2023-10-13T08:40:32.000Z</time>
      </trkpt>
      <trkpt lat="38.139439" lon="-77.818281">
        <ele>117.637217</ele>
        <time>2023-10-13T08:40:41.000Z</time>
      </trkpt>
      <trkpt lat="38.139052" lon="-77.818291">
        <ele>117.334744</ele>
        <time>2023-10-13T08:40:45.000Z</time>
      </trkpt>
      <trkpt lat="38.138293" lon="-77.81812">
        <ele>116.968293</ele>
        <time>2023-10-13T08:40:54.000Z</time>
      </trkpt>
      <trkpt lat="38.137468" lon="-77.817817">
        <ele>116.728584</ele>
        <time>2023-10-13T08:41:04.000Z</time>
      </trkpt>
      <trkpt lat="38.136655" lon="-77.817753">
        <ele>116.540221</ele>
        <time>2023-10-13T08:41:13.000Z</time>
      </trkpt>
      <trkpt lat="38.135812" lon="-77.817552">
        <ele>116.401776</ele>
        <time>2023-10-13T08:41:23.000Z</time>
      </trkpt>
      <trkpt lat="38.13537" lon="-77.817601">
        <ele>116.332068</ele>
        <time>2023-10-13T08:41:28.000Z</time>
      </trkpt>
      <trkpt lat="38.134935" lon="-77.817794">
        <ele>116.200662</ele>
        <time>2023-10-13T08:41:33.000Z</time>
      </trkpt>
      <trkpt lat="38.133373" lon="-77.818675">
        <ele>115.64243</ele>
        <time>2023-10-13T08:41:52.000Z</time>
      </trkpt>
      <trkpt lat="38.133025" lon="-77.818823">
        <ele>115.559139</ele>
        <time>2023-10-13T08:41:56.000Z</time>
      </trkpt>
      <trkpt lat="38.131854" lon="-77.81898">
        <ele>115.298333</ele>
        <time>2023-10-13T08:42:09.000Z</time>
      </trkpt>
      <trkpt lat="38.131199" lon="-77.818889">
        <ele>115.159565</ele>
        <time>2023-10-13T08:42:16.000Z</time>
      </trkpt>
      <trkpt lat="38.130985" lon="-77.818907">
        <ele>115.109937</ele>
        <time>2023-10-13T08:42:18.000Z</time>
      </trkpt>
      <trkpt lat="38.130254" lon="-77.819346">
        <ele>114.939133</ele>
        <time>2023-10-13T08:42:27.000Z</time>
      </trkpt>
      <trkpt lat="38.129347" lon="-77.8196">
        <ele>114.723909</ele>
        <time>2023-10-13T08:42:37.000Z</time>
      </trkpt>
      <trkpt lat="38.128381" lon="-77.820204">
        <ele>114.467699</ele>
        <time>2023-10-13T08:42:49.000Z</time>
      </trkpt>
      <trkpt lat="38.12636" lon="-77.821238">
        <ele>113.643872</ele>
        <time>2023-10-13T08:43:13.000Z</time>
      </trkpt>
      <trkpt lat="38.125316" lon="-77.822188">
        <ele>113.226238</ele>
        <time>2023-10-13T08:43:27.000Z</time>
      </trkpt>
      <trkpt lat="38.124794" lon="-77.822482">
        <ele>112.973311</ele>
        <time>2023-10-13T08:43:33.000Z</time>
      </trkpt>
      <trkpt lat="38.124187" lon="-77.822916">
        <ele>112.658865</ele>
        <time>2023-10-13T08:43:41.000Z</time>
      </trkpt>
      <trkpt lat="38.12305" lon="-77.823239">
        <ele>112.075673</ele>
        <time>2023-10-13T08:43:54.000Z</time>
      </trkpt>
      <trkpt lat="38.122729" lon="-77.823274">
        <ele>111.908396</ele>
        <time>2023-10-13T08:43:58.000Z</time>
      </trkpt>
      <trkpt lat="38.121914" lon="-77.823203">
        <ele>111.462921</ele>
        <time>2023-10-13T08:44:07.000Z</time>
      </trkpt>
      <trkpt lat="38.121131" lon="-77.823286">
        <ele>111.511385</ele>
        <time>2023-10-13T08:44:16.000Z</time>
      </trkpt>
      <trkpt lat="38.12064" lon="-77.823175">
        <ele>111.586951</ele>
        <time>2023-10-13T08:44:22.000Z</time>
      </trkpt>
      <trkpt lat="38.1202" lon="-77.822966">
        <ele>111.65699</ele>
        <time>2023-10-13T08:44:27.000Z</time>
      </trkpt>
      <trkpt lat="38.119974" lon="-77.822886">
        <ele>111.678183</ele>
        <time>2023-10-13T08:44:30.000Z</time>
      </trkpt>
      <trkpt lat="38.11977" lon="-77.822868">
        <ele>111.67804</ele>
        <time>2023-10-13T08:44:32.000Z</time>
      </trkpt>
      <trkpt lat="38.119396" lon="-77.823023">
        <ele>111.67774</ele>
        <time>2023-10-13T08:44:36.000Z</time>
      </trkpt>
      <trkpt lat="38.119163" lon="-77.823189">
        <ele>111.677535</ele>
        <time>2023-10-13T08:44:39.000Z</time>
      </trkpt>
      <trkpt lat="38.118985" lon="-77.822778">
        <ele>111.677275</ele>
        <time>2023-10-13T08:44:43.000Z</time>
      </trkpt>
      <trkpt lat="38.118706" lon="-77.821934">
        <ele>111.413735</ele>
        <time>2023-10-13T08:44:51.000Z</time>
      </trkpt>
      <trkpt lat="38.118465" lon="-77.821593">
        <ele>111.000928</ele>
        <time>2023-10-13T08:44:55.000Z</time>
      </trkpt>
      <trkpt lat="38.117974" lon="-77.821047">
        <ele>110.26576</ele>
        <time>2023-10-13T08:45:02.000Z</time>
      </trkpt>
      <trkpt lat="38.117825" lon="-77.820803">
        <ele>109.992072</ele>
        <time>2023-10-13T08:45:05.000Z</time>
      </trkpt>
      <trkpt lat="38.1177" lon="-77.820401">
        <ele>109.593572</ele>
        <time>2023-10-13T08:45:09.000Z</time>
      </trkpt>
      <trkpt lat="38.117654" lon="-77.819308">
        <ele>108.473484</ele>
        <time>2023-10-13T08:45:19.000Z</time>
      </trkpt>
      <trkpt lat="38.117575" lon="-77.819068">
        <ele>108.212653</ele>
        <time>2023-10-13T08:45:21.000Z</time>
      </trkpt>
      <trkpt lat="38.117341" lon="-77.818818">
        <ele>107.821252</ele>
        <time>2023-10-13T08:45:24.000Z</time>
      </trkpt>
      <trkpt lat="38.117206" lon="-77.818748">
        <ele>107.626782</ele>
        <time>2023-10-13T08:45:26.000Z</time>
      </trkpt>
      <trkpt lat="38.116955" lon="-77.818733">
        <ele>107.317641</ele>
        <time>2023-10-13T08:45:29.000Z</time>
      </trkpt>
      <trkpt lat="38.116661" lon="-77.818764">
        <ele>106.976598</ele>
        <time>2023-10-13T08:45:32.000Z</time>
      </trkpt>
      <trkpt lat="38.115912" lon="-77.818832">
        <ele>106.150618</ele>
        <time>2023-10-13T08:45:40.000Z</time>
      </trkpt>
      <trkpt lat="38.115667" lon="-77.818806">
        <ele>105.890995</ele>
        <time>2023-10-13T08:45:43.000Z</time>
      </trkpt>
      <trkpt lat="38.114351" lon="-77.818085">
        <ele>103.686493</ele>
        <time>2023-10-13T08:45:59.000Z</time>
      </trkpt>
      <trkpt lat="38.114121" lon="-77.817768">
        <ele>103.082817</ele>
        <time>2023-10-13T08:46:03.000Z</time>
      </trkpt>
      <trkpt lat="38.114099" lon="-77.817484">
        <ele>102.690619</ele>
        <time>2023-10-13T08:46:05.000Z</time>
      </trkpt>
      <trkpt lat="38.114275" lon="-77.816315">
        <ele>100.947368</ele>
        <time>2023-10-13T08:46:15.000Z</time>
      </trkpt>
      <trkpt lat="38.114241" lon="-77.816013">
        <ele>100.470545</ele>
        <time>2023-10-13T08:46:18.000Z</time>
      </trkpt>
      <trkpt lat="38.114008" lon="-77.815022">
        <ele>98.916791</ele>
        <time>2023-10-13T08:46:27.000Z</time>
      </trkpt>
      <trkpt lat="38.113979" lon="-77.814668">
        <ele>98.480911</ele>
        <time>2023-10-13T08:46:30.000Z</time>
      </trkpt>
      <trkpt lat="38.114014" lon="-77.814356">
        <ele>98.145186</ele>
        <time>2023-10-13T08:46:33.000Z</time>
      </trkpt>
      <trkpt lat="38.114338" lon="-77.813488">
        <ele>97.129897</ele>
        <time>2023-10-13T08:46:41.000Z</time>
      </trkpt>
      <trkpt lat="38.11435" lon="-77.813077">
        <ele>96.693771</ele>
        <time>2023-10-13T08:46:45.000Z</time>
      </trkpt>
      <trkpt lat="38.114252" lon="-77.81277">
        <ele>96.350712</ele>
        <time>2023-10-13T08:46:48.000Z</time>
      </trkpt>
      <trkpt lat="38.113642" lon="-77.811653">
        <ele>95.91878</ele>
        <time>2023-10-13T08:47:00.000Z</time>
      </trkpt>
      <trkpt lat="38.113458" lon="-77.811753">
        <ele>95.84705</ele>
        <time>2023-10-13T08:47:02.000Z</time>
      </trkpt>
      <trkpt lat="38.113441" lon="-77.811758">
        <ele>95.846609</ele>
        <time>2023-10-13T08:47:02.000Z</time>
      </trkpt>
      <trkpt lat="38.113443" lon="-77.811749">
        <ele>95.845872</ele>
        <time>2023-10-13T08:47:02.000Z</time>
      </trkpt>
      <trkpt lat="38.113452" lon="-77.811762">
        <ele>95.845126</ele>
        <time>2023-10-13T08:47:02.000Z</time>
      </trkpt>
      <trkpt lat="38.113447" lon="-77.811752">
        <ele>95.844671</ele>
        <time>2023-10-13T08:47:02.000Z</time>
      </trkpt>
      <trkpt lat="38.113443" lon="-77.811753">
        <ele>95.844683</ele>
        <time>2023-10-13T08:47:02.000Z</time>
      </trkpt>
      <trkpt lat="38.113437" lon="-77.81176">
        <ele>95.844687</ele>
        <time>2023-10-13T08:47:02.000Z</time>
      </trkpt>
      <trkpt lat="38.113448" lon="-77.811767">
        <ele>95.844325</ele>
        <time>2023-10-13T08:47:02.000Z</time>
      </trkpt>
      <trkpt lat="38.11363" lon="-77.811651">
        <ele>95.769934</ele>
        <time>2023-10-13T08:47:04.000Z</time>
      </trkpt>
      <trkpt lat="38.11424" lon="-77.812785">
        <ele>96.474323</ele>
        <time>2023-10-13T08:47:16.000Z</time>
      </trkpt>
      <trkpt lat="38.114344" lon="-77.813077">
        <ele>96.760982</ele>
        <time>2023-10-13T08:47:19.000Z</time>
      </trkpt>
      <trkpt lat="38.114329" lon="-77.813495">
        <ele>97.125416</ele>
        <time>2023-10-13T08:47:23.000Z</time>
      </trkpt>
      <trkpt lat="38.114012" lon="-77.814364">
        <ele>98.132188</ele>
        <time>2023-10-13T08:47:31.000Z</time>
      </trkpt>
      <trkpt lat="38.113982" lon="-77.814668">
        <ele>98.557749</ele>
        <time>2023-10-13T08:47:34.000Z</time>
      </trkpt>
      <trkpt lat="38.114005" lon="-77.815028">
        <ele>99.023929</ele>
        <time>2023-10-13T08:47:37.000Z</time>
      </trkpt>
      <trkpt lat="38.114241" lon="-77.81601">
        <ele>100.406127</ele>
        <time>2023-10-13T08:47:46.000Z</time>
      </trkpt>
      <trkpt lat="38.114259" lon="-77.816321">
        <ele>100.846675</ele>
        <time>2023-10-13T08:47:49.000Z</time>
      </trkpt>
      <trkpt lat="38.114101" lon="-77.817481">
        <ele>102.690338</ele>
        <time>2023-10-13T08:47:59.000Z</time>
      </trkpt>
      <trkpt lat="38.114115" lon="-77.817776">
        <ele>103.126667</ele>
        <time>2023-10-13T08:48:02.000Z</time>
      </trkpt>
      <trkpt lat="38.114349" lon="-77.81808">
        <ele>103.798276</ele>
        <time>2023-10-13T08:48:06.000Z</time>
      </trkpt>
      <trkpt lat="38.115685" lon="-77.818805">
        <ele>105.846474</ele>
        <time>2023-10-13T08:48:22.000Z</time>
      </trkpt>
      <trkpt lat="38.115906" lon="-77.81884">
        <ele>106.155321</ele>
        <time>2023-10-13T08:48:24.000Z</time>
      </trkpt>
      <trkpt lat="38.11666" lon="-77.818751">
        <ele>107.06539</ele>
        <time>2023-10-13T08:48:32.000Z</time>
      </trkpt>
      <trkpt lat="38.116963" lon="-77.818727">
        <ele>107.410137</ele>
        <time>2023-10-13T08:48:35.000Z</time>
      </trkpt>
      <trkpt lat="38.117204" lon="-77.818741">
        <ele>107.678073</ele>
        <time>2023-10-13T08:48:38.000Z</time>
      </trkpt>
      <trkpt lat="38.117333" lon="-77.818824">
        <ele>107.846631</ele>
        <time>2023-10-13T08:48:40.000Z</time>
      </trkpt>
      <trkpt lat="38.117562" lon="-77.819074">
        <ele>108.185867</ele>
        <time>2023-10-13T08:48:43.000Z</time>
      </trkpt>
      <trkpt lat="38.117661" lon="-77.819301">
        <ele>108.411946</ele>
        <time>2023-10-13T08:48:45.000Z</time>
      </trkpt>
      <trkpt lat="38.117699" lon="-77.82041">
        <ele>109.5267</ele>
        <time>2023-10-13T08:48:55.000Z</time>
      </trkpt>
      <trkpt lat="38.11783" lon="-77.820805">
        <ele>109.9922</ele>
        <time>2023-10-13T08:48:59.000Z</time>
      </trkpt>
      <trkpt lat="38.117977" lon="-77.821049">
        <ele>110.315535</ele>
        <time>2023-10-13T08:49:02.000Z</time>
      </trkpt>
      <trkpt lat="38.118453" lon="-77.821598">
        <ele>111.110755</ele>
        <time>2023-10-13T08:49:09.000Z</time>
      </trkpt>
      <trkpt lat="38.118705" lon="-77.821947">
        <ele>111.280714</ele>
        <time>2023-10-13T08:49:13.000Z</time>
      </trkpt>
      <trkpt lat="38.118985" lon="-77.822791">
        <ele>111.620625</ele>
        <time>2023-10-13T08:49:21.000Z</time>
      </trkpt>
      <trkpt lat="38.11916" lon="-77.823187">
        <ele>111.787274</ele>
        <time>2023-10-13T08:49:25.000Z</time>
      </trkpt>
      <trkpt lat="38.119397" lon="-77.82301">
        <ele>111.908333</ele>
        <time>2023-10-13T08:49:28.000Z</time>
      </trkpt>
      <trkpt lat="38.119766" lon="-77.822869">
        <ele>111.794859</ele>
        <time>2023-10-13T08:49:32.000Z</time>
      </trkpt>
      <trkpt lat="38.119974" lon="-77.82288">
        <ele>111.731578</ele>
        <time>2023-10-13T08:49:34.000Z</time>
      </trkpt>
      <trkpt lat="38.1202" lon="-77.822949">
        <ele>111.659677</ele>
        <time>2023-10-13T08:49:37.000Z</time>
      </trkpt>
      <trkpt lat="38.120626" lon="-77.823176">
        <ele>111.514131</ele>
        <time>2023-10-13T08:49:42.000Z</time>
      </trkpt>
      <trkpt lat="38.121138" lon="-77.823295">
        <ele>111.357145</ele>
        <time>2023-10-13T08:49:48.000Z</time>
      </trkpt>
      <trkpt lat="38.121904" lon="-77.823189">
        <ele>111.606088</ele>
        <time>2023-10-13T08:49:57.000Z</time>
      </trkpt>
      <trkpt lat="38.122743" lon="-77.823285">
        <ele>111.873076</ele>
        <time>2023-10-13T08:50:06.000Z</time>
      </trkpt>
      <trkpt lat="38.123046" lon="-77.823246">
        <ele>112.00406</ele>
        <time>2023-10-13T08:50:09.000Z</time>
      </trkpt>
      <trkpt lat="38.124186" lon="-77.822903">
        <ele>112.68297</ele>
        <time>2023-10-13T08:50:22.000Z</time>
      </trkpt>
      <trkpt lat="38.124787" lon="-77.822477">
        <ele>113.029748</ele>
        <time>2023-10-13T08:50:30.000Z</time>
      </trkpt>
      <trkpt lat="38.125313" lon="-77.822171">
        <ele>113.210435</ele>
        <time>2023-10-13T08:50:36.000Z</time>
      </trkpt>
      <trkpt lat="38.126354" lon="-77.821235">
        <ele>113.631377</ele>
        <time>2023-10-13T08:50:50.000Z</time>
      </trkpt>
      <trkpt lat="38.128383" lon="-77.820215">
        <ele>114.427193</ele>
        <time>2023-10-13T08:51:14.000Z</time>
      </trkpt>
      <trkpt lat="38.129345" lon="-77.819605">
        <ele>114.749456</ele>
        <time>2023-10-13T08:51:26.000Z</time>
      </trkpt>
      <trkpt lat="38.130264" lon="-77.81934">
        <ele>114.950885</ele>
        <time>2023-10-13T08:51:36.000Z</time>
      </trkpt>
      <trkpt lat="38.130981" lon="-77.818921">
        <ele>115.11177</ele>
        <time>2023-10-13T08:51:45.000Z</time>
      </trkpt>
      <trkpt lat="38.131202" lon="-77.818889">
        <ele>115.158357</ele>
        <time>2023-10-13T08:51:47.000Z</time>
      </trkpt>
      <trkpt lat="38.131852" lon="-77.818981">
        <ele>115.28732</ele>
        <time>2023-10-13T08:51:54.000Z</time>
      </trkpt>
      <trkpt lat="38.133016" lon="-77.818815">
        <ele>115.534791</ele>
        <time>2023-10-13T08:52:07.000Z</time>
      </trkpt>
      <trkpt lat="38.133384" lon="-77.818664">
        <ele>115.654373</ele>
        <time>2023-10-13T08:52:11.000Z</time>
      </trkpt>
      <trkpt lat="38.134926" lon="-77.817784">
        <ele>116.172787</ele>
        <time>2023-10-13T08:52:30.000Z</time>
      </trkpt>
      <trkpt lat="38.135363" lon="-77.81761">
        <ele>116.293224</ele>
        <time>2023-10-13T08:52:35.000Z</time>
      </trkpt>
      <trkpt lat="38.13581" lon="-77.817563">
        <ele>116.407065</ele>
        <time>2023-10-13T08:52:40.000Z</time>
      </trkpt>
      <trkpt lat="38.136649" lon="-77.817762">
        <ele>116.587196</ele>
        <time>2023-10-13T08:52:49.000Z</time>
      </trkpt>
      <trkpt lat="38.137477" lon="-77.817813">
        <ele>116.686892</ele>
        <time>2023-10-13T08:52:58.000Z</time>
      </trkpt>
      <trkpt lat="38.138306" lon="-77.81811">
        <ele>116.905332</ele>
        <time>2023-10-13T08:53:08.000Z</time>
      </trkpt>
      <trkpt lat="38.139053" lon="-77.818303">
        <ele>117.423917</ele>
        <time>2023-10-13T08:53:16.000Z</time>
      </trkpt>
      <trkpt lat="38.139451" lon="-77.818282">
        <ele>117.685371</ele>
        <time>2023-10-13T08:53:20.000Z</time>
      </trkpt>
      <trkpt lat="38.140178" lon="-77.817967">
        <ele>118.145724</ele>
        <time>2023-10-13T08:53:29.000Z</time>
      </trkpt>
      <trkpt lat="38.14129" lon="-77.8174">
        <ele>118.730651</ele>
        <time>2023-10-13T08:53:42.000Z</time>
      </trkpt>
      <trkpt lat="38.141373" lon="-77.817315">
        <ele>118.777999</ele>
        <time>2023-10-13T08:53:43.000Z</time>
      </trkpt>
      <trkpt lat="38.141372" lon="-77.817316">
        <ele>118.779041</ele>
        <time>2023-10-13T08:53:43.000Z</time>
      </trkpt>
      <trkpt lat="38.141366" lon="-77.817311">
        <ele>118.78029</ele>
        <time>2023-10-13T08:53:43.000Z</time>
      </trkpt>
      <trkpt lat="38.141373" lon="-77.81732">
        <ele>118.78443</ele>
        <time>2023-10-13T08:53:43.000Z</time>
      </trkpt>
      <trkpt lat="38.141377" lon="-77.817315">
        <ele>118.785347</ele>
        <time>2023-10-13T08:53:43.000Z</time>
      </trkpt>
      <trkpt lat="38.141382" lon="-77.817315">
        <ele>118.786257</ele>
        <time>2023-10-13T08:53:43.000Z</time>
      </trkpt>
      <trkpt lat="38.14137" lon="-77.817316">
        <ele>118.790386</ele>
        <time>2023-10-13T08:53:43.000Z</time>
      </trkpt>
      <trkpt lat="38.141376" lon="-77.817313">
        <ele>118.791638</ele>
        <time>2023-10-13T08:53:43.000Z</time>
      </trkpt>
      <trkpt lat="38.141378" lon="-77.817317">
        <ele>118.792697</ele>
        <time>2023-10-13T08:53:43.000Z</time>
      </trkpt>
      <trkpt lat="38.141282" lon="-77.817389">
        <ele>118.840026</ele>
        <time>2023-10-13T08:53:44.000Z</time>
      </trkpt>
      <trkpt lat="38.140176" lon="-77.817954">
        <ele>118.137081</ele>
        <time>2023-10-13T08:53:57.000Z</time>
      </trkpt>
      <trkpt lat="38.139439" lon="-77.818282">
        <ele>117.659943</ele>
        <time>2023-10-13T08:54:06.000Z</time>
      </trkpt>
      <trkpt lat="38.13905" lon="-77.818294">
        <ele>117.42965</ele>
        <time>2023-10-13T08:54:10.000Z</time>
      </trkpt>
      <trkpt lat="38.138305" lon="-77.818123">
        <ele>116.972945</ele>
        <time>2023-10-13T08:54:18.000Z</time>
      </trkpt>
      <trkpt lat="38.137472" lon="-77.817818">
        <ele>116.647749</ele>
        <time>2023-10-13T08:54:28.000Z</time>
      </trkpt>
      <trkpt lat="38.136651" lon="-77.817768">
        <ele>116.569324</ele>
        <time>2023-10-13T08:54:37.000Z</time>
      </trkpt>
      <trkpt lat="38.135811" lon="-77.817562">
        <ele>116.434907</ele>
        <time>2023-10-13T08:54:47.000Z</time>
      </trkpt>
      <trkpt lat="38.135374" lon="-77.817614">
        <ele>116.30459</ele>
        <time>2023-10-13T08:54:52.000Z</time>
      </trkpt>
      <trkpt lat="38.134933" lon="-77.817786">
        <ele>116.166705</ele>
        <time>2023-10-13T08:54:57.000Z</time>
      </trkpt>
      <trkpt lat="38.133376" lon="-77.818661">
        <ele>115.664319</ele>
        <time>2023-10-13T08:55:16.000Z</time>
      </trkpt>
      <trkpt lat="38.133016" lon="-77.818814">
        <ele>115.553623</ele>
        <time>2023-10-13T08:55:20.000Z</time>
      </trkpt>
      <trkpt lat="38.13185" lon="-77.818984">
        <ele>115.280526</ele>
        <time>2023-10-13T08:55:33.000Z</time>
      </trkpt>
      <trkpt lat="38.131215" lon="-77.818892">
        <ele>115.150275</ele>
        <time>2023-10-13T08:55:40.000Z</time>
      </trkpt>
      <trkpt lat="38.130985" lon="-77.818922">
        <ele>115.103653</ele>
        <time>2023-10-13T08:55:43.000Z</time>
      </trkpt>
      <trkpt lat="38.130269" lon="-77.819332">
        <ele>114.946498</ele>
        <time>2023-10-13T08:55:52.000Z</time>
      </trkpt>
      <trkpt lat="38.129347" lon="-77.819615">
        <ele>114.760207</ele>
        <time>2023-10-13T08:56:03.000Z</time>
      </trkpt>
      <trkpt lat="38.128376" lon="-77.820211">
        <ele>114.427655</ele>
        <time>2023-10-13T08:56:15.000Z</time>
      </trkpt>
      <trkpt lat="38.126358" lon="-77.821238">
        <ele>113.640952</ele>
        <time>2023-10-13T08:56:39.000Z</time>
      </trkpt>
      <trkpt lat="38.125314" lon="-77.822181">
        <ele>113.192811</ele>
        <time>2023-10-13T08:56:53.000Z</time>
      </trkpt>
      <trkpt lat="38.124795" lon="-77.82247">
        <ele>113.003925</ele>
        <time>2023-10-13T08:56:59.000Z</time>
      </trkpt>
      <trkpt lat="38.124184" lon="-77.822905">
        <ele>112.718158</ele>
        <time>2023-10-13T08:57:07.000Z</time>
      </trkpt>
      <trkpt lat="38.123042" lon="-77.823255">
        <ele>112.003647</ele>
        <time>2023-10-13T08:57:20.000Z</time>
      </trkpt>
      <trkpt lat="38.122727" lon="-77.823276">
        <ele>111.814447</ele>
        <time>2023-10-13T08:57:24.000Z</time>
      </trkpt>
      <trkpt lat="38.121901" lon="-77.823188">
        <ele>111.613634</ele>
        <time>2023-10-13T08:57:33.000Z</time>
      </trkpt>
      <trkpt lat="38.121137" lon="-77.823287">
        <ele>111.460242</ele>
        <time>2023-10-13T08:57:42.000Z</time>
      </trkpt>
      <trkpt lat="38.120635" lon="-77.823185">
        <ele>111.472948</ele>
        <time>2023-10-13T08:57:48.000Z</time>
      </trkpt>
      <trkpt lat="38.120201" lon="-77.822955">
        <ele>111.613438</ele>
        <time>2023-10-13T08:57:53.000Z</time>
      </trkpt>
      <trkpt lat="38.119966" lon="-77.822874">
        <ele>111.682861</ele>
        <time>2023-10-13T08:57:56.000Z</time>
      </trkpt>
      <trkpt lat="38.11977" lon="-77.822866">
        <ele>111.743936</ele>
        <time>2023-10-13T08:57:58.000Z</time>
      </trkpt>
      <trkpt lat="38.119393" lon="-77.823013">
        <ele>111.862626</ele>
        <time>2023-10-13T08:58:02.000Z</time>
      </trkpt>
      <trkpt lat="38.119158" lon="-77.823176">
        <ele>111.939974</ele>
        <time>2023-10-13T08:58:05.000Z</time>
      </trkpt>
      <trkpt lat="38.118981" lon="-77.822795">
        <ele>111.714977</ele>
        <time>2023-10-13T08:58:09.000Z</time>
      </trkpt>
      <trkpt lat="38.118706" lon="-77.821948">
        <ele>111.232788</ele>
        <time>2023-10-13T08:58:17.000Z</time>
      </trkpt>
      <trkpt lat="38.118453" lon="-77.821597">
        <ele>110.991705</ele>
        <time>2023-10-13T08:58:21.000Z</time>
      </trkpt>
      <trkpt lat="38.11798" lon="-77.821055">
        <ele>110.363654</ele>
        <time>2023-10-13T08:58:28.000Z</time>
      </trkpt>
      <trkpt lat="38.117824" lon="-77.820805">
        <ele>110.033089</ele>
        <time>2023-10-13T08:58:31.000Z</time>
      </trkpt>
      <trkpt lat="38.117704" lon="-77.820402">
        <ele>109.557189</ele>
        <time>2023-10-13T08:58:35.000Z</time>
      </trkpt>
      <trkpt lat="38.117653" lon="-77.819305">
        <ele>108.368713</ele>
        <time>2023-10-13T08:58:45.000Z</time>
      </trkpt>
      <trkpt lat="38.117576" lon="-77.81908">
        <ele>108.131722</ele>
        <time>2023-10-13T08:58:47.000Z</time>
      </trkpt>
      <trkpt lat="38.117349" lon="-77.818826">
        <ele>107.805831</ele>
        <time>2023-10-13T08:58:50.000Z</time>
      </trkpt>
      <trkpt lat="38.117207" lon="-77.818749">
        <ele>107.643894</ele>
        <time>2023-10-13T08:58:52.000Z</time>
      </trkpt>
      <trkpt lat="38.116971" lon="-77.818735">
        <ele>107.386488</ele>
        <time>2023-10-13T08:58:55.000Z</time>
      </trkpt>
      <trkpt lat="38.11665" lon="-77.818762">
        <ele>107.055314</ele>
        <time>2023-10-13T08:58:59.000Z</time>
      </trkpt>
      <trkpt lat="38.115917" lon="-77.818843">
        <ele>106.218719</ele>
        <time>2023-10-13T08:59:07.000Z</time>
      </trkpt>
      <trkpt lat="38.115667" lon="-77.818793">
        <ele>105.883783</ele>
        <time>2023-10-13T08:59:10.000Z</time>
      </trkpt>
      <trkpt lat="38.114359" lon="-77.818082">
        <ele>103.836276</ele>
        <time>2023-10-13T08:59:26.000Z</time>
      </trkpt>
      <trkpt lat="38.114124" lon="-77.817759">
        <ele>103.176863</ele>
        <time>2023-10-13T08:59:30.000Z</time>
      </trkpt>
      <trkpt lat="38.114089" lon="-77.81749">
        <ele>102.733247</ele>
        <time>2023-10-13T08:59:32.000Z</time>
      </trkpt>
      <trkpt lat="38.114266" lon="-77.81632">
        <ele>100.858749</ele>
        <time>2023-10-13T08:59:42.000Z</time>
      </trkpt>
      <trkpt lat="38.114246" lon="-77.816014">
        <ele>100.358688</ele>
        <time>2023-10-13T08:59:45.000Z</time>
      </trkpt>
      <trkpt lat="38.114002" lon="-77.815022">
        <ele>99.007882</ele>
        <time>2023-10-13T08:59:54.000Z</time>
      </trkpt>
      <trkpt lat="38.113971" lon="-77.814666">
        <ele>98.564503</ele>
        <time>2023-10-13T08:59:57.000Z</time>
      </trkpt>
      <trkpt lat="38.114008" lon="-77.814368">
        <ele>98.159751</ele>
        <time>2023-10-13T09:00:00.000Z</time>
      </trkpt>
      <trkpt lat="38.114322" lon="-77.81349">
        <ele>97.074213</ele>
        <time>2023-10-13T09:00:08.000Z</time>
      </trkpt>
      <trkpt lat="38.114354" lon="-77.813077">
        <ele>96.772535</ele>
        <time>2023-10-13T09:00:12.000Z</time>
      </trkpt>
      <trkpt lat="38.114243" lon="-77.812771">
        <ele>96.53524</ele>
        <time>2023-10-13T09:00:15.000Z</time>
      </trkpt>
      <trkpt lat="38.113635" lon="-77.811643">
        <ele>95.624589</ele>
        <time>2023-10-13T09:00:27.000Z</time>
      </trkpt>
      <trkpt lat="38.113446" lon="-77.811753">
        <ele>95.735398</ele>
        <time>2023-10-13T09:00:29.000Z</time>
      </trkpt>
      <trkpt lat="38.113444" lon="-77.811754">
        <ele>95.736083</ele>
        <time>2023-10-13T09:00:29.000Z</time>
      </trkpt>
      <trkpt lat="38.113443" lon="-77.811767">
        <ele>95.737242</ele>
        <time>2023-10-13T09:00:29.000Z</time>
      </trkpt>
      <trkpt lat="38.113436" lon="-77.811766">
        <ele>95.738393</ele>
        <time>2023-10-13T09:00:29.000Z</time>
      </trkpt>
      <trkpt lat="38.113438" lon="-77.811767">
        <ele>95.738393</ele>
        <time>2023-10-13T09:00:29.000Z</time>
      </trkpt>
      <trkpt lat="38.11344" lon="-77.811755">
        <ele>95.738388</ele>
        <time>2023-10-13T09:00:29.000Z</time>
      </trkpt>
      <trkpt lat="38.113634" lon="-77.811648">
        <ele>95.852172</ele>
        <time>2023-10-13T09:00:31.000Z</time>
      </trkpt>
      <trkpt lat="38.114249" lon="-77.812782">
        <ele>96.431657</ele>
        <time>2023-10-13T09:00:43.000Z</time>
      </trkpt>
      <trkpt lat="38.114347" lon="-77.813067">
        <ele>96.592329</ele>
        <time>2023-10-13T09:00:46.000Z</time>
      </trkpt>
      <trkpt lat="38.114332" lon="-77.813489">
        <ele>97.063787</ele>
        <time>2023-10-13T09:00:50.000Z</time>
      </trkpt>
      <trkpt lat="38.114006" lon="-77.814364">
        <ele>98.161335</ele>
        <time>2023-10-13T09:00:58.000Z</time>
      </trkpt>
      <trkpt lat="38.113975" lon="-77.814678">
        <ele>98.524269</ele>
        <time>2023-10-13T09:01:01.000Z</time>
      </trkpt>
      <trkpt lat="38.113993" lon="-77.815015">
        <ele>98.921829</ele>
        <time>2023-10-13T09:01:04.000Z</time>
      </trkpt>
      <trkpt lat="38.114244" lon="-77.816011">
        <ele>100.439995</ele>
        <time>2023-10-13T09:01:13.000Z</time>
      </trkpt>
      <trkpt lat="38.114268" lon="-77.816327">
        <ele>100.932953</ele>
        <time>2023-10-13T09:01:16.000Z</time>
      </trkpt>
      <trkpt lat="38.114092" lon="-77.817488">
        <ele>102.770991</ele>
        <time>2023-10-13T09:01:26.000Z</time>
      </trkpt>
      <trkpt lat="38.114117" lon="-77.817777">
        <ele>103.135978</ele>
        <time>2023-10-13T09:01:29.000Z</time>
      </trkpt>
      <trkpt lat="38.114357" lon="-77.818094">
        <ele>103.697759</ele>
        <time>2023-10-13T09:01:33.000Z</time>
      </trkpt>
      <trkpt lat="38.115682" lon="-77.8188">
        <ele>105.938147</ele>
        <time>2023-10-13T09:01:49.000Z</time>
      </trkpt>
      <trkpt lat="38.115906" lon="-77.818828">
        <ele>106.189608</ele>
        <time>2023-10-13T09:01:52.000Z</time>
      </trkpt>
      <trkpt lat="38.116663" lon="-77.818753">
        <ele>106.989594</ele>
        <time>2023-10-13T09:02:00.000Z</time>
      </trkpt>
      <trkpt lat="38.116964" lon="-77.818718">
        <ele>107.317489</ele>
        <time>2023-10-13T09:02:03.000Z</time>
      </trkpt>
      <trkpt lat="38.117195" lon="-77.818743">
        <ele>107.572344</ele>
        <time>2023-10-13T09:02:06.000Z</time>
      </trkpt>
      <trkpt lat="38.117339" lon="-77.818814">
        <ele>107.764714</ele>
        <time>2023-10-13T09:02:08.000Z</time>
      </trkpt>
      <trkpt lat="38.117569" lon="-77.819081">
        <ele>108.171648</ele>
        <time>2023-10-13T09:02:11.000Z</time>
      </trkpt>
      <trkpt lat="38.117665" lon="-77.81931">
        <ele>108.442859</ele>
        <time>2023-10-13T09:02:13.000Z</time>
      </trkpt>
      <trkpt lat="38.117692" lon="-77.820397">
        <ele>109.607443</ele>
        <time>2023-10-13T09:02:23.000Z</time>
      </trkpt>
      <trkpt lat="38.117831" lon="-77.820814">
        <ele>110.063132</ele>
        <time>2023-10-13T09:02:27.000Z</time>
      </trkpt>
      <trkpt lat="38.117979" lon="-77.821046">
        <ele>110.304421</ele>
        <time>2023-10-13T09:02:30.000Z</time>
      </trkpt>
      <trkpt lat="38.11845" lon="-77.821602">
        <ele>110.952601</ele>
        <time>2023-10-13T09:02:37.000Z</time>
      </trkpt>
      <trkpt lat="38.1187" lon="-77.821937">
        <ele>111.316553</ele>
        <time>2023-10-13T09:02:41.000Z</time>
      </trkpt>
      <trkpt lat="38.118982" lon="-77.822782">
        <ele>111.805033</ele>
        <time>2023-10-13T09:02:49.000Z</time>
      </trkpt>
      <trkpt lat="38.119169" lon="-77.823172">
        <ele>111.751448</ele>
        <time>2023-10-13T09:02:53.000Z</time>
      </trkpt>
      <trkpt lat="38.119395" lon="-77.823017">
        <ele>111.71253</ele>
        <time>2023-10-13T09:02:56.000Z</time>
      </trkpt>
      <trkpt lat="38.119773" lon="-77.822867">
        <ele>111.652803</ele>
        <time>2023-10-13T09:03:00.000Z</time>
      </trkpt>
      <trkpt lat="38.119975" lon="-77.822869">
        <ele>111.622054</ele>
        <time>2023-10-13T09:03:02.000Z</time>
      </trkpt>
      <trkpt lat="38.120202" lon="-77.82295">
        <ele>111.587125</ele>
        <time>2023-10-13T09:03:05.000Z</time>
      </trkpt>
      <trkpt lat="38.120637" lon="-77.82318">
        <ele>111.553313</ele>
        <time>2023-10-13T09:03:10.000Z</time>
      </trkpt>
      <trkpt lat="38.121139" lon="-77.823284">
        <ele>111.53448</ele>
        <time>2023-10-13T09:03:16.000Z</time>
      </trkpt>
      <trkpt lat="38.121902" lon="-77.823191">
        <ele>111.505507</ele>
        <time>2023-10-13T09:03:25.000Z</time>
      </trkpt>
      <trkpt lat="38.122727" lon="-77.82327">
        <ele>111.87492</ele>
        <time>2023-10-13T09:03:34.000Z</time>
      </trkpt>
      <trkpt lat="38.123053" lon="-77.823245">
        <ele>112.057544</ele>
        <time>2023-10-13T09:03:38.000Z</time>
      </trkpt>
      <trkpt lat="38.12419" lon="-77.822906">
        <ele>112.687084</ele>
        <time>2023-10-13T09:03:51.000Z</time>
      </trkpt>
      <trkpt lat="38.12478" lon="-77.822474">
        <ele>112.96518</ele>
        <time>2023-10-13T09:03:59.000Z</time>
      </trkpt>
      <trkpt lat="38.125318" lon="-77.822186">
        <ele>113.198707</ele>
        <time>2023-10-13T09:04:05.000Z</time>
      </trkpt>
      <trkpt lat="38.126359" lon="-77.821231">
        <ele>113.651186</ele>
        <time>2023-10-13T09:04:19.000Z</time>
      </trkpt>
      <trkpt lat="38.128378" lon="-77.82021">
        <ele>114.453104</ele>
        <time>2023-10-13T09:04:43.000Z</time>
      </trkpt>
      <trkpt lat="38.129342" lon="-77.819607">
        <ele>114.735472</ele>
        <time>2023-10-13T09:04:55.000Z</time>
      </trkpt>
      <trkpt lat="38.13026" lon="-77.819344">
        <ele>114.93265</ele>
        <time>2023-10-13T09:05:05.000Z</time>
      </trkpt>
      <trkpt lat="38.130971" lon="-77.818921">
        <ele>115.101963</ele>
        <time>2023-10-13T09:05:14.000Z</time>
      </trkpt>
      <trkpt lat="38.131205" lon="-77.818893">
        <ele>115.151352</ele>
        <time>2023-10-13T09:05:17.000Z</time>
      </trkpt>
      <trkpt lat="38.13184" lon="-77.818975">
        <ele>115.289342</ele>
        <time>2023-10-13T09:05:24.000Z</time>
      </trkpt>
      <trkpt lat="38.133026" lon="-77.818823">
        <ele>115.568256</ele>
        <time>2023-10-13T09:05:37.000Z</time>
      </trkpt>
      <trkpt lat="38.133376" lon="-77.818662">
        <ele>115.659593</ele>
        <time>2023-10-13T09:05:41.000Z</time>
      </trkpt>
      <trkpt lat="38.134927" lon="-77.817789">
        <ele>116.186553</ele>
        <time>2023-10-13T09:06:00.000Z</time>
      </trkpt>
      <trkpt lat="38.135372" lon="-77.817603">
        <ele>116.342536</ele>
        <time>2023-10-13T09:06:05.000Z</time>
      </trkpt>
      <trkpt lat="38.135812" lon="-77.817547">
        <ele>116.426683</ele>
        <time>2023-10-13T09:06:10.000Z</time>
      </trkpt>
      <trkpt lat="38.136648" lon="-77.817757">
        <ele>116.53477</ele>
        <time>2023-10-13T09:06:19.000Z</time>
      </trkpt>
      <trkpt lat="38.137468" lon="-77.817811">
        <ele>116.685107</ele>
        <time>2023-10-13T09:06:28.000Z</time>
      </trkpt>
      <trkpt lat="38.138295" lon="-77.818113">
        <ele>117.010948</ele>
        <time>2023-10-13T09:06:38.000Z</time>
      </trkpt>
      <trkpt lat="38.139058" lon="-77.818305">
        <ele>117.310751</ele>
        <time>2023-10-13T09:06:47.000Z</time>
      </trkpt>
      <trkpt lat="38.139453" lon="-77.818286">
        <ele>117.609174</ele>
        <time>2023-10-13T09:06:51.000Z</time>
      </trkpt>
      <trkpt lat="38.140192" lon="-77.81795">
        <ele>118.207601</ele>
        <time>2023-10-13T09:07:00.000Z</time>
      </trkpt>
      <trkpt lat="38.141299" lon="-77.817393">
        <ele>118.591407</ele>
        <time>2023-10-13T09:07:13.000Z</time>
      </trkpt>
      <trkpt lat="38.141367" lon="-77.817319">
        <ele>118.577023</ele>
        <time>2023-10-13T09:07:14.000Z</time>
      </trkpt>
      <trkpt lat="38.141377" lon="-77.817319">
        <ele>118.576705</ele>
        <time>2023-10-13T09:07:14.000Z</time>
      </trkpt>
      <trkpt lat="38.141384" lon="-77.817321">
        <ele>118.576329</ele>
        <time>2023-10-13T09:07:14.000Z</time>
      </trkpt>
      <trkpt lat="38.141379" lon="-77.817322">
        <ele>118.575063</ele>
        <time>2023-10-13T09:07:14.000Z</time>
      </trkpt>
      <trkpt lat="38.141378" lon="-77.817308">
        <ele>118.574789</ele>
        <time>2023-10-13T09:07:14.000Z</time>
      </trkpt>
      <trkpt lat="38.141391" lon="-77.817318">
        <ele>118.574288</ele>
        <time>2023-10-13T09:07:14.000Z</time>
      </trkpt>
      <trkpt lat="38.141388" lon="-77.817305">
        <ele>118.574096</ele>
        <time>2023-10-13T09:07:14.000Z</time>
      </trkpt>
      <trkpt lat="38.141379" lon="-77.817307">
        <ele>118.573901</ele>
        <time>2023-10-13T09:07:14.000Z</time>
      </trkpt>
      <trkpt lat="38.14138" lon="-77.817315">
        <ele>118.573406</ele>
        <time>2023-10-13T09:07:14.000Z</time>
      </trkpt>
      <trkpt lat="38.141379" lon="-77.817314">
        <ele>118.573135</ele>
        <time>2023-10-13T09:07:14.000Z</time>
      </trkpt>
      <trkpt lat="38.141371" lon="-77.81731">
        <ele>118.571868</ele>
        <time>2023-10-13T09:07:14.000Z</time>
      </trkpt>
      <trkpt lat="38.141375" lon="-77.817315">
        <ele>118.571488</ele>
        <time>2023-10-13T09:07:14.000Z</time>
      </trkpt>
      <trkpt lat="38.141375" lon="-77.817315">
        <ele>118.571172</ele>
        <time>2023-10-13T09:07:14.000Z</time>
      </trkpt>
      <trkpt lat="38.141282" lon="-77.8174">
        <ele>118.556785</ele>
        <time>2023-10-13T09:07:15.000Z</time>
      </trkpt>
      <trkpt lat="38.140179" lon="-77.817958">
        <ele>118.249384</ele>
        <time>2023-10-13T09:07:28.000Z</time>
      </trkpt>
      <trkpt lat="38.139441" lon="-77.818289">
        <ele>117.649883</ele>
        <time>2023-10-13T09:07:37.000Z</time>
      </trkpt>
      <trkpt lat="38.139054" lon="-77.818307">
        <ele>117.350929</ele>
        <time>2023-10-13T09:07:41.000Z</time>
      </trkpt>
      <trkpt lat="38.138298" lon="-77.818122">
        <ele>116.942538</ele>
        <time>2023-10-13T09:07:50.000Z</time>
      </trkpt>
      <trkpt lat="38.137468" lon="-77.817819">
        <ele>116.733129</ele>
        <time>2023-10-13T09:08:00.000Z</time>
      </trkpt>
      <trkpt lat="38.136647" lon="-77.817754">
        <ele>116.547832</ele>
        <time>2023-10-13T09:08:09.000Z</time>
      </trkpt>
      <trkpt lat="38.135796" lon="-77.817548">
        <ele>116.395496</ele>
        <time>2023-10-13T09:08:19.000Z</time>
      </trkpt>
      <trkpt lat="38.135368" lon="-77.817607">
        <ele>116.318786</ele>
        <time>2023-10-13T09:08:24.000Z</time>
      </trkpt>
      <trkpt lat="38.134932" lon="-77.817793">
        <ele>116.204823</ele>
        <time>2023-10-13T09:08:29.000Z</time>
      </trkpt>
      <trkpt lat="38.133377" lon="-77.818661">
        <ele>115.634081</ele>
        <time>2023-10-13T09:08:48.000Z</time>
      </trkpt>
      <trkpt lat="38.133029" lon="-77.818829">
        <ele>115.553082</ele>
        <time>2023-10-13T09:08:52.000Z</time>
      </trkpt>
      <trkpt lat="38.131843" lon="-77.818976">
        <ele>115.29948</ele>
        <time>2023-10-13T09:09:05.000Z</time>
      </trkpt>
      <trkpt lat="38.131215" lon="-77.818898">
        <ele>115.161845</ele>
        <time>2023-10-13T09:09:12.000Z</time>
      </trkpt>
      <trkpt lat="38.130976" lon="-77.818919">
        <ele>115.112579</ele>
        <time>2023-10-13T09:09:15.000Z</time>
      </trkpt>
      <trkpt lat="38.130264" lon="-77.819343">
        <ele>114.943034</ele>
        <time>2023-10-13T09:09:24.000Z</time>
      </trkpt>
      <trkpt lat="38.129354" lon="-77.819607">
        <ele>114.722792</ele>
        <time>2023-10-13T09:09:34.000Z</time>
      </trkpt>
      <trkpt lat="38.128376" lon="-77.820214">
        <ele>114.463269</ele>
        <time>2023-10-13T09:09:46.000Z</time>
      </trkpt>
      <trkpt lat="38.126364" lon="-77.821241">
        <ele>113.638815</ele>
        <time>2023-10-13T09:10:10.000Z</time>
      </trkpt>
      <trkpt lat="38.12531" lon="-77.822184">
        <ele>113.228148</ele>
        <time>2023-10-13T09:10:24.000Z</time>
      </trkpt>
      <trkpt lat="38.124781" lon="-77.822478">
        <ele>112.983551</ele>
        <time>2023-10-13T09:10:30.000Z</time>
      </trkpt>
      <trkpt lat="38.124193" lon="-77.822906">
        <ele>112.653945</ele>
        <time>2023-10-13T09:10:38.000Z</time>
      </trkpt>
      <trkpt lat="38.123045" lon="-77.823257">
        <ele>112.075709</ele>
        <time>2023-10-13T09:10:51.000Z</time>
      </trkpt>
      <trkpt lat="38.122736" lon="-77.82327">
        <ele>111.916995</ele>
        <time>2023-10-13T09:10:54.000Z</time>
      </trkpt>
      <trkpt lat="38.121911" lon="-77.823194">
        <ele>111.494279</ele>
        <time>2023-10-13T09:11:03.000Z</time>
      </trkpt>
      <trkpt lat="38.121123" lon="-77.82329">
        <ele>111.491519</ele>
        <time>2023-10-13T09:11:12.000Z</time>
      </trkpt>
      <trkpt lat="38.12063" lon="-77.82317">
        <ele>111.587823</ele>
        <time>2023-10-13T09:11:18.000Z</time>
      </trkpt>
      <trkpt lat="38.120187" lon="-77.822966">
        <ele>111.677125</ele>
        <time>2023-10-13T09:11:23.000Z</time>
      </trkpt>
      <trkpt lat="38.119964" lon="-77.822875">
        <ele>111.721251</ele>
        <time>2023-10-13T09:11:26.000Z</time>
      </trkpt>
      <trkpt lat="38.119759" lon="-77.822871">
        <ele>111.713391</ele>
        <time>2023-10-13T09:11:28.000Z</time>
      </trkpt>
      <trkpt lat="38.119396" lon="-77.823011">
        <ele>111.683954</ele>
        <time>2023-10-13T09:11:32.000Z</time>
      </trkpt>
      <trkpt lat="38.119162" lon="-77.823175">
        <ele>111.664765</ele>
        <time>2023-10-13T09:11:35.000Z</time>
      </trkpt>
      <trkpt lat="38.118997" lon="-77.822793">
        <ele>111.63834</ele>
        <time>2023-10-13T09:11:39.000Z</time>
      </trkpt>
      <trkpt lat="38.118707" lon="-77.821936">
        <ele>111.457548</ele>
        <time>2023-10-13T09:11:47.000Z</time>
      </trkpt>
      <trkpt lat="38.118453" lon="-77.821593">
        <ele>111.027505</ele>
        <time>2023-10-13T09:11:51.000Z</time>
      </trkpt>
      <trkpt lat="38.117973" lon="-77.821055">
        <ele>110.261656</ele>
        <time>2023-10-13T09:11:58.000Z</time>
      </trkpt>
      <trkpt lat="38.117828" lon="-77.820816">
        <ele>109.976547</ele>
        <time>2023-10-13T09:12:01.000Z</time>
      </trkpt>
      <trkpt lat="38.117694" lon="-77.82041">
        <ele>109.566102</ele>
        <time>2023-10-13T09:12:05.000Z</time>
      </trkpt>
      <trkpt lat="38.117664" lon="-77.819311">
        <ele>108.477605</ele>
        <time>2023-10-13T09:12:15.000Z</time>
      </trkpt>
      <trkpt lat="38.117574" lon="-77.819079">
        <ele>108.222437</ele>
        <time>2023-10-13T09:12:17.000Z</time>
      </trkpt>
      <trkpt lat="38.117335" lon="-77.818815">
        <ele>107.839546</ele>
        <time>2023-10-13T09:12:21.000Z</time>
      </trkpt>
      <trkpt lat="38.11721" lon="-77.818757">
        <ele>107.649302</ele>
        <time>2023-10-13T09:12:22.000Z</time>
      </trkpt>
      <trkpt lat="38.116964" lon="-77.818735">
        <ele>107.346895</ele>
        <time>2023-10-13T09:12:25.000Z</time>
      </trkpt>
      <trkpt lat="38.116648" lon="-77.818756">
        <ele>106.98288</ele>
        <time>2023-10-13T09:12:29.000Z</time>
      </trkpt>
      <trkpt lat="38.115913" lon="-77.818835">
        <ele>106.139687</ele>
        <time>2023-10-13T09:12:37.000Z</time>
      </trkpt>
      <trkpt lat="38.115675" lon="-77.818808">
        <ele>105.874641</ele>
        <time>2023-10-13T09:12:40.000Z</time>
      </trkpt>
      <trkpt lat="38.114349" lon="-77.818092">
        <ele>103.69539</ele>
        <time>2023-10-13T09:12:56.000Z</time>
      </trkpt>
      <trkpt lat="38.114114" lon="-77.817765">
        <ele>103.075314</ele>
        <time>2023-10-13T09:13:00.000Z</time>
      </trkpt>
      <trkpt lat="38.11409" lon="-77.81749">
        <ele>102.672484</ele>
        <time>2023-10-13T09:13:02.000Z</time>
      </trkpt>
      <trkpt lat="38.114273" lon="-77.816315">
        <ele>100.941435</ele>
        <time>2023-10-13T09:13:12.000Z</time>
      </trkpt>
      <trkpt lat="38.114239" lon="-77.816013">
        <ele>100.472944</ele>
        <time>2023-10-13T09:13:15.000Z</time>
      </trkpt>
      <trkpt lat="38.113997" lon="-77.815012">
        <ele>98.946406</ele>
        <time>2023-10-13T09:13:24.000Z</time>
      </trkpt>
      <trkpt lat="38.113978" lon="-77.814666">
        <ele>98.4531</ele>
        <time>2023-10-13T09:13:27.000Z</time>
      </trkpt>
      <trkpt lat="38.114019" lon="-77.814352">
        <ele>98.126812</ele>
        <time>2023-10-13T09:13:30.000Z</time>
      </trkpt>
      <trkpt lat="38.114332" lon="-77.81348">
        <ele>97.140094</ele>
        <time>2023-10-13T09:13:38.000Z</time>
      </trkpt>
      <trkpt lat="38.114361" lon="-77.813077">
        <ele>96.716236</ele>
        <time>2023-10-13T09:13:42.000Z</time>
      </trkpt>
      <trkpt lat="38.11425" lon="-77.81277">
        <ele>96.382821</ele>
        <time>2023-10-13T09:13:45.000Z</time>
      </trkpt>
      <trkpt lat="38.113628" lon="-77.811638">
        <ele>95.936918</ele>
        <time>2023-10-13T09:13:57.000Z</time>
      </trkpt>
      <trkpt lat="38.113441" lon="-77.811752">
        <ele>95.887057</ele>
        <time>2023-10-13T09:13:59.000Z</time>
      </trkpt>
      <trkpt lat="38.113449" lon="-77.811749">
        <ele>95.886742</ele>
        <time>2023-10-13T09:13:59.000Z</time>
      </trkpt>
      <trkpt lat="38.113439" lon="-77.811756">
        <ele>95.88623</ele>
        <time>2023-10-13T09:13:59.000Z</time>
      </trkpt>
      <trkpt lat="38.113452" lon="-77.811764">
        <ele>95.885701</ele>
        <time>2023-10-13T09:13:59.000Z</time>
      </trkpt>
      <trkpt lat="38.11345" lon="-77.811757">
        <ele>95.885391</ele>
        <time>2023-10-13T09:13:59.000Z</time>
      </trkpt>
      <trkpt lat="38.113434" lon="-77.811756">
        <ele>95.885392</ele>
        <time>2023-10-13T09:13:59.000Z</time>
      </trkpt>
      <trkpt lat="38.113445" lon="-77.811752">
        <ele>95.885401</ele>
        <time>2023-10-13T09:13:59.000Z</time>
      </trkpt>
      <trkpt lat="38.113629" lon="-77.811636">
        <ele>95.833908</ele>
        <time>2023-10-13T09:14:01.000Z</time>
      </trkpt>
      <trkpt lat="38.114246" lon="-77.812783">
        <ele>96.446195</ele>
        <time>2023-10-13T09:14:13.000Z</time>
      </trkpt>
      <trkpt lat="38.114352" lon="-77.813073">
        <ele>96.746724</ele>
        <time>2023-10-13T09:14:16.000Z</time>
      </trkpt>
      <trkpt lat="38.114324" lon="-77.813491">
        <ele>97.128788</ele>
        <time>2023-10-13T09:14:20.000Z</time>
      </trkpt>
      <trkpt lat="38.114016" lon="-77.814361">
        <ele>98.105303</ele>
        <time>2023-10-13T09:14:28.000Z</time>
      </trkpt>
      <trkpt lat="38.113978" lon="-77.814666">
        <ele>98.540625</ele>
        <time>2023-10-13T09:14:31.000Z</time>
      </trkpt>
      <trkpt lat="38.114004" lon="-77.815028">
        <ele>99.017511</ele>
        <time>2023-10-13T09:14:34.000Z</time>
      </trkpt>
      <trkpt lat="38.114242" lon="-77.816001">
        <ele>100.431435</ele>
        <time>2023-10-13T09:14:43.000Z</time>
      </trkpt>
      <trkpt lat="38.114273" lon="-77.816322">
        <ele>100.865356</ele>
        <time>2023-10-13T09:14:46.000Z</time>
      </trkpt>
      <trkpt lat="38.114091" lon="-77.817492">
        <ele>102.67618</ele>
        <time>2023-10-13T09:14:56.000Z</time>
      </trkpt>
      <trkpt lat="38.114125" lon="-77.817762">
        <ele>103.107656</ele>
        <time>2023-10-13T09:14:58.000Z</time>
      </trkpt>
      <trkpt lat="38.114354" lon="-77.818082">
        <ele>103.771819</ele>
        <time>2023-10-13T09:15:02.000Z</time>
      </trkpt>
      <trkpt lat="38.115669" lon="-77.818794">
        <ele>105.841632</ele>
        <time>2023-10-13T09:15:18.000Z</time>
      </trkpt>
      <trkpt lat="38.115912" lon="-77.818833">
        <ele>106.139745</ele>
        <time>2023-10-13T09:15:21.000Z</time>
      </trkpt>
      <trkpt lat="38.116661" lon="-77.818753">
        <ele>107.057158</ele>
        <time>2023-10-13T09:15:29.000Z</time>
      </trkpt>
      <trkpt lat="38.11696" lon="-77.818724">
        <ele>107.410011</ele>
        <time>2023-10-13T09:15:32.000Z</time>
      </trkpt>
      <trkpt lat="38.117194" lon="-77.818743">
        <ele>107.684232</ele>
        <time>2023-10-13T09:15:35.000Z</time>
      </trkpt>
      <trkpt lat="38.117342" lon="-77.818824">
        <ele>107.85676</ele>
        <time>2023-10-13T09:15:37.000Z</time>
      </trkpt>
      <trkpt lat="38.117571" lon="-77.819076">
        <ele>108.203968</ele>
        <time>2023-10-13T09:15:40.000Z</time>
      </trkpt>
      <trkpt lat="38.117659" lon="-77.819312">
        <ele>108.435352</ele>
        <time>2023-10-13T09:15:42.000Z</time>
      </trkpt>
      <trkpt lat="38.117695" lon="-77.820396">
        <ele>109.520832</ele>
        <time>2023-10-13T09:15:51.000Z</time>
      </trkpt>
      <trkpt lat="38.117818" lon="-77.820804">
        <ele>109.978689</ele>
        <time>2023-10-13T09:15:55.000Z</time>
      </trkpt>
      <trkpt lat="38.117975" lon="-77.821047">
        <ele>110.296705</ele>
        <time>2023-10-13T09:15:58.000Z</time>
      </trkpt>
      <trkpt lat="38.118465" lon="-77.821594">
        <ele>111.151006</ele>
        <time>2023-10-13T09:16:05.000Z</time>
      </trkpt>
      <trkpt lat="38.118699" lon="-77.821939">
        <ele>111.323109</ele>
        <time>2023-10-13T09:16:09.000Z</time>
      </trkpt>
      <trkpt lat="38.11899" lon="-77.822791">
        <ele>111.601181</ele>
        <time>2023-10-13T09:16:17.000Z</time>
      </trkpt>
      <trkpt lat="38.11916" lon="-77.823174">
        <ele>111.737512</ele>
        <time>2023-10-13T09:16:21.000Z</time>
      </trkpt>
      <trkpt lat="38.119395" lon="-77.823009">
        <ele>111.836528</ele>
        <time>2023-10-13T09:16:24.000Z</time>
      </trkpt>
      <trkpt lat="38.11976" lon="-77.822877">
        <ele>111.807238</ele>
        <time>2023-10-13T09:16:28.000Z</time>
      </trkpt>
      <trkpt lat="38.119978" lon="-77.822874">
        <ele>111.746056</ele>
        <time>2023-10-13T09:16:30.000Z</time>
      </trkpt>
      <trkpt lat="38.120189" lon="-77.822949">
        <ele>111.676549</ele>
        <time>2023-10-13T09:16:32.000Z</time>
      </trkpt>
      <trkpt lat="38.120625" lon="-77.823184">
        <ele>111.535854</ele>
        <time>2023-10-13T09:16:37.000Z</time>
      </trkpt>
      <trkpt lat="38.121124" lon="-77.823281">
        <ele>111.384091</ele>
        <time>2023-10-13T09:16:43.000Z</time>
      </trkpt>
      <trkpt lat="38.121909" lon="-77.823192">
        <ele>111.590384</ele>
        <time>2023-10-13T09:16:52.000Z</time>
      </trkpt>
      <trkpt lat="38.122742" lon="-77.823276">
        <ele>111.896812</ele>
        <time>2023-10-13T09:17:01.000Z</time>
      </trkpt>
      <trkpt lat="38.123037" lon="-77.823257">
        <ele>112.012174</ele>
        <time>2023-10-13T09:17:04.000Z</time>
      </trkpt>
      <trkpt lat="38.124191" lon="-77.822913">
        <ele>112.670808</ele>
        <time>2023-10-13T09:17:17.000Z</time>
      </trkpt>
      <trkpt lat="38.124786" lon="-77.822473">
        <ele>113.038053</ele>
        <time>2023-10-13T09:17:25.000Z</time>
      </trkpt>
      <trkpt lat="38.125315" lon="-77.822186">
        <ele>113.217515</ele>
        <time>2023-10-13T09:17:31.000Z</time>
      </trkpt>
      <trkpt lat="38.126361" lon="-77.821235">
        <ele>113.627037</ele>
        <time>2023-10-13T09:17:45.000Z</time>
      </trkpt>
      <trkpt lat="38.128379" lon="-77.820209">
        <ele>114.430856</ele>
        <time>2023-10-13T09:18:09.000Z</time>
      </trkpt>
      <trkpt lat="38.129348" lon="-77.819617">
        <ele>114.738901</ele>
        <time>2023-10-13T09:18:21.000Z</time>
      </trkpt>
      <trkpt lat="38.130253" lon="-77.819337">
        <ele>114.950976</ele>
        <time>2023-10-13T09:18:31.000Z</time>
      </trkpt>
      <trkpt lat="38.130976" lon="-77.81892">
        <ele>115.114054</ele>
        <time>2023-10-13T09:18:40.000Z</time>
      </trkpt>
      <trkpt lat="38.131207" lon="-77.818886">
        <ele>115.161444</ele>
        <time>2023-10-13T09:18:43.000Z</time>
      </trkpt>
      <trkpt lat="38.131838" lon="-77.818974">
        <ele>115.291135</ele>
        <time>2023-10-13T09:18:50.000Z</time>
      </trkpt>
      <trkpt lat="38.133028" lon="-77.818827">
        <ele>115.529621</ele>
        <time>2023-10-13T09:19:03.000Z</time>
      </trkpt>
      <trkpt lat="38.133372" lon="-77.818661">
        <ele>115.648073</ele>
        <time>2023-10-13T09:19:07.000Z</time>
      </trkpt>
      <trkpt lat="38.134941" lon="-77.817795">
        <ele>116.18068</ele>
        <time>2023-10-13T09:19:26.000Z</time>
      </trkpt>
      <trkpt lat="38.135361" lon="-77.817611">
        <ele>116.292877</ele>
        <time>2023-10-13T09:19:31.000Z</time>
      </trkpt>
      <trkpt lat="38.1358" lon="-77.817549">
        <ele>116.398926</ele>
        <time>2023-10-13T09:19:36.000Z</time>
      </trkpt>
      <trkpt lat="38.13666" lon="-77.817754">
        <ele>116.587923</ele>
        <time>2023-10-13T09:19:46.000Z</time>
      </trkpt>
      <trkpt lat="38.137472" lon="-77.817812">
        <ele>116.703167</ele>
        <time>2023-10-13T09:19:55.000Z</time>
      </trkpt>
      <trkpt lat="38.138305" lon="-77.818123">
        <ele>116.873046</ele>
        <time>2023-10-13T09:20:05.000Z</time>
      </trkpt>
      <trkpt lat="38.139057" lon="-77.818302">
        <ele>117.41263</ele>
        <time>2023-10-13T09:20:14.000Z</time>
      </trkpt>
      <trkpt lat="38.139444" lon="-77.818287">
        <ele>117.684705</ele>
        <time>2023-10-13T09:20:18.000Z</time>
      </trkpt>
      <trkpt lat="38.140181" lon="-77.817954">
        <ele>118.167002</ele>
        <time>2023-10-13T09:20:27.000Z</time>
      </trkpt>
      <trkpt lat="38.141286" lon="-77.817399">
        <ele>118.676765</ele>
        <time>2023-10-13T09:20:40.000Z</time>
      </trkpt>
      <trkpt lat="38.14138" lon="-77.817324">
        <ele>118.718014</ele>
        <time>2023-10-13T09:20:41.000Z</time>
      </trkpt>
      <trkpt lat="38.141379" lon="-77.817316">
        <ele>118.718933</ele>
        <time>2023-10-13T09:20:41.000Z</time>
      </trkpt>
      <trkpt lat="38.141367" lon="-77.817316">
        <ele>118.720023</ele>
        <time>2023-10-13T09:20:41.000Z</time>
      </trkpt>
      <trkpt lat="38.141374" lon="-77.817317">
        <ele>118.723625</ele>
        <time>2023-10-13T09:20:41.000Z</time>
      </trkpt>
      <trkpt lat="38.141383" lon="-77.81732">
        <ele>118.727232</ele>
        <time>2023-10-13T09:20:41.000Z</time>
      </trkpt>
      <trkpt lat="38.141365" lon="-77.817329">
        <ele>118.728308</ele>
        <time>2023-10-13T09:20:41.000Z</time>
      </trkpt>
      <trkpt lat="38.141378" lon="-77.817315">
        <ele>118.729232</ele>
        <time>2023-10-13T09:20:41.000Z</time>
      </trkpt>
      <trkpt lat="38.141282" lon="-77.817395">
        <ele>118.770489</ele>
        <time>2023-10-13T09:20:42.000Z</time>
      </trkpt>
      <trkpt lat="38.140181" lon="-77.81796">
        <ele>118.146671</ele>
        <time>2023-10-13T09:20:55.000Z</time>
      </trkpt>
      <trkpt lat="38.139438" lon="-77.81829">
        <ele>117.633457</ele>
        <time>2023-10-13T09:21:04.000Z</time>
      </trkpt>
      <trkpt lat="38.139064" lon="-77.818298">
        <ele>117.419373</ele>
        <time>2023-10-13T09:21:08.000Z</time>
      </trkpt>
      <trkpt lat="38.138295" lon="-77.818111">
        <ele>116.994778</ele>
        <time>2023-10-13T09:21:17.000Z</time>
      </trkpt>
      <trkpt lat="38.137469" lon="-77.817804">
        <ele>116.634706</ele>
        <time>2023-10-13T09:21:27.000Z</time>
      </trkpt>
      <trkpt lat="38.13665" lon="-77.817763">
        <ele>116.557933</ele>
        <time>2023-10-13T09:21:36.000Z</time>
      </trkpt>
      <trkpt lat="38.135811" lon="-77.817558">
        <ele>116.448292</ele>
        <time>2023-10-13T09:21:45.000Z</time>
      </trkpt>
      <trkpt lat="38.135366" lon="-77.817608">
        <ele>116.312473</ele>
        <time>2023-10-13T09:21:50.000Z</time>
      </trkpt>
      <trkpt lat="38.13493" lon="-77.817783">
        <ele>116.168775</ele>
        <time>2023-10-13T09:21:55.000Z</time>
      </trkpt>
      <trkpt lat="38.13338" lon="-77.818675">
        <ele>115.666352</ele>
        <time>2023-10-13T09:22:14.000Z</time>
      </trkpt>
      <trkpt lat="38.133013" lon="-77.818822">
        <ele>115.55986</ele>
        <time>2023-10-13T09:22:18.000Z</time>
      </trkpt>
      <trkpt lat="38.131854" lon="-77.818975">
        <ele>115.279816</ele>
        <time>2023-10-13T09:22:31.000Z</time>
      </trkpt>
      <trkpt lat="38.131203" lon="-77.818889">
        <ele>115.148301</ele>
        <time>2023-10-13T09:22:38.000Z</time>
      </trkpt>
      <trkpt lat="38.130976" lon="-77.818921">
        <ele>115.101235</ele>
        <time>2023-10-13T09:22:41.000Z</time>
      </trkpt>
      <trkpt lat="38.130267" lon="-77.819342">
        <ele>114.943202</ele>
        <time>2023-10-13T09:22:50.000Z</time>
      </trkpt>
      <trkpt lat="38.129337" lon="-77.819603">
        <ele>114.757204</ele>
        <time>2023-10-13T09:23:01.000Z</time>
      </trkpt>
      <trkpt lat="38.128377" lon="-77.820205">
        <ele>114.431315</ele>
        <time>2023-10-13T09:23:13.000Z</time>
      </trkpt>
      <trkpt lat="38.126371" lon="-77.821249">
        <ele>113.644805</ele>
        <time>2023-10-13T09:23:37.000Z</time>
      </trkpt>
      <trkpt lat="38.125313" lon="-77.822179">
        <ele>113.187247</ele>
        <time>2023-10-13T09:23:51.000Z</time>
      </trkpt>
      <trkpt lat="38.124787" lon="-77.822479">
        <ele>112.991711</ele>
        <time>2023-10-13T09:23:57.000Z</time>
      </trkpt>
      <trkpt lat="38.124185" lon="-77.822916">
        <ele>112.732893</ele>
        <time>2023-10-13T09:24:05.000Z</time>
      </trkpt>
      <trkpt lat="38.123045" lon="-77.823248">
        <ele>112.012726</ele>
        <time>2023-10-13T09:24:18.000Z</time>
      </trkpt>
      <trkpt lat="38.122728" lon="-77.82328">
        <ele>111.822009</ele>
        <time>2023-10-13T09:24:22.000Z</time>
      </trkpt>
      <trkpt lat="38.121903" lon="-77.823192">
        <ele>111.602894</ele>
        <time>2023-10-13T09:24:31.000Z</time>
      </trkpt>
      <trkpt lat="38.121124" lon="-77.823285">
        <ele>111.491228</ele>
        <time>2023-10-13T09:24:40.000Z</time>
      </trkpt>
      <trkpt lat="38.120626" lon="-77.823184">
        <ele>111.462833</ele>
        <time>2023-10-13T09:24:46.000Z</time>
      </trkpt>
      <trkpt lat="38.120188" lon="-77.822956">
        <ele>111.595172</ele>
        <time>2023-10-13T09:24:51.000Z</time>
      </trkpt>
      <trkpt lat="38.119967" lon="-77.822883">
        <ele>111.660552</ele>
        <time>2023-10-13T09:24:54.000Z</time>
      </trkpt>
      <trkpt lat="38.119769" lon="-77.82287">
        <ele>111.718103</ele>
        <time>2023-10-13T09:24:56.000Z</time>
      </trkpt>
      <trkpt lat="38.119397" lon="-77.823015">
        <ele>111.829893</ele>
        <time>2023-10-13T09:25:00.000Z</time>
      </trkpt>
      <trkpt lat="38.119156" lon="-77.823175">
        <ele>111.902771</ele>
        <time>2023-10-13T09:25:03.000Z</time>
      </trkpt>
      <trkpt lat="38.118998" lon="-77.822783">
        <ele>111.775438</ele>
        <time>2023-10-13T09:25:07.000Z</time>
      </trkpt>
      <trkpt lat="38.118704" lon="-77.821934">
        <ele>111.233391</ele>
        <time>2023-10-13T09:25:15.000Z</time>
      </trkpt>
      <trkpt lat="38.118468" lon="-77.821599">
        <ele>110.96239</ele>
        <time>2023-10-13T09:25:19.000Z</time>
      </trkpt>
      <trkpt lat="38.117986" lon="-77.821039">
        <ele>110.380642</ele>
        <time>2023-10-13T09:25:26.000Z</time>
      </trkpt>
      <trkpt lat="38.117819" lon="-77.820811">
        <ele>110.049395</ele>
        <time>2023-10-13T09:25:29.000Z</time>
      </trkpt>
      <trkpt lat="38.117696" lon="-77.820396">
        <ele>109.572501</ele>
        <time>2023-10-13T09:25:33.000Z</time>
      </trkpt>
      <trkpt lat="38.117666" lon="-77.819306">
        <ele>108.381584</ele>
        <time>2023-10-13T09:25:43.000Z</time>
      </trkpt>
      <trkpt lat="38.117571" lon="-77.819082">
        <ele>108.107879</ele>
        <time>2023-10-13T09:25:45.000Z</time>
      </trkpt>
      <trkpt lat="38.117338" lon="-77.818823">
        <ele>107.785266</ele>
        <time>2023-10-13T09:25:48.000Z</time>
      </trkpt>
      <trkpt lat="38.117205" lon="-77.818755">
        <ele>107.624965</ele>
        <time>2023-10-13T09:25:50.000Z</time>
      </trkpt>
      <trkpt lat="38.116959" lon="-77.818733">
        <ele>107.370163</ele>
        <time>2023-10-13T09:25:53.000Z</time>
      </trkpt>
      <trkpt lat="38.11665" lon="-77.818754">
        <ele>107.042331</ele>
        <time>2023-10-13T09:25:56.000Z</time>
      </trkpt>
      <trkpt lat="38.115904" lon="-77.818835">
        <ele>106.242461</ele>
        <time>2023-10-13T09:26:04.000Z</time>
      </trkpt>
      <trkpt lat="38.115679" lon="-77.818792">
        <ele>105.911873</ele>
        <time>2023-10-13T09:26:07.000Z</time>
      </trkpt>
      <trkpt lat="38.114351" lon="-77.81809">
        <ele>103.793412</ele>
        <time>2023-10-13T09:26:23.000Z</time>
      </trkpt>
      <trkpt lat="38.114124" lon="-77.817773">
        <ele>103.196875</ele>
        <time>2023-10-13T09:26:27.000Z</time>
      </trkpt>
      <trkpt lat="38.114091" lon="-77.817487">
        <ele>102.752331</ele>
        <time>2023-10-13T09:26:30.000Z</time>
      </trkpt>
      <trkpt lat="38.114268" lon="-77.816329">
        <ele>100.873949</ele>
        <time>2023-10-13T09:26:40.000Z</time>
      </trkpt>
      <trkpt lat="38.114245" lon="-77.816009">
        <ele>100.372855</ele>
        <time>2023-10-13T09:26:43.000Z</time>
      </trkpt>
      <trkpt lat="38.113998" lon="-77.815013">
        <ele>98.996985</ele>
        <time>2023-10-13T09:26:52.000Z</time>
      </trkpt>
      <trkpt lat="38.113971" lon="-77.814679">
        <ele>98.564341</ele>
        <time>2023-10-13T09:26:55.000Z</time>
      </trkpt>
      <trkpt lat="38.114019" lon="-77.81436">
        <ele>98.16941</ele>
        <time>2023-10-13T09:26:58.000Z</time>
      </trkpt>
      <trkpt lat="38.114327" lon="-77.813485">
        <ele>97.031614</ele>
        <time>2023-10-13T09:27:06.000Z</time>
      </trkpt>
      <trkpt lat="38.11435" lon="-77.813081">
        <ele>96.754012</ele>
        <time>2023-10-13T09:27:10.000Z</time>
      </trkpt>
      <trkpt lat="38.114236" lon="-77.812773">
        <ele>96.53565</ele>
        <time>2023-10-13T09:27:13.000Z</time>
      </trkpt>
      <trkpt lat="38.113634" lon="-77.811647">
        <ele>95.612128</ele>
        <time>2023-10-13T09:27:25.000Z</time>
      </trkpt>
      <trkpt lat="38.113457" lon="-77.81176">
        <ele>95.654796</ele>
        <time>2023-10-13T09:27:27.000Z</time>
      </trkpt>
      <trkpt lat="38.113446" lon="-77.811765">
        <ele>95.6556</ele>
        <time>2023-10-13T09:27:27.000Z</time>
      </trkpt>
      <trkpt lat="38.113442" lon="-77.811761">
        <ele>95.656961</ele>
        <time>2023-10-13T09:27:27.000Z</time>
      </trkpt>
      <trkpt lat="38.113436" lon="-77.811761">
        <ele>95.658316</ele>
        <time>2023-10-13T09:27:27.000Z</time>
      </trkpt>
      <trkpt lat="38.113434" lon="-77.811763">
        <ele>95.659128</ele>
        <time>2023-10-13T09:27:27.000Z</time>
      </trkpt>
      <trkpt lat="38.113437" lon="-77.811765">
        <ele>95.659117</ele>
        <time>2023-10-13T09:27:27.000Z</time>
      </trkpt>
      <trkpt lat="38.113435" lon="-77.811753">
        <ele>95.659115</ele>
        <time>2023-10-13T09:27:27.000Z</time>
      </trkpt>
      <trkpt lat="38.113635" lon="-77.811643">
        <ele>95.794109</ele>
        <time>2023-10-13T09:27:29.000Z</time>
      </trkpt>
      <trkpt lat="38.114251" lon="-77.812773">
        <ele>96.477613</ele>
        <time>2023-10-13T09:27:41.000Z</time>
      </trkpt>
      <trkpt lat="38.114349" lon="-77.813068">
        <ele>96.63921</ele>
        <time>2023-10-13T09:27:44.000Z</time>
      </trkpt>
      <trkpt lat="38.11433" lon="-77.813489">
        <ele>97.041831</ele>
        <time>2023-10-13T09:27:48.000Z</time>
      </trkpt>
      <trkpt lat="38.114014" lon="-77.814361">
        <ele>98.166889</ele>
        <time>2023-10-13T09:27:56.000Z</time>
      </trkpt>
      <trkpt lat="38.113967" lon="-77.814681">
        <ele>98.538906</ele>
        <time>2023-10-13T09:27:59.000Z</time>
      </trkpt>
      <trkpt lat="38.114006" lon="-77.81502">
        <ele>98.946446</ele>
        <time>2023-10-13T09:28:02.000Z</time>
      </trkpt>
      <trkpt lat="38.114242" lon="-77.816013">
        <ele>100.420829</ele>
        <time>2023-10-13T09:28:11.000Z</time>
      </trkpt>
      <trkpt lat="38.11426" lon="-77.81632">
        <ele>100.918072</ele>
        <time>2023-10-13T09:28:14.000Z</time>
      </trkpt>
      <trkpt lat="38.114092" lon="-77.817481">
        <ele>102.781978</ele>
        <time>2023-10-13T09:28:24.000Z</time>
      </trkpt>
      <trkpt lat="38.114124" lon="-77.817765">
        <ele>103.171274</ele>
        <time>2023-10-13T09:28:27.000Z</time>
      </trkpt>
      <trkpt lat="38.114344" lon="-77.818091">
        <ele>103.715697</ele>
        <time>2023-10-13T09:28:31.000Z</time>
      </trkpt>
      <trkpt lat="38.115669" lon="-77.818797">
        <ele>105.957618</ele>
        <time>2023-10-13T09:28:47.000Z</time>
      </trkpt>
      <trkpt lat="38.115907" lon="-77.818836">
        <ele>106.207605</ele>
        <time>2023-10-13T09:28:50.000Z</time>
      </trkpt>
      <trkpt lat="38.116658" lon="-77.818766">
        <ele>107.002905</ele>
        <time>2023-10-13T09:28:58.000Z</time>
      </trkpt>
      <trkpt lat="38.116968" lon="-77.818726">
        <ele>107.328858</ele>
        <time>2023-10-13T09:29:01.000Z</time>
      </trkpt>
      <trkpt lat="38.117201" lon="-77.818756">
        <ele>107.582212</ele>
        <time>2023-10-13T09:29:04.000Z</time>
      </trkpt>
      <trkpt lat="38.117339" lon="-77.818821">
        <ele>107.741597</ele>
        <time>2023-10-13T09:29:06.000Z</time>
      </trkpt>
      <trkpt lat="38.117558" lon="-77.81908">
        <ele>108.151227</ele>
        <time>2023-10-13T09:29:09.000Z</time>
      </trkpt>
      <trkpt lat="38.117661" lon="-77.819304">
        <ele>108.425279</ele>
        <time>2023-10-13T09:29:11.000Z</time>
      </trkpt>
      <trkpt lat="38.117693" lon="-77.8204">
        <ele>109.602067</ele>
        <time>2023-10-13T09:29:21.000Z</time>
      </trkpt>
      <trkpt lat="38.117828" lon="-77.820811">
        <ele>110.073276</ele>
        <time>2023-10-13T09:29:25.000Z</time>
      </trkpt>
      <trkpt lat="38.117974" lon="-77.821053">
        <ele>110.336646</ele>
        <time>2023-10-13T09:29:28.000Z</time>
      </trkpt>
      <trkpt lat="38.118456" lon="-77.821604">
        <ele>110.942833</ele>
        <time>2023-10-13T09:29:35.000Z</time>
      </trkpt>
      <trkpt lat="38.118699" lon="-77.821942">
        <ele>111.283213</ele>
        <time>2023-10-13T09:29:39.000Z</time>
      </trkpt>
      <trkpt lat="38.118985" lon="-77.822785">
        <ele>111.86462</ele>
        <time>2023-10-13T09:29:47.000Z</time>
      </trkpt>
      <trkpt lat="38.119168" lon="-77.823187">
        <ele>111.793643</ele>
        <time>2023-10-13T09:29:51.000Z</time>
      </trkpt>
      <trkpt lat="38.119388" lon="-77.823021">
        <ele>111.742089</ele>
        <time>2023-10-13T09:29:54.000Z</time>
      </trkpt>
      <trkpt lat="38.119777" lon="-77.822878">
        <ele>111.662991</ele>
        <time>2023-10-13T09:29:59.000Z</time>
      </trkpt>
      <trkpt lat="38.119966" lon="-77.822882">
        <ele>111.622287</ele>
        <time>2023-10-13T09:30:01.000Z</time>
      </trkpt>
      <trkpt lat="38.120196" lon="-77.82295">
        <ele>111.576019</ele>
        <time>2023-10-13T09:30:04.000Z</time>
      </trkpt>
      <trkpt lat="38.120631" lon="-77.823184">
        <ele>111.525798</ele>
        <time>2023-10-13T09:30:09.000Z</time>
      </trkpt>
      <trkpt lat="38.121135" lon="-77.82328">
        <ele>111.532067</ele>
        <time>2023-10-13T09:30:15.000Z</time>
      </trkpt>
      <trkpt lat="38.121909" lon="-77.823202">
        <ele>111.54175</ele>
        <time>2023-10-13T09:30:24.000Z</time>
      </trkpt>
      <trkpt lat="38.122739" lon="-77.823284">
        <ele>111.858655</ele>
        <time>2023-10-13T09:30:33.000Z</time>
      </trkpt>
      <trkpt lat="38.123049" lon="-77.823243">
        <ele>112.045533</ele>
        <time>2023-10-13T09:30:36.000Z</time>
      </trkpt>
      <trkpt lat="38.124183" lon="-77.822905">
        <ele>112.705274</ele>
        <time>2023-10-13T09:30:49.000Z</time>
      </trkpt>
      <trkpt lat="38.124794" lon="-77.82247">
        <ele>112.968553</ele>
        <time>2023-10-13T09:30:57.000Z</time>
      </trkpt>
      <trkpt lat="38.125314" lon="-77.822185">
        <ele>113.189647</ele>
        <time>2023-10-13T09:31:03.000Z</time>
      </trkpt>
      <trkpt lat="38.126369" lon="-77.821245">
        <ele>113.651233</ele>
        <time>2023-10-13T09:31:17.000Z</time>
      </trkpt>
      <trkpt lat="38.128381" lon="-77.820219">
        <ele>114.446282</ele>
        <time>2023-10-13T09:31:41.000Z</time>
      </trkpt>
      <trkpt lat="38.129354" lon="-77.819609">
        <ele>114.742455</ele>
        <time>2023-10-13T09:31:53.000Z</time>
      </trkpt>
      <trkpt lat="38.130255" lon="-77.819336">
        <ele>114.93457</ele>
        <time>2023-10-13T09:32:03.000Z</time>
      </trkpt>
      <trkpt lat="38.130978" lon="-77.818907">
        <ele>115.100176</ele>
        <time>2023-10-13T09:32:12.000Z</time>
      </trkpt>
      <trkpt lat="38.131212" lon="-77.818893">
        <ele>115.148841</ele>
        <time>2023-10-13T09:32:15.000Z</time>
      </trkpt>
      <trkpt lat="38.131853" lon="-77.818989">
        <ele>115.284813</ele>
        <time>2023-10-13T09:32:22.000Z</time>
      </trkpt>
      <trkpt lat="38.133025" lon="-77.818832">
        <ele>115.568308</ele>
        <time>2023-10-13T09:32:35.000Z</time>
      </trkpt>
      <trkpt lat="38.133371" lon="-77.818674">
        <ele>115.663916</ele>
        <time>2023-10-13T09:32:39.000Z</time>
      </trkpt>
      <trkpt lat="38.134937" lon="-77.817791">
        <ele>116.180543</ele>
        <time>2023-10-13T09:32:58.000Z</time>
      </trkpt>
      <trkpt lat="38.135366" lon="-77.817611">
        <ele>116.334049</ele>
        <time>2023-10-13T09:33:03.000Z</time>
      </trkpt>
      <trkpt lat="38.1358" lon="-77.817556">
        <ele>116.440196</ele>
        <time>2023-10-13T09:33:08.000Z</time>
      </trkpt>
      <trkpt lat="38.13666" lon="-77.817758">
        <ele>116.537112</ele>
        <time>2023-10-13T09:33:18.000Z</time>
      </trkpt>
      <trkpt lat="38.137474" lon="-77.817808">
        <ele>116.650136</ele>
        <time>2023-10-13T09:33:27.000Z</time>
      </trkpt>
      <trkpt lat="38.138297" lon="-77.818111">
        <ele>117.017119</ele>
        <time>2023-10-13T09:33:37.000Z</time>
      </trkpt>
      <trkpt lat="38.13906" lon="-77.818302">
        <ele>117.34798</ele>
        <time>2023-10-13T09:33:46.000Z</time>
      </trkpt>
      <trkpt lat="38.139445" lon="-77.818273">
        <ele>117.60573</ele>
        <time>2023-10-13T09:33:50.000Z</time>
      </trkpt>
      <trkpt lat="38.140183" lon="-77.81796">
        <ele>118.189572</ele>
        <time>2023-10-13T09:33:59.000Z</time>
      </trkpt>
      <trkpt lat="38.141291" lon="-77.817397">
        <ele>118.630185</ele>
        <time>2023-10-13T09:34:12.000Z</time>
      </trkpt>
      <trkpt lat="38.141368" lon="-77.81733">
        <ele>118.607527</ele>
        <time>2023-10-13T09:34:13.000Z</time>
      </trkpt>
      <trkpt lat="38.141374" lon="-77.817313">
        <ele>118.607024</ele>
        <time>2023-10-13T09:34:13.000Z</time>
      </trkpt>
      <trkpt lat="38.141373" lon="-77.817322">
        <ele>118.606415</ele>
        <time>2023-10-13T09:34:13.000Z</time>
      </trkpt>
      <trkpt lat="38.141382" lon="-77.817307">
        <ele>118.604446</ele>
        <time>2023-10-13T09:34:13.000Z</time>
      </trkpt>
      <trkpt lat="38.141386" lon="-77.81732">
        <ele>118.603993</ele>
        <time>2023-10-13T09:34:13.000Z</time>
      </trkpt>
      <trkpt lat="38.141377" lon="-77.817317">
        <ele>118.603204</ele>
        <time>2023-10-13T09:34:13.000Z</time>
      </trkpt>
      <trkpt lat="38.141391" lon="-77.817306">
        <ele>118.60241</ele>
        <time>2023-10-13T09:34:13.000Z</time>
      </trkpt>
      <trkpt lat="38.141386" lon="-77.817319">
        <ele>118.601975</ele>
        <time>2023-10-13T09:34:13.000Z</time>
      </trkpt>
      <trkpt lat="38.14137" lon="-77.817321">
        <ele>118.599989</ele>
        <time>2023-10-13T09:34:13.000Z</time>
      </trkpt>
      <trkpt lat="38.141377" lon="-77.817318">
        <ele>118.599391</ele>
        <time>2023-10-13T09:34:13.000Z</time>
      </trkpt>
      <trkpt lat="38.14138" lon="-77.817316">
        <ele>118.598891</ele>
        <time>2023-10-13T09:34:13.000Z</time>
      </trkpt>
      <trkpt lat="38.141297" lon="-77.817388">
        <ele>118.576216</ele>
        <time>2023-10-13T09:34:14.000Z</time>
      </trkpt>
      <trkpt lat="38.140182" lon="-77.817957">
        <ele>118.251077</ele>
        <time>2023-10-13T09:34:27.000Z</time>
      </trkpt>
      <trkpt lat="38.139448" lon="-77.818279">
        <ele>117.662742</ele>
        <time>2023-10-13T09:34:36.000Z</time>
      </trkpt>
      <trkpt lat="38.139065" lon="-77.818306">
        <ele>117.36936</ele>
        <time>2023-10-13T09:34:40.000Z</time>
      </trkpt>
      <trkpt lat="38.138304" lon="-77.818118">
        <ele>116.91217</ele>
        <time>2023-10-13T09:34:49.000Z</time>
      </trkpt>
      <trkpt lat="38.13748" lon="-77.817801">
        <ele>116.731509</ele>
        <time>2023-10-13T09:34:59.000Z</time>
      </trkpt>
      <trkpt lat="38.136649" lon="-77.817762">
        <ele>116.559754</ele>
        <time>2023-10-13T09:35:08.000Z</time>
      </trkpt>
      <trkpt lat="38.135812" lon="-77.817561">
        <ele>116.391914</ele>
        <time>2023-10-13T09:35:17.000Z</time>
      </trkpt>
      <trkpt lat="38.13537" lon="-77.817602">
        <ele>116.307377</ele>
        <time>2023-10-13T09:35:22.000Z</time>
      </trkpt>
      <trkpt lat="38.134929" lon="-77.817779">
        <ele>116.20717</ele>
        <time>2023-10-13T09:35:27.000Z</time>
      </trkpt>
      <trkpt lat="38.133378" lon="-77.818672">
        <ele>115.62846</ele>
        <time>2023-10-13T09:35:46.000Z</time>
      </trkpt>
      <trkpt lat="38.133024" lon="-77.81882">
        <ele>115.546269</ele>
        <time>2023-10-13T09:35:50.000Z</time>
      </trkpt>
      <trkpt lat="38.131852" lon="-77.818987">
        <ele>115.298778</ele>
        <time>2023-10-13T09:36:03.000Z</time>
      </trkpt>
      <trkpt lat="38.131208" lon="-77.818899">
        <ele>115.163241</ele>
        <time>2023-10-13T09:36:10.000Z</time>
      </trkpt>
      <trkpt lat="38.13098" lon="-77.818925">
        <ele>115.114418</ele>
        <time>2023-10-13T09:36:13.000Z</time>
      </trkpt>
      <trkpt lat="38.130254" lon="-77.819335">
        <ele>114.946396</ele>
        <time>2023-10-13T09:36:22.000Z</time>
      </trkpt>
      <trkpt lat="38.129354" lon="-77.819615">
        <ele>114.723887</ele>
        <time>2023-10-13T09:36:32.000Z</time>
      </trkpt>
      <trkpt lat="38.128382" lon="-77.820205">
        <ele>114.451567</ele>
        <time>2023-10-13T09:36:44.000Z</time>
      </trkpt>
      <trkpt lat="38.126355" lon="-77.821241">
        <ele>113.632785</ele>
        <time>2023-10-13T09:37:08.000Z</time>
      </trkpt>
      <trkpt lat="38.125322" lon="-77.822176">
        <ele>113.228119</ele>
        <time>2023-10-13T09:37:22.000Z</time>
      </trkpt>
      <trkpt lat="38.124793" lon="-77.822487">
        <ele>112.998754</ele>
        <time>2023-10-13T09:37:28.000Z</time>
      </trkpt>
      <trkpt lat="38.124193" lon="-77.822909">
        <ele>112.653158</ele>
        <time>2023-10-13T09:37:36.000Z</time>
      </trkpt>
      <trkpt lat="38.123047" lon="-77.82324">
        <ele>112.068885</ele>
        <time>2023-10-13T09:37:49.000Z</time>
      </trkpt>
      <trkpt lat="38.12273" lon="-77.823283">
        <ele>111.920519</ele>
        <time>2023-10-13T09:37:53.000Z</time>
      </trkpt>
      <trkpt lat="38.121901" lon="-77.823199">
        <ele>111.525337</ele>
        <time>2023-10-13T09:38:02.000Z</time>
      </trkpt>
      <trkpt lat="38.121121" lon="-77.823291">
        <ele>111.464985</ele>
        <time>2023-10-13T09:38:11.000Z</time>
      </trkpt>
      <trkpt lat="38.120622" lon="-77.823177">
        <ele>111.580836</ele>
        <time>2023-10-13T09:38:17.000Z</time>
      </trkpt>
      <trkpt lat="38.12019" lon="-77.822955">
        <ele>111.688259</ele>
        <time>2023-10-13T09:38:22.000Z</time>
      </trkpt>
      <trkpt lat="38.119965" lon="-77.822871">
        <ele>111.74132</ele>
        <time>2023-10-13T09:38:25.000Z</time>
      </trkpt>
      <trkpt lat="38.119773" lon="-77.822867">
        <ele>111.767365</ele>
        <time>2023-10-13T09:38:27.000Z</time>
      </trkpt>
      <trkpt lat="38.119381" lon="-77.823016">
        <ele>111.705642</ele>
        <time>2023-10-13T09:38:32.000Z</time>
      </trkpt>
      <trkpt lat="38.119158" lon="-77.823189">
        <ele>111.665431</ele>
        <time>2023-10-13T09:38:35.000Z</time>
      </trkpt>
      <trkpt lat="38.118988" lon="-77.822786">
        <ele>111.610055</ele>
        <time>2023-10-13T09:38:39.000Z</time>
      </trkpt>
      <trkpt lat="38.118707" lon="-77.821933">
        <ele>111.497094</ele>
        <time>2023-10-13T09:38:47.000Z</time>
      </trkpt>
      <trkpt lat="38.118456" lon="-77.821601">
        <ele>111.059379</ele>
        <time>2023-10-13T09:38:51.000Z</time>
      </trkpt>
      <trkpt lat="38.117986" lon="-77.821044">
        <ele>110.26355</ele>
        <time>2023-10-13T09:38:58.000Z</time>
      </trkpt>
      <trkpt lat="38.117831" lon="-77.820804">
        <ele>109.96727</ele>
        <time>2023-10-13T09:39:01.000Z</time>
      </trkpt>
      <trkpt lat="38.117689" lon="-77.820396">
        <ele>109.540768</ele>
        <time>2023-10-13T09:39:05.000Z</time>
      </trkpt>
      <trkpt lat="38.117653" lon="-77.819309">
        <ele>108.474537</ele>
        <time>2023-10-13T09:39:15.000Z</time>
      </trkpt>
      <trkpt lat="38.117569" lon="-77.819077">
        <ele>108.226168</ele>
        <time>2023-10-13T09:39:17.000Z</time>
      </trkpt>
      <trkpt lat="38.117332" lon="-77.818815">
        <ele>107.853466</ele>
        <time>2023-10-13T09:39:20.000Z</time>
      </trkpt>
      <trkpt lat="38.117194" lon="-77.818745">
        <ele>107.668272</ele>
        <time>2023-10-13T09:39:22.000Z</time>
      </trkpt>
      <trkpt lat="38.116969" lon="-77.818731">
        <ele>107.373912</ele>
        <time>2023-10-13T09:39:25.000Z</time>
      </trkpt>
      <trkpt lat="38.116661" lon="-77.818763">
        <ele>106.999298</ele>
        <time>2023-10-13T09:39:28.000Z</time>
      </trkpt>
      <trkpt lat="38.115916" lon="-77.81884">
        <ele>106.132316</ele>
        <time>2023-10-13T09:39:36.000Z</time>
      </trkpt>
      <trkpt lat="38.115667" lon="-77.818791">
        <ele>105.859786</ele>
        <time>2023-10-13T09:39:39.000Z</time>
      </trkpt>
      <trkpt lat="38.114357" lon="-77.818085">
        <ele>103.711657</ele>
        <time>2023-10-13T09:39:55.000Z</time>
      </trkpt>
      <trkpt lat="38.114116" lon="-77.817763">
        <ele>103.076481</ele>
        <time>2023-10-13T09:39:59.000Z</time>
      </trkpt>
      <trkpt lat="38.114095" lon="-77.817485">
        <ele>102.663812</ele>
        <time>2023-10-13T09:40:01.000Z</time>
      </trkpt>
      <trkpt lat="38.114266" lon="-77.816316">
        <ele>100.928956</ele>
        <time>2023-10-13T09:40:11.000Z</time>
      </trkpt>
      <trkpt lat="38.114233" lon="-77.815999">
        <ele>100.4696</ele>
        <time>2023-10-13T09:40:14.000Z</time>
      </trkpt>
      <trkpt lat="38.114001" lon="-77.815017">
        <ele>98.972794</ele>
        <time>2023-10-13T09:40:23.000Z</time>
      </trkpt>
      <trkpt lat="38.113982" lon="-77.814683">
        <ele>98.467974</ele>
        <time>2023-10-13T09:40:26.000Z</time>
      </trkpt>
      <trkpt lat="38.114008" lon="-77.814354">
        <ele>98.105744</ele>
        <time>2023-10-13T09:40:29.000Z</time>
      </trkpt>
      <trkpt lat="38.114332" lon="-77.813484">
        <ele>97.164425</ele>
        <time>2023-10-13T09:40:37.000Z</time>
      </trkpt>
      <trkpt lat="38.114351" lon="-77.813081">
        <ele>96.760081</ele>
        <time>2023-10-13T09:40:41.000Z</time>
      </trkpt>
      <trkpt lat="38.114237" lon="-77.812772">
        <ele>96.442007</ele>
        <time>2023-10-13T09:40:44.000Z</time>
      </trkpt>
      <trkpt lat="38.113634" lon="-77.811646">
        <ele>95.95871</ele>
        <time>2023-10-13T09:40:56.000Z</time>
      </trkpt>
      <trkpt lat="38.113447" lon="-77.811762">
        <ele>95.928715</ele>
        <time>2023-10-13T09:40:58.000Z</time>
      </trkpt>
      <trkpt lat="38.113452" lon="-77.811754">
        <ele>95.928517</ele>
        <time>2023-10-13T09:40:58.000Z</time>
      </trkpt>
      <trkpt lat="38.113437" lon="-77.811763">
        <ele>95.928214</ele>
        <time>2023-10-13T09:40:58.000Z</time>
      </trkpt>
      <trkpt lat="38.113435" lon="-77.811764">
        <ele>95.927898</ele>
        <time>2023-10-13T09:40:58.000Z</time>
      </trkpt>
      <trkpt lat="38.113451" lon="-77.811755">
        <ele>95.927714</ele>
        <time>2023-10-13T09:40:58.000Z</time>
      </trkpt>
      <trkpt lat="38.113435" lon="-77.811762">
        <ele>95.927708</ele>
        <time>2023-10-13T09:40:58.000Z</time>
      </trkpt>
      <trkpt lat="38.113445" lon="-77.811768">
        <ele>95.927713</ele>
        <time>2023-10-13T09:40:58.000Z</time>
      </trkpt>
      <trkpt lat="38.11344" lon="-77.811756">
        <ele>95.927578</ele>
        <time>2023-10-13T09:40:58.000Z</time>
      </trkpt>
      <trkpt lat="38.113441" lon="-77.811753">
        <ele>95.927377</ele>
        <time>2023-10-13T09:40:58.000Z</time>
      </trkpt>
      <trkpt lat="38.113643" lon="-77.811644">
        <ele>95.896095</ele>
        <time>2023-10-13T09:41:00.000Z</time>
      </trkpt>
      <trkpt lat="38.114253" lon="-77.812773">
        <ele>96.41942</ele>
        <time>2023-10-13T09:41:12.000Z</time>
      </trkpt>
      <trkpt lat="38.114359" lon="-77.813077">
        <ele>96.731629</ele>
        <time>2023-10-13T09:41:15.000Z</time>
      </trkpt>
      <trkpt lat="38.114327" lon="-77.813483">
        <ele>97.128517</ele>
        <time>2023-10-13T09:41:19.000Z</time>
      </trkpt>
      <trkpt lat="38.114021" lon="-77.814362">
        <ele>98.072459</ele>
        <time>2023-10-13T09:41:27.000Z</time>
      </trkpt>
      <trkpt lat="38.113979" lon="-77.814682">
        <ele>98.517489</ele>
        <time>2023-10-13T09:41:30.000Z</time>
      </trkpt>
      <trkpt lat="38.114003" lon="-77.815018">
        <ele>99.004972</ele>
        <time>2023-10-13T09:41:33.000Z</time>
      </trkpt>
      <trkpt lat="38.114237" lon="-77.815999">
        <ele>100.450376</ele>
        <time>2023-10-13T09:41:42.000Z</time>
      </trkpt>
      <trkpt lat="38.11426" lon="-77.816314">
        <ele>100.893947</ele>
        <time>2023-10-13T09:41:45.000Z</time>
      </trkpt>
      <trkpt lat="38.114089" lon="-77.817494">
        <ele>102.666474</ele>
        <time>2023-10-13T09:41:55.000Z</time>
      </trkpt>
      <trkpt lat="38.114129" lon="-77.817759">
        <ele>103.092032</ele>
        <time>2023-10-13T09:41:57.000Z</time>
      </trkpt>
      <trkpt lat="38.114355" lon="-77.818078">
        <ele>103.747092</ele>
        <time>2023-10-13T09:42:01.000Z</time>
      </trkpt>
      <trkpt lat="38.115672" lon="-77.818794">
        <ele>105.844044</ele>
        <time>2023-10-13T09:42:17.000Z</time>
      </trkpt>
      <trkpt lat="38.115909" lon="-77.818836">
        <ele>106.132073</ele>
        <time>2023-10-13T09:42:20.000Z</time>
      </trkpt>
      <trkpt lat="38.116654" lon="-77.818757">
        <ele>107.041655</ele>
        <time>2023-10-13T09:42:28.000Z</time>
      </trkpt>
      <trkpt lat="38.116963" lon="-77.818733">
        <ele>107.403218</ele>
        <time>2023-10-13T09:42:31.000Z</time>
      </trkpt>
      <trkpt lat="38.117199" lon="-77.818754">
        <ele>107.684212</ele>
        <time>2023-10-13T09:42:34.000Z</time>
      </trkpt>
      <trkpt lat="38.117346" lon="-77.818816">
        <ele>107.861007</ele>
        <time>2023-10-13T09:42:36.000Z</time>
      </trkpt>
      <trkpt lat="38.11757" lon="-77.819074">
        <ele>108.216784</ele>
        <time>2023-10-13T09:42:39.000Z</time>
      </trkpt>
      <trkpt lat="38.117651" lon="-77.819302">
        <ele>108.453877</ele>
        <time>2023-10-13T09:42:41.000Z</time>
      </trkpt>
      <trkpt lat="38.117704" lon="-77.820402">
        <ele>109.520487</ele>
        <time>2023-10-13T09:42:51.000Z</time>
      </trkpt>
      <trkpt lat="38.117829" lon="-77.820818">
        <ele>109.968906</ele>
        <time>2023-10-13T09:42:55.000Z</time>
      </trkpt>
      <trkpt lat="38.117973" lon="-77.821056">
        <ele>110.280393</ele>
        <time>2023-10-13T09:42:58.000Z</time>
      </trkpt>
      <trkpt lat="38.118464" lon="-77.821602">
        <ele>111.117089</ele>
        <time>2023-10-13T09:43:05.000Z</time>
      </trkpt>
      <trkpt lat="38.118703" lon="-77.821943">
        <ele>111.37816</ele>
        <time>2023-10-13T09:43:09.000Z</time>
      </trkpt>
      <trkpt lat="38.118992" lon="-77.822779">
        <ele>111.594043</ele>
        <time>2023-10-13T09:43:17.000Z</time>
      </trkpt>
      <trkpt lat="38.11916" lon="-77.823171">
        <ele>111.699889</ele>
        <time>2023-10-13T09:43:21.000Z</time>
      </trkpt>
      <trkpt lat="38.119396" lon="-77.823013">
        <ele>111.776767</ele>
        <time>2023-10-13T09:43:24.000Z</time>
      </trkpt>
      <trkpt lat="38.119761" lon="-77.822861">
        <ele>111.80977</ele>
        <time>2023-10-13T09:43:28.000Z</time>
      </trkpt>
      <trkpt lat="38.119964" lon="-77.822881">
        <ele>111.752602</ele>
        <time>2023-10-13T09:43:30.000Z</time>
      </trkpt>
      <trkpt lat="38.120194" lon="-77.822956">
        <ele>111.687605</ele>
        <time>2023-10-13T09:43:33.000Z</time>
      </trkpt>
      <trkpt lat="38.120638" lon="-77.823173">
        <ele>111.556097</ele>
        <time>2023-10-13T09:43:38.000Z</time>
      </trkpt>
      <trkpt lat="38.121121" lon="-77.823293">
        <ele>111.414228</ele>
        <time>2023-10-13T09:43:43.000Z</time>
      </trkpt>
      <trkpt lat="38.121908" lon="-77.823191">
        <ele>111.56936</ele>
        <time>2023-10-13T09:43:52.000Z</time>
      </trkpt>
      <trkpt lat="38.122733" lon="-77.823272">
        <ele>111.911599</ele>
        <time>2023-10-13T09:44:01.000Z</time>
      </trkpt>
      <trkpt lat="38.123039" lon="-77.823253">
        <ele>112.040093</ele>
        <time>2023-10-13T09:44:04.000Z</time>
      </trkpt>
      <trkpt lat="38.124192" lon="-77.822903">
        <ele>112.661344</ele>
        <time>2023-10-13T09:44:17.000Z</time>
      </trkpt>
      <trkpt lat="38.124791" lon="-77.822487">
        <ele>113.03205</ele>
        <time>2023-10-13T09:44:25.000Z</time>
      </trkpt>
      <trkpt lat="38.125311" lon="-77.822185">
        <ele>113.223258</ele>
        <time>2023-10-13T09:44:31.000Z</time>
      </trkpt>
      <trkpt lat="38.126356" lon="-77.821239">
        <ele>113.622946</ele>
        <time>2023-10-13T09:44:45.000Z</time>
      </trkpt>
      <trkpt lat="38.128394" lon="-77.820219">
        <ele>114.436786</ele>
        <time>2023-10-13T09:45:09.000Z</time>
      </trkpt>
      <trkpt lat="38.129336" lon="-77.819617">
        <ele>114.731156</ele>
        <time>2023-10-13T09:45:21.000Z</time>
      </trkpt>
      <trkpt lat="38.130267" lon="-77.819339">
        <ele>114.950043</ele>
        <time>2023-10-13T09:45:32.000Z</time>
      </trkpt>
      <trkpt lat="38.130985" lon="-77.818913">
        <ele>115.115129</ele>
        <time>2023-10-13T09:45:41.000Z</time>
      </trkpt>
      <trkpt lat="38.131208" lon="-77.818892">
        <ele>115.163093</ele>
        <time>2023-10-13T09:45:43.000Z</time>
      </trkpt>
      <trkpt lat="38.131844" lon="-77.818988">
        <ele>115.294628</ele>
        <time>2023-10-13T09:45:50.000Z</time>
      </trkpt>
      <trkpt lat="38.133023" lon="-77.818817">
        <ele>115.535304</ele>
        <time>2023-10-13T09:46:03.000Z</time>
      </trkpt>
      <trkpt lat="38.133383" lon="-77.818663">
        <ele>115.641007</ele>
        <time>2023-10-13T09:46:07.000Z</time>
      </trkpt>
      <trkpt lat="38.134929" lon="-77.817788">
        <ele>116.191703</ele>
        <time>2023-10-13T09:46:26.000Z</time>
      </trkpt>
      <trkpt lat="38.135365" lon="-77.8176">
        <ele>116.2955</ele>
        <time>2023-10-13T09:46:31.000Z</time>
      </trkpt>
      <trkpt lat="38.135803" lon="-77.817554">
        <ele>116.393611</ele>
        <time>2023-10-13T09:46:36.000Z</time>
      </trkpt>
      <trkpt lat="38.136649" lon="-77.817755">
        <ele>116.58281</ele>
        <time>2023-10-13T09:46:46.000Z</time>
      </trkpt>
      <trkpt lat="38.137474" lon="-77.817801">
        <ele>116.717094</ele>
        <time>2023-10-13T09:46:55.000Z</time>
      </trkpt>
      <trkpt lat="38.13829" lon="-77.818121">
        <ele>116.856817</ele>
        <time>2023-10-13T09:47:04.000Z</time>
      </trkpt>
      <trkpt lat="38.139048" lon="-77.818303">
        <ele>117.398206</ele>
        <time>2023-10-13T09:47:13.000Z</time>
      </trkpt>
      <trkpt lat="38.139444" lon="-77.818277">
        <ele>117.679321</ele>
        <time>2023-10-13T09:47:17.000Z</time>
      </trkpt>
      <trkpt lat="38.140176" lon="-77.817955">
        <ele>118.20209</ele>
        <time>2023-10-13T09:47:26.000Z</time>
      </trkpt>
      <trkpt lat="38.141296" lon="-77.817397">
        <ele>118.635939</ele>
        <time>2023-10-13T09:47:39.000Z</time>
      </trkpt>
      <trkpt lat="38.141372" lon="-77.817318">
        <ele>118.671049</ele>
        <time>2023-10-13T09:47:40.000Z</time>
      </trkpt>
      <trkpt lat="38.141377" lon="-77.817318">
        <ele>118.671829</ele>
        <time>2023-10-13T09:47:40.000Z</time>
      </trkpt>
      <trkpt lat="38.14137" lon="-77.817324">
        <ele>118.67277</ele>
        <time>2023-10-13T09:47:40.000Z</time>
      </trkpt>
      <trkpt lat="38.141389" lon="-77.817309">
        <ele>118.675834</ele>
        <time>2023-10-13T09:47:40.000Z</time>
      </trkpt>
      <trkpt lat="38.141375" lon="-77.817311">
        <ele>118.676501</ele>
        <time>2023-10-13T09:47:40.000Z</time>
      </trkpt>
      <trkpt lat="38.141384" lon="-77.817304">
        <ele>118.67774</ele>
        <time>2023-10-13T09:47:40.000Z</time>
      </trkpt>
      <trkpt lat="38.141392" lon="-77.817317">
        <ele>118.678197</ele>
        <time>2023-10-13T09:47:40.000Z</time>
      </trkpt>
      <trkpt lat="38.141384" lon="-77.817315">
        <ele>118.679131</ele>
        <time>2023-10-13T09:47:40.000Z</time>
      </trkpt>
      <trkpt lat="38.141383" lon="-77.817314">
        <ele>118.680048</ele>
        <time>2023-10-13T09:47:40.000Z</time>
      </trkpt>
      <trkpt lat="38.141381" lon="-77.817309">
        <ele>118.680517</ele>
        <time>2023-10-13T09:47:40.000Z</time>
      </trkpt>
      <trkpt lat="38.141381" lon="-77.817317">
        <ele>118.681747</ele>
        <time>2023-10-13T09:47:40.000Z</time>
      </trkpt>
      <trkpt lat="38.141378" lon="-77.817319">
        <ele>118.682411</ele>
        <time>2023-10-13T09:47:40.000Z</time>
      </trkpt>
      <trkpt lat="38.141379" lon="-77.817325">
        <ele>118.685481</ele>
        <time>2023-10-13T09:47:40.000Z</time>
      </trkpt>
      <trkpt lat="38.141371" lon="-77.817318">
        <ele>118.6864</ele>
        <time>2023-10-13T09:47:40.000Z</time>
      </trkpt>
      <trkpt lat="38.141378" lon="-77.81733">
        <ele>118.687193</ele>
        <time>2023-10-13T09:47:40.000Z</time>
      </trkpt>
      <trkpt lat="38.141293" lon="-77.817392">
        <ele>118.7223</ele>
        <time>2023-10-13T09:47:41.000Z</time>
      </trkpt>
      <trkpt lat="38.14018" lon="-77.81796">
        <ele>118.159516</ele>
        <time>2023-10-13T09:47:54.000Z</time>
      </trkpt>
      <trkpt lat="38.139442" lon="-77.818272">
        <ele>117.61722</ele>
        <time>2023-10-13T09:48:03.000Z</time>
      </trkpt>
      <trkpt lat="38.139051" lon="-77.818293">
        <ele>117.403705</ele>
        <time>2023-10-13T09:48:07.000Z</time>
      </trkpt>
      <trkpt lat="38.138304" lon="-77.81811">
        <ele>117.007678</ele>
        <time>2023-10-13T09:48:15.000Z</time>
      </trkpt>
      <trkpt lat="38.137478" lon="-77.817818">
        <ele>116.627906</ele>
        <time>2023-10-13T09:48:25.000Z</time>
      </trkpt>
      <trkpt lat="38.136647" lon="-77.817759">
        <ele>116.549031</ele>
        <time>2023-10-13T09:48:34.000Z</time>
      </trkpt>
      <trkpt lat="38.135806" lon="-77.817547">
        <ele>116.458902</ele>
        <time>2023-10-13T09:48:44.000Z</time>
      </trkpt>
      <trkpt lat="38.135361" lon="-77.817606">
        <ele>116.31939</ele>
        <time>2023-10-13T09:48:49.000Z</time>
      </trkpt>
      <trkpt lat="38.134934" lon="-77.817797">
        <ele>116.171773</ele>
        <time>2023-10-13T09:48:54.000Z</time>
      </trkpt>
      <trkpt lat="38.133386" lon="-77.818673">
        <ele>115.666808</ele>
        <time>2023-10-13T09:49:13.000Z</time>
      </trkpt>
      <trkpt lat="38.133013" lon="-77.818819">
        <ele>115.563879</ele>
        <time>2023-10-13T09:49:17.000Z</time>
      </trkpt>
      <trkpt lat="38.131837" lon="-77.818974">
        <ele>115.280429</ele>
        <time>2023-10-13T09:49:30.000Z</time>
      </trkpt>
      <trkpt lat="38.131208" lon="-77.818892">
        <ele>115.147601</ele>
        <time>2023-10-13T09:49:37.000Z</time>
      </trkpt>
      <trkpt lat="38.130974" lon="-77.818921">
        <ele>115.100062</ele>
        <time>2023-10-13T09:49:40.000Z</time>
      </trkpt>
      <trkpt lat="38.130263" lon="-77.819338">
        <ele>114.940191</ele>
        <time>2023-10-13T09:49:49.000Z</time>
      </trkpt>
      <trkpt lat="38.129348" lon="-77.819606">
        <ele>114.753301</ele>
        <time>2023-10-13T09:49:59.000Z</time>
      </trkpt>
      <trkpt lat="38.128379" lon="-77.820216">
        <ele>114.435488</ele>
        <time>2023-10-13T09:50:11.000Z</time>
      </trkpt>
      <trkpt lat="38.126367" lon="-77.821234">
        <ele>113.647561</ele>
        <time>2023-10-13T09:50:35.000Z</time>
      </trkpt>
      <trkpt lat="38.12531" lon="-77.82218">
        <ele>113.184944</ele>
        <time>2023-10-13T09:50:49.000Z</time>
      </trkpt>
      <trkpt lat="38.124796" lon="-77.822484">
        <ele>112.982485</ele>
        <time>2023-10-13T09:50:55.000Z</time>
      </trkpt>
      <trkpt lat="38.124189" lon="-77.822904">
        <ele>112.741387</ele>
        <time>2023-10-13T09:51:03.000Z</time>
      </trkpt>
      <trkpt lat="38.123039" lon="-77.823244">
        <ele>112.022661</ele>
        <time>2023-10-13T09:51:16.000Z</time>
      </trkpt>
      <trkpt lat="38.12274" lon="-77.82328">
        <ele>111.831994</ele>
        <time>2023-10-13T09:51:19.000Z</time>
      </trkpt>
      <trkpt lat="38.121904" lon="-77.823187">
        <ele>111.588253</ele>
        <time>2023-10-13T09:51:28.000Z</time>
      </trkpt>
      <trkpt lat="38.121125" lon="-77.823286">
        <ele>111.510157</ele>
        <time>2023-10-13T09:51:37.000Z</time>
      </trkpt>
      <trkpt lat="38.120622" lon="-77.823172">
        <ele>111.460721</ele>
        <time>2023-10-13T09:51:43.000Z</time>
      </trkpt>
      <trkpt lat="38.120188" lon="-77.822957">
        <ele>111.583645</ele>
        <time>2023-10-13T09:51:48.000Z</time>
      </trkpt>
      <trkpt lat="38.119974" lon="-77.822878">
        <ele>111.644368</ele>
        <time>2023-10-13T09:51:50.000Z</time>
      </trkpt>
      <trkpt lat="38.119773" lon="-77.822867">
        <ele>111.697817</ele>
        <time>2023-10-13T09:51:52.000Z</time>
      </trkpt>
      <trkpt lat="38.119379" lon="-77.823016">
        <ele>111.801636</ele>
        <time>2023-10-13T09:51:57.000Z</time>
      </trkpt>
      <trkpt lat="38.11917" lon="-77.823184">
        <ele>111.869305</ele>
        <time>2023-10-13T09:52:00.000Z</time>
      </trkpt>
      <trkpt lat="38.118996" lon="-77.822792">
        <ele>111.83238</ele>
        <time>2023-10-13T09:52:04.000Z</time>
      </trkpt>
      <trkpt lat="38.118704" lon="-77.821949">
        <ele>111.242638</ele>
        <time>2023-10-13T09:52:12.000Z</time>
      </trkpt>
      <trkpt lat="38.11845" lon="-77.821591">
        <ele>110.947766</ele>
        <time>2023-10-13T09:52:16.000Z</time>
      </trkpt>
      <trkpt lat="38.11798" lon="-77.821042">
        <ele>110.390552</ele>
        <time>2023-10-13T09:52:23.000Z</time>
      </trkpt>
      <trkpt lat="38.117828" lon="-77.820819">
        <ele>110.059808</ele>
        <time>2023-10-13T09:52:26.000Z</time>
      </trkpt>
      <trkpt lat="38.117703" lon="-77.820393">
        <ele>109.583672</ele>
        <time>2023-10-13T09:52:30.000Z</time>
      </trkpt>
      <trkpt lat="38.117653" lon="-77.819306">
        <ele>108.394592</ele>
        <time>2023-10-13T09:52:40.000Z</time>
      </trkpt>
      <trkpt lat="38.117574" lon="-77.819066">
        <ele>108.117688</ele>
        <time>2023-10-13T09:52:42.000Z</time>
      </trkpt>
      <trkpt lat="38.117349" lon="-77.818825">
        <ele>107.769031</ele>
        <time>2023-10-13T09:52:45.000Z</time>
      </trkpt>
      <trkpt lat="38.117201" lon="-77.818759">
        <ele>107.609542</ele>
        <time>2023-10-13T09:52:47.000Z</time>
      </trkpt>
      <trkpt lat="38.116969" lon="-77.81873">
        <ele>107.356033</ele>
        <time>2023-10-13T09:52:50.000Z</time>
      </trkpt>
      <trkpt lat="38.116659" lon="-77.818766">
        <ele>107.029856</ele>
        <time>2023-10-13T09:52:53.000Z</time>
      </trkpt>
      <trkpt lat="38.115908" lon="-77.81883">
        <ele>106.234025</ele>
        <time>2023-10-13T09:53:01.000Z</time>
      </trkpt>
      <trkpt lat="38.115684" lon="-77.818801">
        <ele>105.940736</ele>
        <time>2023-10-13T09:53:04.000Z</time>
      </trkpt>
      <trkpt lat="38.114358" lon="-77.818096">
        <ele>103.763353</ele>
        <time>2023-10-13T09:53:20.000Z</time>
      </trkpt>
      <trkpt lat="38.114126" lon="-77.817775">
        <ele>103.210082</ele>
        <time>2023-10-13T09:53:24.000Z</time>
      </trkpt>
      <trkpt lat="38.114099" lon="-77.817481">
        <ele>102.765758</ele>
        <time>2023-10-13T09:53:27.000Z</time>
      </trkpt>
      <trkpt lat="38.11427" lon="-77.816318">
        <ele>100.888272</ele>
        <time>2023-10-13T09:53:37.000Z</time>
      </trkpt>
      <trkpt lat="38.114238" lon="-77.816011">
        <ele>100.387426</ele>
        <time>2023-10-13T09:53:40.000Z</time>
      </trkpt>
      <trkpt lat="38.114" lon="-77.815027">
        <ele>98.984962</ele>
        <time>2023-10-13T09:53:49.000Z</time>
      </trkpt>
      <trkpt lat="38.113979" lon="-77.81467">
        <ele>98.561318</ele>
        <time>2023-10-13T09:53:52.000Z</time>
      </trkpt>
      <trkpt lat="38.114023" lon="-77.814366">
        <ele>98.174574</ele>
        <time>2023-10-13T09:53:55.000Z</time>
      </trkpt>
      <trkpt lat="38.114326" lon="-77.813481">
        <ele>97.00505</ele>
        <time>2023-10-13T09:54:03.000Z</time>
      </trkpt>
      <trkpt lat="38.114353" lon="-77.81308">
        <ele>96.731215</ele>
        <time>2023-10-13T09:54:07.000Z</time>
      </trkpt>
      <trkpt lat="38.114237" lon="-77.812778">
        <ele>96.528945</ele>
        <time>2023-10-13T09:54:10.000Z</time>
      </trkpt>
      <trkpt lat="38.113632" lon="-77.81164">
        <ele>95.673506</ele>
        <time>2023-10-13T09:54:22.000Z</time>
      </trkpt>
      <trkpt lat="38.113444" lon="-77.811748">
        <ele>95.580905</ele>
        <time>2023-10-13T09:54:24.000Z</time>
      </trkpt>
      <trkpt lat="38.113441" lon="-77.811749">
        <ele>95.581808</ele>
        <time>2023-10-13T09:54:24.000Z</time>
      </trkpt>
      <trkpt lat="38.113451" lon="-77.811763">
        <ele>95.583337</ele>
        <time>2023-10-13T09:54:24.000Z</time>
      </trkpt>
      <trkpt lat="38.113443" lon="-77.811762">
        <ele>95.584856</ele>
        <time>2023-10-13T09:54:24.000Z</time>
      </trkpt>
      <trkpt lat="38.113442" lon="-77.811762">
        <ele>95.585766</ele>
        <time>2023-10-13T09:54:24.000Z</time>
      </trkpt>
      <trkpt lat="38.113443" lon="-77.811752">
        <ele>95.585752</ele>
        <time>2023-10-13T09:54:24.000Z</time>
      </trkpt>
      <trkpt lat="38.113436" lon="-77.811762">
        <ele>95.58576</ele>
        <time>2023-10-13T09:54:24.000Z</time>
      </trkpt>
      <trkpt lat="38.113627" lon="-77.811637">
        <ele>95.737119</ele>
        <time>2023-10-13T09:54:26.000Z</time>
      </trkpt>
      <trkpt lat="38.114247" lon="-77.812779">
        <ele>96.503438</ele>
        <time>2023-10-13T09:54:38.000Z</time>
      </trkpt>
      <trkpt lat="38.114361" lon="-77.813068">
        <ele>96.684627</ele>
        <time>2023-10-13T09:54:41.000Z</time>
      </trkpt>
      <trkpt lat="38.114333" lon="-77.813495">
        <ele>97.02052</ele>
        <time>2023-10-13T09:54:45.000Z</time>
      </trkpt>
      <trkpt lat="38.11402" lon="-77.814354">
        <ele>98.169117</ele>
        <time>2023-10-13T09:54:53.000Z</time>
      </trkpt>
      <trkpt lat="38.113984" lon="-77.814675">
        <ele>98.548926</ele>
        <time>2023-10-13T09:54:56.000Z</time>
      </trkpt>
      <trkpt lat="38.113999" lon="-77.815028">
        <ele>98.96498</ele>
        <time>2023-10-13T09:54:59.000Z</time>
      </trkpt>
      <trkpt lat="38.114245" lon="-77.816006">
        <ele>100.404538</ele>
        <time>2023-10-13T09:55:08.000Z</time>
      </trkpt>
      <trkpt lat="38.114265" lon="-77.816317">
        <ele>100.904055</ele>
        <time>2023-10-13T09:55:11.000Z</time>
      </trkpt>
      <trkpt lat="38.114089" lon="-77.817485">
        <ele>102.776556</ele>
        <time>2023-10-13T09:55:21.000Z</time>
      </trkpt>
      <trkpt lat="38.114129" lon="-77.81776">
        <ele>103.205935</ele>
        <time>2023-10-13T09:55:23.000Z</time>
      </trkpt>
      <trkpt lat="38.114348" lon="-77.818092">
        <ele>103.73603</ele>
        <time>2023-10-13T09:55:27.000Z</time>
      </trkpt>
      <trkpt lat="38.115675" lon="-77.818805">
        <ele>105.971823</ele>
        <time>2023-10-13T09:55:43.000Z</time>
      </trkpt>
      <trkpt lat="38.115915" lon="-77.81884">
        <ele>106.221461</ele>
        <time>2023-10-13T09:55:46.000Z</time>
      </trkpt>
      <trkpt lat="38.116659" lon="-77.818761">
        <ele>107.015646</ele>
        <time>2023-10-13T09:55:54.000Z</time>
      </trkpt>
      <trkpt lat="38.116959" lon="-77.818719">
        <ele>107.341145</ele>
        <time>2023-10-13T09:55:57.000Z</time>
      </trkpt>
      <trkpt lat="38.117207" lon="-77.818752">
        <ele>107.594149</ele>
        <time>2023-10-13T09:56:00.000Z</time>
      </trkpt>
      <trkpt lat="38.117344" lon="-77.818828">
        <ele>107.7533</ele>
        <time>2023-10-13T09:56:02.000Z</time>
      </trkpt>
      <trkpt lat="38.117574" lon="-77.819081">
        <ele>108.134448</ele>
        <time>2023-10-13T09:56:05.000Z</time>
      </trkpt>
      <trkpt lat="38.117648" lon="-77.819297">
        <ele>108.410199</ele>
        <time>2023-10-13T09:56:07.000Z</time>
      </trkpt>
      <trkpt lat="38.117703" lon="-77.820399">
        <ele>109.594289</ele>
        <time>2023-10-13T09:56:17.000Z</time>
      </trkpt>
      <trkpt lat="38.117823" lon="-77.820811">
        <ele>110.068445</ele>
        <time>2023-10-13T09:56:21.000Z</time>
      </trkpt>
      <trkpt lat="38.117972" lon="-77.821049">
        <ele>110.372766</ele>
        <time>2023-10-13T09:56:24.000Z</time>
      </trkpt>
      <trkpt lat="38.118454" lon="-77.821597">
        <ele>110.941293</ele>
        <time>2023-10-13T09:56:31.000Z</time>
      </trkpt>
      <trkpt lat="38.118689" lon="-77.821944">
        <ele>111.260536</ele>
        <time>2023-10-13T09:56:35.000Z</time>
      </trkpt>
      <trkpt lat="38.118996" lon="-77.822796">
        <ele>111.899027</ele>
        <time>2023-10-13T09:56:43.000Z</time>
      </trkpt>
      <trkpt lat="38.119167" lon="-77.823186">
        <ele>111.830404</ele>
        <time>2023-10-13T09:56:47.000Z</time>
      </trkpt>
      <trkpt lat="38.119394" lon="-77.823022">
        <ele>111.770184</ele>
        <time>2023-10-13T09:56:50.000Z</time>
      </trkpt>
      <trkpt lat="38.119761" lon="-77.822874">
        <ele>111.677787</ele>
        <time>2023-10-13T09:56:54.000Z</time>
      </trkpt>
      <trkpt lat="38.119979" lon="-77.82288">
        <ele>111.63024</ele>
        <time>2023-10-13T09:56:56.000Z</time>
      </trkpt>
      <trkpt lat="38.120199" lon="-77.822965">
        <ele>111.57621</ele>
        <time>2023-10-13T09:56:59.000Z</time>
      </trkpt>
      <trkpt lat="38.120632" lon="-77.823187">
        <ele>111.4969</ele>
        <time>2023-10-13T09:57:04.000Z</time>
      </trkpt>
      <trkpt lat="38.121131" lon="-77.823291">
        <ele>111.52441</ele>
        <time>2023-10-13T09:57:10.000Z</time>
      </trkpt>
      <trkpt lat="38.121897" lon="-77.823202">
        <ele>111.566736</ele>
        <time>2023-10-13T09:57:19.000Z</time>
      </trkpt>
      <trkpt lat="38.12274" lon="-77.823277">
        <ele>111.845261</ele>
        <time>2023-10-13T09:57:28.000Z</time>
      </trkpt>
      <trkpt lat="38.123044" lon="-77.823255">
        <ele>112.034575</ele>
        <time>2023-10-13T09:57:31.000Z</time>
      </trkpt>
      <trkpt lat="38.124183" lon="-77.822918">
        <ele>112.722338</ele>
        <time>2023-10-13T09:57:44.000Z</time>
      </trkpt>
      <trkpt lat="38.124786" lon="-77.822476">
        <ele>112.974124</ele>
        <time>2023-10-13T09:57:52.000Z</time>
      </trkpt>
      <trkpt lat="38.125321" lon="-77.822177">
        <ele>113.185552</ele>
        <time>2023-10-13T09:57:58.000Z</time>
      </trkpt>
      <trkpt lat="38.126363" lon="-77.821244">
        <ele>113.649909</ele>
        <time>2023-10-13T09:58:12.000Z</time>
      </trkpt>
      <trkpt lat="38.128379" lon="-77.820202">
        <ele>114.440847</ele>
        <time>2023-10-13T09:58:36.000Z</time>
      </trkpt>
      <trkpt lat="38.12935" lon="-77.819604">
        <ele>114.747992</ele>
        <time>2023-10-13T09:58:48.000Z</time>
      </trkpt>
      <trkpt lat="38.130264" lon="-77.81933">
        <ele>114.937044</ele>
        <time>2023-10-13T09:58:58.000Z</time>
      </trkpt>
      <trkpt lat="38.130972" lon="-77.81891">
        <ele>115.099679</ele>
        <time>2023-10-13T09:59:07.000Z</time>
      </trkpt>
      <trkpt lat="38.131204" lon="-77.818893">
        <ele>115.147789</ele>
        <time>2023-10-13T09:59:10.000Z</time>
      </trkpt>
      <trkpt lat="38.131845" lon="-77.818985">
        <ele>115.282172</ele>
        <time>2023-10-13T09:59:17.000Z</time>
      </trkpt>
      <trkpt lat="38.133024" lon="-77.818823">
        <ele>115.566879</ele>
        <time>2023-10-13T09:59:30.000Z</time>
      </trkpt>
      <trkpt lat="38.133388" lon="-77.818672">
        <ele>115.66602</ele>
        <time>2023-10-13T09:59:34.000Z</time>
      </trkpt>
      <trkpt lat="38.134926" lon="-77.817788">
        <ele>116.175964</ele>
        <time>2023-10-13T09:59:53.000Z</time>
      </trkpt>
      <trkpt lat="38.135378" lon="-77.817596">
        <ele>116.326912</ele>
        <time>2023-10-13T09:59:58.000Z</time>
      </trkpt>
      <trkpt lat="38.135795" lon="-77.817548">
        <ele>116.452487</ele>
        <time>2023-10-13T10:00:03.000Z</time>
      </trkpt>
      <trkpt lat="38.136655" lon="-77.817767">
        <ele>116.541325</ele>
        <time>2023-10-13T10:00:13.000Z</time>
      </trkpt>
      <trkpt lat="38.137474" lon="-77.817813">
        <ele>116.62581</ele>
        <time>2023-10-13T10:00:22.000Z</time>
      </trkpt>
      <trkpt lat="38.13829" lon="-77.818123">
        <ele>117.015729</ele>
        <time>2023-10-13T10:00:31.000Z</time>
      </trkpt>
      <trkpt lat="38.139058" lon="-77.81829">
        <ele>117.378616</ele>
        <time>2023-10-13T10:00:40.000Z</time>
      </trkpt>
      <trkpt lat="38.139453" lon="-77.818272">
        <ele>117.608632</ele>
        <time>2023-10-13T10:00:44.000Z</time>
      </trkpt>
      <trkpt lat="38.140188" lon="-77.817953">
        <ele>118.174596</ele>
        <time>2023-10-13T10:00:53.000Z</time>
      </trkpt>
      <trkpt lat="38.141299" lon="-77.817393">
        <ele>118.671214</ele>
        <time>2023-10-13T10:01:06.000Z</time>
      </trkpt>
      <trkpt lat="38.141362" lon="-77.817317">
        <ele>118.642296</ele>
        <time>2023-10-13T10:01:07.000Z</time>
      </trkpt>
      <trkpt lat="38.141377" lon="-77.817329">
        <ele>118.641639</ele>
        <time>2023-10-13T10:01:07.000Z</time>
      </trkpt>
      <trkpt lat="38.141374" lon="-77.817319">
        <ele>118.640879</ele>
        <time>2023-10-13T10:01:07.000Z</time>
      </trkpt>
      <trkpt lat="38.141375" lon="-77.817304">
        <ele>118.638352</ele>
        <time>2023-10-13T10:01:07.000Z</time>
      </trkpt>
      <trkpt lat="38.141392" lon="-77.817311">
        <ele>118.637794</ele>
        <time>2023-10-13T10:01:07.000Z</time>
      </trkpt>
      <trkpt lat="38.141377" lon="-77.817303">
        <ele>118.636778</ele>
        <time>2023-10-13T10:01:07.000Z</time>
      </trkpt>
      <trkpt lat="38.141383" lon="-77.817307">
        <ele>118.636411</ele>
        <time>2023-10-13T10:01:07.000Z</time>
      </trkpt>
      <trkpt lat="38.141378" lon="-77.817316">
        <ele>118.636023</ele>
        <time>2023-10-13T10:01:07.000Z</time>
      </trkpt>
      <trkpt lat="38.141376" lon="-77.81732">
        <ele>118.635006</ele>
        <time>2023-10-13T10:01:07.000Z</time>
      </trkpt>
      <trkpt lat="38.141389" lon="-77.817307">
        <ele>118.634454</ele>
        <time>2023-10-13T10:01:07.000Z</time>
      </trkpt>
      <trkpt lat="38.141368" lon="-77.817312">
        <ele>118.631936</ele>
        <time>2023-10-13T10:01:07.000Z</time>
      </trkpt>
      <trkpt lat="38.141375" lon="-77.817318">
        <ele>118.631158</ele>
        <time>2023-10-13T10:01:07.000Z</time>
      </trkpt>
      <trkpt lat="38.141364" lon="-77.817321">
        <ele>118.630523</ele>
        <time>2023-10-13T10:01:07.000Z</time>
      </trkpt>
      <trkpt lat="38.141297" lon="-77.817392">
        <ele>118.6016</ele>
        <time>2023-10-13T10:01:08.000Z</time>
      </trkpt>
      <trkpt lat="38.140177" lon="-77.817962">
        <ele>118.244246</ele>
        <time>2023-10-13T10:01:21.000Z</time>
      </trkpt>
      <trkpt lat="38.139439" lon="-77.818284">
        <ele>117.671759</ele>
        <time>2023-10-13T10:01:30.000Z</time>
      </trkpt>
      <trkpt lat="38.139059" lon="-77.818289">
        <ele>117.383884</ele>
        <time>2023-10-13T10:01:34.000Z</time>
      </trkpt>
      <trkpt lat="38.138296" lon="-77.818112">
        <ele>116.88598</ele>
        <time>2023-10-13T10:01:43.000Z</time>
      </trkpt>
      <trkpt lat="38.137478" lon="-77.817814">
        <ele>116.726186</ele>
        <time>2023-10-13T10:01:52.000Z</time>
      </trkpt>
      <trkpt lat="38.13666" lon="-77.817763">
        <ele>116.57235</ele>
        <time>2023-10-13T10:02:01.000Z</time>
      </trkpt>
      <trkpt lat="38.135812" lon="-77.817555">
        <ele>116.391497</ele>
        <time>2023-10-13T10:02:11.000Z</time>
      </trkpt>
      <trkpt lat="38.135364" lon="-77.81761">
        <ele>116.300436</ele>
        <time>2023-10-13T10:02:16.000Z</time>
      </trkpt>
      <trkpt lat="38.134938" lon="-77.81778">
        <ele>116.204073</ele>
        <time>2023-10-13T10:02:21.000Z</time>
      </trkpt>
      <trkpt lat="38.133375" lon="-77.818664">
        <ele>115.634534</ele>
        <time>2023-10-13T10:02:40.000Z</time>
      </trkpt>
      <trkpt lat="38.133022" lon="-77.818821">
        <ele>115.540812</ele>
        <time>2023-10-13T10:02:44.000Z</time>
      </trkpt>
      <trkpt lat="38.131854" lon="-77.818978">
        <ele>115.297143</ele>
        <time>2023-10-13T10:02:57.000Z</time>
      </trkpt>
      <trkpt lat="38.131198" lon="-77.818895">
        <ele>115.163558</ele>
        <time>2023-10-13T10:03:04.000Z</time>
      </trkpt>
      <trkpt lat="38.130985" lon="-77.81891">
        <ele>115.115148</ele>
        <time>2023-10-13T10:03:06.000Z</time>
      </trkpt>
      <trkpt lat="38.130255" lon="-77.819348">
        <ele>114.948483</ele>
        <time>2023-10-13T10:03:15.000Z</time>
      </trkpt>
      <trkpt lat="38.129338" lon="-77.819607">
        <ele>114.726546</ele>
        <time>2023-10-13T10:03:25.000Z</time>
      </trkpt>
      <trkpt lat="38.128384" lon="-77.820216">
        <ele>114.443678</ele>
        <time>2023-10-13T10:03:37.000Z</time>
      </trkpt>
      <trkpt lat="38.126368" lon="-77.821235">
        <ele>113.627699</ele>
        <time>2023-10-13T10:04:01.000Z</time>
      </trkpt>
      <trkpt lat="38.125311" lon="-77.822188">
        <ele>113.226648</ele>
        <time>2023-10-13T10:04:15.000Z</time>
      </trkpt>
      <trkpt lat="38.12478" lon="-77.82247">
        <ele>113.013992</ele>
        <time>2023-10-13T10:04:21.000Z</time>
      </trkpt>
      <trkpt lat="38.124188" lon="-77.822911">
        <ele>112.655736</ele>
        <time>2023-10-13T10:04:29.000Z</time>
      </trkpt>
      <trkpt lat="38.123043" lon="-77.823247">
        <ele>112.057592</ele>
        <time>2023-10-13T10:04:42.000Z</time>
      </trkpt>
      <trkpt lat="38.122731" lon="-77.82327">
        <ele>111.918428</ele>
        <time>2023-10-13T10:04:45.000Z</time>
      </trkpt>
      <trkpt lat="38.121911" lon="-77.823197">
        <ele>111.547768</ele>
        <time>2023-10-13T10:04:54.000Z</time>
      </trkpt>
      <trkpt lat="38.121131" lon="-77.823281">
        <ele>111.440855</ele>
        <time>2023-10-13T10:05:03.000Z</time>
      </trkpt>
      <trkpt lat="38.120639" lon="-77.823185">
        <ele>111.570492</ele>
        <time>2023-10-13T10:05:09.000Z</time>
      </trkpt>
      <trkpt lat="38.120203" lon="-77.822964">
        <ele>111.69068</ele>
        <time>2023-10-13T10:05:14.000Z</time>
      </trkpt>
      <trkpt lat="38.119964" lon="-77.822872">
        <ele>111.750063</ele>
        <time>2023-10-13T10:05:17.000Z</time>
      </trkpt>
      <trkpt lat="38.119765" lon="-77.822876">
        <ele>111.802307</ele>
        <time>2023-10-13T10:05:19.000Z</time>
      </trkpt>
      <trkpt lat="38.119391" lon="-77.823013">
        <ele>111.734826</ele>
        <time>2023-10-13T10:05:23.000Z</time>
      </trkpt>
      <trkpt lat="38.119172" lon="-77.823185">
        <ele>111.677137</ele>
        <time>2023-10-13T10:05:26.000Z</time>
      </trkpt>
      <trkpt lat="38.118987" lon="-77.822784">
        <ele>111.597715</ele>
        <time>2023-10-13T10:05:30.000Z</time>
      </trkpt>
      <trkpt lat="38.118697" lon="-77.821937">
        <ele>111.435708</ele>
        <time>2023-10-13T10:05:38.000Z</time>
      </trkpt>
      <trkpt lat="38.11846" lon="-77.821598">
        <ele>111.087273</ele>
        <time>2023-10-13T10:05:42.000Z</time>
      </trkpt>
      <trkpt lat="38.117979" lon="-77.821049">
        <ele>110.269891</ele>
        <time>2023-10-13T10:05:49.000Z</time>
      </trkpt>
      <trkpt lat="38.117831" lon="-77.820805">
        <ele>109.965585</ele>
        <time>2023-10-13T10:05:52.000Z</time>
      </trkpt>
      <trkpt lat="38.117695" lon="-77.820399">
        <ele>109.527522</ele>
        <time>2023-10-13T10:05:56.000Z</time>
      </trkpt>
      <trkpt lat="38.117666" lon="-77.819304">
        <ele>108.466566</ele>
        <time>2023-10-13T10:06:06.000Z</time>
      </trkpt>
      <trkpt lat="38.117574" lon="-77.819083">
        <ele>108.223777</ele>
        <time>2023-10-13T10:06:08.000Z</time>
      </trkpt>
      <trkpt lat="38.117333" lon="-77.81881">
        <ele>107.859458</ele>
        <time>2023-10-13T10:06:12.000Z</time>
      </trkpt>
      <trkpt lat="38.1172" lon="-77.818744">
        <ele>107.67844</ele>
        <time>2023-10-13T10:06:14.000Z</time>
      </trkpt>
      <trkpt lat="38.116961" lon="-77.818727">
        <ele>107.390682</ele>
        <time>2023-10-13T10:06:17.000Z</time>
      </trkpt>
      <trkpt lat="38.116656" lon="-77.818765">
        <ele>107.020462</ele>
        <time>2023-10-13T10:06:20.000Z</time>
      </trkpt>
      <trkpt lat="38.115907" lon="-77.818837">
        <ele>106.130108</ele>
        <time>2023-10-13T10:06:28.000Z</time>
      </trkpt>
      <trkpt lat="38.115671" lon="-77.818802">
        <ele>105.8505</ele>
        <time>2023-10-13T10:06:31.000Z</time>
      </trkpt>
      <trkpt lat="38.114349" lon="-77.818079">
        <ele>103.727903</ele>
        <time>2023-10-13T10:06:47.000Z</time>
      </trkpt>
      <trkpt lat="38.114117" lon="-77.817776">
        <ele>103.0823</ele>
        <time>2023-10-13T10:06:51.000Z</time>
      </trkpt>
      <trkpt lat="38.11409" lon="-77.817491">
        <ele>102.662887</ele>
        <time>2023-10-13T10:06:54.000Z</time>
      </trkpt>
      <trkpt lat="38.114264" lon="-77.816314">
        <ele>100.914125</ele>
        <time>2023-10-13T10:07:04.000Z</time>
      </trkpt>
      <trkpt lat="38.114237" lon="-77.816001">
        <ele>100.462247</ele>
        <time>2023-10-13T10:07:07.000Z</time>
      </trkpt>
      <trkpt lat="38.114" lon="-77.815027">
        <ele>98.989787</ele>
        <time>2023-10-13T10:07:16.000Z</time>
      </trkpt>
      <trkpt lat="38.113979" lon="-77.81467">
        <ele>98.493157</ele>
        <time>2023-10-13T10:07:19.000Z</time>
      </trkpt>
      <trkpt lat="38.114021" lon="-77.814365">
        <ele>98.080113</ele>
        <time>2023-10-13T10:07:22.000Z</time>
      </trkpt>
      <trkpt lat="38.114325" lon="-77.813481">
        <ele>97.162367</ele>
        <time>2023-10-13T10:07:30.000Z</time>
      </trkpt>
      <trkpt lat="38.114361" lon="-77.813069">
        <ele>96.768137</ele>
        <time>2023-10-13T10:07:34.000Z</time>
      </trkpt>
      <trkpt lat="38.114243" lon="-77.812774">
        <ele>96.458038</ele>
        <time>2023-10-13T10:07:37.000Z</time>
      </trkpt>
      <trkpt lat="38.113633" lon="-77.811647">
        <ele>95.948369</ele>
        <time>2023-10-13T10:07:49.000Z</time>
      </trkpt>
      <trkpt lat="38.113442" lon="-77.811749">
        <ele>95.939045</ele>
        <time>2023-10-13T10:07:51.000Z</time>
      </trkpt>
      <trkpt lat="38.113439" lon="-77.81176">
        <ele>95.938991</ele>
        <time>2023-10-13T10:07:51.000Z</time>
      </trkpt>
      <trkpt lat="38.113454" lon="-77.811755">
        <ele>95.938882</ele>
        <time>2023-10-13T10:07:51.000Z</time>
      </trkpt>
      <trkpt lat="38.113441" lon="-77.811756">
        <ele>95.9388</ele>
        <time>2023-10-13T10:07:51.000Z</time>
      </trkpt>
      <trkpt lat="38.113438" lon="-77.811764">
        <ele>95.938737</ele>
        <time>2023-10-13T10:07:51.000Z</time>
      </trkpt>
      <trkpt lat="38.113452" lon="-77.811769">
        <ele>95.938744</ele>
        <time>2023-10-13T10:07:51.000Z</time>
      </trkpt>
      <trkpt lat="38.113441" lon="-77.811767">
        <ele>95.938731</ele>
        <time>2023-10-13T10:07:51.000Z</time>
      </trkpt>
      <trkpt lat="38.113444" lon="-77.811754">
        <ele>95.938683</ele>
        <time>2023-10-13T10:07:51.000Z</time>
      </trkpt>
      <trkpt lat="38.11344" lon="-77.811752">
        <ele>95.938631</ele>
        <time>2023-10-13T10:07:51.000Z</time>
      </trkpt>
      <trkpt lat="38.113633" lon="-77.811642">
        <ele>95.928906</ele>
        <time>2023-10-13T10:07:53.000Z</time>
      </trkpt>
      <trkpt lat="38.114251" lon="-77.81277">
        <ele>96.399951</ele>
        <time>2023-10-13T10:08:05.000Z</time>
      </trkpt>
      <trkpt lat="38.114343" lon="-77.813066">
        <ele>96.720475</ele>
        <time>2023-10-13T10:08:08.000Z</time>
      </trkpt>
      <trkpt lat="38.114321" lon="-77.813493">
        <ele>97.127914</ele>
        <time>2023-10-13T10:08:12.000Z</time>
      </trkpt>
      <trkpt lat="38.114008" lon="-77.814365">
        <ele>98.076477</ele>
        <time>2023-10-13T10:08:20.000Z</time>
      </trkpt>
      <trkpt lat="38.113977" lon="-77.814672">
        <ele>98.49496</ele>
        <time>2023-10-13T10:08:23.000Z</time>
      </trkpt>
      <trkpt lat="38.113993" lon="-77.815019">
        <ele>98.99104</ele>
        <time>2023-10-13T10:08:26.000Z</time>
      </trkpt>
      <trkpt lat="38.114239" lon="-77.816009">
        <ele>100.461849</ele>
        <time>2023-10-13T10:08:35.000Z</time>
      </trkpt>
      <trkpt lat="38.114264" lon="-77.816323">
        <ele>100.913238</ele>
        <time>2023-10-13T10:08:38.000Z</time>
      </trkpt>
      <trkpt lat="38.114099" lon="-77.817495">
        <ele>102.662964</ele>
        <time>2023-10-13T10:08:48.000Z</time>
      </trkpt>
      <trkpt lat="38.114117" lon="-77.817768">
        <ele>103.082745</ele>
        <time>2023-10-13T10:08:50.000Z</time>
      </trkpt>
      <trkpt lat="38.114352" lon="-77.81808">
        <ele>103.728878</ele>
        <time>2023-10-13T10:08:54.000Z</time>
      </trkpt>
      <trkpt lat="38.115678" lon="-77.818799">
        <ele>105.850056</ele>
        <time>2023-10-13T10:09:10.000Z</time>
      </trkpt>
      <trkpt lat="38.115915" lon="-77.818839">
        <ele>106.130109</ele>
        <time>2023-10-13T10:09:13.000Z</time>
      </trkpt>
      <trkpt lat="38.116653" lon="-77.818756">
        <ele>107.021745</ele>
        <time>2023-10-13T10:09:21.000Z</time>
      </trkpt>
      <trkpt lat="38.116961" lon="-77.818719">
        <ele>107.391495</ele>
        <time>2023-10-13T10:09:24.000Z</time>
      </trkpt>
      <trkpt lat="38.117204" lon="-77.818749">
        <ele>107.678873</ele>
        <time>2023-10-13T10:09:27.000Z</time>
      </trkpt>
      <trkpt lat="38.117336" lon="-77.818827">
        <ele>107.859644</ele>
        <time>2023-10-13T10:09:29.000Z</time>
      </trkpt>
      <trkpt lat="38.117572" lon="-77.819069">
        <ele>108.223496</ele>
        <time>2023-10-13T10:09:32.000Z</time>
      </trkpt>
      <trkpt lat="38.117657" lon="-77.8193">
        <ele>108.465961</ele>
        <time>2023-10-13T10:09:34.000Z</time>
      </trkpt>
      <trkpt lat="38.117692" lon="-77.820396">
        <ele>109.526948</ele>
        <time>2023-10-13T10:09:44.000Z</time>
      </trkpt>
      <trkpt lat="38.11783" lon="-77.820816">
        <ele>109.965629</ele>
        <time>2023-10-13T10:09:48.000Z</time>
      </trkpt>
      <trkpt lat="38.11798" lon="-77.821048">
        <ele>110.270348</ele>
        <time>2023-10-13T10:09:51.000Z</time>
      </trkpt>
      <trkpt lat="38.118452" lon="-77.821594">
        <ele>111.088902</ele>
        <time>2023-10-13T10:09:58.000Z</time>
      </trkpt>
      <trkpt lat="38.1187" lon="-77.821949">
        <ele>111.432457</ele>
        <time>2023-10-13T10:10:02.000Z</time>
      </trkpt>
      <trkpt lat="38.118992" lon="-77.822778">
        <ele>111.597281</ele>
        <time>2023-10-13T10:10:10.000Z</time>
      </trkpt>
      <trkpt lat="38.119172" lon="-77.823177">
        <ele>111.678093</ele>
        <time>2023-10-13T10:10:14.000Z</time>
      </trkpt>
      <trkpt lat="38.119382" lon="-77.823015">
        <ele>111.736804</ele>
        <time>2023-10-13T10:10:17.000Z</time>
      </trkpt>
      <trkpt lat="38.119759" lon="-77.822866">
        <ele>111.802915</ele>
        <time>2023-10-13T10:10:21.000Z</time>
      </trkpt>
      <trkpt lat="38.119966" lon="-77.822881">
        <ele>111.75037</ele>
        <time>2023-10-13T10:10:23.000Z</time>
      </trkpt>
      <trkpt lat="38.120186" lon="-77.822959">
        <ele>111.690653</ele>
        <time>2023-10-13T10:10:26.000Z</time>
      </trkpt>
      <trkpt lat="38.120629" lon="-77.823186">
        <ele>111.569807</ele>
        <time>2023-10-13T10:10:31.000Z</time>
      </trkpt>
      <trkpt lat="38.121137" lon="-77.823291">
        <ele>111.439427</ele>
        <time>2023-10-13T10:10:37.000Z</time>
      </trkpt>
      <trkpt lat="38.121908" lon="-77.8232">
        <ele>111.548994</ele>
        <time>2023-10-13T10:10:46.000Z</time>
      </trkpt>
      <trkpt lat="38.122738" lon="-77.823271">
        <ele>111.918178</ele>
        <time>2023-10-13T10:10:55.000Z</time>
      </trkpt>
      <trkpt lat="38.123039" lon="-77.823251">
        <ele>112.056814</ele>
        <time>2023-10-13T10:10:58.000Z</time>
      </trkpt>
      <trkpt lat="38.124191" lon="-77.822913">
        <ele>112.655974</ele>
        <time>2023-10-13T10:11:11.000Z</time>
      </trkpt>
      <trkpt lat="38.124793" lon="-77.822481">
        <ele>113.01491</ele>
        <time>2023-10-13T10:11:19.000Z</time>
      </trkpt>
      <trkpt lat="38.125324" lon="-77.822171">
        <ele>113.226513</ele>
        <time>2023-10-13T10:11:25.000Z</time>
      </trkpt>
      <trkpt lat="38.126365" lon="-77.821245">
        <ele>113.627411</ele>
        <time>2023-10-13T10:11:39.000Z</time>
      </trkpt>
      <trkpt lat="38.128391" lon="-77.820204">
        <ele>114.443264</ele>
        <time>2023-10-13T10:12:03.000Z</time>
      </trkpt>
      <trkpt lat="38.129338" lon="-77.819602">
        <ele>114.726751</ele>
        <time>2023-10-13T10:12:15.000Z</time>
      </trkpt>
      <trkpt lat="38.130266" lon="-77.819338">
        <ele>114.948587</ele>
        <time>2023-10-13T10:12:26.000Z</time>
      </trkpt>
      <trkpt lat="38.13098" lon="-77.818913">
        <ele>115.115167</ele>
        <time>2023-10-13T10:12:35.000Z</time>
      </trkpt>
      <trkpt lat="38.13121" lon="-77.818892">
        <ele>115.163553</ele>
        <time>2023-10-13T10:12:38.000Z</time>
      </trkpt>
      <trkpt lat="38.131851" lon="-77.818987">
        <ele>115.29702</ele>
        <time>2023-10-13T10:12:45.000Z</time>
      </trkpt>
      <trkpt lat="38.133013" lon="-77.818822">
        <ele>115.54052</ele>
        <time>2023-10-13T10:12:58.000Z</time>
      </trkpt>
      <trkpt lat="38.133376" lon="-77.818671">
        <ele>115.634888</ele>
        <time>2023-10-13T10:13:02.000Z</time>
      </trkpt>
      <trkpt lat="38.134932" lon="-77.81779">
        <ele>116.203341</ele>
        <time>2023-10-13T10:13:21.000Z</time>
      </trkpt>
      <trkpt lat="38.135369" lon="-77.817596">
        <ele>116.300096</ele>
        <time>2023-10-13T10:13:26.000Z</time>
      </trkpt>
      <trkpt lat="38.135806" lon="-77.817559">
        <ele>116.391543</ele>
        <time>2023-10-13T10:13:31.000Z</time>
      </trkpt>
      <trkpt lat="38.13665" lon="-77.817764">
        <ele>116.573144</ele>
        <time>2023-10-13T10:13:41.000Z</time>
      </trkpt>
      <trkpt lat="38.137478" lon="-77.817805">
        <ele>116.725799</ele>
        <time>2023-10-13T10:13:50.000Z</time>
      </trkpt>
      <trkpt lat="38.138297" lon="-77.818111">
        <ele>116.884443</ele>
        <time>2023-10-13T10:13:59.000Z</time>
      </trkpt>
      <trkpt lat="38.139049" lon="-77.818301">
        <ele>117.384688</ele>
        <time>2023-10-13T10:14:08.000Z</time>
      </trkpt>
      <trkpt lat="38.139439" lon="-77.818273">
        <ele>117.672225</ele>
        <time>2023-10-13T10:14:12.000Z</time>
      </trkpt>
      <trkpt lat="38.140179" lon="-77.81796">
        <ele>118.241616</ele>
        <time>2023-10-13T10:14:21.000Z</time>
      </trkpt>
      <trkpt lat="38.141293" lon="-77.817386">
        <ele>118.600547</ele>
        <time>2023-10-13T10:14:34.000Z</time>
      </trkpt>
      <trkpt lat="38.14138" lon="-77.817328">
        <ele>118.629602</ele>
        <time>2023-10-13T10:14:35.000Z</time>
      </trkpt>
      <trkpt lat="38.141372" lon="-77.817329">
        <ele>118.630245</ele>
        <time>2023-10-13T10:14:35.000Z</time>
      </trkpt>
      <trkpt lat="38.141379" lon="-77.817327">
        <ele>118.631009</ele>
        <time>2023-10-13T10:14:35.000Z</time>
      </trkpt>
      <trkpt lat="38.141387" lon="-77.817309">
        <ele>118.633546</ele>
        <time>2023-10-13T10:14:35.000Z</time>
      </trkpt>
      <trkpt lat="38.141385" lon="-77.817314">
        <ele>118.634118</ele>
        <time>2023-10-13T10:14:35.000Z</time>
      </trkpt>
      <trkpt lat="38.14138" lon="-77.817316">
        <ele>118.634675</ele>
        <time>2023-10-13T10:14:35.000Z</time>
      </trkpt>
      <trkpt lat="38.141371" lon="-77.817316">
        <ele>118.637198</ele>
        <time>2023-10-13T10:14:35.000Z</time>
      </trkpt>
      <trkpt lat="38.141365" lon="-77.817328">
        <ele>118.637978</ele>
        <time>2023-10-13T10:14:35.000Z</time>
      </trkpt>
      <trkpt lat="38.141366" lon="-77.817315">
        <ele>118.638614</ele>
        <time>2023-10-13T10:14:35.000Z</time>
      </trkpt>
      <trkpt lat="38.141282" lon="-77.817385">
        <ele>118.667662</ele>
        <time>2023-10-13T10:14:36.000Z</time>
      </trkpt>
      <trkpt lat="38.140188" lon="-77.817957">
        <ele>118.174853</ele>
        <time>2023-10-13T10:14:49.000Z</time>
      </trkpt>
      <trkpt lat="38.139454" lon="-77.818277">
        <ele>117.608382</ele>
        <time>2023-10-13T10:14:58.000Z</time>
      </trkpt>
      <trkpt lat="38.139051" lon="-77.818297">
        <ele>117.377588</ele>
        <time>2023-10-13T10:15:02.000Z</time>
      </trkpt>
      <trkpt lat="38.138294" lon="-77.818116">
        <ele>117.01589</ele>
        <time>2023-10-13T10:15:11.000Z</time>
      </trkpt>
      <trkpt lat="38.137467" lon="-77.817818">
        <ele>116.625863</ele>
        <time>2023-10-13T10:15:21.000Z</time>
      </trkpt>
      <trkpt lat="38.136645" lon="-77.81777">
        <ele>116.54111</ele>
        <time>2023-10-13T10:15:30.000Z</time>
      </trkpt>
      <trkpt lat="38.135806" lon="-77.817546">
        <ele>116.451999</ele>
        <time>2023-10-13T10:15:40.000Z</time>
      </trkpt>
      <trkpt lat="38.135374" lon="-77.81761">
        <ele>116.327193</ele>
        <time>2023-10-13T10:15:45.000Z</time>
      </trkpt>
      <trkpt lat="38.134935" lon="-77.817789">
        <ele>116.176128</ele>
        <time>2023-10-13T10:15:50.000Z</time>
      </trkpt>
      <trkpt lat="38.133379" lon="-77.818668">
        <ele>115.665963</ele>
        <time>2023-10-13T10:16:09.000Z</time>
      </trkpt>
      <trkpt lat="38.133021" lon="-77.818832">
        <ele>115.56696</ele>
        <time>2023-10-13T10:16:13.000Z</time>
      </trkpt>
      <trkpt lat="38.131845" lon="-77.818974">
        <ele>115.282261</ele>
        <time>2023-10-13T10:16:26.000Z</time>
      </trkpt>
      <trkpt lat="38.1312" lon="-77.818888">
        <ele>115.147807</ele>
        <time>2023-10-13T10:16:33.000Z</time>
      </trkpt>
      <trkpt lat="38.130975" lon="-77.818916">
        <ele>115.099685</ele>
        <time>2023-10-13T10:16:36.000Z</time>
      </trkpt>
      <trkpt lat="38.130252" lon="-77.819343">
        <ele>114.936937</ele>
        <time>2023-10-13T10:16:45.000Z</time>
      </trkpt>
      <trkpt lat="38.129342" lon="-77.81961">
        <ele>114.747788</ele>
        <time>2023-10-13T10:16:55.000Z</time>
      </trkpt>
      <trkpt lat="38.128386" lon="-77.820209">
        <ele>114.441039</ele>
        <time>2023-10-13T10:17:07.000Z</time>
      </trkpt>
      <trkpt lat="38.12636" lon="-77.821233">
        <ele>113.649961</ele>
        <time>2023-10-13T10:17:31.000Z</time>
      </trkpt>
      <trkpt lat="38.125315" lon="-77.822173">
        <ele>113.185646</ele>
        <time>2023-10-13T10:17:45.000Z</time>
      </trkpt>
      <trkpt lat="38.124787" lon="-77.822484">
        <ele>112.973861</ele>
        <time>2023-10-13T10:17:51.000Z</time>
      </trkpt>
      <trkpt lat="38.124191" lon="-77.822918">
        <ele>112.721673</ele>
        <time>2023-10-13T10:17:59.000Z</time>
      </trkpt>
      <trkpt lat="38.123037" lon="-77.823247">
        <ele>112.03501</ele>
        <time>2023-10-13T10:18:12.000Z</time>
      </trkpt>
      <trkpt lat="38.12274" lon="-77.823268">
        <ele>111.845764</ele>
        <time>2023-10-13T10:18:15.000Z</time>
      </trkpt>
      <trkpt lat="38.121907" lon="-77.823188">
        <ele>111.565888</ele>
        <time>2023-10-13T10:18:24.000Z</time>
      </trkpt>
      <trkpt lat="38.121128" lon="-77.823283">
        <ele>111.524783</ele>
        <time>2023-10-13T10:18:33.000Z</time>
      </trkpt>
      <trkpt lat="38.120627" lon="-77.823173">
        <ele>111.498099</ele>
        <time>2023-10-13T10:18:39.000Z</time>
      </trkpt>
      <trkpt lat="38.1202" lon="-77.822961">
        <ele>111.576074</ele>
        <time>2023-10-13T10:18:44.000Z</time>
      </trkpt>
      <trkpt lat="38.119981" lon="-77.822872">
        <ele>111.629839</ele>
        <time>2023-10-13T10:18:47.000Z</time>
      </trkpt>
      <trkpt lat="38.119769" lon="-77.822874">
        <ele>111.677159</ele>
        <time>2023-10-13T10:18:49.000Z</time>
      </trkpt>
      <trkpt lat="38.119387" lon="-77.823021">
        <ele>111.769083</ele>
        <time>2023-10-13T10:18:53.000Z</time>
      </trkpt>
      <trkpt lat="38.11916" lon="-77.823186">
        <ele>111.829015</ele>
        <time>2023-10-13T10:18:56.000Z</time>
      </trkpt>
      <trkpt lat="38.118991" lon="-77.822796">
        <ele>111.90144</ele>
        <time>2023-10-13T10:19:00.000Z</time>
      </trkpt>
      <trkpt lat="38.118706" lon="-77.821947">
        <ele>111.261298</ele>
        <time>2023-10-13T10:19:08.000Z</time>
      </trkpt>
      <trkpt lat="38.118451" lon="-77.821593">
        <ele>110.941223</ele>
        <time>2023-10-13T10:19:12.000Z</time>
      </trkpt>
      <trkpt lat="38.117971" lon="-77.821045">
        <ele>110.371231</ele>
        <time>2023-10-13T10:19:19.000Z</time>
      </trkpt>
      <trkpt lat="38.11783" lon="-77.820815">
        <ele>110.068697</ele>
        <time>2023-10-13T10:19:22.000Z</time>
      </trkpt>
      <trkpt lat="38.117701" lon="-77.820409">
        <ele>109.594635</ele>
        <time>2023-10-13T10:19:26.000Z</time>
      </trkpt>
      <trkpt lat="38.11765" lon="-77.819307">
        <ele>108.410754</ele>
        <time>2023-10-13T10:19:36.000Z</time>
      </trkpt>
      <trkpt lat="38.117568" lon="-77.819081">
        <ele>108.135071</ele>
        <time>2023-10-13T10:19:38.000Z</time>
      </trkpt>
      <trkpt lat="38.117347" lon="-77.818818">
        <ele>107.752798</ele>
        <time>2023-10-13T10:19:41.000Z</time>
      </trkpt>
      <trkpt lat="38.117202" lon="-77.818741">
        <ele>107.593651</ele>
        <time>2023-10-13T10:19:43.000Z</time>
      </trkpt>
      <trkpt lat="38.116959" lon="-77.818729">
        <ele>107.340649</ele>
        <time>2023-10-13T10:19:46.000Z</time>
      </trkpt>
      <trkpt lat="38.116665" lon="-77.818768">
        <ele>107.01515</ele>
        <time>2023-10-13T10:19:49.000Z</time>
      </trkpt>
      <trkpt lat="38.115917" lon="-77.818826">
        <ele>106.220984</ele>
        <time>2023-10-13T10:19:57.000Z</time>
      </trkpt>
      <trkpt lat="38.115672" lon="-77.818792">
        <ele>105.97133</ele>
        <time>2023-10-13T10:20:00.000Z</time>
      </trkpt>
      <trkpt lat="38.114346" lon="-77.818091">
        <ele>103.73517</ele>
        <time>2023-10-13T10:20:16.000Z</time>
      </trkpt>
      <trkpt lat="38.114124" lon="-77.81776">
        <ele>103.204534</ele>
        <time>2023-10-13T10:20:20.000Z</time>
      </trkpt>
      <trkpt lat="38.114098" lon="-77.81748">
        <ele>102.776848</ele>
        <time>2023-10-13T10:20:22.000Z</time>
      </trkpt>
      <trkpt lat="38.114274" lon="-77.816317">
        <ele>100.904599</ele>
        <time>2023-10-13T10:20:32.000Z</time>
      </trkpt>
      <trkpt lat="38.114233" lon="-77.816015">
        <ele>100.405146</ele>
        <time>2023-10-13T10:20:35.000Z</time>
      </trkpt>
      <trkpt lat="38.114002" lon="-77.815018">
        <ele>98.973539</ele>
        <time>2023-10-13T10:20:44.000Z</time>
      </trkpt>
      <trkpt lat="38.113969" lon="-77.81468">
        <ele>98.564383</ele>
        <time>2023-10-13T10:20:47.000Z</time>
      </trkpt>
      <trkpt lat="38.114019" lon="-77.814351">
        <ele>98.190865</ele>
        <time>2023-10-13T10:20:50.000Z</time>
      </trkpt>
      <trkpt lat="38.114329" lon="-77.81349">
        <ele>97.06132</ele>
        <time>2023-10-13T10:20:58.000Z</time>
      </trkpt>
      <trkpt lat="38.114346" lon="-77.813077">
        <ele>96.721982</ele>
        <time>2023-10-13T10:21:02.000Z</time>
      </trkpt>
      <trkpt lat="38.114237" lon="-77.812781">
        <ele>96.535786</ele>
        <time>2023-10-13T10:21:05.000Z</time>
      </trkpt>
      <trkpt lat="38.113639" lon="-77.811636">
        <ele>95.748243</ele>
        <time>2023-10-13T10:21:17.000Z</time>
      </trkpt>
      <trkpt lat="38.113456" lon="-77.811764">
        <ele>95.597624</ele>
        <time>2023-10-13T10:21:19.000Z</time>
      </trkpt>
      <trkpt lat="38.113456" lon="-77.811763">
        <ele>95.596693</ele>
        <time>2023-10-13T10:21:19.000Z</time>
      </trkpt>
      <trkpt lat="38.113453" lon="-77.811749">
        <ele>95.595139</ele>
        <time>2023-10-13T10:21:19.000Z</time>
      </trkpt>
      <trkpt lat="38.113439" lon="-77.811765">
        <ele>95.593577</ele>
        <time>2023-10-13T10:21:19.000Z</time>
      </trkpt>
      <trkpt lat="38.113439" lon="-77.811759">
        <ele>95.592637</ele>
        <time>2023-10-13T10:21:19.000Z</time>
      </trkpt>
      <trkpt lat="38.113452" lon="-77.811756">
        <ele>95.592632</ele>
        <time>2023-10-13T10:21:19.000Z</time>
      </trkpt>
      <trkpt lat="38.113452" lon="-77.811766">
        <ele>95.592648</ele>
        <time>2023-10-13T10:21:19.000Z</time>
      </trkpt>
      <trkpt lat="38.113438" lon="-77.811764">
        <ele>95.591917</ele>
        <time>2023-10-13T10:21:19.000Z</time>
      </trkpt>
      <trkpt lat="38.113446" lon="-77.811752">
        <ele>95.590995</ele>
        <time>2023-10-13T10:21:19.000Z</time>
      </trkpt>
      <trkpt lat="38.113645" lon="-77.811636">
        <ele>95.675888</ele>
        <time>2023-10-13T10:21:21.000Z</time>
      </trkpt>
      <trkpt lat="38.114247" lon="-77.812785">
        <ele>96.522995</ele>
        <time>2023-10-13T10:21:33.000Z</time>
      </trkpt>
      <trkpt lat="38.114347" lon="-77.81307">
        <ele>96.723293</ele>
        <time>2023-10-13T10:21:36.000Z</time>
      </trkpt>
      <trkpt lat="38.114335" lon="-77.81348">
        <ele>96.995392</ele>
        <time>2023-10-13T10:21:40.000Z</time>
      </trkpt>
      <trkpt lat="38.114024" lon="-77.814368">
        <ele>98.168969</ele>
        <time>2023-10-13T10:21:49.000Z</time>
      </trkpt>
      <trkpt lat="38.113977" lon="-77.814667">
        <ele>98.557029</ele>
        <time>2023-10-13T10:21:52.000Z</time>
      </trkpt>
      <trkpt lat="38.113991" lon="-77.815015">
        <ele>98.98214</ele>
        <time>2023-10-13T10:21:55.000Z</time>
      </trkpt>
      <trkpt lat="38.114231" lon="-77.816008">
        <ele>100.387513</ele>
        <time>2023-10-13T10:22:04.000Z</time>
      </trkpt>
      <trkpt lat="38.114273" lon="-77.816323">
        <ele>100.888369</ele>
        <time>2023-10-13T10:22:07.000Z</time>
      </trkpt>
      <trkpt lat="38.114095" lon="-77.817498">
        <ele>102.765827</ele>
        <time>2023-10-13T10:22:17.000Z</time>
      </trkpt>
      <trkpt lat="38.114116" lon="-77.81777">
        <ele>103.210148</ele>
        <time>2023-10-13T10:22:19.000Z</time>
      </trkpt>
      <trkpt lat="38.114351" lon="-77.818096">
        <ele>103.763169</ele>
        <time>2023-10-13T10:22:23.000Z</time>
      </trkpt>
      <trkpt lat="38.115672" lon="-77.818796">
        <ele>105.940938</ele>
        <time>2023-10-13T10:22:39.000Z</time>
      </trkpt>
      <trkpt lat="38.115903" lon="-77.818827">
        <ele>106.23397</ele>
        <time>2023-10-13T10:22:42.000Z</time>
      </trkpt>
      <trkpt lat="38.116663" lon="-77.818753">
        <ele>107.029772</ele>
        <time>2023-10-13T10:22:50.000Z</time>
      </trkpt>
      <trkpt lat="38.116969" lon="-77.818733">
        <ele>107.355943</ele>
        <time>2023-10-13T10:22:53.000Z</time>
      </trkpt>
      <trkpt lat="38.117208" lon="-77.818755">
        <ele>107.609445</ele>
        <time>2023-10-13T10:22:56.000Z</time>
      </trkpt>
      <trkpt lat="38.117334" lon="-77.818828">
        <ele>107.768942</ele>
        <time>2023-10-13T10:22:58.000Z</time>
      </trkpt>
      <trkpt lat="38.117565" lon="-77.81908">
        <ele>108.117769</ele>
        <time>2023-10-13T10:23:01.000Z</time>
      </trkpt>
      <trkpt lat="38.117662" lon="-77.819302">
        <ele>108.394682</ele>
        <time>2023-10-13T10:23:03.000Z</time>
      </trkpt>
      <trkpt lat="38.117693" lon="-77.82041">
        <ele>109.583727</ele>
        <time>2023-10-13T10:23:13.000Z</time>
      </trkpt>
      <trkpt lat="38.117818" lon="-77.820814">
        <ele>110.059864</ele>
        <time>2023-10-13T10:23:17.000Z</time>
      </trkpt>
      <trkpt lat="38.117982" lon="-77.821049">
        <ele>110.390597</ele>
        <time>2023-10-13T10:23:20.000Z</time>
      </trkpt>
      <trkpt lat="38.118453" lon="-77.821598">
        <ele>110.947704</ele>
        <time>2023-10-13T10:23:27.000Z</time>
      </trkpt>
      <trkpt lat="38.118691" lon="-77.821938">
        <ele>111.242722</ele>
        <time>2023-10-13T10:23:31.000Z</time>
      </trkpt>
      <trkpt lat="38.118996" lon="-77.822782">
        <ele>111.832752</ele>
        <time>2023-10-13T10:23:39.000Z</time>
      </trkpt>
      <trkpt lat="38.119171" lon="-77.82318">
        <ele>111.869104</ele>
        <time>2023-10-13T10:23:43.000Z</time>
      </trkpt>
      <trkpt lat="38.119388" lon="-77.823017">
        <ele>111.801471</ele>
        <time>2023-10-13T10:23:46.000Z</time>
      </trkpt>
      <trkpt lat="38.11976" lon="-77.822866">
        <ele>111.697687</ele>
        <time>2023-10-13T10:23:50.000Z</time>
      </trkpt>
      <trkpt lat="38.119971" lon="-77.822877">
        <ele>111.644279</ele>
        <time>2023-10-13T10:23:52.000Z</time>
      </trkpt>
      <trkpt lat="38.120188" lon="-77.822958">
        <ele>111.583578</ele>
        <time>2023-10-13T10:23:55.000Z</time>
      </trkpt>
      <trkpt lat="38.120622" lon="-77.823186">
        <ele>111.460727</ele>
        <time>2023-10-13T10:24:00.000Z</time>
      </trkpt>
      <trkpt lat="38.121138" lon="-77.823292">
        <ele>111.510257</ele>
        <time>2023-10-13T10:24:06.000Z</time>
      </trkpt>
      <trkpt lat="38.121902" lon="-77.823191">
        <ele>111.588156</ele>
        <time>2023-10-13T10:24:15.000Z</time>
      </trkpt>
      <trkpt lat="38.122726" lon="-77.823274">
        <ele>111.832069</ele>
        <time>2023-10-13T10:24:24.000Z</time>
      </trkpt>
      <trkpt lat="38.123051" lon="-77.823248">
        <ele>112.022716</ele>
        <time>2023-10-13T10:24:28.000Z</time>
      </trkpt>
      <trkpt lat="38.124183" lon="-77.822911">
        <ele>112.741276</ele>
        <time>2023-10-13T10:24:41.000Z</time>
      </trkpt>
      <trkpt lat="38.12478" lon="-77.822476">
        <ele>112.982427</ele>
        <time>2023-10-13T10:24:49.000Z</time>
      </trkpt>
      <trkpt lat="38.125309" lon="-77.822176">
        <ele>113.184939</ele>
        <time>2023-10-13T10:24:55.000Z</time>
      </trkpt>
      <trkpt lat="38.126371" lon="-77.821242">
        <ele>113.647571</ele>
        <time>2023-10-13T10:25:09.000Z</time>
      </trkpt>
      <trkpt lat="38.12839" lon="-77.82022">
        <ele>114.435527</ele>
        <time>2023-10-13T10:25:33.000Z</time>
      </trkpt>
      <trkpt lat="38.129342" lon="-77.819606">
        <ele>114.753264</ele>
        <time>2023-10-13T10:25:45.000Z</time>
      </trkpt>
      <trkpt lat="38.130269" lon="-77.819338">
        <ele>114.940185</ele>
        <time>2023-10-13T10:25:56.000Z</time>
      </trkpt>
      <trkpt lat="38.130986" lon="-77.818915">
        <ele>115.100057</ele>
        <time>2023-10-13T10:26:05.000Z</time>
      </trkpt>
      <trkpt lat="38.131203" lon="-77.818889">
        <ele>115.147608</ele>
        <time>2023-10-13T10:26:07.000Z</time>
      </trkpt>
      <trkpt lat="38.131836" lon="-77.818973">
        <ele>115.280437</ele>
        <time>2023-10-13T10:26:14.000Z</time>
      </trkpt>
      <trkpt lat="38.133028" lon="-77.818828">
        <ele>115.563901</ele>
        <time>2023-10-13T10:26:27.000Z</time>
      </trkpt>
      <trkpt lat="38.133373" lon="-77.818676">
        <ele>115.666814</ele>
        <time>2023-10-13T10:26:31.000Z</time>
      </trkpt>
      <trkpt lat="38.134936" lon="-77.817789">
        <ele>116.171805</ele>
        <time>2023-10-13T10:26:50.000Z</time>
      </trkpt>
      <trkpt lat="38.135364" lon="-77.817599">
        <ele>116.319433</ele>
        <time>2023-10-13T10:26:55.000Z</time>
      </trkpt>
      <trkpt lat="38.13581" lon="-77.817558">
        <ele>116.458964</ele>
        <time>2023-10-13T10:27:00.000Z</time>
      </trkpt>
      <trkpt lat="38.136646" lon="-77.817767">
        <ele>116.548984</ele>
        <time>2023-10-13T10:27:09.000Z</time>
      </trkpt>
      <trkpt lat="38.13748" lon="-77.817803">
        <ele>116.627882</ele>
        <time>2023-10-13T10:27:18.000Z</time>
      </trkpt>
      <trkpt lat="38.138306" lon="-77.818119">
        <ele>117.007747</ele>
        <time>2023-10-13T10:27:28.000Z</time>
      </trkpt>
      <trkpt lat="38.139048" lon="-77.818298">
        <ele>117.403573</ele>
        <time>2023-10-13T10:27:36.000Z</time>
      </trkpt>
      <trkpt lat="38.139444" lon="-77.818274">
        <ele>117.617137</ele>
        <time>2023-10-13T10:27:40.000Z</time>
      </trkpt>
      <trkpt lat="38.140182" lon="-77.817949">
        <ele>118.159246</ele>
        <time>2023-10-13T10:27:49.000Z</time>
      </trkpt>
      <trkpt lat="38.141293" lon="-77.817395">
        <ele>118.720507</ele>
        <time>2023-10-13T10:28:02.000Z</time>
      </trkpt>
      <trkpt lat="38.141379" lon="-77.817317">
        <ele>118.685162</ele>
        <time>2023-10-13T10:28:03.000Z</time>
      </trkpt>
      <trkpt lat="38.141378" lon="-77.817312">
        <ele>118.684362</ele>
        <time>2023-10-13T10:28:03.000Z</time>
      </trkpt>
      <trkpt lat="38.141373" lon="-77.81731">
        <ele>118.683445</ele>
        <time>2023-10-13T10:28:03.000Z</time>
      </trkpt>
      <trkpt lat="38.141377" lon="-77.817313">
        <ele>118.680357</ele>
        <time>2023-10-13T10:28:03.000Z</time>
      </trkpt>
      <trkpt lat="38.141391" lon="-77.817306">
        <ele>118.679671</ele>
        <time>2023-10-13T10:28:03.000Z</time>
      </trkpt>
      <trkpt lat="38.141391" lon="-77.817313">
        <ele>118.678424</ele>
        <time>2023-10-13T10:28:03.000Z</time>
      </trkpt>
      <trkpt lat="38.141388" lon="-77.817302">
        <ele>118.677195</ele>
        <time>2023-10-13T10:28:03.000Z</time>
      </trkpt>
      <trkpt lat="38.141379" lon="-77.81732">
        <ele>118.676516</ele>
        <time>2023-10-13T10:28:03.000Z</time>
      </trkpt>
      <trkpt lat="38.141377" lon="-77.817318">
        <ele>118.673415</ele>
        <time>2023-10-13T10:28:03.000Z</time>
      </trkpt>
      <trkpt lat="38.141368" lon="-77.817318">
        <ele>118.672483</ele>
        <time>2023-10-13T10:28:03.000Z</time>
      </trkpt>
      <trkpt lat="38.141368" lon="-77.81733">
        <ele>118.671701</ele>
        <time>2023-10-13T10:28:03.000Z</time>
      </trkpt>
      <trkpt lat="38.141289" lon="-77.817397">
        <ele>118.636338</ele>
        <time>2023-10-13T10:28:04.000Z</time>
      </trkpt>
      <trkpt lat="38.140183" lon="-77.817966">
        <ele>118.199463</ele>
        <time>2023-10-13T10:28:17.000Z</time>
      </trkpt>
      <trkpt lat="38.139453" lon="-77.818282">
        <ele>117.679744</ele>
        <time>2023-10-13T10:28:26.000Z</time>
      </trkpt>
      <trkpt lat="38.139048" lon="-77.818291">
        <ele>117.399116</ele>
        <time>2023-10-13T10:28:31.000Z</time>
      </trkpt>
      <trkpt lat="38.138292" lon="-77.818112">
        <ele>116.854806</ele>
        <time>2023-10-13T10:28:40.000Z</time>
      </trkpt>
      <trkpt lat="38.137481" lon="-77.817808">
        <ele>116.716364</ele>
        <time>2023-10-13T10:28:49.000Z</time>
      </trkpt>
      <trkpt lat="38.136651" lon="-77.817756">
        <ele>116.583295</ele>
        <time>2023-10-13T10:28:58.000Z</time>
      </trkpt>
      <trkpt lat="38.135803" lon="-77.817559">
        <ele>116.393841</ele>
        <time>2023-10-13T10:29:08.000Z</time>
      </trkpt>
      <trkpt lat="38.135373" lon="-77.817604">
        <ele>116.29527</ele>
        <time>2023-10-13T10:29:13.000Z</time>
      </trkpt>
      <trkpt lat="38.134924" lon="-77.817791">
        <ele>116.190975</ele>
        <time>2023-10-13T10:29:18.000Z</time>
      </trkpt>
      <trkpt lat="38.133382" lon="-77.818666">
        <ele>115.641435</ele>
        <time>2023-10-13T10:29:37.000Z</time>
      </trkpt>
      <trkpt lat="38.133027" lon="-77.81883">
        <ele>115.534952</ele>
        <time>2023-10-13T10:29:41.000Z</time>
      </trkpt>
      <trkpt lat="38.131846" lon="-77.818988">
        <ele>115.294446</ele>
        <time>2023-10-13T10:29:54.000Z</time>
      </trkpt>
      <trkpt lat="38.131202" lon="-77.818892">
        <ele>115.163021</ele>
        <time>2023-10-13T10:30:01.000Z</time>
      </trkpt>
      <trkpt lat="38.130972" lon="-77.818909">
        <ele>115.115096</ele>
        <time>2023-10-13T10:30:04.000Z</time>
      </trkpt>
      <trkpt lat="38.130255" lon="-77.819348">
        <ele>114.950129</ele>
        <time>2023-10-13T10:30:13.000Z</time>
      </trkpt>
      <trkpt lat="38.129344" lon="-77.819601">
        <ele>114.731555</ele>
        <time>2023-10-13T10:30:23.000Z</time>
      </trkpt>
      <trkpt lat="38.128391" lon="-77.82021">
        <ele>114.436379</ele>
        <time>2023-10-13T10:30:35.000Z</time>
      </trkpt>
      <trkpt lat="38.126354" lon="-77.821249">
        <ele>113.623193</ele>
        <time>2023-10-13T10:30:59.000Z</time>
      </trkpt>
      <trkpt lat="38.125322" lon="-77.822173">
        <ele>113.222962</ele>
        <time>2023-10-13T10:31:13.000Z</time>
      </trkpt>
      <trkpt lat="38.124784" lon="-77.82248">
        <ele>113.033337</ele>
        <time>2023-10-13T10:31:20.000Z</time>
      </trkpt>
      <trkpt lat="38.1242" lon="-77.822906">
        <ele>112.661808</ele>
        <time>2023-10-13T10:31:27.000Z</time>
      </trkpt>
      <trkpt lat="38.123051" lon="-77.823243">
        <ele>112.038675</ele>
        <time>2023-10-13T10:31:40.000Z</time>
      </trkpt>
      <trkpt lat="38.12274" lon="-77.823286">
        <ele>111.910928</ele>
        <time>2023-10-13T10:31:43.000Z</time>
      </trkpt>
      <trkpt lat="38.121905" lon="-77.823189">
        <ele>111.570728</ele>
        <time>2023-10-13T10:31:52.000Z</time>
      </trkpt>
      <trkpt lat="38.121127" lon="-77.823294">
        <ele>111.412411</ele>
        <time>2023-10-13T10:32:01.000Z</time>
      </trkpt>
      <trkpt lat="38.120634" lon="-77.823187">
        <ele>111.554995</ele>
        <time>2023-10-13T10:32:07.000Z</time>
      </trkpt>
      <trkpt lat="38.120189" lon="-77.822964">
        <ele>111.687176</ele>
        <time>2023-10-13T10:32:12.000Z</time>
      </trkpt>
      <trkpt lat="38.119975" lon="-77.822878">
        <ele>111.752482</ele>
        <time>2023-10-13T10:32:14.000Z</time>
      </trkpt>
      <trkpt lat="38.119766" lon="-77.822874">
        <ele>111.80995</ele>
        <time>2023-10-13T10:32:16.000Z</time>
      </trkpt>
      <trkpt lat="38.119382" lon="-77.82302">
        <ele>111.779989</ele>
        <time>2023-10-13T10:32:20.000Z</time>
      </trkpt>
      <trkpt lat="38.119158" lon="-77.823183">
        <ele>111.701777</ele>
        <time>2023-10-13T10:32:23.000Z</time>
      </trkpt>
      <trkpt lat="38.118984" lon="-77.822785">
        <ele>111.594125</ele>
        <time>2023-10-13T10:32:27.000Z</time>
      </trkpt>
      <trkpt lat="38.118703" lon="-77.821941">
        <ele>111.374556</ele>
        <time>2023-10-13T10:32:35.000Z</time>
      </trkpt>
      <trkpt lat="38.118457" lon="-77.821604">
        <ele>111.119104</ele>
        <time>2023-10-13T10:32:39.000Z</time>
      </trkpt>
      <trkpt lat="38.117978" lon="-77.821046">
        <ele>110.281236</ele>
        <time>2023-10-13T10:32:46.000Z</time>
      </trkpt>
      <trkpt lat="38.117824" lon="-77.820805">
        <ele>109.969332</ele>
        <time>2023-10-13T10:32:49.000Z</time>
      </trkpt>
      <trkpt lat="38.117691" lon="-77.82041">
        <ele>109.520296</ele>
        <time>2023-10-13T10:32:53.000Z</time>
      </trkpt>
      <trkpt lat="38.117649" lon="-77.819308">
        <ele>108.452895</ele>
        <time>2023-10-13T10:33:03.000Z</time>
      </trkpt>
      <trkpt lat="38.117573" lon="-77.819071">
        <ele>108.216165</ele>
        <time>2023-10-13T10:33:05.000Z</time>
      </trkpt>
      <trkpt lat="38.117344" lon="-77.818812">
        <ele>107.860917</ele>
        <time>2023-10-13T10:33:08.000Z</time>
      </trkpt>
      <trkpt lat="38.117198" lon="-77.818742">
        <ele>107.684403</ele>
        <time>2023-10-13T10:33:10.000Z</time>
      </trkpt>
      <trkpt lat="38.116968" lon="-77.818719">
        <ele>107.403833</ele>
        <time>2023-10-13T10:33:13.000Z</time>
      </trkpt>
      <trkpt lat="38.116661" lon="-77.818765">
        <ele>107.042834</ele>
        <time>2023-10-13T10:33:16.000Z</time>
      </trkpt>
      <trkpt lat="38.115918" lon="-77.818835">
        <ele>106.132354</ele>
        <time>2023-10-13T10:33:24.000Z</time>
      </trkpt>
      <trkpt lat="38.115682" lon="-77.818806">
        <ele>105.843755</ele>
        <time>2023-10-13T10:33:27.000Z</time>
      </trkpt>
      <trkpt lat="38.114354" lon="-77.818087">
        <ele>103.748477</ele>
        <time>2023-10-13T10:33:43.000Z</time>
      </trkpt>
      <trkpt lat="38.114115" lon="-77.81776">
        <ele>103.092853</ele>
        <time>2023-10-13T10:33:47.000Z</time>
      </trkpt>
      <trkpt lat="38.114099" lon="-77.817489">
        <ele>102.666892</ele>
        <time>2023-10-13T10:33:49.000Z</time>
      </trkpt>
      <trkpt lat="38.114268" lon="-77.816316">
        <ele>100.892136</ele>
        <time>2023-10-13T10:33:59.000Z</time>
      </trkpt>
      <trkpt lat="38.114231" lon="-77.816006">
        <ele>100.44872</ele>
        <time>2023-10-13T10:34:02.000Z</time>
      </trkpt>
      <trkpt lat="38.114004" lon="-77.815026">
        <ele>99.00383</ele>
        <time>2023-10-13T10:34:11.000Z</time>
      </trkpt>
      <trkpt lat="38.113981" lon="-77.814679">
        <ele>98.516506</ele>
        <time>2023-10-13T10:34:14.000Z</time>
      </trkpt>
      <trkpt lat="38.114007" lon="-77.814364">
        <ele>98.07165</ele>
        <time>2023-10-13T10:34:17.000Z</time>
      </trkpt>
      <trkpt lat="38.114325" lon="-77.813493">
        <ele>97.160476</ele>
        <time>2023-10-13T10:34:25.000Z</time>
      </trkpt>
      <trkpt lat="38.114357" lon="-77.813074">
        <ele>96.780284</ele>
        <time>2023-10-13T10:34:29.000Z</time>
      </trkpt>
      <trkpt lat="38.114241" lon="-77.812782">
        <ele>96.481223</ele>
        <time>2023-10-13T10:34:32.000Z</time>
      </trkpt>
      <trkpt lat="38.113634" lon="-77.811642">
        <ele>95.922282</ele>
        <time>2023-10-13T10:34:44.000Z</time>
      </trkpt>
      <trkpt lat="38.113441" lon="-77.811762">
        <ele>95.933655</ele>
        <time>2023-10-13T10:34:46.000Z</time>
      </trkpt>
      <trkpt lat="38.113443" lon="-77.811751">
        <ele>95.933718</ele>
        <time>2023-10-13T10:34:46.000Z</time>
      </trkpt>
      <trkpt lat="38.113455" lon="-77.811757">
        <ele>95.933836</ele>
        <time>2023-10-13T10:34:46.000Z</time>
      </trkpt>
      <trkpt lat="38.113447" lon="-77.811764">
        <ele>95.933962</ele>
        <time>2023-10-13T10:34:46.000Z</time>
      </trkpt>
      <trkpt lat="38.113437" lon="-77.811757">
        <ele>95.934028</ele>
        <time>2023-10-13T10:34:46.000Z</time>
      </trkpt>
      <trkpt lat="38.113449" lon="-77.811766">
        <ele>95.934024</ele>
        <time>2023-10-13T10:34:46.000Z</time>
      </trkpt>
      <trkpt lat="38.113442" lon="-77.811756">
        <ele>95.934023</ele>
        <time>2023-10-13T10:34:46.000Z</time>
      </trkpt>
      <trkpt lat="38.113442" lon="-77.811751">
        <ele>95.934089</ele>
        <time>2023-10-13T10:34:46.000Z</time>
      </trkpt>
      <trkpt lat="38.113439" lon="-77.811764">
        <ele>95.934161</ele>
        <time>2023-10-13T10:34:46.000Z</time>
      </trkpt>
      <trkpt lat="38.11344" lon="-77.811755">
        <ele>95.934198</ele>
        <time>2023-10-13T10:34:46.000Z</time>
      </trkpt>
      <trkpt lat="38.113642" lon="-77.811646">
        <ele>95.946114</ele>
        <time>2023-10-13T10:34:48.000Z</time>
      </trkpt>
      <trkpt lat="38.114253" lon="-77.812786">
        <ele>96.367376</ele>
        <time>2023-10-13T10:35:00.000Z</time>
      </trkpt>
      <trkpt lat="38.11435" lon="-77.813068">
        <ele>96.698373</ele>
        <time>2023-10-13T10:35:03.000Z</time>
      </trkpt>
      <trkpt lat="38.114322" lon="-77.813487">
        <ele>97.119127</ele>
        <time>2023-10-13T10:35:07.000Z</time>
      </trkpt>
      <trkpt lat="38.114013" lon="-77.814368">
        <ele>98.098646</ele>
        <time>2023-10-13T10:35:15.000Z</time>
      </trkpt>
      <trkpt lat="38.113976" lon="-77.814676">
        <ele>98.466556</ele>
        <time>2023-10-13T10:35:18.000Z</time>
      </trkpt>
      <trkpt lat="38.114001" lon="-77.815012">
        <ele>98.971797</ele>
        <time>2023-10-13T10:35:21.000Z</time>
      </trkpt>
      <trkpt lat="38.114237" lon="-77.816011">
        <ele>100.469863</ele>
        <time>2023-10-13T10:35:30.000Z</time>
      </trkpt>
      <trkpt lat="38.114259" lon="-77.816321">
        <ele>100.929615</ele>
        <time>2023-10-13T10:35:33.000Z</time>
      </trkpt>
      <trkpt lat="38.114086" lon="-77.817488">
        <ele>102.664</ele>
        <time>2023-10-13T10:35:43.000Z</time>
      </trkpt>
      <trkpt lat="38.114114" lon="-77.817763">
        <ele>103.076269</ele>
        <time>2023-10-13T10:35:45.000Z</time>
      </trkpt>
      <trkpt lat="38.114344" lon="-77.818096">
        <ele>103.710861</ele>
        <time>2023-10-13T10:35:49.000Z</time>
      </trkpt>
      <trkpt lat="38.115683" lon="-77.818808">
        <ele>105.860336</ele>
        <time>2023-10-13T10:36:05.000Z</time>
      </trkpt>
      <trkpt lat="38.115913" lon="-77.818826">
        <ele>106.13252</ele>
        <time>2023-10-13T10:36:08.000Z</time>
      </trkpt>
      <trkpt lat="38.116657" lon="-77.818753">
        <ele>106.998416</ele>
        <time>2023-10-13T10:36:16.000Z</time>
      </trkpt>
      <trkpt lat="38.11696" lon="-77.81873">
        <ele>107.372902</ele>
        <time>2023-10-13T10:36:19.000Z</time>
      </trkpt>
      <trkpt lat="38.117203" lon="-77.818746">
        <ele>107.66761</ele>
        <time>2023-10-13T10:36:22.000Z</time>
      </trkpt>
      <trkpt lat="38.117343" lon="-77.818821">
        <ele>107.853009</ele>
        <time>2023-10-13T10:36:24.000Z</time>
      </trkpt>
      <trkpt lat="38.117566" lon="-77.819066">
        <ele>108.226155</ele>
        <time>2023-10-13T10:36:27.000Z</time>
      </trkpt>
      <trkpt lat="38.117653" lon="-77.819302">
        <ele>108.474832</ele>
        <time>2023-10-13T10:36:29.000Z</time>
      </trkpt>
      <trkpt lat="38.117705" lon="-77.820403">
        <ele>109.541629</ele>
        <time>2023-10-13T10:36:39.000Z</time>
      </trkpt>
      <trkpt lat="38.117827" lon="-77.820802">
        <ele>109.967498</ele>
        <time>2023-10-13T10:36:43.000Z</time>
      </trkpt>
      <trkpt lat="38.117983" lon="-77.821047">
        <ele>110.263325</ele>
        <time>2023-10-13T10:36:46.000Z</time>
      </trkpt>
      <trkpt lat="38.118468" lon="-77.821598">
        <ele>111.057972</ele>
        <time>2023-10-13T10:36:53.000Z</time>
      </trkpt>
      <trkpt lat="38.1187" lon="-77.821951">
        <ele>111.50052</ele>
        <time>2023-10-13T10:36:57.000Z</time>
      </trkpt>
      <trkpt lat="38.118988" lon="-77.822784">
        <ele>111.610946</ele>
        <time>2023-10-13T10:37:05.000Z</time>
      </trkpt>
      <trkpt lat="38.119174" lon="-77.823174">
        <ele>111.665094</ele>
        <time>2023-10-13T10:37:09.000Z</time>
      </trkpt>
      <trkpt lat="38.119391" lon="-77.823015">
        <ele>111.704424</ele>
        <time>2023-10-13T10:37:12.000Z</time>
      </trkpt>
      <trkpt lat="38.119771" lon="-77.822862">
        <ele>111.764766</ele>
        <time>2023-10-13T10:37:16.000Z</time>
      </trkpt>
      <trkpt lat="38.119975" lon="-77.822883">
        <ele>111.740703</ele>
        <time>2023-10-13T10:37:18.000Z</time>
      </trkpt>
      <trkpt lat="38.120203" lon="-77.822952">
        <ele>111.687987</ele>
        <time>2023-10-13T10:37:21.000Z</time>
      </trkpt>
      <trkpt lat="38.120627" lon="-77.823186">
        <ele>111.581272</ele>
        <time>2023-10-13T10:37:26.000Z</time>
      </trkpt>
      <trkpt lat="38.121121" lon="-77.823292">
        <ele>111.466177</ele>
        <time>2023-10-13T10:37:32.000Z</time>
      </trkpt>
      <trkpt lat="38.121898" lon="-77.823203">
        <ele>111.524101</ele>
        <time>2023-10-13T10:37:41.000Z</time>
      </trkpt>
      <trkpt lat="38.122731" lon="-77.823273">
        <ele>111.920501</ele>
        <time>2023-10-13T10:37:50.000Z</time>
      </trkpt>
      <trkpt lat="38.123047" lon="-77.823255">
        <ele>112.069336</ele>
        <time>2023-10-13T10:37:54.000Z</time>
      </trkpt>
      <trkpt lat="38.124201" lon="-77.822911">
        <ele>112.6531</ele>
        <time>2023-10-13T10:38:07.000Z</time>
      </trkpt>
      <trkpt lat="38.124796" lon="-77.822485">
        <ele>112.998033</ele>
        <time>2023-10-13T10:38:15.000Z</time>
      </trkpt>
      <trkpt lat="38.125314" lon="-77.822184">
        <ele>113.228146</ele>
        <time>2023-10-13T10:38:21.000Z</time>
      </trkpt>
      <trkpt lat="38.12637" lon="-77.821231">
        <ele>113.633048</ele>
        <time>2023-10-13T10:38:35.000Z</time>
      </trkpt>
      <trkpt lat="38.128381" lon="-77.820213">
        <ele>114.452027</ele>
        <time>2023-10-13T10:38:59.000Z</time>
      </trkpt>
      <trkpt lat="38.129344" lon="-77.819617">
        <ele>114.7238</ele>
        <time>2023-10-13T10:39:11.000Z</time>
      </trkpt>
      <trkpt lat="38.130252" lon="-77.819333">
        <ele>114.946278</ele>
        <time>2023-10-13T10:39:21.000Z</time>
      </trkpt>
      <trkpt lat="38.130972" lon="-77.818913">
        <ele>115.114361</ele>
        <time>2023-10-13T10:39:30.000Z</time>
      </trkpt>
      <trkpt lat="38.131209" lon="-77.818896">
        <ele>115.163208</ele>
        <time>2023-10-13T10:39:33.000Z</time>
      </trkpt>
      <trkpt lat="38.131846" lon="-77.818974">
        <ele>115.29884</ele>
        <time>2023-10-13T10:39:40.000Z</time>
      </trkpt>
      <trkpt lat="38.133013" lon="-77.818831">
        <ele>115.546562</ele>
        <time>2023-10-13T10:39:53.000Z</time>
      </trkpt>
      <trkpt lat="38.13337" lon="-77.818677">
        <ele>115.628154</ele>
        <time>2023-10-13T10:39:57.000Z</time>
      </trkpt>
      <trkpt lat="38.13493" lon="-77.817793">
        <ele>116.207128</ele>
        <time>2023-10-13T10:40:16.000Z</time>
      </trkpt>
      <trkpt lat="38.135367" lon="-77.817596">
        <ele>116.307797</ele>
        <time>2023-10-13T10:40:21.000Z</time>
      </trkpt>
      <trkpt lat="38.135803" lon="-77.817557">
        <ele>116.391988</ele>
        <time>2023-10-13T10:40:26.000Z</time>
      </trkpt>
      <trkpt lat="38.136658" lon="-77.817769">
        <ele>116.559164</ele>
        <time>2023-10-13T10:40:36.000Z</time>
      </trkpt>
      <trkpt lat="38.137485" lon="-77.817819">
        <ele>116.73169</ele>
        <time>2023-10-13T10:40:45.000Z</time>
      </trkpt>
      <trkpt lat="38.138299" lon="-77.818125">
        <ele>116.913491</ele>
        <time>2023-10-13T10:40:54.000Z</time>
      </trkpt>
      <trkpt lat="38.139058" lon="-77.818295">
        <ele>117.368578</ele>
        <time>2023-10-13T10:41:03.000Z</time>
      </trkpt>
      <trkpt lat="38.139453" lon="-77.818273">
        <ele>117.662248</ele>
        <time>2023-10-13T10:41:07.000Z</time>
      </trkpt>
      <trkpt lat="38.140184" lon="-77.817949">
        <ele>118.251092</ele>
        <time>2023-10-13T10:41:16.000Z</time>
      </trkpt>
      <trkpt lat="38.141298" lon="-77.817395">
        <ele>118.573148</ele>
        <time>2023-10-13T10:41:29.000Z</time>
      </trkpt>
      <trkpt lat="38.141377" lon="-77.81732">
        <ele>118.595319</ele>
        <time>2023-10-13T10:41:30.000Z</time>
      </trkpt>
      <trkpt lat="38.141381" lon="-77.817326">
        <ele>118.595808</ele>
        <time>2023-10-13T10:41:30.000Z</time>
      </trkpt>
      <trkpt lat="38.141371" lon="-77.817323">
        <ele>118.596392</ele>
        <time>2023-10-13T10:41:30.000Z</time>
      </trkpt>
      <trkpt lat="38.141376" lon="-77.817311">
        <ele>118.598338</ele>
        <time>2023-10-13T10:41:30.000Z</time>
      </trkpt>
      <trkpt lat="38.141379" lon="-77.81732">
        <ele>118.598757</ele>
        <time>2023-10-13T10:41:30.000Z</time>
      </trkpt>
      <trkpt lat="38.141389" lon="-77.817304">
        <ele>118.599191</ele>
        <time>2023-10-13T10:41:30.000Z</time>
      </trkpt>
      <trkpt lat="38.141382" lon="-77.817316">
        <ele>118.601114</ele>
        <time>2023-10-13T10:41:30.000Z</time>
      </trkpt>
      <trkpt lat="38.141367" lon="-77.817329">
        <ele>118.601696</ele>
        <time>2023-10-13T10:41:30.000Z</time>
      </trkpt>
      <trkpt lat="38.14137" lon="-77.817324">
        <ele>118.602186</ele>
        <time>2023-10-13T10:41:30.000Z</time>
      </trkpt>
      <trkpt lat="38.141292" lon="-77.817391">
        <ele>118.624358</ele>
        <time>2023-10-13T10:41:31.000Z</time>
      </trkpt>
      <trkpt lat="38.140179" lon="-77.817965">
        <ele>118.191307</ele>
        <time>2023-10-13T10:41:44.000Z</time>
      </trkpt>
      <trkpt lat="38.139437" lon="-77.818286">
        <ele>117.605712</ele>
        <time>2023-10-13T10:41:53.000Z</time>
      </trkpt>
      <trkpt lat="38.13906" lon="-77.8183">
        <ele>117.343968</ele>
        <time>2023-10-13T10:41:57.000Z</time>
      </trkpt>
      <trkpt lat="38.13829" lon="-77.818114">
        <ele>117.016874</ele>
        <time>2023-10-13T10:42:06.000Z</time>
      </trkpt>
      <trkpt lat="38.137479" lon="-77.817814">
        <ele>116.654084</ele>
        <time>2023-10-13T10:42:15.000Z</time>
      </trkpt>
      <trkpt lat="38.136663" lon="-77.817752">
        <ele>116.536782</ele>
        <time>2023-10-13T10:42:24.000Z</time>
      </trkpt>
      <trkpt lat="38.135813" lon="-77.817562">
        <ele>116.438811</ele>
        <time>2023-10-13T10:42:34.000Z</time>
      </trkpt>
      <trkpt lat="38.135366" lon="-77.817604">
        <ele>116.3349</ele>
        <time>2023-10-13T10:42:39.000Z</time>
      </trkpt>
      <trkpt lat="38.134925" lon="-77.817792">
        <ele>116.181115</ele>
        <time>2023-10-13T10:42:44.000Z</time>
      </trkpt>
      <trkpt lat="38.133385" lon="-77.818668">
        <ele>115.663561</ele>
        <time>2023-10-13T10:43:03.000Z</time>
      </trkpt>
      <trkpt lat="38.133018" lon="-77.818817">
        <ele>115.568391</ele>
        <time>2023-10-13T10:43:07.000Z</time>
      </trkpt>
      <trkpt lat="38.131836" lon="-77.818983">
        <ele>115.285182</ele>
        <time>2023-10-13T10:43:20.000Z</time>
      </trkpt>
      <trkpt lat="38.131209" lon="-77.818888">
        <ele>115.149032</ele>
        <time>2023-10-13T10:43:27.000Z</time>
      </trkpt>
      <trkpt lat="38.130977" lon="-77.81892">
        <ele>115.100303</ele>
        <time>2023-10-13T10:43:30.000Z</time>
      </trkpt>
      <trkpt lat="38.130262" lon="-77.819347">
        <ele>114.934322</ele>
        <time>2023-10-13T10:43:39.000Z</time>
      </trkpt>
      <trkpt lat="38.129352" lon="-77.819608">
        <ele>114.741771</ele>
        <time>2023-10-13T10:43:49.000Z</time>
      </trkpt>
      <trkpt lat="38.128385" lon="-77.820203">
        <ele>114.446949</ele>
        <time>2023-10-13T10:44:01.000Z</time>
      </trkpt>
      <trkpt lat="38.126366" lon="-77.821244">
        <ele>113.651319</ele>
        <time>2023-10-13T10:44:25.000Z</time>
      </trkpt>
      <trkpt lat="38.125317" lon="-77.822178">
        <ele>113.190366</ele>
        <time>2023-10-13T10:44:39.000Z</time>
      </trkpt>
      <trkpt lat="38.124791" lon="-77.822485">
        <ele>112.968057</ele>
        <time>2023-10-13T10:44:45.000Z</time>
      </trkpt>
      <trkpt lat="38.124191" lon="-77.822916">
        <ele>112.703312</ele>
        <time>2023-10-13T10:44:53.000Z</time>
      </trkpt>
      <trkpt lat="38.12305" lon="-77.823256">
        <ele>112.046788</ele>
        <time>2023-10-13T10:45:06.000Z</time>
      </trkpt>
      <trkpt lat="38.122738" lon="-77.823268">
        <ele>111.860274</ele>
        <time>2023-10-13T10:45:09.000Z</time>
      </trkpt>
      <trkpt lat="38.121902" lon="-77.8232">
        <ele>111.538467</ele>
        <time>2023-10-13T10:45:18.000Z</time>
      </trkpt>
      <trkpt lat="38.121134" lon="-77.82328">
        <ele>111.532637</ele>
        <time>2023-10-13T10:45:27.000Z</time>
      </trkpt>
      <trkpt lat="38.120622" lon="-77.823174">
        <ele>111.528844</ele>
        <time>2023-10-13T10:45:33.000Z</time>
      </trkpt>
      <trkpt lat="38.120194" lon="-77.822963">
        <ele>111.576528</ele>
        <time>2023-10-13T10:45:38.000Z</time>
      </trkpt>
      <trkpt lat="38.119971" lon="-77.822876">
        <ele>111.621767</ele>
        <time>2023-10-13T10:45:41.000Z</time>
      </trkpt>
      <trkpt lat="38.119771" lon="-77.822868">
        <ele>111.661582</ele>
        <time>2023-10-13T10:45:43.000Z</time>
      </trkpt>
      <trkpt lat="38.11938" lon="-77.823006">
        <ele>111.738931</ele>
        <time>2023-10-13T10:45:48.000Z</time>
      </trkpt>
      <trkpt lat="38.119165" lon="-77.823173">
        <ele>111.789337</ele>
        <time>2023-10-13T10:45:51.000Z</time>
      </trkpt>
      <trkpt lat="38.118985" lon="-77.822792">
        <ele>111.858725</ele>
        <time>2023-10-13T10:45:55.000Z</time>
      </trkpt>
      <trkpt lat="38.1187" lon="-77.821933">
        <ele>111.286234</ele>
        <time>2023-10-13T10:46:03.000Z</time>
      </trkpt>
      <trkpt lat="38.118468" lon="-77.8216">
        <ele>110.943429</ele>
        <time>2023-10-13T10:46:07.000Z</time>
      </trkpt>
      <trkpt lat="38.117971" lon="-77.821042">
        <ele>110.332961</ele>
        <time>2023-10-13T10:46:14.000Z</time>
      </trkpt>
      <trkpt lat="38.117823" lon="-77.820809">
        <ele>110.073614</ele>
        <time>2023-10-13T10:46:17.000Z</time>
      </trkpt>
      <trkpt lat="38.117694" lon="-77.820407">
        <ele>109.602794</ele>
        <time>2023-10-13T10:46:21.000Z</time>
      </trkpt>
      <trkpt lat="38.117659" lon="-77.81931">
        <ele>108.427054</ele>
        <time>2023-10-13T10:46:31.000Z</time>
      </trkpt>
      <trkpt lat="38.117571" lon="-77.819066">
        <ele>108.153249</ele>
        <time>2023-10-13T10:46:33.000Z</time>
      </trkpt>
      <trkpt lat="38.117341" lon="-77.818822">
        <ele>107.742395</ele>
        <time>2023-10-13T10:46:36.000Z</time>
      </trkpt>
      <trkpt lat="38.117193" lon="-77.818742">
        <ele>107.580999</ele>
        <time>2023-10-13T10:46:38.000Z</time>
      </trkpt>
      <trkpt lat="38.116964" lon="-77.818735">
        <ele>107.327553</ele>
        <time>2023-10-13T10:46:41.000Z</time>
      </trkpt>
      <trkpt lat="38.116657" lon="-77.818753">
        <ele>107.001461</ele>
        <time>2023-10-13T10:46:44.000Z</time>
      </trkpt>
      <trkpt lat="38.115904" lon="-77.818828">
        <ele>106.205865</ele>
        <time>2023-10-13T10:46:52.000Z</time>
      </trkpt>
      <trkpt lat="38.11567" lon="-77.818798">
        <ele>105.955784</ele>
        <time>2023-10-13T10:46:55.000Z</time>
      </trkpt>
      <trkpt lat="38.114344" lon="-77.818083">
        <ele>103.713608</ele>
        <time>2023-10-13T10:47:11.000Z</time>
      </trkpt>
      <trkpt lat="38.114124" lon="-77.817763">
        <ele>103.167482</ele>
        <time>2023-10-13T10:47:15.000Z</time>
      </trkpt>
      <trkpt lat="38.114091" lon="-77.817481">
        <ele>102.782273</ele>
        <time>2023-10-13T10:47:17.000Z</time>
      </trkpt>
      <trkpt lat="38.114263" lon="-77.816329">
        <ele>100.919672</ele>
        <time>2023-10-13T10:47:27.000Z</time>
      </trkpt>
      <trkpt lat="38.114232" lon="-77.816002">
        <ele>100.422776</ele>
        <time>2023-10-13T10:47:30.000Z</time>
      </trkpt>
      <trkpt lat="38.113999" lon="-77.815022">
        <ele>98.95216</ele>
        <time>2023-10-13T10:47:39.000Z</time>
      </trkpt>
      <trkpt lat="38.113968" lon="-77.814676">
        <ele>98.553604</ele>
        <time>2023-10-13T10:47:42.000Z</time>
      </trkpt>
      <trkpt lat="38.114022" lon="-77.814359">
        <ele>98.189753</ele>
        <time>2023-10-13T10:47:45.000Z</time>
      </trkpt>
      <trkpt lat="38.114333" lon="-77.813491">
        <ele>97.089479</ele>
        <time>2023-10-13T10:47:53.000Z</time>
      </trkpt>
      <trkpt lat="38.114348" lon="-77.81308">
        <ele>96.682139</ele>
        <time>2023-10-13T10:47:57.000Z</time>
      </trkpt>
      <trkpt lat="38.11424" lon="-77.81278">
        <ele>96.512701</ele>
        <time>2023-10-13T10:48:00.000Z</time>
      </trkpt>
      <trkpt lat="38.113639" lon="-77.811644">
        <ele>95.796139</ele>
        <time>2023-10-13T10:48:12.000Z</time>
      </trkpt>
      <trkpt lat="38.113457" lon="-77.811758">
        <ele>95.659091</ele>
        <time>2023-10-13T10:48:14.000Z</time>
      </trkpt>
      <trkpt lat="38.11344" lon="-77.811754">
        <ele>95.658262</ele>
        <time>2023-10-13T10:48:14.000Z</time>
      </trkpt>
      <trkpt lat="38.113444" lon="-77.811756">
        <ele>95.656825</ele>
        <time>2023-10-13T10:48:14.000Z</time>
      </trkpt>
      <trkpt lat="38.113451" lon="-77.811766">
        <ele>95.655395</ele>
        <time>2023-10-13T10:48:14.000Z</time>
      </trkpt>
      <trkpt lat="38.113438" lon="-77.81176">
        <ele>95.65456</ele>
        <time>2023-10-13T10:48:14.000Z</time>
      </trkpt>
      <trkpt lat="38.113445" lon="-77.811763">
        <ele>95.654556</ele>
        <time>2023-10-13T10:48:14.000Z</time>
      </trkpt>
      <trkpt lat="38.11345" lon="-77.811766">
        <ele>95.654556</ele>
        <time>2023-10-13T10:48:14.000Z</time>
      </trkpt>
      <trkpt lat="38.113441" lon="-77.811763">
        <ele>95.653904</ele>
        <time>2023-10-13T10:48:14.000Z</time>
      </trkpt>
      <trkpt lat="38.113443" lon="-77.811768">
        <ele>95.653058</ele>
        <time>2023-10-13T10:48:14.000Z</time>
      </trkpt>
      <trkpt lat="38.113433" lon="-77.81177">
        <ele>95.652386</ele>
        <time>2023-10-13T10:48:14.000Z</time>
      </trkpt>
      <trkpt lat="38.113628" lon="-77.81164">
        <ele>95.590868</ele>
        <time>2023-10-13T10:48:16.000Z</time>
      </trkpt>
      <trkpt lat="38.114238" lon="-77.812788">
        <ele>96.526585</ele>
        <time>2023-10-13T10:48:28.000Z</time>
      </trkpt>
      <trkpt lat="38.114343" lon="-77.813068">
        <ele>96.747822</ele>
        <time>2023-10-13T10:48:31.000Z</time>
      </trkpt>
      <trkpt lat="38.114337" lon="-77.81349">
        <ele>97.029087</ele>
        <time>2023-10-13T10:48:35.000Z</time>
      </trkpt>
      <trkpt lat="38.114006" lon="-77.814354">
        <ele>98.166507</ele>
        <time>2023-10-13T10:48:43.000Z</time>
      </trkpt>
      <trkpt lat="38.113985" lon="-77.814674">
        <ele>98.562459</ele>
        <time>2023-10-13T10:48:46.000Z</time>
      </trkpt>
      <trkpt lat="38.114008" lon="-77.815028">
        <ele>98.996211</ele>
        <time>2023-10-13T10:48:49.000Z</time>
      </trkpt>
      <trkpt lat="38.11424" lon="-77.816008">
        <ele>100.372105</ele>
        <time>2023-10-13T10:48:58.000Z</time>
      </trkpt>
      <trkpt lat="38.11427" lon="-77.816323">
        <ele>100.873181</ele>
        <time>2023-10-13T10:49:01.000Z</time>
      </trkpt>
      <trkpt lat="38.114096" lon="-77.817493">
        <ele>102.751508</ele>
        <time>2023-10-13T10:49:11.000Z</time>
      </trkpt>
      <trkpt lat="38.114118" lon="-77.817759">
        <ele>103.196055</ele>
        <time>2023-10-13T10:49:13.000Z</time>
      </trkpt>
      <trkpt lat="38.114347" lon="-77.818083">
        <ele>103.79522</ele>
        <time>2023-10-13T10:49:17.000Z</time>
      </trkpt>
      <trkpt lat="38.115671" lon="-77.818791">
        <ele>105.910428</ele>
        <time>2023-10-13T10:49:33.000Z</time>
      </trkpt>
      <trkpt lat="38.115906" lon="-77.818836">
        <ele>106.24283</ele>
        <time>2023-10-13T10:49:36.000Z</time>
      </trkpt>
      <trkpt lat="38.116648" lon="-77.818762">
        <ele>107.042979</ele>
        <time>2023-10-13T10:49:44.000Z</time>
      </trkpt>
      <trkpt lat="38.116964" lon="-77.818736">
        <ele>107.370936</ele>
        <time>2023-10-13T10:49:48.000Z</time>
      </trkpt>
      <trkpt lat="38.117204" lon="-77.818746">
        <ele>107.625845</ele>
        <time>2023-10-13T10:49:51.000Z</time>
      </trkpt>
      <trkpt lat="38.117338" lon="-77.818821">
        <ele>107.786203</ele>
        <time>2023-10-13T10:49:53.000Z</time>
      </trkpt>
      <trkpt lat="38.117562" lon="-77.819083">
        <ele>108.108914</ele>
        <time>2023-10-13T10:49:56.000Z</time>
      </trkpt>
      <trkpt lat="38.117664" lon="-77.819308">
        <ele>108.380928</ele>
        <time>2023-10-13T10:49:58.000Z</time>
      </trkpt>
      <trkpt lat="38.117707" lon="-77.820392">
        <ele>109.571843</ele>
        <time>2023-10-13T10:50:07.000Z</time>
      </trkpt>
      <trkpt lat="38.11782" lon="-77.820817">
        <ele>110.048736</ele>
        <time>2023-10-13T10:50:11.000Z</time>
      </trkpt>
      <trkpt lat="38.117981" lon="-77.821053">
        <ele>110.379977</ele>
        <time>2023-10-13T10:50:14.000Z</time>
      </trkpt>
      <trkpt lat="38.118465" lon="-77.821587">
        <ele>110.963439</ele>
        <time>2023-10-13T10:50:21.000Z</time>
      </trkpt>
      <trkpt lat="38.118692" lon="-77.821942">
        <ele>111.233101</ele>
        <time>2023-10-13T10:50:25.000Z</time>
      </trkpt>
      <trkpt lat="38.118988" lon="-77.822787">
        <ele>111.772473</ele>
        <time>2023-10-13T10:50:33.000Z</time>
      </trkpt>
      <trkpt lat="38.119165" lon="-77.823184">
        <ele>111.904543</ele>
        <time>2023-10-13T10:50:37.000Z</time>
      </trkpt>
      <trkpt lat="38.119387" lon="-77.823013">
        <ele>111.831431</ele>
        <time>2023-10-13T10:50:40.000Z</time>
      </trkpt>
      <trkpt lat="38.119767" lon="-77.822875">
        <ele>111.719265</ele>
        <time>2023-10-13T10:50:44.000Z</time>
      </trkpt>
      <trkpt lat="38.119967" lon="-77.822872">
        <ele>111.661524</ele>
        <time>2023-10-13T10:50:46.000Z</time>
      </trkpt>
      <trkpt lat="38.1202" lon="-77.822964">
        <ele>111.595905</ele>
        <time>2023-10-13T10:50:49.000Z</time>
      </trkpt>
      <trkpt lat="38.120624" lon="-77.82318">
        <ele>111.463126</ele>
        <time>2023-10-13T10:50:54.000Z</time>
      </trkpt>
      <trkpt lat="38.121137" lon="-77.823282">
        <ele>111.490012</ele>
        <time>2023-10-13T10:51:00.000Z</time>
      </trkpt>
      <trkpt lat="38.121898" lon="-77.823193">
        <ele>111.60356</ele>
        <time>2023-10-13T10:51:08.000Z</time>
      </trkpt>
      <trkpt lat="38.122739" lon="-77.823285">
        <ele>111.821547</ele>
        <time>2023-10-13T10:51:17.000Z</time>
      </trkpt>
      <trkpt lat="38.123039" lon="-77.823244">
        <ele>112.012222</ele>
        <time>2023-10-13T10:51:20.000Z</time>
      </trkpt>
      <trkpt lat="38.124201" lon="-77.822901">
        <ele>112.732281</ele>
        <time>2023-10-13T10:51:33.000Z</time>
      </trkpt>
      <trkpt lat="38.124789" lon="-77.822473">
        <ele>112.992258</ele>
        <time>2023-10-13T10:51:41.000Z</time>
      </trkpt>
      <trkpt lat="38.125321" lon="-77.822184">
        <ele>113.187441</ele>
        <time>2023-10-13T10:51:47.000Z</time>
      </trkpt>
      <trkpt lat="38.126355" lon="-77.821238">
        <ele>113.644635</ele>
        <time>2023-10-13T10:52:01.000Z</time>
      </trkpt>
      <trkpt lat="38.128377" lon="-77.820209">
        <ele>114.431119</ele>
        <time>2023-10-13T10:52:25.000Z</time>
      </trkpt>
      <trkpt lat="38.129344" lon="-77.819605">
        <ele>114.757392</ele>
        <time>2023-10-13T10:52:37.000Z</time>
      </trkpt>
      <trkpt lat="38.130264" lon="-77.819342">
        <ele>114.943358</ele>
        <time>2023-10-13T10:52:47.000Z</time>
      </trkpt>
      <trkpt lat="38.13098" lon="-77.818919">
        <ele>115.10131</ele>
        <time>2023-10-13T10:52:56.000Z</time>
      </trkpt>
      <trkpt lat="38.131215" lon="-77.81889">
        <ele>115.148374</ele>
        <time>2023-10-13T10:52:59.000Z</time>
      </trkpt>
      <trkpt lat="38.131852" lon="-77.818975">
        <ele>115.27981</ele>
        <time>2023-10-13T10:53:06.000Z</time>
      </trkpt>
      <trkpt lat="38.133025" lon="-77.818832">
        <ele>115.55962</ele>
        <time>2023-10-13T10:53:19.000Z</time>
      </trkpt>
      <trkpt lat="38.133374" lon="-77.818673">
        <ele>115.666284</ele>
        <time>2023-10-13T10:53:23.000Z</time>
      </trkpt>
      <trkpt lat="38.134927" lon="-77.817788">
        <ele>116.168648</ele>
        <time>2023-10-13T10:53:42.000Z</time>
      </trkpt>
      <trkpt lat="38.13537" lon="-77.817613">
        <ele>116.312106</ele>
        <time>2023-10-13T10:53:47.000Z</time>
      </trkpt>
      <trkpt lat="38.135811" lon="-77.81756">
        <ele>116.447694</ele>
        <time>2023-10-13T10:53:52.000Z</time>
      </trkpt>
      <trkpt lat="38.136645" lon="-77.817757">
        <ele>116.558437</ele>
        <time>2023-10-13T10:54:01.000Z</time>
      </trkpt>
      <trkpt lat="38.137469" lon="-77.817812">
        <ele>116.635189</ele>
        <time>2023-10-13T10:54:10.000Z</time>
      </trkpt>
      <trkpt lat="38.1383" lon="-77.818114">
        <ele>116.993931</ele>
        <time>2023-10-13T10:54:20.000Z</time>
      </trkpt>
      <trkpt lat="38.139058" lon="-77.818296">
        <ele>117.420038</ele>
        <time>2023-10-13T10:54:29.000Z</time>
      </trkpt>
      <trkpt lat="38.139444" lon="-77.818281">
        <ele>117.634901</ele>
        <time>2023-10-13T10:54:33.000Z</time>
      </trkpt>
      <trkpt lat="38.140181" lon="-77.817962">
        <ele>118.147151</ele>
        <time>2023-10-13T10:54:42.000Z</time>
      </trkpt>
      <trkpt lat="38.141294" lon="-77.8174">
        <ele>118.776969</ele>
        <time>2023-10-13T10:54:55.000Z</time>
      </trkpt>
      <trkpt lat="38.141362" lon="-77.817331">
        <ele>118.736059</ele>
        <time>2023-10-13T10:54:56.000Z</time>
      </trkpt>
      <trkpt lat="38.141373" lon="-77.817317">
        <ele>118.735157</ele>
        <time>2023-10-13T10:54:56.000Z</time>
      </trkpt>
      <trkpt lat="38.141381" lon="-77.81731">
        <ele>118.734068</ele>
        <time>2023-10-13T10:54:56.000Z</time>
      </trkpt>
      <trkpt lat="38.141385" lon="-77.817307">
        <ele>118.730504</ele>
        <time>2023-10-13T10:54:56.000Z</time>
      </trkpt>
      <trkpt lat="38.141385" lon="-77.817312">
        <ele>118.729716</ele>
        <time>2023-10-13T10:54:56.000Z</time>
      </trkpt>
      <trkpt lat="38.141392" lon="-77.817318">
        <ele>118.728267</ele>
        <time>2023-10-13T10:54:56.000Z</time>
      </trkpt>
      <trkpt lat="38.141379" lon="-77.817312">
        <ele>118.727732</ele>
        <time>2023-10-13T10:54:56.000Z</time>
      </trkpt>
      <trkpt lat="38.141389" lon="-77.817302">
        <ele>118.72665</ele>
        <time>2023-10-13T10:54:56.000Z</time>
      </trkpt>
      <trkpt lat="38.141388" lon="-77.817309">
        <ele>118.725576</ele>
        <time>2023-10-13T10:54:56.000Z</time>
      </trkpt>
      <trkpt lat="38.141391" lon="-77.817314">
        <ele>118.725044</ele>
        <time>2023-10-13T10:54:56.000Z</time>
      </trkpt>
      <trkpt lat="38.14138" lon="-77.817318">
        <ele>118.723602</ele>
        <time>2023-10-13T10:54:56.000Z</time>
      </trkpt>
      <trkpt lat="38.141375" lon="-77.81731">
        <ele>118.722812</ele>
        <time>2023-10-13T10:54:56.000Z</time>
      </trkpt>
      <trkpt lat="38.141373" lon="-77.817323">
        <ele>118.719252</ele>
        <time>2023-10-13T10:54:56.000Z</time>
      </trkpt>
      <trkpt lat="38.141377" lon="-77.817312">
        <ele>118.718169</ele>
        <time>2023-10-13T10:54:56.000Z</time>
      </trkpt>
      <trkpt lat="38.141374" lon="-77.817327">
        <ele>118.71727</ele>
        <time>2023-10-13T10:54:56.000Z</time>
      </trkpt>
      <trkpt lat="38.141286" lon="-77.817384">
        <ele>118.676346</ele>
        <time>2023-10-13T10:54:57.000Z</time>
      </trkpt>
      <trkpt lat="38.140181" lon="-77.817949">
        <ele>118.170765</ele>
        <time>2023-10-13T10:55:10.000Z</time>
      </trkpt>
      <trkpt lat="38.139451" lon="-77.818287">
        <ele>117.684325</ele>
        <time>2023-10-13T10:55:19.000Z</time>
      </trkpt>
      <trkpt lat="38.139061" lon="-77.8183">
        <ele>117.411218</ele>
        <time>2023-10-13T10:55:23.000Z</time>
      </trkpt>
      <trkpt lat="38.138291" lon="-77.818114">
        <ele>116.869595</ele>
        <time>2023-10-13T10:55:32.000Z</time>
      </trkpt>
      <trkpt lat="38.137478" lon="-77.81781">
        <ele>116.704786</ele>
        <time>2023-10-13T10:55:41.000Z</time>
      </trkpt>
      <trkpt lat="38.13666" lon="-77.817754">
        <ele>116.587686</ele>
        <time>2023-10-13T10:55:50.000Z</time>
      </trkpt>
      <trkpt lat="38.135798" lon="-77.817552">
        <ele>116.398229</ele>
        <time>2023-10-13T10:56:00.000Z</time>
      </trkpt>
      <trkpt lat="38.135368" lon="-77.817614">
        <ele>116.293017</ele>
        <time>2023-10-13T10:56:05.000Z</time>
      </trkpt>
      <trkpt lat="38.134935" lon="-77.817797">
        <ele>116.18169</ele>
        <time>2023-10-13T10:56:10.000Z</time>
      </trkpt>
      <trkpt lat="38.133378" lon="-77.818666">
        <ele>115.647352</ele>
        <time>2023-10-13T10:56:29.000Z</time>
      </trkpt>
      <trkpt lat="38.133025" lon="-77.818817">
        <ele>115.530188</ele>
        <time>2023-10-13T10:56:33.000Z</time>
      </trkpt>
      <trkpt lat="38.131845" lon="-77.818983">
        <ele>115.291513</ele>
        <time>2023-10-13T10:56:46.000Z</time>
      </trkpt>
      <trkpt lat="38.131207" lon="-77.818888">
        <ele>115.161681</ele>
        <time>2023-10-13T10:56:53.000Z</time>
      </trkpt>
      <trkpt lat="38.130973" lon="-77.818924">
        <ele>115.114234</ele>
        <time>2023-10-13T10:56:56.000Z</time>
      </trkpt>
      <trkpt lat="38.130254" lon="-77.819338">
        <ele>114.950911</ele>
        <time>2023-10-13T10:57:05.000Z</time>
      </trkpt>
      <trkpt lat="38.129354" lon="-77.819614">
        <ele>114.737944</ele>
        <time>2023-10-13T10:57:15.000Z</time>
      </trkpt>
      <trkpt lat="38.12838" lon="-77.820213">
        <ele>114.431384</ele>
        <time>2023-10-13T10:57:27.000Z</time>
      </trkpt>
      <trkpt lat="38.12636" lon="-77.821238">
        <ele>113.626596</ele>
        <time>2023-10-13T10:57:51.000Z</time>
      </trkpt>
      <trkpt lat="38.12532" lon="-77.822184">
        <ele>113.218192</ele>
        <time>2023-10-13T10:58:05.000Z</time>
      </trkpt>
      <trkpt lat="38.12479" lon="-77.822482">
        <ele>113.038805</ele>
        <time>2023-10-13T10:58:11.000Z</time>
      </trkpt>
      <trkpt lat="38.124188" lon="-77.822909">
        <ele>112.669671</ele>
        <time>2023-10-13T10:58:19.000Z</time>
      </trkpt>
      <trkpt lat="38.12304" lon="-77.82324">
        <ele>112.015323</ele>
        <time>2023-10-13T10:58:32.000Z</time>
      </trkpt>
      <trkpt lat="38.122726" lon="-77.823282">
        <ele>111.898781</ele>
        <time>2023-10-13T10:58:36.000Z</time>
      </trkpt>
      <trkpt lat="38.121902" lon="-77.823187">
        <ele>111.588388</ele>
        <time>2023-10-13T10:58:45.000Z</time>
      </trkpt>
      <trkpt lat="38.12113" lon="-77.82329">
        <ele>111.387188</ele>
        <time>2023-10-13T10:58:54.000Z</time>
      </trkpt>
      <trkpt lat="38.120628" lon="-77.823186">
        <ele>111.538131</ele>
        <time>2023-10-13T10:59:00.000Z</time>
      </trkpt>
      <trkpt lat="38.120189" lon="-77.822953">
        <ele>111.678044</ele>
        <time>2023-10-13T10:59:05.000Z</time>
      </trkpt>
      <trkpt lat="38.119965" lon="-77.822869">
        <ele>111.747194</ele>
        <time>2023-10-13T10:59:08.000Z</time>
      </trkpt>
      <trkpt lat="38.119759" lon="-77.822875">
        <ele>111.808028</ele>
        <time>2023-10-13T10:59:10.000Z</time>
      </trkpt>
      <trkpt lat="38.119394" lon="-77.823019">
        <ele>111.829622</ele>
        <time>2023-10-13T10:59:14.000Z</time>
      </trkpt>
      <trkpt lat="38.119156" lon="-77.823188">
        <ele>111.732946</ele>
        <time>2023-10-13T10:59:17.000Z</time>
      </trkpt>
      <trkpt lat="38.118985" lon="-77.822791">
        <ele>111.599857</ele>
        <time>2023-10-13T10:59:21.000Z</time>
      </trkpt>
      <trkpt lat="38.118691" lon="-77.821933">
        <ele>111.328369</ele>
        <time>2023-10-13T10:59:29.000Z</time>
      </trkpt>
      <trkpt lat="38.11846" lon="-77.82159">
        <ele>111.147448</ele>
        <time>2023-10-13T10:59:33.000Z</time>
      </trkpt>
      <trkpt lat="38.117969" lon="-77.821055">
        <ele>110.294831</ele>
        <time>2023-10-13T10:59:40.000Z</time>
      </trkpt>
      <trkpt lat="38.117823" lon="-77.820813">
        <ele>109.977437</ele>
        <time>2023-10-13T10:59:43.000Z</time>
      </trkpt>
      <trkpt lat="38.117704" lon="-77.820392">
        <ele>109.520491</ele>
        <time>2023-10-13T10:59:47.000Z</time>
      </trkpt>
      <trkpt lat="38.117653" lon="-77.819305">
        <ele>108.437533</ele>
        <time>2023-10-13T10:59:57.000Z</time>
      </trkpt>
      <trkpt lat="38.117571" lon="-77.819066">
        <ele>108.205574</ele>
        <time>2023-10-13T10:59:59.000Z</time>
      </trkpt>
      <trkpt lat="38.117336" lon="-77.818814">
        <ele>107.85749</ele>
        <time>2023-10-13T11:00:02.000Z</time>
      </trkpt>
      <trkpt lat="38.117194" lon="-77.818753">
        <ele>107.684525</ele>
        <time>2023-10-13T11:00:04.000Z</time>
      </trkpt>
      <trkpt lat="38.116961" lon="-77.818735">
        <ele>107.409609</ele>
        <time>2023-10-13T11:00:07.000Z</time>
      </trkpt>
      <trkpt lat="38.116665" lon="-77.818762">
        <ele>107.055875</ele>
        <time>2023-10-13T11:00:10.000Z</time>
      </trkpt>
      <trkpt lat="38.115911" lon="-77.818838">
        <ele>106.138585</ele>
        <time>2023-10-13T11:00:18.000Z</time>
      </trkpt>
      <trkpt lat="38.115684" lon="-77.818803">
        <ele>105.84158</ele>
        <time>2023-10-13T11:00:21.000Z</time>
      </trkpt>
      <trkpt lat="38.114356" lon="-77.818085">
        <ele>103.769094</ele>
        <time>2023-10-13T11:00:37.000Z</time>
      </trkpt>
      <trkpt lat="38.114126" lon="-77.817775">
        <ele>103.105821</ele>
        <time>2023-10-13T11:00:41.000Z</time>
      </trkpt>
      <trkpt lat="38.114091" lon="-77.817484">
        <ele>102.674925</ele>
        <time>2023-10-13T11:00:44.000Z</time>
      </trkpt>
      <trkpt lat="38.114272" lon="-77.816325">
        <ele>100.868414</ele>
        <time>2023-10-13T11:00:54.000Z</time>
      </trkpt>
      <trkpt lat="38.114244" lon="-77.816008">
        <ele>100.43248</ele>
        <time>2023-10-13T11:00:57.000Z</time>
      </trkpt>
      <trkpt lat="38.113996" lon="-77.81503">
        <ele>99.01204</ele>
        <time>2023-10-13T11:01:06.000Z</time>
      </trkpt>
      <trkpt lat="38.113969" lon="-77.814667">
        <ele>98.532978</ele>
        <time>2023-10-13T11:01:09.000Z</time>
      </trkpt>
      <trkpt lat="38.114011" lon="-77.814365">
        <ele>98.09564</ele>
        <time>2023-10-13T11:01:12.000Z</time>
      </trkpt>
      <trkpt lat="38.11433" lon="-77.813479">
        <ele>97.154687</ele>
        <time>2023-10-13T11:01:21.000Z</time>
      </trkpt>
      <trkpt lat="38.114355" lon="-77.813074">
        <ele>96.788272</ele>
        <time>2023-10-13T11:01:25.000Z</time>
      </trkpt>
      <trkpt lat="38.114243" lon="-77.812786">
        <ele>96.500041</ele>
        <time>2023-10-13T11:01:28.000Z</time>
      </trkpt>
      <trkpt lat="38.113639" lon="-77.811653">
        <ele>95.889382</ele>
        <time>2023-10-13T11:01:40.000Z</time>
      </trkpt>
      <trkpt lat="38.113455" lon="-77.811749">
        <ele>95.919646</ele>
        <time>2023-10-13T11:01:42.000Z</time>
      </trkpt>
      <trkpt lat="38.113442" lon="-77.811748">
        <ele>95.919828</ele>
        <time>2023-10-13T11:01:42.000Z</time>
      </trkpt>
      <trkpt lat="38.11344" lon="-77.811759">
        <ele>95.920147</ele>
        <time>2023-10-13T11:01:42.000Z</time>
      </trkpt>
      <trkpt lat="38.113437" lon="-77.811767">
        <ele>95.92046</ele>
        <time>2023-10-13T11:01:42.000Z</time>
      </trkpt>
      <trkpt lat="38.113443" lon="-77.81176">
        <ele>95.920654</ele>
        <time>2023-10-13T11:01:42.000Z</time>
      </trkpt>
      <trkpt lat="38.113448" lon="-77.811767">
        <ele>95.920841</ele>
        <time>2023-10-13T11:01:42.000Z</time>
      </trkpt>
      <trkpt lat="38.113447" lon="-77.811771">
        <ele>95.9213</ele>
        <time>2023-10-13T11:01:42.000Z</time>
      </trkpt>
      <trkpt lat="38.113443" lon="-77.811759">
        <ele>95.921295</ele>
        <time>2023-10-13T11:01:42.000Z</time>
      </trkpt>
      <trkpt lat="38.113444" lon="-77.811761">
        <ele>95.921294</ele>
        <time>2023-10-13T11:01:42.000Z</time>
      </trkpt>
      <trkpt lat="38.113644" lon="-77.811639">
        <ele>95.953172</ele>
        <time>2023-10-13T11:01:44.000Z</time>
      </trkpt>
      <trkpt lat="38.11424" lon="-77.812781">
        <ele>96.342051</ele>
        <time>2023-10-13T11:01:56.000Z</time>
      </trkpt>
      <trkpt lat="38.114351" lon="-77.81307">
        <ele>96.681062</ele>
        <time>2023-10-13T11:01:59.000Z</time>
      </trkpt>
      <trkpt lat="38.114331" lon="-77.813492">
        <ele>97.112023</ele>
        <time>2023-10-13T11:02:03.000Z</time>
      </trkpt>
      <trkpt lat="38.114017" lon="-77.814357">
        <ele>98.115308</ele>
        <time>2023-10-13T11:02:11.000Z</time>
      </trkpt>
      <trkpt lat="38.113979" lon="-77.814677">
        <ele>98.447076</ele>
        <time>2023-10-13T11:02:14.000Z</time>
      </trkpt>
      <trkpt lat="38.113998" lon="-77.815012">
        <ele>98.951335</ele>
        <time>2023-10-13T11:02:17.000Z</time>
      </trkpt>
      <trkpt lat="38.114237" lon="-77.816012">
        <ele>100.472805</ele>
        <time>2023-10-13T11:02:26.000Z</time>
      </trkpt>
      <trkpt lat="38.114258" lon="-77.816313">
        <ele>100.939731</ele>
        <time>2023-10-13T11:02:29.000Z</time>
      </trkpt>
      <trkpt lat="38.114095" lon="-77.817489">
        <ele>102.670291</ele>
        <time>2023-10-13T11:02:39.000Z</time>
      </trkpt>
      <trkpt lat="38.114129" lon="-77.817767">
        <ele>103.074924</ele>
        <time>2023-10-13T11:02:41.000Z</time>
      </trkpt>
      <trkpt lat="38.114344" lon="-77.818091">
        <ele>103.697775</ele>
        <time>2023-10-13T11:02:45.000Z</time>
      </trkpt>
      <trkpt lat="38.115677" lon="-77.818794">
        <ele>105.871841</ele>
        <time>2023-10-13T11:03:01.000Z</time>
      </trkpt>
      <trkpt lat="38.115913" lon="-77.818837">
        <ele>106.138046</ele>
        <time>2023-10-13T11:03:04.000Z</time>
      </trkpt>
      <trkpt lat="38.116656" lon="-77.818761">
        <ele>106.984935</ele>
        <time>2023-10-13T11:03:12.000Z</time>
      </trkpt>
      <trkpt lat="38.116957" lon="-77.818732">
        <ele>107.351881</ele>
        <time>2023-10-13T11:03:15.000Z</time>
      </trkpt>
      <trkpt lat="38.117206" lon="-77.818743">
        <ele>107.65297</ele>
        <time>2023-10-13T11:03:18.000Z</time>
      </trkpt>
      <trkpt lat="38.117345" lon="-77.818814">
        <ele>107.842387</ele>
        <time>2023-10-13T11:03:20.000Z</time>
      </trkpt>
      <trkpt lat="38.117569" lon="-77.819078">
        <ele>108.223607</ele>
        <time>2023-10-13T11:03:23.000Z</time>
      </trkpt>
      <trkpt lat="38.117654" lon="-77.819304">
        <ele>108.477643</ele>
        <time>2023-10-13T11:03:25.000Z</time>
      </trkpt>
      <trkpt lat="38.11769" lon="-77.820407">
        <ele>109.561121</ele>
        <time>2023-10-13T11:03:35.000Z</time>
      </trkpt>
      <trkpt lat="38.117826" lon="-77.820809">
        <ele>109.974443</ele>
        <time>2023-10-13T11:03:39.000Z</time>
      </trkpt>
      <trkpt lat="38.117978" lon="-77.821056">
        <ele>110.261536</ele>
        <time>2023-10-13T11:03:42.000Z</time>
      </trkpt>
      <trkpt lat="38.118468" lon="-77.821603">
        <ele>111.032737</ele>
        <time>2023-10-13T11:03:49.000Z</time>
      </trkpt>
      <trkpt lat="38.118699" lon="-77.821938">
        <ele>111.465778</ele>
        <time>2023-10-13T11:03:53.000Z</time>
      </trkpt>
      <trkpt lat="38.118981" lon="-77.822788">
        <ele>111.632481</ele>
        <time>2023-10-13T11:04:01.000Z</time>
      </trkpt>
      <trkpt lat="38.119156" lon="-77.823172">
        <ele>111.663796</ele>
        <time>2023-10-13T11:04:05.000Z</time>
      </trkpt>
      <trkpt lat="38.119387" lon="-77.823023">
        <ele>111.686554</ele>
        <time>2023-10-13T11:04:08.000Z</time>
      </trkpt>
      <trkpt lat="38.119777" lon="-77.822879">
        <ele>111.721464</ele>
        <time>2023-10-13T11:04:13.000Z</time>
      </trkpt>
      <trkpt lat="38.119964" lon="-77.822879">
        <ele>111.725499</ele>
        <time>2023-10-13T11:04:15.000Z</time>
      </trkpt>
      <trkpt lat="38.120187" lon="-77.822965">
        <ele>111.679756</ele>
        <time>2023-10-13T11:04:18.000Z</time>
      </trkpt>
      <trkpt lat="38.120634" lon="-77.823176">
        <ele>111.587165</ele>
        <time>2023-10-13T11:04:23.000Z</time>
      </trkpt>
      <trkpt lat="38.121135" lon="-77.823293">
        <ele>111.487299</ele>
        <time>2023-10-13T11:04:29.000Z</time>
      </trkpt>
      <trkpt lat="38.121905" lon="-77.823196">
        <ele>111.49983</ele>
        <time>2023-10-13T11:04:38.000Z</time>
      </trkpt>
      <trkpt lat="38.12274" lon="-77.823278">
        <ele>111.918038</ele>
        <time>2023-10-13T11:04:47.000Z</time>
      </trkpt>
      <trkpt lat="38.123038" lon="-77.823249">
        <ele>112.075073</ele>
        <time>2023-10-13T11:04:50.000Z</time>
      </trkpt>
      <trkpt lat="38.124189" lon="-77.822904">
        <ele>112.653493</ele>
        <time>2023-10-13T11:05:03.000Z</time>
      </trkpt>
      <trkpt lat="38.124785" lon="-77.822472">
        <ele>112.985846</ele>
        <time>2023-10-13T11:05:11.000Z</time>
      </trkpt>
      <trkpt lat="38.125308" lon="-77.822175">
        <ele>113.228288</ele>
        <time>2023-10-13T11:05:17.000Z</time>
      </trkpt>
      <trkpt lat="38.12637" lon="-77.821232">
        <ele>113.637815</ele>
        <time>2023-10-13T11:05:31.000Z</time>
      </trkpt>
      <trkpt lat="38.128377" lon="-77.820206">
        <ele>114.461112</ele>
        <time>2023-10-13T11:05:55.000Z</time>
      </trkpt>
      <trkpt lat="38.129337" lon="-77.819618">
        <ele>114.722817</ele>
        <time>2023-10-13T11:06:07.000Z</time>
      </trkpt>
      <trkpt lat="38.130259" lon="-77.819339">
        <ele>114.943668</ele>
        <time>2023-10-13T11:06:18.000Z</time>
      </trkpt>
      <trkpt lat="38.130976" lon="-77.818922">
        <ele>115.112982</ele>
        <time>2023-10-13T11:06:27.000Z</time>
      </trkpt>
      <trkpt lat="38.131205" lon="-77.818895">
        <ele>115.162153</ele>
        <time>2023-10-13T11:06:30.000Z</time>
      </trkpt>
      <trkpt lat="38.131845" lon="-77.818985">
        <ele>115.29948</ele>
        <time>2023-10-13T11:06:37.000Z</time>
      </trkpt>
      <trkpt lat="38.133022" lon="-77.818823">
        <ele>115.551916</ele>
        <time>2023-10-13T11:06:50.000Z</time>
      </trkpt>
      <trkpt lat="38.133372" lon="-77.818673">
        <ele>115.632547</ele>
        <time>2023-10-13T11:06:54.000Z</time>
      </trkpt>
      <trkpt lat="38.134926" lon="-77.817794">
        <ele>116.205401</ele>
        <time>2023-10-13T11:07:13.000Z</time>
      </trkpt>
      <trkpt lat="38.135366" lon="-77.817605">
        <ele>116.316624</ele>
        <time>2023-10-13T11:07:18.000Z</time>
      </trkpt>
      <trkpt lat="38.135813" lon="-77.817555">
        <ele>116.394659</ele>
        <time>2023-10-13T11:07:23.000Z</time>
      </trkpt>
      <trkpt lat="38.136659" lon="-77.81777">
        <ele>116.549599</ele>
        <time>2023-10-13T11:07:33.000Z</time>
      </trkpt>
      <trkpt lat="38.137474" lon="-77.817811">
        <ele>116.733275</ele>
        <time>2023-10-13T11:07:42.000Z</time>
      </trkpt>
      <trkpt lat="38.138291" lon="-77.818118">
        <ele>116.937483</ele>
        <time>2023-10-13T11:07:51.000Z</time>
      </trkpt>
      <trkpt lat="38.139054" lon="-77.8183">
        <ele>117.354048</ele>
        <time>2023-10-13T11:08:00.000Z</time>
      </trkpt>
      <trkpt lat="38.139453" lon="-77.818275">
        <ele>117.652176</ele>
        <time>2023-10-13T11:08:04.000Z</time>
      </trkpt>
      <trkpt lat="38.140178" lon="-77.817957">
        <ele>118.249991</ele>
        <time>2023-10-13T11:08:13.000Z</time>
      </trkpt>
      <trkpt lat="38.14129" lon="-77.8174">
        <ele>118.560826</ele>
        <time>2023-10-13T11:08:26.000Z</time>
      </trkpt>
      <trkpt lat="38.141362" lon="-77.817316">
        <ele>118.576839</ele>
        <time>2023-10-13T11:08:27.000Z</time>
      </trkpt>
      <trkpt lat="38.141364" lon="-77.817325">
        <ele>118.577199</ele>
        <time>2023-10-13T11:08:27.000Z</time>
      </trkpt>
      <trkpt lat="38.141378" lon="-77.817312">
        <ele>118.577613</ele>
        <time>2023-10-13T11:08:27.000Z</time>
      </trkpt>
      <trkpt lat="38.141375" lon="-77.817322">
        <ele>118.579012</ele>
        <time>2023-10-13T11:08:27.000Z</time>
      </trkpt>
      <trkpt lat="38.141389" lon="-77.817314">
        <ele>118.57932</ele>
        <time>2023-10-13T11:08:27.000Z</time>
      </trkpt>
      <trkpt lat="38.141393" lon="-77.817308">
        <ele>118.579893</ele>
        <time>2023-10-13T11:08:27.000Z</time>
      </trkpt>
      <trkpt lat="38.141381" lon="-77.817315">
        <ele>118.580103</ele>
        <time>2023-10-13T11:08:27.000Z</time>
      </trkpt>
      <trkpt lat="38.141381" lon="-77.817298">
        <ele>118.580509</ele>
        <time>2023-10-13T11:08:27.000Z</time>
      </trkpt>
      <trkpt lat="38.141388" lon="-77.817307">
        <ele>118.580945</ele>
        <time>2023-10-13T11:08:27.000Z</time>
      </trkpt>
      <trkpt lat="38.14139" lon="-77.817302">
        <ele>118.581155</ele>
        <time>2023-10-13T11:08:27.000Z</time>
      </trkpt>
      <trkpt lat="38.141379" lon="-77.817309">
        <ele>118.58172</ele>
        <time>2023-10-13T11:08:27.000Z</time>
      </trkpt>
      <trkpt lat="38.141391" lon="-77.817312">
        <ele>118.582025</ele>
        <time>2023-10-13T11:08:27.000Z</time>
      </trkpt>
      <trkpt lat="38.141376" lon="-77.817324">
        <ele>118.583428</ele>
        <time>2023-10-13T11:08:27.000Z</time>
      </trkpt>
      <trkpt lat="38.141374" lon="-77.817324">
        <ele>118.583846</ele>
        <time>2023-10-13T11:08:27.000Z</time>
      </trkpt>
      <trkpt lat="38.141378" lon="-77.817318">
        <ele>118.584194</ele>
        <time>2023-10-13T11:08:27.000Z</time>
      </trkpt>
      <trkpt lat="38.141293" lon="-77.817394">
        <ele>118.600209</ele>
        <time>2023-10-13T11:08:28.000Z</time>
      </trkpt>
      <trkpt lat="38.140174" lon="-77.817959">
        <ele>118.203735</ele>
        <time>2023-10-13T11:08:41.000Z</time>
      </trkpt>
      <trkpt lat="38.13945" lon="-77.818281">
        <ele>117.60783</ele>
        <time>2023-10-13T11:08:50.000Z</time>
      </trkpt>
      <trkpt lat="38.139054" lon="-77.818303">
        <ele>117.314654</ele>
        <time>2023-10-13T11:08:54.000Z</time>
      </trkpt>
      <trkpt lat="38.138303" lon="-77.818116">
        <ele>117.012987</ele>
        <time>2023-10-13T11:09:03.000Z</time>
      </trkpt>
      <trkpt lat="38.137469" lon="-77.817809">
        <ele>116.678384</ele>
        <time>2023-10-13T11:09:13.000Z</time>
      </trkpt>
      <trkpt lat="38.136646" lon="-77.817752">
        <ele>116.535077</ele>
        <time>2023-10-13T11:09:22.000Z</time>
      </trkpt>
      <trkpt lat="38.135803" lon="-77.817555">
        <ele>116.429525</ele>
        <time>2023-10-13T11:09:32.000Z</time>
      </trkpt>
      <trkpt lat="38.135378" lon="-77.817602">
        <ele>116.340701</ele>
        <time>2023-10-13T11:09:37.000Z</time>
      </trkpt>
      <trkpt lat="38.134932" lon="-77.81778">
        <ele>116.18521</ele>
        <time>2023-10-13T11:09:42.000Z</time>
      </trkpt>
      <trkpt lat="38.13337" lon="-77.818676">
        <ele>115.660714</ele>
        <time>2023-10-13T11:10:01.000Z</time>
      </trkpt>
      <trkpt lat="38.133029" lon="-77.818829">
        <ele>115.568431</ele>
        <time>2023-10-13T11:10:05.000Z</time>
      </trkpt>
      <trkpt lat="38.131844" lon="-77.818983">
        <ele>115.288228</ele>
        <time>2023-10-13T11:10:18.000Z</time>
      </trkpt>
      <trkpt lat="38.131206" lon="-77.81889">
        <ele>115.150677</ele>
        <time>2023-10-13T11:10:25.000Z</time>
      </trkpt>
      <trkpt lat="38.130986" lon="-77.818912">
        <ele>115.101466</ele>
        <time>2023-10-13T11:10:27.000Z</time>
      </trkpt>
      <trkpt lat="38.130268" lon="-77.819337">
        <ele>114.932934</ele>
        <time>2023-10-13T11:10:36.000Z</time>
      </trkpt>
      <trkpt lat="38.129351" lon="-77.819611">
        <ele>114.736999</ele>
        <time>2023-10-13T11:10:46.000Z</time>
      </trkpt>
      <trkpt lat="38.128378" lon="-77.820207">
        <ele>114.451613</ele>
        <time>2023-10-13T11:10:58.000Z</time>
      </trkpt>
      <trkpt lat="38.126353" lon="-77.821249">
        <ele>113.651375</ele>
        <time>2023-10-13T11:11:22.000Z</time>
      </trkpt>
      <trkpt lat="38.125319" lon="-77.822174">
        <ele>113.196379</ele>
        <time>2023-10-13T11:11:36.000Z</time>
      </trkpt>
      <trkpt lat="38.12478" lon="-77.822484">
        <ele>112.965592</ele>
        <time>2023-10-13T11:11:43.000Z</time>
      </trkpt>
      <trkpt lat="38.124188" lon="-77.822915">
        <ele>112.690768</ele>
        <time>2023-10-13T11:11:51.000Z</time>
      </trkpt>
      <trkpt lat="38.123041" lon="-77.823251">
        <ele>112.055053</ele>
        <time>2023-10-13T11:12:04.000Z</time>
      </trkpt>
      <trkpt lat="38.122739" lon="-77.823273">
        <ele>111.871382</ele>
        <time>2023-10-13T11:12:07.000Z</time>
      </trkpt>
      <trkpt lat="38.121913" lon="-77.823203">
        <ele>111.514039</ele>
        <time>2023-10-13T11:12:16.000Z</time>
      </trkpt>
      <trkpt lat="38.121121" lon="-77.823287">
        <ele>111.534589</ele>
        <time>2023-10-13T11:12:25.000Z</time>
      </trkpt>
      <trkpt lat="38.120639" lon="-77.823184">
        <ele>111.547941</ele>
        <time>2023-10-13T11:12:30.000Z</time>
      </trkpt>
      <trkpt lat="38.1202" lon="-77.822954">
        <ele>111.583488</ele>
        <time>2023-10-13T11:12:35.000Z</time>
      </trkpt>
      <trkpt lat="38.119973" lon="-77.822886">
        <ele>111.621089</ele>
        <time>2023-10-13T11:12:38.000Z</time>
      </trkpt>
      <trkpt lat="38.119767" lon="-77.822874">
        <ele>111.654162</ele>
        <time>2023-10-13T11:12:40.000Z</time>
      </trkpt>
      <trkpt lat="38.119389" lon="-77.823012">
        <ele>111.718452</ele>
        <time>2023-10-13T11:12:44.000Z</time>
      </trkpt>
      <trkpt lat="38.11917" lon="-77.823174">
        <ele>111.76035</ele>
        <time>2023-10-13T11:12:47.000Z</time>
      </trkpt>
      <trkpt lat="38.118987" lon="-77.822793">
        <ele>111.818033</ele>
        <time>2023-10-13T11:12:51.000Z</time>
      </trkpt>
      <trkpt lat="38.118689" lon="-77.821949">
        <ele>111.308758</ele>
        <time>2023-10-13T11:12:59.000Z</time>
      </trkpt>
      <trkpt lat="38.11846" lon="-77.821593">
        <ele>110.949803</ele>
        <time>2023-10-13T11:13:03.000Z</time>
      </trkpt>
      <trkpt lat="38.11798" lon="-77.821043">
        <ele>110.310547</ele>
        <time>2023-10-13T11:13:10.000Z</time>
      </trkpt>
      <trkpt lat="38.11783" lon="-77.820803">
        <ele>110.072564</ele>
        <time>2023-10-13T11:13:13.000Z</time>
      </trkpt>
      <trkpt lat="38.117705" lon="-77.820406">
        <ele>109.606695</ele>
        <time>2023-10-13T11:13:17.000Z</time>
      </trkpt>
      <trkpt lat="38.117648" lon="-77.819305">
        <ele>108.43913</ele>
        <time>2023-10-13T11:13:27.000Z</time>
      </trkpt>
      <trkpt lat="38.117573" lon="-77.819073">
        <ele>108.167224</ele>
        <time>2023-10-13T11:13:29.000Z</time>
      </trkpt>
      <trkpt lat="38.117336" lon="-77.818828">
        <ele>107.759225</ele>
        <time>2023-10-13T11:13:32.000Z</time>
      </trkpt>
      <trkpt lat="38.117192" lon="-77.818755">
        <ele>107.57401</ele>
        <time>2023-10-13T11:13:34.000Z</time>
      </trkpt>
      <trkpt lat="38.116972" lon="-77.818723">
        <ele>107.319583</ele>
        <time>2023-10-13T11:13:36.000Z</time>
      </trkpt>
      <trkpt lat="38.116648" lon="-77.818765">
        <ele>106.992242</ele>
        <time>2023-10-13T11:13:40.000Z</time>
      </trkpt>
      <trkpt lat="38.115908" lon="-77.818829">
        <ele>106.193605</ele>
        <time>2023-10-13T11:13:48.000Z</time>
      </trkpt>
      <trkpt lat="38.115675" lon="-77.818809">
        <ele>105.942559</ele>
        <time>2023-10-13T11:13:51.000Z</time>
      </trkpt>
      <trkpt lat="38.114349" lon="-77.81809">
        <ele>103.701073</ele>
        <time>2023-10-13T11:14:07.000Z</time>
      </trkpt>
      <trkpt lat="38.114122" lon="-77.817763">
        <ele>103.143119</ele>
        <time>2023-10-13T11:14:11.000Z</time>
      </trkpt>
      <trkpt lat="38.114094" lon="-77.81748">
        <ele>102.780613</ele>
        <time>2023-10-13T11:14:13.000Z</time>
      </trkpt>
      <trkpt lat="38.11427" lon="-77.816313">
        <ele>100.929984</ele>
        <time>2023-10-13T11:14:23.000Z</time>
      </trkpt>
      <trkpt lat="38.11424" lon="-77.816015">
        <ele>100.435943</ele>
        <time>2023-10-13T11:14:26.000Z</time>
      </trkpt>
      <trkpt lat="38.113995" lon="-77.815012">
        <ele>98.933782</ele>
        <time>2023-10-13T11:14:35.000Z</time>
      </trkpt>
      <trkpt lat="38.113972" lon="-77.81467">
        <ele>98.543044</ele>
        <time>2023-10-13T11:14:38.000Z</time>
      </trkpt>
      <trkpt lat="38.114013" lon="-77.814369">
        <ele>98.186334</ele>
        <time>2023-10-13T11:14:41.000Z</time>
      </trkpt>
      <trkpt lat="38.114327" lon="-77.81348">
        <ele>97.107621</ele>
        <time>2023-10-13T11:14:50.000Z</time>
      </trkpt>
      <trkpt lat="38.114349" lon="-77.81308">
        <ele>96.644639</ele>
        <time>2023-10-13T11:14:54.000Z</time>
      </trkpt>
      <trkpt lat="38.114239" lon="-77.812779">
        <ele>96.489279</ele>
        <time>2023-10-13T11:14:57.000Z</time>
      </trkpt>
      <trkpt lat="38.113635" lon="-77.811642">
        <ele>95.832256</ele>
        <time>2023-10-13T11:15:09.000Z</time>
      </trkpt>
      <trkpt lat="38.113455" lon="-77.811762">
        <ele>95.706593</ele>
        <time>2023-10-13T11:15:11.000Z</time>
      </trkpt>
      <trkpt lat="38.113443" lon="-77.811753">
        <ele>95.705815</ele>
        <time>2023-10-13T11:15:11.000Z</time>
      </trkpt>
      <trkpt lat="38.11345" lon="-77.811758">
        <ele>95.704502</ele>
        <time>2023-10-13T11:15:11.000Z</time>
      </trkpt>
      <trkpt lat="38.113442" lon="-77.811759">
        <ele>95.703209</ele>
        <time>2023-10-13T11:15:11.000Z</time>
      </trkpt>
      <trkpt lat="38.113442" lon="-77.811751">
        <ele>95.702422</ele>
        <time>2023-10-13T11:15:11.000Z</time>
      </trkpt>
      <trkpt lat="38.113439" lon="-77.811762">
        <ele>95.702437</ele>
        <time>2023-10-13T11:15:11.000Z</time>
      </trkpt>
      <trkpt lat="38.113434" lon="-77.811768">
        <ele>95.702437</ele>
        <time>2023-10-13T11:15:11.000Z</time>
      </trkpt>
      <trkpt lat="38.113437" lon="-77.811763">
        <ele>95.701824</ele>
        <time>2023-10-13T11:15:11.000Z</time>
      </trkpt>
      <trkpt lat="38.113439" lon="-77.811768">
        <ele>95.701047</ele>
        <time>2023-10-13T11:15:11.000Z</time>
      </trkpt>
      <trkpt lat="38.113449" lon="-77.811764">
        <ele>95.700445</ele>
        <time>2023-10-13T11:15:11.000Z</time>
      </trkpt>
      <trkpt lat="38.113643" lon="-77.811653">
        <ele>95.568813</ele>
        <time>2023-10-13T11:15:13.000Z</time>
      </trkpt>
      <trkpt lat="38.11425" lon="-77.812775">
        <ele>96.52445</ele>
        <time>2023-10-13T11:15:25.000Z</time>
      </trkpt>
      <trkpt lat="38.114355" lon="-77.813069">
        <ele>96.76065</ele>
        <time>2023-10-13T11:15:28.000Z</time>
      </trkpt>
      <trkpt lat="38.114331" lon="-77.813481">
        <ele>97.060938</ele>
        <time>2023-10-13T11:15:32.000Z</time>
      </trkpt>
      <trkpt lat="38.114017" lon="-77.81436">
        <ele>98.163248</ele>
        <time>2023-10-13T11:15:40.000Z</time>
      </trkpt>
      <trkpt lat="38.113976" lon="-77.814681">
        <ele>98.565119</ele>
        <time>2023-10-13T11:15:43.000Z</time>
      </trkpt>
      <trkpt lat="38.11399" lon="-77.815025">
        <ele>99.00535</ele>
        <time>2023-10-13T11:15:46.000Z</time>
      </trkpt>
      <trkpt lat="38.114231" lon="-77.816007">
        <ele>100.362151</ele>
        <time>2023-10-13T11:15:55.000Z</time>
      </trkpt>
      <trkpt lat="38.114274" lon="-77.816326">
        <ele>100.862665</ele>
        <time>2023-10-13T11:15:58.000Z</time>
      </trkpt>
      <trkpt lat="38.114092" lon="-77.81748">
        <ele>102.738877</ele>
        <time>2023-10-13T11:16:08.000Z</time>
      </trkpt>
      <trkpt lat="38.114111" lon="-77.81777">
        <ele>103.182905</ele>
        <time>2023-10-13T11:16:11.000Z</time>
      </trkpt>
      <trkpt lat="38.114345" lon="-77.818095">
        <ele>103.823334</ele>
        <time>2023-10-13T11:16:15.000Z</time>
      </trkpt>
      <trkpt lat="38.115682" lon="-77.818793">
        <ele>105.891025</ele>
        <time>2023-10-13T11:16:31.000Z</time>
      </trkpt>
      <trkpt lat="38.115908" lon="-77.818843">
        <ele>106.22927</ele>
        <time>2023-10-13T11:16:34.000Z</time>
      </trkpt>
      <trkpt lat="38.116663" lon="-77.818752">
        <ele>107.051948</ele>
        <time>2023-10-13T11:16:42.000Z</time>
      </trkpt>
      <trkpt lat="38.116955" lon="-77.818732">
        <ele>107.382017</ele>
        <time>2023-10-13T11:16:45.000Z</time>
      </trkpt>
      <trkpt lat="38.117207" lon="-77.818751">
        <ele>107.638563</ele>
        <time>2023-10-13T11:16:48.000Z</time>
      </trkpt>
      <trkpt lat="38.117348" lon="-77.818816">
        <ele>107.799941</ele>
        <time>2023-10-13T11:16:50.000Z</time>
      </trkpt>
      <trkpt lat="38.11756" lon="-77.819073">
        <ele>108.124766</ele>
        <time>2023-10-13T11:16:53.000Z</time>
      </trkpt>
      <trkpt lat="38.117652" lon="-77.819297">
        <ele>108.371947</ele>
        <time>2023-10-13T11:16:55.000Z</time>
      </trkpt>
      <trkpt lat="38.117701" lon="-77.820393">
        <ele>109.561664</ele>
        <time>2023-10-13T11:17:05.000Z</time>
      </trkpt>
      <trkpt lat="38.117825" lon="-77.820806">
        <ele>110.038062</ele>
        <time>2023-10-13T11:17:09.000Z</time>
      </trkpt>
      <trkpt lat="38.117983" lon="-77.821048">
        <ele>110.368982</ele>
        <time>2023-10-13T11:17:12.000Z</time>
      </trkpt>
      <trkpt lat="38.118466" lon="-77.821599">
        <ele>110.982012</ele>
        <time>2023-10-13T11:17:19.000Z</time>
      </trkpt>
      <trkpt lat="38.118692" lon="-77.821937">
        <ele>111.231717</ele>
        <time>2023-10-13T11:17:23.000Z</time>
      </trkpt>
      <trkpt lat="38.118984" lon="-77.822791">
        <ele>111.731174</ele>
        <time>2023-10-13T11:17:31.000Z</time>
      </trkpt>
      <trkpt lat="38.119157" lon="-77.823175">
        <ele>111.929842</ele>
        <time>2023-10-13T11:17:35.000Z</time>
      </trkpt>
      <trkpt lat="38.119379" lon="-77.823005">
        <ele>111.853566</ele>
        <time>2023-10-13T11:17:38.000Z</time>
      </trkpt>
      <trkpt lat="38.11976" lon="-77.822865">
        <ele>111.736553</ele>
        <time>2023-10-13T11:17:42.000Z</time>
      </trkpt>
      <trkpt lat="38.119967" lon="-77.822886">
        <ele>111.676314</ele>
        <time>2023-10-13T11:17:44.000Z</time>
      </trkpt>
      <trkpt lat="38.120193" lon="-77.822967">
        <ele>111.607879</ele>
        <time>2023-10-13T11:17:47.000Z</time>
      </trkpt>
      <trkpt lat="38.120635" lon="-77.823188">
        <ele>111.469359</ele>
        <time>2023-10-13T11:17:52.000Z</time>
      </trkpt>
      <trkpt lat="38.121135" lon="-77.823286">
        <ele>111.470019</ele>
        <time>2023-10-13T11:17:58.000Z</time>
      </trkpt>
      <trkpt lat="38.121912" lon="-77.823202">
        <ele>111.611386</ele>
        <time>2023-10-13T11:18:07.000Z</time>
      </trkpt>
      <trkpt lat="38.122736" lon="-77.823286">
        <ele>111.815989</ele>
        <time>2023-10-13T11:18:16.000Z</time>
      </trkpt>
      <trkpt lat="38.123039" lon="-77.823257">
        <ele>112.005801</ele>
        <time>2023-10-13T11:18:19.000Z</time>
      </trkpt>
      <trkpt lat="38.124196" lon="-77.822909">
        <ele>112.722596</ele>
        <time>2023-10-13T11:18:32.000Z</time>
      </trkpt>
      <trkpt lat="38.124787" lon="-77.822473">
        <ele>113.000394</ele>
        <time>2023-10-13T11:18:40.000Z</time>
      </trkpt>
      <trkpt lat="38.125322" lon="-77.822189">
        <ele>113.190979</ele>
        <time>2023-10-13T11:18:46.000Z</time>
      </trkpt>
      <trkpt lat="38.126361" lon="-77.821243">
        <ele>113.642088</ele>
        <time>2023-10-13T11:19:00.000Z</time>
      </trkpt>
      <trkpt lat="38.128381" lon="-77.820216">
        <ele>114.428507</ele>
        <time>2023-10-13T11:19:24.000Z</time>
      </trkpt>
      <trkpt lat="38.129354" lon="-77.819617">
        <ele>114.759576</ele>
        <time>2023-10-13T11:19:36.000Z</time>
      </trkpt>
      <trkpt lat="38.130255" lon="-77.819338">
        <ele>114.94563</ele>
        <time>2023-10-13T11:19:46.000Z</time>
      </trkpt>
      <trkpt lat="38.130982" lon="-77.818919">
        <ele>115.10285</ele>
        <time>2023-10-13T11:19:55.000Z</time>
      </trkpt>
      <trkpt lat="38.131198" lon="-77.818885">
        <ele>115.149582</ele>
        <time>2023-10-13T11:19:57.000Z</time>
      </trkpt>
      <trkpt lat="38.131852" lon="-77.818974">
        <ele>115.280158</ele>
        <time>2023-10-13T11:20:04.000Z</time>
      </trkpt>
      <trkpt lat="38.133029" lon="-77.818831">
        <ele>115.555545</ele>
        <time>2023-10-13T11:20:17.000Z</time>
      </trkpt>
      <trkpt lat="38.133378" lon="-77.818674">
        <ele>115.665052</ele>
        <time>2023-10-13T11:20:21.000Z</time>
      </trkpt>
      <trkpt lat="38.134927" lon="-77.817794">
        <ele>116.167074</ele>
        <time>2023-10-13T11:20:40.000Z</time>
      </trkpt>
      <trkpt lat="38.135377" lon="-77.817607">
        <ele>116.306735</ele>
        <time>2023-10-13T11:20:45.000Z</time>
      </trkpt>
      <trkpt lat="38.135798" lon="-77.817558">
        <ele>116.438754</ele>
        <time>2023-10-13T11:20:50.000Z</time>
      </trkpt>
      <trkpt lat="38.136653" lon="-77.817763">
        <ele>116.566118</ele>
        <time>2023-10-13T11:21:00.000Z</time>
      </trkpt>
      <trkpt lat="38.13747" lon="-77.817817">
        <ele>116.643596</ele>
        <time>2023-10-13T11:21:09.000Z</time>
      </trkpt>
      <trkpt lat="38.138298" lon="-77.818122">
        <ele>116.97979</ele>
        <time>2023-10-13T11:21:19.000Z</time>
      </trkpt>
      <trkpt lat="38.139065" lon="-77.818307">
        <ele>117.427627</ele>
        <time>2023-10-13T11:21:28.000Z</time>
      </trkpt>
      <trkpt lat="38.13944" lon="-77.818285">
        <ele>117.653446</ele>
        <time>2023-10-13T11:21:32.000Z</time>
      </trkpt>
      <trkpt lat="38.140188" lon="-77.817952">
        <ele>118.139239</ele>
        <time>2023-10-13T11:21:41.000Z</time>
      </trkpt>
      <trkpt lat="38.141299" lon="-77.817386">
        <ele>118.819801</ele>
        <time>2023-10-13T11:21:54.000Z</time>
      </trkpt>
      <trkpt lat="38.141378" lon="-77.817327">
        <ele>118.774187</ele>
        <time>2023-10-13T11:21:55.000Z</time>
      </trkpt>
      <trkpt lat="38.141368" lon="-77.817316">
        <ele>118.773178</ele>
        <time>2023-10-13T11:21:55.000Z</time>
      </trkpt>
      <trkpt lat="38.141376" lon="-77.81731">
        <ele>118.771981</ele>
        <time>2023-10-13T11:21:55.000Z</time>
      </trkpt>
      <trkpt lat="38.141374" lon="-77.817315">
        <ele>118.767982</ele>
        <time>2023-10-13T11:21:55.000Z</time>
      </trkpt>
      <trkpt lat="38.141385" lon="-77.817309">
        <ele>118.767109</ele>
        <time>2023-10-13T11:21:55.000Z</time>
      </trkpt>
      <trkpt lat="38.141379" lon="-77.81731">
        <ele>118.766221</ele>
        <time>2023-10-13T11:21:55.000Z</time>
      </trkpt>
      <trkpt lat="38.141377" lon="-77.817317">
        <ele>118.762242</ele>
        <time>2023-10-13T11:21:55.000Z</time>
      </trkpt>
      <trkpt lat="38.141377" lon="-77.817324">
        <ele>118.761044</ele>
        <time>2023-10-13T11:21:55.000Z</time>
      </trkpt>
      <trkpt lat="38.14138" lon="-77.817329">
        <ele>118.760024</ele>
        <time>2023-10-13T11:21:55.000Z</time>
      </trkpt>
      <trkpt lat="38.141289" lon="-77.817393">
        <ele>118.714407</ele>
        <time>2023-10-13T11:21:56.000Z</time>
      </trkpt>
      <trkpt lat="38.140178" lon="-77.817952">
        <ele>118.150778</ele>
        <time>2023-10-13T11:22:09.000Z</time>
      </trkpt>
      <trkpt lat="38.13945" lon="-77.818273">
        <ele>117.685747</ele>
        <time>2023-10-13T11:22:18.000Z</time>
      </trkpt>
      <trkpt lat="38.139057" lon="-77.818305">
        <ele>117.420993</ele>
        <time>2023-10-13T11:22:22.000Z</time>
      </trkpt>
      <trkpt lat="38.138292" lon="-77.818128">
        <ele>116.895905</ele>
        <time>2023-10-13T11:22:31.000Z</time>
      </trkpt>
      <trkpt lat="38.137475" lon="-77.81781">
        <ele>116.691848</ele>
        <time>2023-10-13T11:22:41.000Z</time>
      </trkpt>
      <trkpt lat="38.136661" lon="-77.817757">
        <ele>116.587933</ele>
        <time>2023-10-13T11:22:50.000Z</time>
      </trkpt>
      <trkpt lat="38.135802" lon="-77.817553">
        <ele>116.404389</ele>
        <time>2023-10-13T11:23:00.000Z</time>
      </trkpt>
      <trkpt lat="38.135369" lon="-77.817599">
        <ele>116.292829</ele>
        <time>2023-10-13T11:23:05.000Z</time>
      </trkpt>
      <trkpt lat="38.134935" lon="-77.817781">
        <ele>116.17479</ele>
        <time>2023-10-13T11:23:10.000Z</time>
      </trkpt>
      <trkpt lat="38.133375" lon="-77.818676">
        <ele>115.652626</ele>
        <time>2023-10-13T11:23:29.000Z</time>
      </trkpt>
      <trkpt lat="38.133029" lon="-77.81882">
        <ele>115.532058</ele>
        <time>2023-10-13T11:23:33.000Z</time>
      </trkpt>
      <trkpt lat="38.13185" lon="-77.818974">
        <ele>115.288465</ele>
        <time>2023-10-13T11:23:46.000Z</time>
      </trkpt>
      <trkpt lat="38.131202" lon="-77.818889">
        <ele>115.159438</ele>
        <time>2023-10-13T11:23:53.000Z</time>
      </trkpt>
      <trkpt lat="38.130974" lon="-77.818913">
        <ele>115.112568</ele>
        <time>2023-10-13T11:23:56.000Z</time>
      </trkpt>
      <trkpt lat="38.130256" lon="-77.819332">
        <ele>114.951023</ele>
        <time>2023-10-13T11:24:05.000Z</time>
      </trkpt>
      <trkpt lat="38.129337" lon="-77.819604">
        <ele>114.746044</ele>
        <time>2023-10-13T11:24:15.000Z</time>
      </trkpt>
      <trkpt lat="38.128377" lon="-77.820203">
        <ele>114.428023</ele>
        <time>2023-10-13T11:24:27.000Z</time>
      </trkpt>
      <trkpt lat="38.126356" lon="-77.821239">
        <ele>113.6301</ele>
        <time>2023-10-13T11:24:51.000Z</time>
      </trkpt>
      <trkpt lat="38.125311" lon="-77.822184">
        <ele>113.212614</ele>
        <time>2023-10-13T11:25:05.000Z</time>
      </trkpt>
      <trkpt lat="38.124782" lon="-77.822487">
        <ele>113.032407</ele>
        <time>2023-10-13T11:25:11.000Z</time>
      </trkpt>
      <trkpt lat="38.124189" lon="-77.822904">
        <ele>112.679147</ele>
        <time>2023-10-13T11:25:19.000Z</time>
      </trkpt>
      <trkpt lat="38.12305" lon="-77.82324">
        <ele>112.005996</ele>
        <time>2023-10-13T11:25:32.000Z</time>
      </trkpt>
      <trkpt lat="38.12273" lon="-77.823279">
        <ele>111.881096</ele>
        <time>2023-10-13T11:25:36.000Z</time>
      </trkpt>
      <trkpt lat="38.121898" lon="-77.823187">
        <ele>111.602107</ele>
        <time>2023-10-13T11:25:45.000Z</time>
      </trkpt>
      <trkpt lat="38.121129" lon="-77.823281">
        <ele>111.364552</ele>
        <time>2023-10-13T11:25:54.000Z</time>
      </trkpt>
      <trkpt lat="38.120622" lon="-77.823184">
        <ele>111.520489</ele>
        <time>2023-10-13T11:26:00.000Z</time>
      </trkpt>
      <trkpt lat="38.120187" lon="-77.82295">
        <ele>111.66505</ele>
        <time>2023-10-13T11:26:05.000Z</time>
      </trkpt>
      <trkpt lat="38.119973" lon="-77.822884">
        <ele>111.736483</ele>
        <time>2023-10-13T11:26:07.000Z</time>
      </trkpt>
      <trkpt lat="38.119777" lon="-77.822878">
        <ele>111.799336</ele>
        <time>2023-10-13T11:26:09.000Z</time>
      </trkpt>
      <trkpt lat="38.119389" lon="-77.823021">
        <ele>111.885903</ele>
        <time>2023-10-13T11:26:13.000Z</time>
      </trkpt>
      <trkpt lat="38.119157" lon="-77.82318">
        <ele>111.771316</ele>
        <time>2023-10-13T11:26:16.000Z</time>
      </trkpt>
      <trkpt lat="38.11899" lon="-77.822786">
        <ele>111.61357</ele>
        <time>2023-10-13T11:26:20.000Z</time>
      </trkpt>
      <trkpt lat="38.118707" lon="-77.821941">
        <ele>111.291826</ele>
        <time>2023-10-13T11:26:28.000Z</time>
      </trkpt>
      <trkpt lat="38.11845" lon="-77.821603">
        <ele>111.130946</ele>
        <time>2023-10-13T11:26:32.000Z</time>
      </trkpt>
      <trkpt lat="38.117981" lon="-77.821049">
        <ele>110.309781</ele>
        <time>2023-10-13T11:26:39.000Z</time>
      </trkpt>
      <trkpt lat="38.117817" lon="-77.820816">
        <ele>109.987903</ele>
        <time>2023-10-13T11:26:42.000Z</time>
      </trkpt>
      <trkpt lat="38.117689" lon="-77.820409">
        <ele>109.52451</ele>
        <time>2023-10-13T11:26:46.000Z</time>
      </trkpt>
      <trkpt lat="38.117651" lon="-77.819297">
        <ele>108.419387</ele>
        <time>2023-10-13T11:26:56.000Z</time>
      </trkpt>
      <trkpt lat="38.117564" lon="-77.819078">
        <ele>108.191779</ele>
        <time>2023-10-13T11:26:58.000Z</time>
      </trkpt>
      <trkpt lat="38.117338" lon="-77.81882">
        <ele>107.85025</ele>
        <time>2023-10-13T11:27:01.000Z</time>
      </trkpt>
      <trkpt lat="38.117207" lon="-77.818746">
        <ele>107.680555</ele>
        <time>2023-10-13T11:27:03.000Z</time>
      </trkpt>
      <trkpt lat="38.11697" lon="-77.818734">
        <ele>107.410797</ele>
        <time>2023-10-13T11:27:06.000Z</time>
      </trkpt>
      <trkpt lat="38.116656" lon="-77.818765">
        <ele>107.063743</ele>
        <time>2023-10-13T11:27:10.000Z</time>
      </trkpt>
      <trkpt lat="38.115911" lon="-77.818827">
        <ele>106.149858</ele>
        <time>2023-10-13T11:27:18.000Z</time>
      </trkpt>
      <trkpt lat="38.115684" lon="-77.818802">
        <ele>105.844236</ele>
        <time>2023-10-13T11:27:21.000Z</time>
      </trkpt>
      <trkpt lat="38.114353" lon="-77.818083">
        <ele>103.790352</ele>
        <time>2023-10-13T11:27:37.000Z</time>
      </trkpt>
      <trkpt lat="38.114116" lon="-77.817763">
        <ele>103.120788</ele>
        <time>2023-10-13T11:27:41.000Z</time>
      </trkpt>
      <trkpt lat="38.11409" lon="-77.817493">
        <ele>102.685804</ele>
        <time>2023-10-13T11:27:43.000Z</time>
      </trkpt>
      <trkpt lat="38.114262" lon="-77.816318">
        <ele>100.847766</ele>
        <time>2023-10-13T11:27:53.000Z</time>
      </trkpt>
      <trkpt lat="38.114245" lon="-77.816003">
        <ele>100.412982</ele>
        <time>2023-10-13T11:27:56.000Z</time>
      </trkpt>
      <trkpt lat="38.114008" lon="-77.815012">
        <ele>99.016516</ele>
        <time>2023-10-13T11:28:05.000Z</time>
      </trkpt>
      <trkpt lat="38.11398" lon="-77.814669">
        <ele>98.545523</ele>
        <time>2023-10-13T11:28:08.000Z</time>
      </trkpt>
      <trkpt lat="38.11402" lon="-77.814354">
        <ele>98.11556</ele>
        <time>2023-10-13T11:28:11.000Z</time>
      </trkpt>
      <trkpt lat="38.114339" lon="-77.813477">
        <ele>97.144743</ele>
        <time>2023-10-13T11:28:19.000Z</time>
      </trkpt>
      <trkpt lat="38.114345" lon="-77.81308">
        <ele>96.792701</ele>
        <time>2023-10-13T11:28:22.000Z</time>
      </trkpt>
      <trkpt lat="38.114243" lon="-77.812774">
        <ele>96.515763</ele>
        <time>2023-10-13T11:28:25.000Z</time>
      </trkpt>
      <trkpt lat="38.113633" lon="-77.811653">
        <ele>95.848499</ele>
        <time>2023-10-13T11:28:37.000Z</time>
      </trkpt>
      <trkpt lat="38.113456" lon="-77.811761">
        <ele>95.897883</ele>
        <time>2023-10-13T11:28:39.000Z</time>
      </trkpt>
      <trkpt lat="38.113456" lon="-77.811748">
        <ele>95.898193</ele>
        <time>2023-10-13T11:28:39.000Z</time>
      </trkpt>
      <trkpt lat="38.113449" lon="-77.811765">
        <ele>95.898711</ele>
        <time>2023-10-13T11:28:39.000Z</time>
      </trkpt>
      <trkpt lat="38.11345" lon="-77.81176">
        <ele>95.899218</ele>
        <time>2023-10-13T11:28:39.000Z</time>
      </trkpt>
      <trkpt lat="38.11345" lon="-77.811763">
        <ele>95.899515</ele>
        <time>2023-10-13T11:28:39.000Z</time>
      </trkpt>
      <trkpt lat="38.113434" lon="-77.811763">
        <ele>95.899514</ele>
        <time>2023-10-13T11:28:39.000Z</time>
      </trkpt>
      <trkpt lat="38.113444" lon="-77.811754">
        <ele>95.899522</ele>
        <time>2023-10-13T11:28:39.000Z</time>
      </trkpt>
      <trkpt lat="38.113435" lon="-77.811762">
        <ele>95.899761</ele>
        <time>2023-10-13T11:28:39.000Z</time>
      </trkpt>
      <trkpt lat="38.113448" lon="-77.811768">
        <ele>95.900059</ele>
        <time>2023-10-13T11:28:39.000Z</time>
      </trkpt>
      <trkpt lat="38.113433" lon="-77.811766">
        <ele>95.900296</ele>
        <time>2023-10-13T11:28:39.000Z</time>
      </trkpt>
      <trkpt lat="38.113638" lon="-77.811643">
        <ele>95.952038</ele>
        <time>2023-10-13T11:28:42.000Z</time>
      </trkpt>
      <trkpt lat="38.114241" lon="-77.812785">
        <ele>96.318214</ele>
        <time>2023-10-13T11:28:54.000Z</time>
      </trkpt>
      <trkpt lat="38.114343" lon="-77.813068">
        <ele>96.664608</ele>
        <time>2023-10-13T11:28:57.000Z</time>
      </trkpt>
      <trkpt lat="38.114328" lon="-77.813478">
        <ele>97.104968</ele>
        <time>2023-10-13T11:29:01.000Z</time>
      </trkpt>
      <trkpt lat="38.114006" lon="-77.814366">
        <ele>98.130092</ele>
        <time>2023-10-13T11:29:10.000Z</time>
      </trkpt>
      <trkpt lat="38.113975" lon="-77.814675">
        <ele>98.469088</ele>
        <time>2023-10-13T11:29:13.000Z</time>
      </trkpt>
      <trkpt lat="38.114005" lon="-77.815021">
        <ele>98.927262</ele>
        <time>2023-10-13T11:29:16.000Z</time>
      </trkpt>
      <trkpt lat="38.114242" lon="-77.816012">
        <ele>100.471943</ele>
        <time>2023-10-13T11:29:25.000Z</time>
      </trkpt>
      <trkpt lat="38.114272" lon="-77.816322">
        <ele>100.946017</ele>
        <time>2023-10-13T11:29:28.000Z</time>
      </trkpt>
      <trkpt lat="38.114087" lon="-77.817491">
        <ele>102.68331</ele>
        <time>2023-10-13T11:29:38.000Z</time>
      </trkpt>
      <trkpt lat="38.114116" lon="-77.817776">
        <ele>103.079232</ele>
        <time>2023-10-13T11:29:41.000Z</time>
      </trkpt>
      <trkpt lat="38.114355" lon="-77.818085">
        <ele>103.688632</ele>
        <time>2023-10-13T11:29:45.000Z</time>
      </trkpt>
      <trkpt lat="38.115672" lon="-77.818799">
        <ele>105.885347</ele>
        <time>2023-10-13T11:30:01.000Z</time>
      </trkpt>
      <trkpt lat="38.115919" lon="-77.818834">
        <ele>106.146629</ele>
        <time>2023-10-13T11:30:04.000Z</time>
      </trkpt>
      <trkpt lat="38.116666" lon="-77.818763">
        <ele>106.977852</ele>
        <time>2023-10-13T11:30:12.000Z</time>
      </trkpt>
      <trkpt lat="38.116956" lon="-77.818729">
        <ele>107.327807</ele>
        <time>2023-10-13T11:30:15.000Z</time>
      </trkpt>
      <trkpt lat="38.117208" lon="-77.818754">
        <ele>107.634781</ele>
        <time>2023-10-13T11:30:18.000Z</time>
      </trkpt>
      <trkpt lat="38.117345" lon="-77.818818">
        <ele>107.827903</ele>
        <time>2023-10-13T11:30:20.000Z</time>
      </trkpt>
      <trkpt lat="38.117562" lon="-77.819067">
        <ele>108.216561</ele>
        <time>2023-10-13T11:30:23.000Z</time>
      </trkpt>
      <trkpt lat="38.117662" lon="-77.819307">
        <ele>108.475588</ele>
        <time>2023-10-13T11:30:25.000Z</time>
      </trkpt>
      <trkpt lat="38.117705" lon="-77.820393">
        <ele>109.58636</ele>
        <time>2023-10-13T11:30:35.000Z</time>
      </trkpt>
      <trkpt lat="38.117834" lon="-77.820805">
        <ele>109.986068</ele>
        <time>2023-10-13T11:30:39.000Z</time>
      </trkpt>
      <trkpt lat="38.117972" lon="-77.821044">
        <ele>110.263707</ele>
        <time>2023-10-13T11:30:42.000Z</time>
      </trkpt>
      <trkpt lat="38.118457" lon="-77.821592">
        <ele>111.009532</ele>
        <time>2023-10-13T11:30:49.000Z</time>
      </trkpt>
      <trkpt lat="38.118691" lon="-77.821949">
        <ele>111.42832</ele>
        <time>2023-10-13T11:30:53.000Z</time>
      </trkpt>
      <trkpt lat="38.11898" lon="-77.822796">
        <ele>111.662947</ele>
        <time>2023-10-13T11:31:01.000Z</time>
      </trkpt>
      <trkpt lat="38.119159" lon="-77.823171">
        <ele>111.671848</ele>
        <time>2023-10-13T11:31:05.000Z</time>
      </trkpt>
      <trkpt lat="38.119395" lon="-77.823021">
        <ele>111.678301</ele>
        <time>2023-10-13T11:31:08.000Z</time>
      </trkpt>
      <trkpt lat="38.119775" lon="-77.822873">
        <ele>111.688214</ele>
        <time>2023-10-13T11:31:12.000Z</time>
      </trkpt>
      <trkpt lat="38.119968" lon="-77.822876">
        <ele>111.693315</ele>
        <time>2023-10-13T11:31:14.000Z</time>
      </trkpt>
      <trkpt lat="38.120196" lon="-77.822949">
        <ele>111.664817</ele>
        <time>2023-10-13T11:31:17.000Z</time>
      </trkpt>
      <trkpt lat="38.120633" lon="-77.823179">
        <ele>111.588072</ele>
        <time>2023-10-13T11:31:22.000Z</time>
      </trkpt>
      <trkpt lat="38.121121" lon="-77.82329">
        <ele>111.505302</ele>
        <time>2023-10-13T11:31:28.000Z</time>
      </trkpt>
      <trkpt lat="38.121908" lon="-77.8232">
        <ele>111.473633</ele>
        <time>2023-10-13T11:31:37.000Z</time>
      </trkpt>
      <trkpt lat="38.122736" lon="-77.823286">
        <ele>111.911779</ele>
        <time>2023-10-13T11:31:46.000Z</time>
      </trkpt>
      <trkpt lat="38.123052" lon="-77.823248">
        <ele>112.076307</ele>
        <time>2023-10-13T11:31:50.000Z</time>
      </trkpt>
      <trkpt lat="38.124187" lon="-77.822906">
        <ele>112.656758</ele>
        <time>2023-10-13T11:32:03.000Z</time>
      </trkpt>
      <trkpt lat="38.124785" lon="-77.822472">
        <ele>112.976306</ele>
        <time>2023-10-13T11:32:11.000Z</time>
      </trkpt>
      <trkpt lat="38.125315" lon="-77.822173">
        <ele>113.227129</ele>
        <time>2023-10-13T11:32:17.000Z</time>
      </trkpt>
      <trkpt lat="38.126355" lon="-77.821237">
        <ele>113.642264</ele>
        <time>2023-10-13T11:32:31.000Z</time>
      </trkpt>
      <trkpt lat="38.128378" lon="-77.820205">
        <ele>114.469556</ele>
        <time>2023-10-13T11:32:55.000Z</time>
      </trkpt>
      <trkpt lat="38.129351" lon="-77.819616">
        <ele>114.723308</ele>
        <time>2023-10-13T11:33:07.000Z</time>
      </trkpt>
      <trkpt lat="38.130261" lon="-77.819338">
        <ele>114.940521</ele>
        <time>2023-10-13T11:33:17.000Z</time>
      </trkpt>
      <trkpt lat="38.13098" lon="-77.818914">
        <ele>115.110923</ele>
        <time>2023-10-13T11:33:26.000Z</time>
      </trkpt>
      <trkpt lat="38.131216" lon="-77.818893">
        <ele>115.160439</ele>
        <time>2023-10-13T11:33:29.000Z</time>
      </trkpt>
      <trkpt lat="38.131846" lon="-77.818989">
        <ele>115.298936</ele>
        <time>2023-10-13T11:33:36.000Z</time>
      </trkpt>
      <trkpt lat="38.133018" lon="-77.818822">
        <ele>115.557167</ele>
        <time>2023-10-13T11:33:49.000Z</time>
      </trkpt>
      <trkpt lat="38.133385" lon="-77.818671">
        <ele>115.639633</ele>
        <time>2023-10-13T11:33:53.000Z</time>
      </trkpt>
      <trkpt lat="38.134927" lon="-77.817781">
        <ele>116.202246</ele>
        <time>2023-10-13T11:34:12.000Z</time>
      </trkpt>
      <trkpt lat="38.135373" lon="-77.817607">
        <ele>116.327338</ele>
        <time>2023-10-13T11:34:17.000Z</time>
      </trkpt>
      <trkpt lat="38.135812" lon="-77.817555">
        <ele>116.399364</ele>
        <time>2023-10-13T11:34:22.000Z</time>
      </trkpt>
      <trkpt lat="38.13665" lon="-77.81776">
        <ele>116.542401</ele>
        <time>2023-10-13T11:34:31.000Z</time>
      </trkpt>
      <trkpt lat="38.137479" lon="-77.817809">
        <ele>116.73087</ele>
        <time>2023-10-13T11:34:40.000Z</time>
      </trkpt>
      <trkpt lat="38.138299" lon="-77.818111">
        <ele>116.95999</ele>
        <time>2023-10-13T11:34:49.000Z</time>
      </trkpt>
      <trkpt lat="38.139057" lon="-77.818294">
        <ele>117.340013</ele>
        <time>2023-10-13T11:34:58.000Z</time>
      </trkpt>
      <trkpt lat="38.139438" lon="-77.818287">
        <ele>117.64155</ele>
        <time>2023-10-13T11:35:02.000Z</time>
      </trkpt>
      <trkpt lat="38.140188" lon="-77.817956">
        <ele>118.246232</ele>
        <time>2023-10-13T11:35:11.000Z</time>
      </trkpt>
      <trkpt lat="38.141296" lon="-77.817397">
        <ele>118.548402</ele>
        <time>2023-10-13T11:35:24.000Z</time>
      </trkpt>
      <trkpt lat="38.14137" lon="-77.817322">
        <ele>118.556904</ele>
        <time>2023-10-13T11:35:25.000Z</time>
      </trkpt>
      <trkpt lat="38.141367" lon="-77.817317">
        <ele>118.557111</ele>
        <time>2023-10-13T11:35:25.000Z</time>
      </trkpt>
      <trkpt lat="38.141383" lon="-77.817317">
        <ele>118.557326</ele>
        <time>2023-10-13T11:35:25.000Z</time>
      </trkpt>
      <trkpt lat="38.141389" lon="-77.817313">
        <ele>118.558063</ele>
        <time>2023-10-13T11:35:25.000Z</time>
      </trkpt>
      <trkpt lat="38.141376" lon="-77.817319">
        <ele>118.558236</ele>
        <time>2023-10-13T11:35:25.000Z</time>
      </trkpt>
      <trkpt lat="38.141388" lon="-77.817304">
        <ele>118.558398</ele>
        <time>2023-10-13T11:35:25.000Z</time>
      </trkpt>
      <trkpt lat="38.141371" lon="-77.817319">
        <ele>118.55915</ele>
        <time>2023-10-13T11:35:25.000Z</time>
      </trkpt>
      <trkpt lat="38.141378" lon="-77.817317">
        <ele>118.559358</ele>
        <time>2023-10-13T11:35:25.000Z</time>
      </trkpt>
      <trkpt lat="38.141366" lon="-77.817326">
        <ele>118.559559</ele>
        <time>2023-10-13T11:35:25.000Z</time>
      </trkpt>
      <trkpt lat="38.141291" lon="-77.817388">
        <ele>118.568057</ele>
        <time>2023-10-13T11:35:26.000Z</time>
      </trkpt>
      <trkpt lat="38.140182" lon="-77.817962">
        <ele>118.219353</ele>
        <time>2023-10-13T11:35:39.000Z</time>
      </trkpt>
      <trkpt lat="38.139446" lon="-77.818282">
        <ele>117.615278</ele>
        <time>2023-10-13T11:35:48.000Z</time>
      </trkpt>
      <trkpt lat="38.139052" lon="-77.8183">
        <ele>117.314028</ele>
        <time>2023-10-13T11:35:52.000Z</time>
      </trkpt>
      <trkpt lat="38.138306" lon="-77.818122">
        <ele>117.00176</ele>
        <time>2023-10-13T11:36:00.000Z</time>
      </trkpt>
      <trkpt lat="38.137479" lon="-77.817808">
        <ele>116.703793</ele>
        <time>2023-10-13T11:36:10.000Z</time>
      </trkpt>
      <trkpt lat="38.136662" lon="-77.817759">
        <ele>116.534642</ele>
        <time>2023-10-13T11:36:19.000Z</time>
      </trkpt>
      <trkpt lat="38.135803" lon="-77.817551">
        <ele>116.417921</ele>
        <time>2023-10-13T11:36:29.000Z</time>
      </trkpt>
      <trkpt lat="38.135366" lon="-77.817599">
        <ele>116.34833</ele>
        <time>2023-10-13T11:36:34.000Z</time>
      </trkpt>
      <trkpt lat="38.134925" lon="-77.817796">
        <ele>116.191057</ele>
        <time>2023-10-13T11:36:39.000Z</time>
      </trkpt>
      <trkpt lat="38.133381" lon="-77.818661">
        <ele>115.655293</ele>
        <time>2023-10-13T11:36:58.000Z</time>
      </trkpt>
      <trkpt lat="38.133015" lon="-77.818832">
        <ele>115.566848</ele>
        <time>2023-10-13T11:37:02.000Z</time>
      </trkpt>
      <trkpt lat="38.131845" lon="-77.818983">
        <ele>115.29297</ele>
        <time>2023-10-13T11:37:15.000Z</time>
      </trkpt>
      <trkpt lat="38.131204" lon="-77.818888">
        <ele>115.153847</ele>
        <time>2023-10-13T11:37:22.000Z</time>
      </trkpt>
      <trkpt lat="38.130984" lon="-77.818921">
        <ele>115.104058</ele>
        <time>2023-10-13T11:37:24.000Z</time>
      </trkpt>
      <trkpt lat="38.130269" lon="-77.819343">
        <ele>114.932759</ele>
        <time>2023-10-13T11:37:33.000Z</time>
      </trkpt>
      <trkpt lat="38.129341" lon="-77.819609">
        <ele>114.73073</ele>
        <time>2023-10-13T11:37:44.000Z</time>
      </trkpt>
      <trkpt lat="38.128392" lon="-77.820216">
        <ele>114.457902</ele>
        <time>2023-10-13T11:37:56.000Z</time>
      </trkpt>
      <trkpt lat="38.126361" lon="-77.821246">
        <ele>113.649918</ele>
        <time>2023-10-13T11:38:20.000Z</time>
      </trkpt>
      <trkpt lat="38.125315" lon="-77.822183">
        <ele>113.207818</ele>
        <time>2023-10-13T11:38:34.000Z</time>
      </trkpt>
      <trkpt lat="38.124786" lon="-77.822479">
        <ele>112.96518</ele>
        <time>2023-10-13T11:38:40.000Z</time>
      </trkpt>
      <trkpt lat="38.124197" lon="-77.822917">
        <ele>112.676244</ele>
        <time>2023-10-13T11:38:48.000Z</time>
      </trkpt>
      <trkpt lat="38.123053" lon="-77.823247">
        <ele>112.064965</ele>
        <time>2023-10-13T11:39:01.000Z</time>
      </trkpt>
      <trkpt lat="38.122726" lon="-77.823269">
        <ele>111.886132</ele>
        <time>2023-10-13T11:39:05.000Z</time>
      </trkpt>
      <trkpt lat="38.121905" lon="-77.823196">
        <ele>111.475153</ele>
        <time>2023-10-13T11:39:14.000Z</time>
      </trkpt>
      <trkpt lat="38.121123" lon="-77.823284">
        <ele>111.531704</ele>
        <time>2023-10-13T11:39:23.000Z</time>
      </trkpt>
      <trkpt lat="38.120624" lon="-77.823173">
        <ele>111.568431</ele>
        <time>2023-10-13T11:39:29.000Z</time>
      </trkpt>
      <trkpt lat="38.120187" lon="-77.822959">
        <ele>111.604621</ele>
        <time>2023-10-13T11:39:34.000Z</time>
      </trkpt>
      <trkpt lat="38.119973" lon="-77.822885">
        <ele>111.630023</ele>
        <time>2023-10-13T11:39:36.000Z</time>
      </trkpt>
      <trkpt lat="38.119764" lon="-77.822867">
        <ele>111.652367</ele>
        <time>2023-10-13T11:39:38.000Z</time>
      </trkpt>
      <trkpt lat="38.119389" lon="-77.823021">
        <ele>111.695796</ele>
        <time>2023-10-13T11:39:42.000Z</time>
      </trkpt>
      <trkpt lat="38.119172" lon="-77.823183">
        <ele>111.724096</ele>
        <time>2023-10-13T11:39:45.000Z</time>
      </trkpt>
      <trkpt lat="38.11899" lon="-77.822789">
        <ele>111.76305</ele>
        <time>2023-10-13T11:39:49.000Z</time>
      </trkpt>
      <trkpt lat="38.118694" lon="-77.821933">
        <ele>111.343806</ele>
        <time>2023-10-13T11:39:57.000Z</time>
      </trkpt>
      <trkpt lat="38.118464" lon="-77.821586">
        <ele>110.963996</ele>
        <time>2023-10-13T11:40:01.000Z</time>
      </trkpt>
      <trkpt lat="38.11798" lon="-77.821056">
        <ele>110.287635</ele>
        <time>2023-10-13T11:40:08.000Z</time>
      </trkpt>
      <trkpt lat="38.117824" lon="-77.820811">
        <ele>110.035846</ele>
        <time>2023-10-13T11:40:11.000Z</time>
      </trkpt>
      <trkpt lat="38.117693" lon="-77.820408">
        <ele>109.607773</ele>
        <time>2023-10-13T11:40:15.000Z</time>
      </trkpt>
      <trkpt lat="38.117652" lon="-77.819295">
        <ele>108.454372</ele>
        <time>2023-10-13T11:40:25.000Z</time>
      </trkpt>
      <trkpt lat="38.11756" lon="-77.819076">
        <ele>108.185766</ele>
        <time>2023-10-13T11:40:27.000Z</time>
      </trkpt>
      <trkpt lat="38.117342" lon="-77.818815">
        <ele>107.78272</ele>
        <time>2023-10-13T11:40:30.000Z</time>
      </trkpt>
      <trkpt lat="38.117202" lon="-77.81875">
        <ele>107.582456</ele>
        <time>2023-10-13T11:40:32.000Z</time>
      </trkpt>
      <trkpt lat="38.116967" lon="-77.818728">
        <ele>107.312486</ele>
        <time>2023-10-13T11:40:35.000Z</time>
      </trkpt>
      <trkpt lat="38.116648" lon="-77.818755">
        <ele>106.982276</ele>
        <time>2023-10-13T11:40:39.000Z</time>
      </trkpt>
      <trkpt lat="38.115905" lon="-77.818837">
        <ele>106.17661</ele>
        <time>2023-10-13T11:40:47.000Z</time>
      </trkpt>
      <trkpt lat="38.115672" lon="-77.818808">
        <ele>105.923365</ele>
        <time>2023-10-13T11:40:50.000Z</time>
      </trkpt>
      <trkpt lat="38.114342" lon="-77.818081">
        <ele>103.689497</ele>
        <time>2023-10-13T11:41:06.000Z</time>
      </trkpt>
      <trkpt lat="38.114114" lon="-77.817772">
        <ele>103.115044</ele>
        <time>2023-10-13T11:41:10.000Z</time>
      </trkpt>
      <trkpt lat="38.114096" lon="-77.81749">
        <ele>102.741848</ele>
        <time>2023-10-13T11:41:12.000Z</time>
      </trkpt>
      <trkpt lat="38.114262" lon="-77.816329">
        <ele>100.941168</ele>
        <time>2023-10-13T11:41:22.000Z</time>
      </trkpt>
      <trkpt lat="38.114233" lon="-77.815999">
        <ele>100.452274</ele>
        <time>2023-10-13T11:41:25.000Z</time>
      </trkpt>
      <trkpt lat="38.114003" lon="-77.815024">
        <ele>98.905453</ele>
        <time>2023-10-13T11:41:34.000Z</time>
      </trkpt>
      <trkpt lat="38.113977" lon="-77.814683">
        <ele>98.525205</ele>
        <time>2023-10-13T11:41:37.000Z</time>
      </trkpt>
      <trkpt lat="38.114013" lon="-77.814369">
        <ele>98.178104</ele>
        <time>2023-10-13T11:41:40.000Z</time>
      </trkpt>
      <trkpt lat="38.114321" lon="-77.813477">
        <ele>97.128398</ele>
        <time>2023-10-13T11:41:49.000Z</time>
      </trkpt>
      <trkpt lat="38.114352" lon="-77.813073">
        <ele>96.677498</ele>
        <time>2023-10-13T11:41:53.000Z</time>
      </trkpt>
      <trkpt lat="38.11425" lon="-77.81278">
        <ele>96.446237</ele>
        <time>2023-10-13T11:41:56.000Z</time>
      </trkpt>
      <trkpt lat="38.113642" lon="-77.811643">
        <ele>95.879688</ele>
        <time>2023-10-13T11:42:08.000Z</time>
      </trkpt>
      <trkpt lat="38.113454" lon="-77.811751">
        <ele>95.771345</ele>
        <time>2023-10-13T11:42:10.000Z</time>
      </trkpt>
      <trkpt lat="38.113443" lon="-77.811752">
        <ele>95.770667</ele>
        <time>2023-10-13T11:42:10.000Z</time>
      </trkpt>
      <trkpt lat="38.113443" lon="-77.81175">
        <ele>95.769547</ele>
        <time>2023-10-13T11:42:10.000Z</time>
      </trkpt>
      <trkpt lat="38.113448" lon="-77.811755">
        <ele>95.768421</ele>
        <time>2023-10-13T11:42:10.000Z</time>
      </trkpt>
      <trkpt lat="38.113436" lon="-77.811767">
        <ele>95.767756</ele>
        <time>2023-10-13T11:42:10.000Z</time>
      </trkpt>
      <trkpt lat="38.113446" lon="-77.811766">
        <ele>95.767084</ele>
        <time>2023-10-13T11:42:10.000Z</time>
      </trkpt>
      <trkpt lat="38.113451" lon="-77.811754">
        <ele>95.76708</ele>
        <time>2023-10-13T11:42:10.000Z</time>
      </trkpt>
      <trkpt lat="38.113439" lon="-77.811754">
        <ele>95.767082</ele>
        <time>2023-10-13T11:42:10.000Z</time>
      </trkpt>
      <trkpt lat="38.113642" lon="-77.811646">
        <ele>95.654544</ele>
        <time>2023-10-13T11:42:12.000Z</time>
      </trkpt>
      <trkpt lat="38.114245" lon="-77.81277">
        <ele>96.515143</ele>
        <time>2023-10-13T11:42:24.000Z</time>
      </trkpt>
      <trkpt lat="38.11436" lon="-77.813081">
        <ele>96.771026</ele>
        <time>2023-10-13T11:42:27.000Z</time>
      </trkpt>
      <trkpt lat="38.114331" lon="-77.813483">
        <ele>97.096319</ele>
        <time>2023-10-13T11:42:31.000Z</time>
      </trkpt>
      <trkpt lat="38.114014" lon="-77.814367">
        <ele>98.156462</ele>
        <time>2023-10-13T11:42:39.000Z</time>
      </trkpt>
      <trkpt lat="38.113967" lon="-77.81467">
        <ele>98.566747</ele>
        <time>2023-10-13T11:42:42.000Z</time>
      </trkpt>
      <trkpt lat="38.114008" lon="-77.81502">
        <ele>99.016174</ele>
        <time>2023-10-13T11:42:45.000Z</time>
      </trkpt>
      <trkpt lat="38.114242" lon="-77.81601">
        <ele>100.352912</ele>
        <time>2023-10-13T11:42:54.000Z</time>
      </trkpt>
      <trkpt lat="38.114261" lon="-77.81633">
        <ele>100.851419</ele>
        <time>2023-10-13T11:42:57.000Z</time>
      </trkpt>
      <trkpt lat="38.114094" lon="-77.817482">
        <ele>102.720034</ele>
        <time>2023-10-13T11:43:07.000Z</time>
      </trkpt>
      <trkpt lat="38.114118" lon="-77.817772">
        <ele>103.162281</ele>
        <time>2023-10-13T11:43:10.000Z</time>
      </trkpt>
      <trkpt lat="38.114345" lon="-77.818096">
        <ele>103.842992</ele>
        <time>2023-10-13T11:43:14.000Z</time>
      </trkpt>
      <trkpt lat="38.115668" lon="-77.818803">
        <ele>105.869317</ele>
        <time>2023-10-13T11:43:30.000Z</time>
      </trkpt>
      <trkpt lat="38.115913" lon="-77.818832">
        <ele>106.196626</ele>
        <time>2023-10-13T11:43:33.000Z</time>
      </trkpt>
      <trkpt lat="38.116664" lon="-77.818756">
        <ele>107.061762</ele>
        <time>2023-10-13T11:43:41.000Z</time>
      </trkpt>
      <trkpt lat="38.116971" lon="-77.818727">
        <ele>107.39596</ele>
        <time>2023-10-13T11:43:44.000Z</time>
      </trkpt>
      <trkpt lat="38.117197" lon="-77.818753">
        <ele>107.655696</ele>
        <time>2023-10-13T11:43:47.000Z</time>
      </trkpt>
      <trkpt lat="38.117349" lon="-77.818822">
        <ele>107.819108</ele>
        <time>2023-10-13T11:43:49.000Z</time>
      </trkpt>
      <trkpt lat="38.117572" lon="-77.819081">
        <ele>108.147972</ele>
        <time>2023-10-13T11:43:52.000Z</time>
      </trkpt>
      <trkpt lat="38.117663" lon="-77.819308">
        <ele>108.36714</ele>
        <time>2023-10-13T11:43:54.000Z</time>
      </trkpt>
      <trkpt lat="38.117692" lon="-77.820394">
        <ele>109.546865</ele>
        <time>2023-10-13T11:44:04.000Z</time>
      </trkpt>
      <trkpt lat="38.117817" lon="-77.820814">
        <ele>110.020906</ele>
        <time>2023-10-13T11:44:08.000Z</time>
      </trkpt>
      <trkpt lat="38.117979" lon="-77.821039">
        <ele>110.350198</ele>
        <time>2023-10-13T11:44:11.000Z</time>
      </trkpt>
      <trkpt lat="38.118459" lon="-77.821602">
        <ele>111.018513</ele>
        <time>2023-10-13T11:44:18.000Z</time>
      </trkpt>
      <trkpt lat="38.118695" lon="-77.821936">
        <ele>111.239323</ele>
        <time>2023-10-13T11:44:22.000Z</time>
      </trkpt>
      <trkpt lat="38.118981" lon="-77.822795">
        <ele>111.680982</ele>
        <time>2023-10-13T11:44:30.000Z</time>
      </trkpt>
      <trkpt lat="38.119162" lon="-77.82318">
        <ele>111.897489</ele>
        <time>2023-10-13T11:44:34.000Z</time>
      </trkpt>
      <trkpt lat="38.119392" lon="-77.823007">
        <ele>111.882263</ele>
        <time>2023-10-13T11:44:37.000Z</time>
      </trkpt>
      <trkpt lat="38.119768" lon="-77.822876">
        <ele>111.760636</ele>
        <time>2023-10-13T11:44:41.000Z</time>
      </trkpt>
      <trkpt lat="38.119973" lon="-77.822875">
        <ele>111.698031</ele>
        <time>2023-10-13T11:44:43.000Z</time>
      </trkpt>
      <trkpt lat="38.120191" lon="-77.822962">
        <ele>111.626885</ele>
        <time>2023-10-13T11:44:46.000Z</time>
      </trkpt>
      <trkpt lat="38.120625" lon="-77.823178">
        <ele>111.482899</ele>
        <time>2023-10-13T11:44:51.000Z</time>
      </trkpt>
      <trkpt lat="38.121121" lon="-77.823285">
        <ele>111.4345</ele>
        <time>2023-10-13T11:44:57.000Z</time>
      </trkpt>
      <trkpt lat="38.121908" lon="-77.823189">
        <ele>111.616166</ele>
        <time>2023-10-13T11:45:06.000Z</time>
      </trkpt>
      <trkpt lat="38.122743" lon="-77.823282">
        <ele>111.81319</ele>
        <time>2023-10-13T11:45:15.000Z</time>
      </trkpt>
      <trkpt lat="38.123042" lon="-77.823257">
        <ele>112.00044</ele>
        <time>2023-10-13T11:45:18.000Z</time>
      </trkpt>
      <trkpt lat="38.124191" lon="-77.82291">
        <ele>112.707568</ele>
        <time>2023-10-13T11:45:31.000Z</time>
      </trkpt>
      <trkpt lat="38.124787" lon="-77.822488">
        <ele>113.012029</ele>
        <time>2023-10-13T11:45:39.000Z</time>
      </trkpt>
      <trkpt lat="38.125314" lon="-77.822182">
        <ele>113.197584</ele>
        <time>2023-10-13T11:45:45.000Z</time>
      </trkpt>
      <trkpt lat="38.126367" lon="-77.821243">
        <ele>113.638266</ele>
        <time>2023-10-13T11:45:59.000Z</time>
      </trkpt>
      <trkpt lat="38.128389" lon="-77.820217">
        <ele>114.42631</ele>
        <time>2023-10-13T11:46:23.000Z</time>
      </trkpt>
      <trkpt lat="38.129346" lon="-77.819613">
        <ele>114.761017</ele>
        <time>2023-10-13T11:46:35.000Z</time>
      </trkpt>
      <trkpt lat="38.130252" lon="-77.819337">
        <ele>114.948279</ele>
        <time>2023-10-13T11:46:45.000Z</time>
      </trkpt>
      <trkpt lat="38.130987" lon="-77.818916">
        <ele>115.105771</ele>
        <time>2023-10-13T11:46:54.000Z</time>
      </trkpt>
      <trkpt lat="38.131208" lon="-77.818891">
        <ele>115.152191</ele>
        <time>2023-10-13T11:46:56.000Z</time>
      </trkpt>
      <trkpt lat="38.131854" lon="-77.818988">
        <ele>115.281837</ele>
        <time>2023-10-13T11:47:03.000Z</time>
      </trkpt>
      <trkpt lat="38.133014" lon="-77.818829">
        <ele>115.548773</ele>
        <time>2023-10-13T11:47:16.000Z</time>
      </trkpt>
      <trkpt lat="38.133384" lon="-77.818665">
        <ele>115.662168</ele>
        <time>2023-10-13T11:47:20.000Z</time>
      </trkpt>
      <trkpt lat="38.134932" lon="-77.817788">
        <ele>116.166678</ele>
        <time>2023-10-13T11:47:39.000Z</time>
      </trkpt>
      <trkpt lat="38.135374" lon="-77.817609">
        <ele>116.300055</ele>
        <time>2023-10-13T11:47:44.000Z</time>
      </trkpt>
      <trkpt lat="38.135803" lon="-77.817546">
        <ele>116.426142</ele>
        <time>2023-10-13T11:47:49.000Z</time>
      </trkpt>
      <trkpt lat="38.136663" lon="-77.817756">
        <ele>116.576296</ele>
        <time>2023-10-13T11:47:59.000Z</time>
      </trkpt>
      <trkpt lat="38.137468" lon="-77.817816">
        <ele>116.658394</ele>
        <time>2023-10-13T11:48:08.000Z</time>
      </trkpt>
      <trkpt lat="38.138288" lon="-77.818116">
        <ele>116.955384</ele>
        <time>2023-10-13T11:48:17.000Z</time>
      </trkpt>
      <trkpt lat="38.139056" lon="-77.818303">
        <ele>117.431758</ele>
        <time>2023-10-13T11:48:26.000Z</time>
      </trkpt>
      <trkpt lat="38.13945" lon="-77.818288">
        <ele>117.671935</ele>
        <time>2023-10-13T11:48:30.000Z</time>
      </trkpt>
      <trkpt lat="38.140176" lon="-77.817958">
        <ele>118.134481</ele>
        <time>2023-10-13T11:48:39.000Z</time>
      </trkpt>
      <trkpt lat="38.1413" lon="-77.817394">
        <ele>118.830185</ele>
        <time>2023-10-13T11:48:52.000Z</time>
      </trkpt>
      <trkpt lat="38.141378" lon="-77.817315">
        <ele>118.837086</ele>
        <time>2023-10-13T11:48:53.000Z</time>
      </trkpt>
      <trkpt lat="38.141372" lon="-77.817316">
        <ele>118.835944</ele>
        <time>2023-10-13T11:48:53.000Z</time>
      </trkpt>
      <trkpt lat="38.141373" lon="-77.817317">
        <ele>118.834605</ele>
        <time>2023-10-13T11:48:53.000Z</time>
      </trkpt>
      <trkpt lat="38.141373" lon="-77.817321">
        <ele>118.83014</ele>
        <time>2023-10-13T11:48:53.000Z</time>
      </trkpt>
      <trkpt lat="38.141376" lon="-77.817309">
        <ele>118.829153</ele>
        <time>2023-10-13T11:48:53.000Z</time>
      </trkpt>
      <trkpt lat="38.141375" lon="-77.817307">
        <ele>118.828168</ele>
        <time>2023-10-13T11:48:53.000Z</time>
      </trkpt>
      <trkpt lat="38.141366" lon="-77.817312">
        <ele>118.823687</ele>
        <time>2023-10-13T11:48:53.000Z</time>
      </trkpt>
      <trkpt lat="38.141368" lon="-77.817318">
        <ele>118.822342</ele>
        <time>2023-10-13T11:48:53.000Z</time>
      </trkpt>
      <trkpt lat="38.141372" lon="-77.817313">
        <ele>118.821205</ele>
        <time>2023-10-13T11:48:53.000Z</time>
      </trkpt>
      <trkpt lat="38.14129" lon="-77.81739">
        <ele>118.770029</ele>
        <time>2023-10-13T11:48:54.000Z</time>
      </trkpt>
      <trkpt lat="38.140191" lon="-77.817964">
        <ele>118.137737</ele>
        <time>2023-10-13T11:49:07.000Z</time>
      </trkpt>
      <trkpt lat="38.139436" lon="-77.818284">
        <ele>117.68237</ele>
        <time>2023-10-13T11:49:16.000Z</time>
      </trkpt>
      <trkpt lat="38.139062" lon="-77.81829">
        <ele>117.42907</ele>
        <time>2023-10-13T11:49:20.000Z</time>
      </trkpt>
      <trkpt lat="38.138294" lon="-77.818127">
        <ele>116.926669</ele>
        <time>2023-10-13T11:49:29.000Z</time>
      </trkpt>
      <trkpt lat="38.137484" lon="-77.817805">
        <ele>116.675175</ele>
        <time>2023-10-13T11:49:38.000Z</time>
      </trkpt>
      <trkpt lat="38.136654" lon="-77.81776">
        <ele>116.584079</ele>
        <time>2023-10-13T11:49:47.000Z</time>
      </trkpt>
      <trkpt lat="38.135795" lon="-77.817546">
        <ele>116.414209</ele>
        <time>2023-10-13T11:49:57.000Z</time>
      </trkpt>
      <trkpt lat="38.135366" lon="-77.817602">
        <ele>116.295135</ele>
        <time>2023-10-13T11:50:02.000Z</time>
      </trkpt>
      <trkpt lat="38.134932" lon="-77.817795">
        <ele>116.169159</ele>
        <time>2023-10-13T11:50:07.000Z</time>
      </trkpt>
      <trkpt lat="38.133388" lon="-77.818667">
        <ele>115.657993</ele>
        <time>2023-10-13T11:50:26.000Z</time>
      </trkpt>
      <trkpt lat="38.13302" lon="-77.818825">
        <ele>115.540821</ele>
        <time>2023-10-13T11:50:30.000Z</time>
      </trkpt>
      <trkpt lat="38.131849" lon="-77.818973">
        <ele>115.284787</ele>
        <time>2023-10-13T11:50:43.000Z</time>
      </trkpt>
      <trkpt lat="38.131215" lon="-77.818897">
        <ele>115.155685</ele>
        <time>2023-10-13T11:50:50.000Z</time>
      </trkpt>
      <trkpt lat="38.13097" lon="-77.818925">
        <ele>115.109456</ele>
        <time>2023-10-13T11:50:53.000Z</time>
      </trkpt>
      <trkpt lat="38.130255" lon="-77.819331">
        <ele>114.950175</ele>
        <time>2023-10-13T11:51:02.000Z</time>
      </trkpt>
      <trkpt lat="38.129336" lon="-77.819618">
        <ele>114.758406</ele>
        <time>2023-10-13T11:51:13.000Z</time>
      </trkpt>
      <trkpt lat="38.128376" lon="-77.820203">
        <ele>114.426091</ele>
        <time>2023-10-13T11:51:25.000Z</time>
      </trkpt>
      <trkpt lat="38.12636" lon="-77.821231">
        <ele>113.634279</ele>
        <time>2023-10-13T11:51:49.000Z</time>
      </trkpt>
      <trkpt lat="38.12531" lon="-77.822172">
        <ele>113.205179</ele>
        <time>2023-10-13T11:52:03.000Z</time>
      </trkpt>
      <trkpt lat="38.124792" lon="-77.822485">
        <ele>113.022963</ele>
        <time>2023-10-13T11:52:09.000Z</time>
      </trkpt>
      <trkpt lat="38.124189" lon="-77.822915">
        <ele>112.692491</ele>
        <time>2023-10-13T11:52:17.000Z</time>
      </trkpt>
      <trkpt lat="38.123051" lon="-77.823253">
        <ele>112.00099</ele>
        <time>2023-10-13T11:52:30.000Z</time>
      </trkpt>
      <trkpt lat="38.12273" lon="-77.823275">
        <ele>111.850805</ele>
        <time>2023-10-13T11:52:34.000Z</time>
      </trkpt>
      <trkpt lat="38.121899" lon="-77.823201">
        <ele>111.612944</ele>
        <time>2023-10-13T11:52:43.000Z</time>
      </trkpt>
      <trkpt lat="38.121135" lon="-77.823288">
        <ele>111.389695</ele>
        <time>2023-10-13T11:52:52.000Z</time>
      </trkpt>
      <trkpt lat="38.120627" lon="-77.823181">
        <ele>111.500143</ele>
        <time>2023-10-13T11:52:58.000Z</time>
      </trkpt>
      <trkpt lat="38.120202" lon="-77.822964">
        <ele>111.646471</ele>
        <time>2023-10-13T11:53:03.000Z</time>
      </trkpt>
      <trkpt lat="38.119968" lon="-77.822881">
        <ele>111.718752</ele>
        <time>2023-10-13T11:53:06.000Z</time>
      </trkpt>
      <trkpt lat="38.119773" lon="-77.822871">
        <ele>111.782366</ele>
        <time>2023-10-13T11:53:08.000Z</time>
      </trkpt>
      <trkpt lat="38.119395" lon="-77.823021">
        <ele>111.905976</ele>
        <time>2023-10-13T11:53:12.000Z</time>
      </trkpt>
      <trkpt lat="38.119173" lon="-77.823171">
        <ele>111.828334</ele>
        <time>2023-10-13T11:53:15.000Z</time>
      </trkpt>
      <trkpt lat="38.118995" lon="-77.822794">
        <ele>111.641163</ele>
        <time>2023-10-13T11:53:19.000Z</time>
      </trkpt>
      <trkpt lat="38.118692" lon="-77.821942">
        <ele>111.259372</ele>
        <time>2023-10-13T11:53:27.000Z</time>
      </trkpt>
      <trkpt lat="38.118468" lon="-77.821599">
        <ele>111.068493</ele>
        <time>2023-10-13T11:53:31.000Z</time>
      </trkpt>
      <trkpt lat="38.11797" lon="-77.821053">
        <ele>110.329518</ele>
        <time>2023-10-13T11:53:38.000Z</time>
      </trkpt>
      <trkpt lat="38.117829" lon="-77.820813">
        <ele>110.003263</ele>
        <time>2023-10-13T11:53:41.000Z</time>
      </trkpt>
      <trkpt lat="38.117705" lon="-77.820406">
        <ele>109.53358</ele>
        <time>2023-10-13T11:53:45.000Z</time>
      </trkpt>
      <trkpt lat="38.117665" lon="-77.819299">
        <ele>108.393963</ele>
        <time>2023-10-13T11:53:55.000Z</time>
      </trkpt>
      <trkpt lat="38.11757" lon="-77.819081">
        <ele>108.171066</ele>
        <time>2023-10-13T11:53:57.000Z</time>
      </trkpt>
      <trkpt lat="38.11734" lon="-77.818814">
        <ele>107.836619</ele>
        <time>2023-10-13T11:54:00.000Z</time>
      </trkpt>
      <trkpt lat="38.117206" lon="-77.81875">
        <ele>107.670441</ele>
        <time>2023-10-13T11:54:02.000Z</time>
      </trkpt>
      <trkpt lat="38.116968" lon="-77.818736">
        <ele>107.406271</ele>
        <time>2023-10-13T11:54:05.000Z</time>
      </trkpt>
      <trkpt lat="38.116648" lon="-77.818754">
        <ele>107.066384</ele>
        <time>2023-10-13T11:54:09.000Z</time>
      </trkpt>
      <trkpt lat="38.115915" lon="-77.818834">
        <ele>106.170049</ele>
        <time>2023-10-13T11:54:17.000Z</time>
      </trkpt>
      <trkpt lat="38.115684" lon="-77.818799">
        <ele>105.853702</ele>
        <time>2023-10-13T11:54:20.000Z</time>
      </trkpt>
      <trkpt lat="38.114341" lon="-77.818092">
        <ele>103.81679</ele>
        <time>2023-10-13T11:54:36.000Z</time>
      </trkpt>
      <trkpt lat="38.114116" lon="-77.817759">
        <ele>103.140869</ele>
        <time>2023-10-13T11:54:40.000Z</time>
      </trkpt>
      <trkpt lat="38.114098" lon="-77.817489">
        <ele>102.701757</ele>
        <time>2023-10-13T11:54:42.000Z</time>
      </trkpt>
      <trkpt lat="38.114258" lon="-77.816319">
        <ele>100.846336</ele>
        <time>2023-10-13T11:54:52.000Z</time>
      </trkpt>
      <trkpt lat="38.114232" lon="-77.816">
        <ele>100.384056</ele>
        <time>2023-10-13T11:54:55.000Z</time>
      </trkpt>
      <trkpt lat="38.113995" lon="-77.815014">
        <ele>99.018861</ele>
        <time>2023-10-13T11:55:04.000Z</time>
      </trkpt>
      <trkpt lat="38.113974" lon="-77.814672">
        <ele>98.558422</ele>
        <time>2023-10-13T11:55:07.000Z</time>
      </trkpt>
      <trkpt lat="38.114018" lon="-77.814352">
        <ele>98.13811</ele>
        <time>2023-10-13T11:55:10.000Z</time>
      </trkpt>
      <trkpt lat="38.114323" lon="-77.813492">
        <ele>97.130164</ele>
        <time>2023-10-13T11:55:18.000Z</time>
      </trkpt>
      <trkpt lat="38.114346" lon="-77.813074">
        <ele>96.797163</ele>
        <time>2023-10-13T11:55:22.000Z</time>
      </trkpt>
      <trkpt lat="38.114251" lon="-77.81277">
        <ele>96.535222</ele>
        <time>2023-10-13T11:55:25.000Z</time>
      </trkpt>
      <trkpt lat="38.113643" lon="-77.811643">
        <ele>95.789275</ele>
        <time>2023-10-13T11:55:37.000Z</time>
      </trkpt>
      <trkpt lat="38.113442" lon="-77.811751">
        <ele>95.860655</ele>
        <time>2023-10-13T11:55:39.000Z</time>
      </trkpt>
      <trkpt lat="38.113451" lon="-77.81175">
        <ele>95.861096</ele>
        <time>2023-10-13T11:55:39.000Z</time>
      </trkpt>
      <trkpt lat="38.113451" lon="-77.811757">
        <ele>95.861837</ele>
        <time>2023-10-13T11:55:39.000Z</time>
      </trkpt>
      <trkpt lat="38.11344" lon="-77.811752">
        <ele>95.86259</ele>
        <time>2023-10-13T11:55:39.000Z</time>
      </trkpt>
      <trkpt lat="38.113444" lon="-77.811765">
        <ele>95.863016</ele>
        <time>2023-10-13T11:55:39.000Z</time>
      </trkpt>
      <trkpt lat="38.113445" lon="-77.811764">
        <ele>95.863463</ele>
        <time>2023-10-13T11:55:39.000Z</time>
      </trkpt>
      <trkpt lat="38.113441" lon="-77.811756">
        <ele>95.863456</ele>
        <time>2023-10-13T11:55:39.000Z</time>
      </trkpt>
      <trkpt lat="38.113435" lon="-77.81177">
        <ele>95.863471</ele>
        <time>2023-10-13T11:55:39.000Z</time>
      </trkpt>
      <trkpt lat="38.113638" lon="-77.811642">
        <ele>95.937616</ele>
        <time>2023-10-13T11:55:42.000Z</time>
      </trkpt>
      <trkpt lat="38.114241" lon="-77.812782">
        <ele>96.310845</ele>
        <time>2023-10-13T11:55:54.000Z</time>
      </trkpt>
      <trkpt lat="38.114354" lon="-77.813077">
        <ele>96.641052</ele>
        <time>2023-10-13T11:55:57.000Z</time>
      </trkpt>
      <trkpt lat="38.114325" lon="-77.813489">
        <ele>97.092829</ele>
        <time>2023-10-13T11:56:01.000Z</time>
      </trkpt>
      <trkpt lat="38.11402" lon="-77.814356">
        <ele>98.144515</ele>
        <time>2023-10-13T11:56:09.000Z</time>
      </trkpt>
      <trkpt lat="38.11397" lon="-77.81468">
        <ele>98.492282</ele>
        <time>2023-10-13T11:56:12.000Z</time>
      </trkpt>
      <trkpt lat="38.113991" lon="-77.815012">
        <ele>98.894021</ele>
        <time>2023-10-13T11:56:15.000Z</time>
      </trkpt>
      <trkpt lat="38.114247" lon="-77.815999">
        <ele>100.465187</ele>
        <time>2023-10-13T11:56:24.000Z</time>
      </trkpt>
      <trkpt lat="38.114267" lon="-77.816326">
        <ele>100.947379</ele>
        <time>2023-10-13T11:56:27.000Z</time>
      </trkpt>
      <trkpt lat="38.114085" lon="-77.817493">
        <ele>102.708701</ele>
        <time>2023-10-13T11:56:37.000Z</time>
      </trkpt>
      <trkpt lat="38.114126" lon="-77.817774">
        <ele>103.093179</ele>
        <time>2023-10-13T11:56:40.000Z</time>
      </trkpt>
      <trkpt lat="38.114357" lon="-77.818095">
        <ele>103.685004</ele>
        <time>2023-10-13T11:56:44.000Z</time>
      </trkpt>
      <trkpt lat="38.115677" lon="-77.818806">
        <ele>105.903515</ele>
        <time>2023-10-13T11:57:00.000Z</time>
      </trkpt>
      <trkpt lat="38.115914" lon="-77.818843">
        <ele>106.16017</ele>
        <time>2023-10-13T11:57:03.000Z</time>
      </trkpt>
      <trkpt lat="38.116655" lon="-77.818757">
        <ele>106.976675</ele>
        <time>2023-10-13T11:57:11.000Z</time>
      </trkpt>
      <trkpt lat="38.116972" lon="-77.818721">
        <ele>107.311351</ele>
        <time>2023-10-13T11:57:15.000Z</time>
      </trkpt>
      <trkpt lat="38.117207" lon="-77.818741">
        <ele>107.609365</ele>
        <time>2023-10-13T11:57:18.000Z</time>
      </trkpt>
      <trkpt lat="38.11735" lon="-77.818826">
        <ele>107.806414</ele>
        <time>2023-10-13T11:57:20.000Z</time>
      </trkpt>
      <trkpt lat="38.117569" lon="-77.819077">
        <ele>108.202987</ele>
        <time>2023-10-13T11:57:23.000Z</time>
      </trkpt>
      <trkpt lat="38.117661" lon="-77.819296">
        <ele>108.467285</ele>
        <time>2023-10-13T11:57:25.000Z</time>
      </trkpt>
      <trkpt lat="38.117693" lon="-77.820409">
        <ele>109.602174</ele>
        <time>2023-10-13T11:57:35.000Z</time>
      </trkpt>
      <trkpt lat="38.117819" lon="-77.820815">
        <ele>110.006943</ele>
        <time>2023-10-13T11:57:39.000Z</time>
      </trkpt>
      <trkpt lat="38.117985" lon="-77.821053">
        <ele>110.272119</ele>
        <time>2023-10-13T11:57:42.000Z</time>
      </trkpt>
      <trkpt lat="38.118454" lon="-77.821592">
        <ele>110.984437</ele>
        <time>2023-10-13T11:57:49.000Z</time>
      </trkpt>
      <trkpt lat="38.118692" lon="-77.821934">
        <ele>111.384414</ele>
        <time>2023-10-13T11:57:53.000Z</time>
      </trkpt>
      <trkpt lat="38.118991" lon="-77.822781">
        <ele>111.709692</ele>
        <time>2023-10-13T11:58:01.000Z</time>
      </trkpt>
      <trkpt lat="38.119171" lon="-77.823182">
        <ele>111.693161</ele>
        <time>2023-10-13T11:58:05.000Z</time>
      </trkpt>
      <trkpt lat="38.119382" lon="-77.823005">
        <ele>111.681147</ele>
        <time>2023-10-13T11:58:08.000Z</time>
      </trkpt>
      <trkpt lat="38.119766" lon="-77.822867">
        <ele>111.662718</ele>
        <time>2023-10-13T11:58:12.000Z</time>
      </trkpt>
      <trkpt lat="38.119977" lon="-77.822878">
        <ele>111.653228</ele>
        <time>2023-10-13T11:58:14.000Z</time>
      </trkpt>
      <trkpt lat="38.120204" lon="-77.822962">
        <ele>111.637997</ele>
        <time>2023-10-13T11:58:17.000Z</time>
      </trkpt>
      <trkpt lat="38.120632" lon="-77.823172">
        <ele>111.582105</ele>
        <time>2023-10-13T11:58:22.000Z</time>
      </trkpt>
      <trkpt lat="38.121132" lon="-77.823284">
        <ele>111.521823</ele>
        <time>2023-10-13T11:58:28.000Z</time>
      </trkpt>
      <trkpt lat="38.121913" lon="-77.823186">
        <ele>111.440966</ele>
        <time>2023-10-13T11:58:37.000Z</time>
      </trkpt>
      <trkpt lat="38.122738" lon="-77.823268">
        <ele>111.900228</ele>
        <time>2023-10-13T11:58:46.000Z</time>
      </trkpt>
      <trkpt lat="38.123051" lon="-77.823251">
        <ele>112.072669</ele>
        <time>2023-10-13T11:58:49.000Z</time>
      </trkpt>
      <trkpt lat="38.124201" lon="-77.822905">
        <ele>112.664601</ele>
        <time>2023-10-13T11:59:02.000Z</time>
      </trkpt>
      <trkpt lat="38.124798" lon="-77.822474">
        <ele>112.968618</ele>
        <time>2023-10-13T11:59:10.000Z</time>
      </trkpt>
      <trkpt lat="38.125316" lon="-77.822179">
        <ele>113.223607</ele>
        <time>2023-10-13T11:59:16.000Z</time>
      </trkpt>
      <trkpt lat="38.126368" lon="-77.821237">
        <ele>113.646783</ele>
        <time>2023-10-13T11:59:30.000Z</time>
      </trkpt>
      <trkpt lat="38.128392" lon="-77.820211">
        <ele>114.463839</ele>
        <time>2023-10-13T11:59:54.000Z</time>
      </trkpt>
      <trkpt lat="38.129338" lon="-77.819612">
        <ele>114.725872</ele>
        <time>2023-10-13T12:00:06.000Z</time>
      </trkpt>
      <trkpt lat="38.130257" lon="-77.819346">
        <ele>114.936135</ele>
        <time>2023-10-13T12:00:16.000Z</time>
      </trkpt>
      <trkpt lat="38.130976" lon="-77.818921">
        <ele>115.107643</ele>
        <time>2023-10-13T12:00:25.000Z</time>
      </trkpt>
      <trkpt lat="38.131207" lon="-77.818885">
        <ele>115.157483</ele>
        <time>2023-10-13T12:00:28.000Z</time>
      </trkpt>
      <trkpt lat="38.131845" lon="-77.818988">
        <ele>115.296732</ele>
        <time>2023-10-13T12:00:35.000Z</time>
      </trkpt>
      <trkpt lat="38.133017" lon="-77.818818">
        <ele>115.562857</ele>
        <time>2023-10-13T12:00:48.000Z</time>
      </trkpt>
      <trkpt lat="38.133379" lon="-77.818666">
        <ele>115.648019</ele>
        <time>2023-10-13T12:00:52.000Z</time>
      </trkpt>
      <trkpt lat="38.134937" lon="-77.817786">
        <ele>116.197029</ele>
        <time>2023-10-13T12:01:11.000Z</time>
      </trkpt>
      <trkpt lat="38.135366" lon="-77.817599">
        <ele>116.342459</ele>
        <time>2023-10-13T12:01:16.000Z</time>
      </trkpt>
      <trkpt lat="38.135809" lon="-77.817558">
        <ele>116.407582</ele>
        <time>2023-10-13T12:01:21.000Z</time>
      </trkpt>
      <trkpt lat="38.136646" lon="-77.817767">
        <ele>116.53689</ele>
        <time>2023-10-13T12:01:30.000Z</time>
      </trkpt>
      <trkpt lat="38.137485" lon="-77.817813">
        <ele>116.721354</ele>
        <time>2023-10-13T12:01:39.000Z</time>
      </trkpt>
      <trkpt lat="38.138289" lon="-77.818127">
        <ele>116.983706</ele>
        <time>2023-10-13T12:01:48.000Z</time>
      </trkpt>
      <trkpt lat="38.139065" lon="-77.818292">
        <ele>117.324584</ele>
        <time>2023-10-13T12:01:57.000Z</time>
      </trkpt>
      <trkpt lat="38.139449" lon="-77.818274">
        <ele>117.627421</ele>
        <time>2023-10-13T12:02:01.000Z</time>
      </trkpt>
      <trkpt lat="38.14018" lon="-77.817953">
        <ele>118.234675</ele>
        <time>2023-10-13T12:02:10.000Z</time>
      </trkpt>
      <trkpt lat="38.141293" lon="-77.81739">
        <ele>118.553914</ele>
        <time>2023-10-13T12:02:23.000Z</time>
      </trkpt>
      <trkpt lat="38.141371" lon="-77.817313">
        <ele>118.554164</ele>
        <time>2023-10-13T12:02:24.000Z</time>
      </trkpt>
      <trkpt lat="38.141373" lon="-77.817317">
        <ele>118.554168</ele>
        <time>2023-10-13T12:02:24.000Z</time>
      </trkpt>
      <trkpt lat="38.141368" lon="-77.817319">
        <ele>118.554176</ele>
        <time>2023-10-13T12:02:24.000Z</time>
      </trkpt>
      <trkpt lat="38.141391" lon="-77.817306">
        <ele>118.554204</ele>
        <time>2023-10-13T12:02:24.000Z</time>
      </trkpt>
      <trkpt lat="38.141386" lon="-77.81732">
        <ele>118.554217</ele>
        <time>2023-10-13T12:02:24.000Z</time>
      </trkpt>
      <trkpt lat="38.141385" lon="-77.817305">
        <ele>118.554223</ele>
        <time>2023-10-13T12:02:24.000Z</time>
      </trkpt>
      <trkpt lat="38.141382" lon="-77.8173">
        <ele>118.554227</ele>
        <time>2023-10-13T12:02:24.000Z</time>
      </trkpt>
      <trkpt lat="38.141377" lon="-77.817312">
        <ele>118.554231</ele>
        <time>2023-10-13T12:02:24.000Z</time>
      </trkpt>
      <trkpt lat="38.141382" lon="-77.817311">
        <ele>118.554235</ele>
        <time>2023-10-13T12:02:24.000Z</time>
      </trkpt>
      <trkpt lat="38.14139" lon="-77.817315">
        <ele>118.554245</ele>
        <time>2023-10-13T12:02:24.000Z</time>
      </trkpt>
      <trkpt lat="38.141372" lon="-77.817318">
        <ele>118.554254</ele>
        <time>2023-10-13T12:02:24.000Z</time>
      </trkpt>
      <trkpt lat="38.141373" lon="-77.817324">
        <ele>118.554262</ele>
        <time>2023-10-13T12:02:24.000Z</time>
      </trkpt>
      <trkpt lat="38.141372" lon="-77.817319">
        <ele>118.554269</ele>
        <time>2023-10-13T12:02:24.000Z</time>
      </trkpt>
      <trkpt lat="38.141289" lon="-77.817394">
        <ele>118.55453</ele>
        <time>2023-10-13T12:02:25.000Z</time>
      </trkpt>
      <trkpt lat="38.14018" lon="-77.817949">
        <ele>118.233656</ele>
        <time>2023-10-13T12:02:38.000Z</time>
      </trkpt>
      <trkpt lat="38.139439" lon="-77.818275">
        <ele>117.626508</ele>
        <time>2023-10-13T12:02:47.000Z</time>
      </trkpt>
      <trkpt lat="38.139053" lon="-77.818289">
        <ele>117.323732</ele>
        <time>2023-10-13T12:02:51.000Z</time>
      </trkpt>
      <trkpt lat="38.138296" lon="-77.818115">
        <ele>116.984999</ele>
        <time>2023-10-13T12:03:00.000Z</time>
      </trkpt>
      <trkpt lat="38.137469" lon="-77.817814">
        <ele>116.720505</ele>
        <time>2023-10-13T12:03:10.000Z</time>
      </trkpt>
      <trkpt lat="38.136659" lon="-77.817769">
        <ele>116.536657</ele>
        <time>2023-10-13T12:03:19.000Z</time>
      </trkpt>
      <trkpt lat="38.13581" lon="-77.817551">
        <ele>116.408168</ele>
        <time>2023-10-13T12:03:29.000Z</time>
      </trkpt>
      <trkpt lat="38.135373" lon="-77.817607">
        <ele>116.343457</ele>
        <time>2023-10-13T12:03:34.000Z</time>
      </trkpt>
      <trkpt lat="38.134927" lon="-77.817784">
        <ele>116.196679</ele>
        <time>2023-10-13T12:03:39.000Z</time>
      </trkpt>
      <trkpt lat="38.133373" lon="-77.818668">
        <ele>115.648511</ele>
        <time>2023-10-13T12:03:58.000Z</time>
      </trkpt>
      <trkpt lat="38.133027" lon="-77.818814">
        <ele>115.563164</ele>
        <time>2023-10-13T12:04:02.000Z</time>
      </trkpt>
      <trkpt lat="38.131843" lon="-77.818985">
        <ele>115.296547</ele>
        <time>2023-10-13T12:04:15.000Z</time>
      </trkpt>
      <trkpt lat="38.131205" lon="-77.818894">
        <ele>115.157282</ele>
        <time>2023-10-13T12:04:22.000Z</time>
      </trkpt>
      <trkpt lat="38.130983" lon="-77.81892">
        <ele>115.107432</ele>
        <time>2023-10-13T12:04:24.000Z</time>
      </trkpt>
      <trkpt lat="38.130256" lon="-77.819331">
        <ele>114.935855</ele>
        <time>2023-10-13T12:04:33.000Z</time>
      </trkpt>
      <trkpt lat="38.129351" lon="-77.819605">
        <ele>114.726095</ele>
        <time>2023-10-13T12:04:43.000Z</time>
      </trkpt>
      <trkpt lat="38.12839" lon="-77.820208">
        <ele>114.463487</ele>
        <time>2023-10-13T12:04:55.000Z</time>
      </trkpt>
      <trkpt lat="38.126364" lon="-77.821237">
        <ele>113.647019</ele>
        <time>2023-10-13T12:05:19.000Z</time>
      </trkpt>
      <trkpt lat="38.125324" lon="-77.822174">
        <ele>113.222783</ele>
        <time>2023-10-13T12:05:33.000Z</time>
      </trkpt>
      <trkpt lat="38.124787" lon="-77.822475">
        <ele>112.968291</ele>
        <time>2023-10-13T12:05:40.000Z</time>
      </trkpt>
      <trkpt lat="38.124186" lon="-77.822903">
        <ele>112.665226</ele>
        <time>2023-10-13T12:05:48.000Z</time>
      </trkpt>
      <trkpt lat="38.123045" lon="-77.823255">
        <ele>112.072284</ele>
        <time>2023-10-13T12:06:01.000Z</time>
      </trkpt>
      <trkpt lat="38.122732" lon="-77.82328">
        <ele>111.899397</ele>
        <time>2023-10-13T12:06:04.000Z</time>
      </trkpt>
      <trkpt lat="38.121901" lon="-77.823189">
        <ele>111.438976</ele>
        <time>2023-10-13T12:06:13.000Z</time>
      </trkpt>
      <trkpt lat="38.121131" lon="-77.823281">
        <ele>111.522636</ele>
        <time>2023-10-13T12:06:22.000Z</time>
      </trkpt>
      <trkpt lat="38.120625" lon="-77.823188">
        <ele>111.581502</ele>
        <time>2023-10-13T12:06:28.000Z</time>
      </trkpt>
      <trkpt lat="38.120202" lon="-77.822966">
        <ele>111.636062</ele>
        <time>2023-10-13T12:06:33.000Z</time>
      </trkpt>
      <trkpt lat="38.119973" lon="-77.822881">
        <ele>111.651336</ele>
        <time>2023-10-13T12:06:36.000Z</time>
      </trkpt>
      <trkpt lat="38.119773" lon="-77.822876">
        <ele>111.66168</ele>
        <time>2023-10-13T12:06:38.000Z</time>
      </trkpt>
      <trkpt lat="38.119393" lon="-77.823008">
        <ele>111.681734</ele>
        <time>2023-10-13T12:06:42.000Z</time>
      </trkpt>
      <trkpt lat="38.119162" lon="-77.823174">
        <ele>111.694819</ele>
        <time>2023-10-13T12:06:45.000Z</time>
      </trkpt>
      <trkpt lat="38.118981" lon="-77.82278">
        <ele>111.712842</ele>
        <time>2023-10-13T12:06:49.000Z</time>
      </trkpt>
      <trkpt lat="38.1187" lon="-77.821937">
        <ele>111.381805</ele>
        <time>2023-10-13T12:06:57.000Z</time>
      </trkpt>
      <trkpt lat="38.118455" lon="-77.821603">
        <ele>110.983018</ele>
        <time>2023-10-13T12:07:01.000Z</time>
      </trkpt>
      <trkpt lat="38.117978" lon="-77.821042">
        <ele>110.272863</ele>
        <time>2023-10-13T12:07:08.000Z</time>
      </trkpt>
      <trkpt lat="38.117823" lon="-77.820814">
        <ele>110.00848</ele>
        <time>2023-10-13T12:07:11.000Z</time>
      </trkpt>
      <trkpt lat="38.117694" lon="-77.820408">
        <ele>109.602755</ele>
        <time>2023-10-13T12:07:15.000Z</time>
      </trkpt>
      <trkpt lat="38.117651" lon="-77.819306">
        <ele>108.466601</ele>
        <time>2023-10-13T12:07:25.000Z</time>
      </trkpt>
      <trkpt lat="38.117566" lon="-77.819066">
        <ele>108.20201</ele>
        <time>2023-10-13T12:07:27.000Z</time>
      </trkpt>
      <trkpt lat="38.117332" lon="-77.818816">
        <ele>107.804995</ele>
        <time>2023-10-13T12:07:30.000Z</time>
      </trkpt>
      <trkpt lat="38.117204" lon="-77.818742">
        <ele>107.607741</ele>
        <time>2023-10-13T12:07:32.000Z</time>
      </trkpt>
      <trkpt lat="38.116963" lon="-77.818723">
        <ele>107.311194</ele>
        <time>2023-10-13T12:07:35.000Z</time>
      </trkpt>
      <trkpt lat="38.116655" lon="-77.818762">
        <ele>106.97686</ele>
        <time>2023-10-13T12:07:38.000Z</time>
      </trkpt>
      <trkpt lat="38.115904" lon="-77.818828">
        <ele>106.161119</ele>
        <time>2023-10-13T12:07:46.000Z</time>
      </trkpt>
      <trkpt lat="38.115671" lon="-77.818796">
        <ele>105.904706</ele>
        <time>2023-10-13T12:07:49.000Z</time>
      </trkpt>
      <trkpt lat="38.114358" lon="-77.818079">
        <ele>103.68504</ele>
        <time>2023-10-13T12:08:05.000Z</time>
      </trkpt>
      <trkpt lat="38.114111" lon="-77.817767">
        <ele>103.094329</ele>
        <time>2023-10-13T12:08:09.000Z</time>
      </trkpt>
      <trkpt lat="38.114084" lon="-77.817485">
        <ele>102.710537</ele>
        <time>2023-10-13T12:08:11.000Z</time>
      </trkpt>
      <trkpt lat="38.114267" lon="-77.816326">
        <ele>100.94718</ele>
        <time>2023-10-13T12:08:21.000Z</time>
      </trkpt>
      <trkpt lat="38.114231" lon="-77.816012">
        <ele>100.464539</ele>
        <time>2023-10-13T12:08:24.000Z</time>
      </trkpt>
      <trkpt lat="38.113995" lon="-77.815015">
        <ele>98.891892</ele>
        <time>2023-10-13T12:08:33.000Z</time>
      </trkpt>
      <trkpt lat="38.11398" lon="-77.814669">
        <ele>98.503762</ele>
        <time>2023-10-13T12:08:36.000Z</time>
      </trkpt>
      <trkpt lat="38.114013" lon="-77.814354">
        <ele>98.16592</ele>
        <time>2023-10-13T12:08:39.000Z</time>
      </trkpt>
      <trkpt lat="38.114336" lon="-77.813494">
        <ele>97.144205</ele>
        <time>2023-10-13T12:08:47.000Z</time>
      </trkpt>
      <trkpt lat="38.114358" lon="-77.81308">
        <ele>96.705328</ele>
        <time>2023-10-13T12:08:51.000Z</time>
      </trkpt>
      <trkpt lat="38.11425" lon="-77.812784">
        <ele>96.388746</ele>
        <time>2023-10-13T12:08:54.000Z</time>
      </trkpt>
      <trkpt lat="38.113644" lon="-77.811645">
        <ele>95.912853</ele>
        <time>2023-10-13T12:09:06.000Z</time>
      </trkpt>
      <trkpt lat="38.113446" lon="-77.811753">
        <ele>95.821836</ele>
        <time>2023-10-13T12:09:08.000Z</time>
      </trkpt>
      <trkpt lat="38.113444" lon="-77.811758">
        <ele>95.821273</ele>
        <time>2023-10-13T12:09:08.000Z</time>
      </trkpt>
      <trkpt lat="38.113453" lon="-77.811756">
        <ele>95.820323</ele>
        <time>2023-10-13T12:09:08.000Z</time>
      </trkpt>
      <trkpt lat="38.113441" lon="-77.811757">
        <ele>95.819392</ele>
        <time>2023-10-13T12:09:08.000Z</time>
      </trkpt>
      <trkpt lat="38.113448" lon="-77.811767">
        <ele>95.818825</ele>
        <time>2023-10-13T12:09:08.000Z</time>
      </trkpt>
      <trkpt lat="38.113433" lon="-77.811754">
        <ele>95.818273</ele>
        <time>2023-10-13T12:09:08.000Z</time>
      </trkpt>
      <trkpt lat="38.113451" lon="-77.811768">
        <ele>95.818262</ele>
        <time>2023-10-13T12:09:08.000Z</time>
      </trkpt>
      <trkpt lat="38.113444" lon="-77.811754">
        <ele>95.818257</ele>
        <time>2023-10-13T12:09:08.000Z</time>
      </trkpt>
      <trkpt lat="38.113645" lon="-77.811651">
        <ele>95.72373</ele>
        <time>2023-10-13T12:09:10.000Z</time>
      </trkpt>
      <trkpt lat="38.114237" lon="-77.812787">
        <ele>96.494682</ele>
        <time>2023-10-13T12:09:22.000Z</time>
      </trkpt>
      <trkpt lat="38.114358" lon="-77.813069">
        <ele>96.768807</ele>
        <time>2023-10-13T12:09:25.000Z</time>
      </trkpt>
      <trkpt lat="38.114326" lon="-77.81349">
        <ele>97.11727</ele>
        <time>2023-10-13T12:09:29.000Z</time>
      </trkpt>
      <trkpt lat="38.11402" lon="-77.814352">
        <ele>98.146208</ele>
        <time>2023-10-13T12:09:37.000Z</time>
      </trkpt>
      <trkpt lat="38.113978" lon="-77.814665">
        <ele>98.564711</ele>
        <time>2023-10-13T12:09:40.000Z</time>
      </trkpt>
      <trkpt lat="38.114004" lon="-77.815013">
        <ele>99.023166</ele>
        <time>2023-10-13T12:09:43.000Z</time>
      </trkpt>
      <trkpt lat="38.114247" lon="-77.816005">
        <ele>100.382457</ele>
        <time>2023-10-13T12:09:52.000Z</time>
      </trkpt>
      <trkpt lat="38.114263" lon="-77.816317">
        <ele>100.846438</ele>
        <time>2023-10-13T12:09:55.000Z</time>
      </trkpt>
      <trkpt lat="38.114089" lon="-77.817489">
        <ele>102.702845</ele>
        <time>2023-10-13T12:10:05.000Z</time>
      </trkpt>
      <trkpt lat="38.114129" lon="-77.81776">
        <ele>103.142184</ele>
        <time>2023-10-13T12:10:07.000Z</time>
      </trkpt>
      <trkpt lat="38.11435" lon="-77.818091">
        <ele>103.818446</ele>
        <time>2023-10-13T12:10:11.000Z</time>
      </trkpt>
      <trkpt lat="38.115669" lon="-77.818802">
        <ele>105.854502</ele>
        <time>2023-10-13T12:10:27.000Z</time>
      </trkpt>
      <trkpt lat="38.115903" lon="-77.818839">
        <ele>106.171531</ele>
        <time>2023-10-13T12:10:30.000Z</time>
      </trkpt>
      <trkpt lat="38.116651" lon="-77.818765">
        <ele>107.066301</ele>
        <time>2023-10-13T12:10:38.000Z</time>
      </trkpt>
      <trkpt lat="38.116955" lon="-77.818724">
        <ele>107.40577</ele>
        <time>2023-10-13T12:10:41.000Z</time>
      </trkpt>
      <trkpt lat="38.117209" lon="-77.818755">
        <ele>107.669632</ele>
        <time>2023-10-13T12:10:44.000Z</time>
      </trkpt>
      <trkpt lat="38.117337" lon="-77.818824">
        <ele>107.835607</ele>
        <time>2023-10-13T12:10:46.000Z</time>
      </trkpt>
      <trkpt lat="38.117575" lon="-77.819071">
        <ele>108.169671</ele>
        <time>2023-10-13T12:10:49.000Z</time>
      </trkpt>
      <trkpt lat="38.117656" lon="-77.819294">
        <ele>108.392299</ele>
        <time>2023-10-13T12:10:51.000Z</time>
      </trkpt>
      <trkpt lat="38.117689" lon="-77.820409">
        <ele>109.534301</ele>
        <time>2023-10-13T12:11:01.000Z</time>
      </trkpt>
      <trkpt lat="38.11782" lon="-77.820816">
        <ele>110.00433</ele>
        <time>2023-10-13T12:11:05.000Z</time>
      </trkpt>
      <trkpt lat="38.117978" lon="-77.821053">
        <ele>110.330824</ele>
        <time>2023-10-13T12:11:08.000Z</time>
      </trkpt>
      <trkpt lat="38.118456" lon="-77.82159">
        <ele>111.064983</ele>
        <time>2023-10-13T12:11:15.000Z</time>
      </trkpt>
      <trkpt lat="38.118702" lon="-77.821951">
        <ele>111.257761</ele>
        <time>2023-10-13T12:11:19.000Z</time>
      </trkpt>
      <trkpt lat="38.118981" lon="-77.822789">
        <ele>111.643306</ele>
        <time>2023-10-13T12:11:27.000Z</time>
      </trkpt>
      <trkpt lat="38.119173" lon="-77.823182">
        <ele>111.832328</ele>
        <time>2023-10-13T12:11:31.000Z</time>
      </trkpt>
      <trkpt lat="38.119396" lon="-77.823006">
        <ele>111.904687</ele>
        <time>2023-10-13T12:11:34.000Z</time>
      </trkpt>
      <trkpt lat="38.119765" lon="-77.822873">
        <ele>111.781112</ele>
        <time>2023-10-13T12:11:38.000Z</time>
      </trkpt>
      <trkpt lat="38.119963" lon="-77.82287">
        <ele>111.717518</ele>
        <time>2023-10-13T12:11:40.000Z</time>
      </trkpt>
      <trkpt lat="38.120191" lon="-77.82296">
        <ele>111.645242</ele>
        <time>2023-10-13T12:11:43.000Z</time>
      </trkpt>
      <trkpt lat="38.120634" lon="-77.823176">
        <ele>111.498972</ele>
        <time>2023-10-13T12:11:48.000Z</time>
      </trkpt>
      <trkpt lat="38.121135" lon="-77.823286">
        <ele>111.3927</ele>
        <time>2023-10-13T12:11:54.000Z</time>
      </trkpt>
      <trkpt lat="38.121914" lon="-77.823189">
        <ele>111.613378</ele>
        <time>2023-10-13T12:12:03.000Z</time>
      </trkpt>
      <trkpt lat="38.122729" lon="-77.823275">
        <ele>111.84854</ele>
        <time>2023-10-13T12:12:12.000Z</time>
      </trkpt>
      <trkpt lat="38.12304" lon="-77.823242">
        <ele>112.000807</ele>
        <time>2023-10-13T12:12:15.000Z</time>
      </trkpt>
      <trkpt lat="38.124189" lon="-77.822907">
        <ele>112.693397</ele>
        <time>2023-10-13T12:12:28.000Z</time>
      </trkpt>
      <trkpt lat="38.12478" lon="-77.822482">
        <ele>113.022316</ele>
        <time>2023-10-13T12:12:36.000Z</time>
      </trkpt>
      <trkpt lat="38.125321" lon="-77.822176">
        <ele>113.204713</ele>
        <time>2023-10-13T12:12:43.000Z</time>
      </trkpt>
      <trkpt lat="38.126356" lon="-77.821248">
        <ele>113.634541</ele>
        <time>2023-10-13T12:12:57.000Z</time>
      </trkpt>
      <trkpt lat="38.128378" lon="-77.82022">
        <ele>114.426033</ele>
        <time>2023-10-13T12:13:21.000Z</time>
      </trkpt>
      <trkpt lat="38.129353" lon="-77.819612">
        <ele>114.759282</ele>
        <time>2023-10-13T12:13:33.000Z</time>
      </trkpt>
      <trkpt lat="38.130256" lon="-77.819334">
        <ele>114.950083</ele>
        <time>2023-10-13T12:13:43.000Z</time>
      </trkpt>
      <trkpt lat="38.130974" lon="-77.818923">
        <ele>115.109222</ele>
        <time>2023-10-13T12:13:52.000Z</time>
      </trkpt>
      <trkpt lat="38.13121" lon="-77.818895">
        <ele>115.155446</ele>
        <time>2023-10-13T12:13:55.000Z</time>
      </trkpt>
      <trkpt lat="38.131843" lon="-77.81898">
        <ele>115.284563</ele>
        <time>2023-10-13T12:14:02.000Z</time>
      </trkpt>
      <trkpt lat="38.133023" lon="-77.818824">
        <ele>115.54135</ele>
        <time>2023-10-13T12:14:15.000Z</time>
      </trkpt>
      <trkpt lat="38.133386" lon="-77.818661">
        <ele>115.658284</ele>
        <time>2023-10-13T12:14:19.000Z</time>
      </trkpt>
      <trkpt lat="38.134933" lon="-77.81779">
        <ele>116.168892</ele>
        <time>2023-10-13T12:14:38.000Z</time>
      </trkpt>
      <trkpt lat="38.135371" lon="-77.817605">
        <ele>116.295374</ele>
        <time>2023-10-13T12:14:43.000Z</time>
      </trkpt>
      <trkpt lat="38.135796" lon="-77.817555">
        <ele>116.414911</ele>
        <time>2023-10-13T12:14:48.000Z</time>
      </trkpt>
      <trkpt lat="38.13666" lon="-77.817766">
        <ele>116.583703</ele>
        <time>2023-10-13T12:14:58.000Z</time>
      </trkpt>
      <trkpt lat="38.137483" lon="-77.817812">
        <ele>116.67411</ele>
        <time>2023-10-13T12:15:07.000Z</time>
      </trkpt>
      <trkpt lat="38.138291" lon="-77.818114">
        <ele>116.928567</ele>
        <time>2023-10-13T12:15:16.000Z</time>
      </trkpt>
      <trkpt lat="38.139063" lon="-77.818299">
        <ele>117.42941</ele>
        <time>2023-10-13T12:15:25.000Z</time>
      </trkpt>
      <trkpt lat="38.139443" lon="-77.818278">
        <ele>117.681941</ele>
        <time>2023-10-13T12:15:29.000Z</time>
      </trkpt>
      <trkpt lat="38.14018" lon="-77.817949">
        <ele>118.135942</ele>
        <time>2023-10-13T12:15:38.000Z</time>
      </trkpt>
      <trkpt lat="38.141285" lon="-77.817394">
        <ele>118.768816</ele>
        <time>2023-10-13T12:15:51.000Z</time>
      </trkpt>
      <trkpt lat="38.141371" lon="-77.817327">
        <ele>118.820037</ele>
        <time>2023-10-13T12:15:52.000Z</time>
      </trkpt>
      <trkpt lat="38.141378" lon="-77.817328">
        <ele>118.821177</ele>
        <time>2023-10-13T12:15:52.000Z</time>
      </trkpt>
      <trkpt lat="38.141369" lon="-77.817326">
        <ele>118.82252</ele>
        <time>2023-10-13T12:15:52.000Z</time>
      </trkpt>
      <trkpt lat="38.141374" lon="-77.817317">
        <ele>118.823862</ele>
        <time>2023-10-13T12:15:52.000Z</time>
      </trkpt>
      <trkpt lat="38.141364" lon="-77.817329">
        <ele>118.825</ele>
        <time>2023-10-13T12:15:52.000Z</time>
      </trkpt>
      <trkpt lat="38.141289" lon="-77.817389">
        <ele>118.832666</ele>
        <time>2023-10-13T12:15:53.000Z</time>
      </trkpt>
      <trkpt lat="38.140177" lon="-77.817954">
        <ele>118.13326</ele>
        <time>2023-10-13T12:16:06.000Z</time>
      </trkpt>
      <trkpt lat="38.139444" lon="-77.818274">
        <ele>117.670283</ele>
        <time>2023-10-13T12:16:15.000Z</time>
      </trkpt>
      <trkpt lat="38.139054" lon="-77.818307">
        <ele>117.431652</ele>
        <time>2023-10-13T12:16:19.000Z</time>
      </trkpt>
      <trkpt lat="38.13829" lon="-77.818128">
        <ele>116.958353</ele>
        <time>2023-10-13T12:16:28.000Z</time>
      </trkpt>
      <trkpt lat="38.137469" lon="-77.817814">
        <ele>116.65661</ele>
        <time>2023-10-13T12:16:38.000Z</time>
      </trkpt>
      <trkpt lat="38.136651" lon="-77.817768">
        <ele>116.575237</ele>
        <time>2023-10-13T12:16:47.000Z</time>
      </trkpt>
      <trkpt lat="38.135797" lon="-77.817552">
        <ele>116.427533</ele>
        <time>2023-10-13T12:16:57.000Z</time>
      </trkpt>
      <trkpt lat="38.135375" lon="-77.817613">
        <ele>116.30073</ele>
        <time>2023-10-13T12:17:02.000Z</time>
      </trkpt>
      <trkpt lat="38.13494" lon="-77.817795">
        <ele>116.166595</ele>
        <time>2023-10-13T12:17:07.000Z</time>
      </trkpt>
      <trkpt lat="38.133386" lon="-77.818666">
        <ele>115.66256</ele>
        <time>2023-10-13T12:17:26.000Z</time>
      </trkpt>
      <trkpt lat="38.133029" lon="-77.818814">
        <ele>115.549595</ele>
        <time>2023-10-13T12:17:30.000Z</time>
      </trkpt>
      <trkpt lat="38.131853" lon="-77.818978">
        <ele>115.281588</ele>
        <time>2023-10-13T12:17:43.000Z</time>
      </trkpt>
      <trkpt lat="38.131202" lon="-77.8189">
        <ele>115.151849</ele>
        <time>2023-10-13T12:17:50.000Z</time>
      </trkpt>
      <trkpt lat="38.130979" lon="-77.818913">
        <ele>115.105407</ele>
        <time>2023-10-13T12:17:52.000Z</time>
      </trkpt>
      <trkpt lat="38.130261" lon="-77.819334">
        <ele>114.948011</ele>
        <time>2023-10-13T12:18:01.000Z</time>
      </trkpt>
      <trkpt lat="38.129345" lon="-77.81961">
        <ele>114.760932</ele>
        <time>2023-10-13T12:18:11.000Z</time>
      </trkpt>
      <trkpt lat="38.128378" lon="-77.820206">
        <ele>114.426472</ele>
        <time>2023-10-13T12:18:23.000Z</time>
      </trkpt>
      <trkpt lat="38.126356" lon="-77.821241">
        <ele>113.638706</ele>
        <time>2023-10-13T12:18:47.000Z</time>
      </trkpt>
      <trkpt lat="38.125324" lon="-77.82218">
        <ele>113.196779</ele>
        <time>2023-10-13T12:19:01.000Z</time>
      </trkpt>
      <trkpt lat="38.124793" lon="-77.822471">
        <ele>113.010738</ele>
        <time>2023-10-13T12:19:07.000Z</time>
      </trkpt>
      <trkpt lat="38.124197" lon="-77.822909">
        <ele>112.709278</ele>
        <time>2023-10-13T12:19:15.000Z</time>
      </trkpt>
      <trkpt lat="38.123052" lon="-77.823252">
        <ele>112.000786</ele>
        <time>2023-10-13T12:19:28.000Z</time>
      </trkpt>
      <trkpt lat="38.122725" lon="-77.823278">
        <ele>111.813155</ele>
        <time>2023-10-13T12:19:32.000Z</time>
      </trkpt>
      <trkpt lat="38.121911" lon="-77.823193">
        <ele>111.616018</ele>
        <time>2023-10-13T12:19:41.000Z</time>
      </trkpt>
      <trkpt lat="38.121139" lon="-77.823289">
        <ele>111.438944</ele>
        <time>2023-10-13T12:19:50.000Z</time>
      </trkpt>
      <trkpt lat="38.120624" lon="-77.823174">
        <ele>111.481161</ele>
        <time>2023-10-13T12:19:56.000Z</time>
      </trkpt>
      <trkpt lat="38.120189" lon="-77.822951">
        <ele>111.624694</ele>
        <time>2023-10-13T12:20:01.000Z</time>
      </trkpt>
      <trkpt lat="38.119974" lon="-77.822886">
        <ele>111.695602</ele>
        <time>2023-10-13T12:20:03.000Z</time>
      </trkpt>
      <trkpt lat="38.119773" lon="-77.822862">
        <ele>111.758009</ele>
        <time>2023-10-13T12:20:05.000Z</time>
      </trkpt>
      <trkpt lat="38.119385" lon="-77.823005">
        <ele>111.879253</ele>
        <time>2023-10-13T12:20:09.000Z</time>
      </trkpt>
      <trkpt lat="38.119172" lon="-77.823179">
        <ele>111.905851</ele>
        <time>2023-10-13T12:20:12.000Z</time>
      </trkpt>
      <trkpt lat="38.118994" lon="-77.822781">
        <ele>111.686111</ele>
        <time>2023-10-13T12:20:16.000Z</time>
      </trkpt>
      <trkpt lat="38.118697" lon="-77.821949">
        <ele>111.237879</ele>
        <time>2023-10-13T12:20:24.000Z</time>
      </trkpt>
      <trkpt lat="38.118459" lon="-77.8216">
        <ele>111.013775</ele>
        <time>2023-10-13T12:20:28.000Z</time>
      </trkpt>
      <trkpt lat="38.117969" lon="-77.821049">
        <ele>110.35245</ele>
        <time>2023-10-13T12:20:35.000Z</time>
      </trkpt>
      <trkpt lat="38.117825" lon="-77.820802">
        <ele>110.022905</ele>
        <time>2023-10-13T12:20:38.000Z</time>
      </trkpt>
      <trkpt lat="38.117705" lon="-77.8204">
        <ele>109.548493</ele>
        <time>2023-10-13T12:20:42.000Z</time>
      </trkpt>
      <trkpt lat="38.117666" lon="-77.819299">
        <ele>108.364192</ele>
        <time>2023-10-13T12:20:52.000Z</time>
      </trkpt>
      <trkpt lat="38.117561" lon="-77.819075">
        <ele>108.145373</ele>
        <time>2023-10-13T12:20:54.000Z</time>
      </trkpt>
      <trkpt lat="38.117339" lon="-77.818814">
        <ele>107.817018</ele>
        <time>2023-10-13T12:20:57.000Z</time>
      </trkpt>
      <trkpt lat="38.117198" lon="-77.818747">
        <ele>107.653877</ele>
        <time>2023-10-13T12:20:59.000Z</time>
      </trkpt>
      <trkpt lat="38.116961" lon="-77.818722">
        <ele>107.394531</ele>
        <time>2023-10-13T12:21:02.000Z</time>
      </trkpt>
      <trkpt lat="38.116662" lon="-77.818755">
        <ele>107.060857</ele>
        <time>2023-10-13T12:21:05.000Z</time>
      </trkpt>
      <trkpt lat="38.115914" lon="-77.818834">
        <ele>106.199972</ele>
        <time>2023-10-13T12:21:13.000Z</time>
      </trkpt>
      <trkpt lat="38.115679" lon="-77.818792">
        <ele>105.87143</ele>
        <time>2023-10-13T12:21:16.000Z</time>
      </trkpt>
      <trkpt lat="38.114341" lon="-77.818083">
        <ele>103.845792</ele>
        <time>2023-10-13T12:21:32.000Z</time>
      </trkpt>
      <trkpt lat="38.114127" lon="-77.81776">
        <ele>103.164655</ele>
        <time>2023-10-13T12:21:36.000Z</time>
      </trkpt>
      <trkpt lat="38.114087" lon="-77.817489">
        <ele>102.72215</ele>
        <time>2023-10-13T12:21:38.000Z</time>
      </trkpt>
      <trkpt lat="38.114271" lon="-77.816328">
        <ele>100.852411</ele>
        <time>2023-10-13T12:21:48.000Z</time>
      </trkpt>
      <trkpt lat="38.11424" lon="-77.815999">
        <ele>100.353607</ele>
        <time>2023-10-13T12:21:51.000Z</time>
      </trkpt>
      <trkpt lat="38.114002" lon="-77.815022">
        <ele>99.012339</ele>
        <time>2023-10-13T12:22:00.000Z</time>
      </trkpt>
      <trkpt lat="38.113975" lon="-77.814673">
        <ele>98.562973</ele>
        <time>2023-10-13T12:22:03.000Z</time>
      </trkpt>
      <trkpt lat="38.114006" lon="-77.814368">
        <ele>98.152775</ele>
        <time>2023-10-13T12:22:06.000Z</time>
      </trkpt>
      <trkpt lat="38.114333" lon="-77.813495">
        <ele>97.09058</ele>
        <time>2023-10-13T12:22:14.000Z</time>
      </trkpt>
      <trkpt lat="38.114344" lon="-77.813072">
        <ele>96.772839</ele>
        <time>2023-10-13T12:22:18.000Z</time>
      </trkpt>
      <trkpt lat="38.114242" lon="-77.812787">
        <ele>96.522882</ele>
        <time>2023-10-13T12:22:21.000Z</time>
      </trkpt>
      <trkpt lat="38.113638" lon="-77.811642">
        <ele>95.659917</ele>
        <time>2023-10-13T12:22:33.000Z</time>
      </trkpt>
      <trkpt lat="38.113458" lon="-77.811749">
        <ele>95.761586</ele>
        <time>2023-10-13T12:22:35.000Z</time>
      </trkpt>
      <trkpt lat="38.113444" lon="-77.811748">
        <ele>95.762215</ele>
        <time>2023-10-13T12:22:35.000Z</time>
      </trkpt>
      <trkpt lat="38.113445" lon="-77.811767">
        <ele>95.763269</ele>
        <time>2023-10-13T12:22:35.000Z</time>
      </trkpt>
      <trkpt lat="38.113437" lon="-77.811764">
        <ele>95.763278</ele>
        <time>2023-10-13T12:22:35.000Z</time>
      </trkpt>
      <trkpt lat="38.113632" lon="-77.811637">
        <ele>95.866624</ele>
        <time>2023-10-13T12:22:37.000Z</time>
      </trkpt>
      <trkpt lat="38.114241" lon="-77.812783">
        <ele>96.398306</ele>
        <time>2023-10-13T12:22:49.000Z</time>
      </trkpt>
      <trkpt lat="38.11436" lon="-77.813082">
        <ele>96.608752</ele>
        <time>2023-10-13T12:22:52.000Z</time>
      </trkpt>
      <trkpt lat="38.114334" lon="-77.813479">
        <ele>97.074011</ele>
        <time>2023-10-13T12:22:55.000Z</time>
      </trkpt>
      <trkpt lat="38.114006" lon="-77.814354">
        <ele>98.157126</ele>
        <time>2023-10-13T12:23:03.000Z</time>
      </trkpt>
      <trkpt lat="38.113981" lon="-77.814677">
        <ele>98.51527</ele>
        <time>2023-10-13T12:23:06.000Z</time>
      </trkpt>
      <trkpt lat="38.114004" lon="-77.815014">
        <ele>98.907617</ele>
        <time>2023-10-13T12:23:09.000Z</time>
      </trkpt>
      <trkpt lat="38.114232" lon="-77.81601">
        <ele>100.449291</ele>
        <time>2023-10-13T12:23:18.000Z</time>
      </trkpt>
      <trkpt lat="38.114258" lon="-77.816313">
        <ele>100.93931</ele>
        <time>2023-10-13T12:23:21.000Z</time>
      </trkpt>
      <trkpt lat="38.114093" lon="-77.817485">
        <ele>102.748995</ele>
        <time>2023-10-13T12:23:31.000Z</time>
      </trkpt>
      <trkpt lat="38.114111" lon="-77.817762">
        <ele>103.120076</ele>
        <time>2023-10-13T12:23:33.000Z</time>
      </trkpt>
      <trkpt lat="38.114348" lon="-77.81808">
        <ele>103.691246</ele>
        <time>2023-10-13T12:23:37.000Z</time>
      </trkpt>
      <trkpt lat="38.115681" lon="-77.818793">
        <ele>105.927215</ele>
        <time>2023-10-13T12:23:53.000Z</time>
      </trkpt>
      <trkpt lat="38.115907" lon="-77.818825">
        <ele>106.179933</ele>
        <time>2023-10-13T12:23:56.000Z</time>
      </trkpt>
      <trkpt lat="38.116655" lon="-77.818761">
        <ele>106.983946</ele>
        <time>2023-10-13T12:24:04.000Z</time>
      </trkpt>
      <trkpt lat="38.116956" lon="-77.818719">
        <ele>107.313478</ele>
        <time>2023-10-13T12:24:07.000Z</time>
      </trkpt>
      <trkpt lat="38.117203" lon="-77.818745">
        <ele>107.577276</ele>
        <time>2023-10-13T12:24:10.000Z</time>
      </trkpt>
      <trkpt lat="38.117339" lon="-77.818822">
        <ele>107.778071</ele>
        <time>2023-10-13T12:24:12.000Z</time>
      </trkpt>
      <trkpt lat="38.117566" lon="-77.81908">
        <ele>108.182191</ele>
        <time>2023-10-13T12:24:15.000Z</time>
      </trkpt>
      <trkpt lat="38.117661" lon="-77.81931">
        <ele>108.451528</ele>
        <time>2023-10-13T12:24:17.000Z</time>
      </trkpt>
      <trkpt lat="38.117704" lon="-77.820406">
        <ele>109.608026</ele>
        <time>2023-10-13T12:24:27.000Z</time>
      </trkpt>
      <trkpt lat="38.117834" lon="-77.820816">
        <ele>110.042393</ele>
        <time>2023-10-13T12:24:31.000Z</time>
      </trkpt>
      <trkpt lat="38.117968" lon="-77.82105">
        <ele>110.291517</ele>
        <time>2023-10-13T12:24:34.000Z</time>
      </trkpt>
      <trkpt lat="38.118459" lon="-77.821598">
        <ele>110.960739</ele>
        <time>2023-10-13T12:24:41.000Z</time>
      </trkpt>
      <trkpt lat="38.118694" lon="-77.821946">
        <ele>111.336531</ele>
        <time>2023-10-13T12:24:45.000Z</time>
      </trkpt>
      <trkpt lat="38.118991" lon="-77.82279">
        <ele>111.773777</ele>
        <time>2023-10-13T12:24:53.000Z</time>
      </trkpt>
      <trkpt lat="38.119173" lon="-77.823185">
        <ele>111.730861</ele>
        <time>2023-10-13T12:24:57.000Z</time>
      </trkpt>
      <trkpt lat="38.119388" lon="-77.823012">
        <ele>111.699686</ele>
        <time>2023-10-13T12:25:00.000Z</time>
      </trkpt>
      <trkpt lat="38.119764" lon="-77.822862">
        <ele>111.65185</ele>
        <time>2023-10-13T12:25:04.000Z</time>
      </trkpt>
      <trkpt lat="38.119965" lon="-77.822874">
        <ele>111.62723</ele>
        <time>2023-10-13T12:25:06.000Z</time>
      </trkpt>
      <trkpt lat="38.120188" lon="-77.822966">
        <ele>111.599251</ele>
        <time>2023-10-13T12:25:09.000Z</time>
      </trkpt>
      <trkpt lat="38.120623" lon="-77.823179">
        <ele>111.564898</ele>
        <time>2023-10-13T12:25:14.000Z</time>
      </trkpt>
      <trkpt lat="38.121124" lon="-77.823281">
        <ele>111.532777</ele>
        <time>2023-10-13T12:25:20.000Z</time>
      </trkpt>
      <trkpt lat="38.121915" lon="-77.823202">
        <ele>111.483352</ele>
        <time>2023-10-13T12:25:29.000Z</time>
      </trkpt>
      <trkpt lat="38.122739" lon="-77.82327">
        <ele>111.883293</ele>
        <time>2023-10-13T12:25:38.000Z</time>
      </trkpt>
      <trkpt lat="38.123043" lon="-77.823246">
        <ele>112.063159</ele>
        <time>2023-10-13T12:25:41.000Z</time>
      </trkpt>
      <trkpt lat="38.124188" lon="-77.82291">
        <ele>112.678871</ele>
        <time>2023-10-13T12:25:54.000Z</time>
      </trkpt>
      <trkpt lat="38.124784" lon="-77.822482">
        <ele>112.964988</ele>
        <time>2023-10-13T12:26:02.000Z</time>
      </trkpt>
      <trkpt lat="38.125315" lon="-77.822177">
        <ele>113.205249</ele>
        <time>2023-10-13T12:26:08.000Z</time>
      </trkpt>
      <trkpt lat="38.126369" lon="-77.82124">
        <ele>113.650345</ele>
        <time>2023-10-13T12:26:22.000Z</time>
      </trkpt>
      <trkpt lat="38.128383" lon="-77.820206">
        <ele>114.456682</ele>
        <time>2023-10-13T12:26:46.000Z</time>
      </trkpt>
      <trkpt lat="38.129351" lon="-77.819609">
        <ele>114.731897</ele>
        <time>2023-10-13T12:26:58.000Z</time>
      </trkpt>
      <trkpt lat="38.130267" lon="-77.819341">
        <ele>114.932512</ele>
        <time>2023-10-13T12:27:08.000Z</time>
      </trkpt>
      <trkpt lat="38.130983" lon="-77.81891">
        <ele>115.103433</ele>
        <time>2023-10-13T12:27:17.000Z</time>
      </trkpt>
      <trkpt lat="38.131205" lon="-77.818889">
        <ele>115.153152</ele>
        <time>2023-10-13T12:27:19.000Z</time>
      </trkpt>
      <trkpt lat="38.131845" lon="-77.818972">
        <ele>115.292076</ele>
        <time>2023-10-13T12:27:26.000Z</time>
      </trkpt>
      <trkpt lat="38.133018" lon="-77.818827">
        <ele>115.56734</ele>
        <time>2023-10-13T12:27:39.000Z</time>
      </trkpt>
      <trkpt lat="38.133375" lon="-77.818662">
        <ele>115.656518</ele>
        <time>2023-10-13T12:27:43.000Z</time>
      </trkpt>
      <trkpt lat="38.134927" lon="-77.817795">
        <ele>116.189893</ele>
        <time>2023-10-13T12:28:02.000Z</time>
      </trkpt>
      <trkpt lat="38.135367" lon="-77.817596">
        <ele>116.346872</ele>
        <time>2023-10-13T12:28:07.000Z</time>
      </trkpt>
      <trkpt lat="38.135804" lon="-77.817551">
        <ele>116.420114</ele>
        <time>2023-10-13T12:28:12.000Z</time>
      </trkpt>
      <trkpt lat="38.136646" lon="-77.817755">
        <ele>116.534531</ele>
        <time>2023-10-13T12:28:22.000Z</time>
      </trkpt>
      <trkpt lat="38.137475" lon="-77.817803">
        <ele>116.699432</ele>
        <time>2023-10-13T12:28:31.000Z</time>
      </trkpt>
      <trkpt lat="38.138295" lon="-77.818111">
        <ele>117.004506</ele>
        <time>2023-10-13T12:28:41.000Z</time>
      </trkpt>
      <trkpt lat="38.139059" lon="-77.818301">
        <ele>117.312837</ele>
        <time>2023-10-13T12:28:50.000Z</time>
      </trkpt>
      <trkpt lat="38.139437" lon="-77.818284">
        <ele>117.613797</ele>
        <time>2023-10-13T12:28:54.000Z</time>
      </trkpt>
      <trkpt lat="38.140182" lon="-77.817956">
        <ele>118.217263</ele>
        <time>2023-10-13T12:29:03.000Z</time>
      </trkpt>
      <trkpt lat="38.141296" lon="-77.817395">
        <ele>118.566631</ele>
        <time>2023-10-13T12:29:16.000Z</time>
      </trkpt>
      <trkpt lat="38.14138" lon="-77.817319">
        <ele>118.555377</ele>
        <time>2023-10-13T12:29:17.000Z</time>
      </trkpt>
      <trkpt lat="38.141377" lon="-77.817325">
        <ele>118.55513</ele>
        <time>2023-10-13T12:29:17.000Z</time>
      </trkpt>
      <trkpt lat="38.141369" lon="-77.817329">
        <ele>118.554879</ele>
        <time>2023-10-13T12:29:17.000Z</time>
      </trkpt>
      <trkpt lat="38.141283" lon="-77.817386">
        <ele>118.543616</ele>
        <time>2023-10-13T12:29:18.000Z</time>
      </trkpt>
      <trkpt lat="38.140176" lon="-77.817955">
        <ele>118.248335</ele>
        <time>2023-10-13T12:29:31.000Z</time>
      </trkpt>
      <trkpt lat="38.13945" lon="-77.818286">
        <ele>117.646722</ele>
        <time>2023-10-13T12:29:40.000Z</time>
      </trkpt>
      <trkpt lat="38.13906" lon="-77.818305">
        <ele>117.346706</ele>
        <time>2023-10-13T12:29:44.000Z</time>
      </trkpt>
      <trkpt lat="38.138293" lon="-77.818123">
        <ele>116.949316</ele>
        <time>2023-10-13T12:29:53.000Z</time>
      </trkpt>
      <trkpt lat="38.137471" lon="-77.817806">
        <ele>116.732595</ele>
        <time>2023-10-13T12:30:03.000Z</time>
      </trkpt>
      <trkpt lat="38.136654" lon="-77.817765">
        <ele>116.545602</ele>
        <time>2023-10-13T12:30:12.000Z</time>
      </trkpt>
      <trkpt lat="38.135798" lon="-77.817548">
        <ele>116.396823</ele>
        <time>2023-10-13T12:30:22.000Z</time>
      </trkpt>
      <trkpt lat="38.13537" lon="-77.817602">
        <ele>116.321894</ele>
        <time>2023-10-13T12:30:27.000Z</time>
      </trkpt>
      <trkpt lat="38.134926" lon="-77.817793">
        <ele>116.203932</ele>
        <time>2023-10-13T12:30:32.000Z</time>
      </trkpt>
      <trkpt lat="38.133379" lon="-77.818661">
        <ele>115.636185</ele>
        <time>2023-10-13T12:30:51.000Z</time>
      </trkpt>
      <trkpt lat="38.133029" lon="-77.818831">
        <ele>115.554652</ele>
        <time>2023-10-13T12:30:55.000Z</time>
      </trkpt>
      <trkpt lat="38.131853" lon="-77.818973">
        <ele>115.299365</ele>
        <time>2023-10-13T12:31:08.000Z</time>
      </trkpt>
      <trkpt lat="38.131215" lon="-77.818889">
        <ele>115.161352</ele>
        <time>2023-10-13T12:31:15.000Z</time>
      </trkpt>
      <trkpt lat="38.130971" lon="-77.818909">
        <ele>115.111998</ele>
        <time>2023-10-13T12:31:18.000Z</time>
      </trkpt>
      <trkpt lat="38.130261" lon="-77.819341">
        <ele>114.942116</ele>
        <time>2023-10-13T12:31:27.000Z</time>
      </trkpt>
      <trkpt lat="38.129354" lon="-77.819604">
        <ele>114.722884</ele>
        <time>2023-10-13T12:31:37.000Z</time>
      </trkpt>
      <trkpt lat="38.128393" lon="-77.820216">
        <ele>114.466321</ele>
        <time>2023-10-13T12:31:49.000Z</time>
      </trkpt>
      <trkpt lat="38.126363" lon="-77.821237">
        <ele>113.640153</ele>
        <time>2023-10-13T12:32:13.000Z</time>
      </trkpt>
      <trkpt lat="38.125321" lon="-77.822171">
        <ele>113.227876</ele>
        <time>2023-10-13T12:32:27.000Z</time>
      </trkpt>
      <trkpt lat="38.124796" lon="-77.822483">
        <ele>112.980592</ele>
        <time>2023-10-13T12:32:33.000Z</time>
      </trkpt>
      <trkpt lat="38.124188" lon="-77.822908">
        <ele>112.654798</ele>
        <time>2023-10-13T12:32:41.000Z</time>
      </trkpt>
      <trkpt lat="38.123036" lon="-77.823243">
        <ele>112.076234</ele>
        <time>2023-10-13T12:32:54.000Z</time>
      </trkpt>
      <trkpt lat="38.122731" lon="-77.82327">
        <ele>111.915272</ele>
        <time>2023-10-13T12:32:57.000Z</time>
      </trkpt>
      <trkpt lat="38.121901" lon="-77.823192">
        <ele>111.486538</ele>
        <time>2023-10-13T12:33:06.000Z</time>
      </trkpt>
      <trkpt lat="38.121137" lon="-77.823286">
        <ele>111.497022</ele>
        <time>2023-10-13T12:33:15.000Z</time>
      </trkpt>
      <trkpt lat="38.120627" lon="-77.823187">
        <ele>111.588333</ele>
        <time>2023-10-13T12:33:21.000Z</time>
      </trkpt>
      <trkpt lat="38.120194" lon="-77.822963">
        <ele>111.672974</ele>
        <time>2023-10-13T12:33:26.000Z</time>
      </trkpt>
      <trkpt lat="38.11997" lon="-77.822886">
        <ele>111.71442</ele>
        <time>2023-10-13T12:33:29.000Z</time>
      </trkpt>
      <trkpt lat="38.119775" lon="-77.822874">
        <ele>111.703095</ele>
        <time>2023-10-13T12:33:31.000Z</time>
      </trkpt>
      <trkpt lat="38.119389" lon="-77.823009">
        <ele>111.681119</ele>
        <time>2023-10-13T12:33:35.000Z</time>
      </trkpt>
      <trkpt lat="38.119158" lon="-77.823183">
        <ele>111.666783</ele>
        <time>2023-10-13T12:33:38.000Z</time>
      </trkpt>
      <trkpt lat="38.118991" lon="-77.822788">
        <ele>111.647055</ele>
        <time>2023-10-13T12:33:42.000Z</time>
      </trkpt>
      <trkpt lat="38.118691" lon="-77.821944">
        <ele>111.446349</ele>
        <time>2023-10-13T12:33:50.000Z</time>
      </trkpt>
      <trkpt lat="38.118452" lon="-77.821603">
        <ele>111.020504</ele>
        <time>2023-10-13T12:33:54.000Z</time>
      </trkpt>
      <trkpt lat="38.11798" lon="-77.82105">
        <ele>110.262124</ele>
        <time>2023-10-13T12:34:01.000Z</time>
      </trkpt>
      <trkpt lat="38.117832" lon="-77.820809">
        <ele>109.979807</ele>
        <time>2023-10-13T12:34:04.000Z</time>
      </trkpt>
      <trkpt lat="38.117702" lon="-77.820392">
        <ele>109.573365</ele>
        <time>2023-10-13T12:34:08.000Z</time>
      </trkpt>
      <trkpt lat="38.117665" lon="-77.819303">
        <ele>108.477189</ele>
        <time>2023-10-13T12:34:18.000Z</time>
      </trkpt>
      <trkpt lat="38.117574" lon="-77.819067">
        <ele>108.220526</ele>
        <time>2023-10-13T12:34:20.000Z</time>
      </trkpt>
      <trkpt lat="38.117343" lon="-77.818812">
        <ele>107.835381</ele>
        <time>2023-10-13T12:34:23.000Z</time>
      </trkpt>
      <trkpt lat="38.117196" lon="-77.818755">
        <ele>107.644027</ele>
        <time>2023-10-13T12:34:25.000Z</time>
      </trkpt>
      <trkpt lat="38.116961" lon="-77.818719">
        <ele>107.339828</ele>
        <time>2023-10-13T12:34:28.000Z</time>
      </trkpt>
      <trkpt lat="38.116658" lon="-77.818757">
        <ele>106.980553</ele>
        <time>2023-10-13T12:34:31.000Z</time>
      </trkpt>
      <trkpt lat="38.115905" lon="-77.818837">
        <ele>106.14215</ele>
        <time>2023-10-13T12:34:39.000Z</time>
      </trkpt>
      <trkpt lat="38.115673" lon="-77.818796">
        <ele>105.878617</ele>
        <time>2023-10-13T12:34:42.000Z</time>
      </trkpt>
      <trkpt lat="38.114341" lon="-77.818081">
        <ele>103.692467</ele>
        <time>2023-10-13T12:34:58.000Z</time>
      </trkpt>
      <trkpt lat="38.114112" lon="-77.817759">
        <ele>103.076321</ele>
        <time>2023-10-13T12:35:02.000Z</time>
      </trkpt>
      <trkpt lat="38.114096" lon="-77.817487">
        <ele>102.676038</ele>
        <time>2023-10-13T12:35:04.000Z</time>
      </trkpt>
      <trkpt lat="38.114272" lon="-77.816323">
        <ele>100.94345</ele>
        <time>2023-10-13T12:35:14.000Z</time>
      </trkpt>
      <trkpt lat="38.114231" lon="-77.816004">
        <ele>100.472834</ele>
        <time>2023-10-13T12:35:17.000Z</time>
      </trkpt>
      <trkpt lat="38.114002" lon="-77.815028">
        <ele>98.939384</ele>
        <time>2023-10-13T12:35:26.000Z</time>
      </trkpt>
      <trkpt lat="38.113982" lon="-77.814681">
        <ele>98.460521</ele>
        <time>2023-10-13T12:35:29.000Z</time>
      </trkpt>
      <trkpt lat="38.11401" lon="-77.814354">
        <ele>98.131851</ele>
        <time>2023-10-13T12:35:32.000Z</time>
      </trkpt>
      <trkpt lat="38.114324" lon="-77.813489">
        <ele>97.137981</ele>
        <time>2023-10-13T12:35:40.000Z</time>
      </trkpt>
      <trkpt lat="38.114343" lon="-77.813077">
        <ele>96.711045</ele>
        <time>2023-10-13T12:35:44.000Z</time>
      </trkpt>
      <trkpt lat="38.114243" lon="-77.812771">
        <ele>96.375206</ele>
        <time>2023-10-13T12:35:47.000Z</time>
      </trkpt>
      <trkpt lat="38.113634" lon="-77.811646">
        <ele>95.933701</ele>
        <time>2023-10-13T12:35:59.000Z</time>
      </trkpt>
      <trkpt lat="38.11345" lon="-77.811764">
        <ele>95.878236</ele>
        <time>2023-10-13T12:36:01.000Z</time>
      </trkpt>
      <trkpt lat="38.113442" lon="-77.811763">
        <ele>95.877897</ele>
        <time>2023-10-13T12:36:01.000Z</time>
      </trkpt>
      <trkpt lat="38.113455" lon="-77.811749">
        <ele>95.877321</ele>
        <time>2023-10-13T12:36:01.000Z</time>
      </trkpt>
      <trkpt lat="38.113445" lon="-77.811767">
        <ele>95.876737</ele>
        <time>2023-10-13T12:36:01.000Z</time>
      </trkpt>
      <trkpt lat="38.113434" lon="-77.811753">
        <ele>95.876389</ele>
        <time>2023-10-13T12:36:01.000Z</time>
      </trkpt>
      <trkpt lat="38.113448" lon="-77.811763">
        <ele>95.876393</ele>
        <time>2023-10-13T12:36:01.000Z</time>
      </trkpt>
      <trkpt lat="38.113448" lon="-77.811751">
        <ele>95.876392</ele>
        <time>2023-10-13T12:36:01.000Z</time>
      </trkpt>
      <trkpt lat="38.113635" lon="-77.811648">
        <ele>95.819128</ele>
        <time>2023-10-13T12:36:03.000Z</time>
      </trkpt>
      <trkpt lat="38.11424" lon="-77.812781">
        <ele>96.453124</ele>
        <time>2023-10-13T12:36:15.000Z</time>
      </trkpt>
      <trkpt lat="38.114344" lon="-77.81307">
        <ele>96.750509</ele>
        <time>2023-10-13T12:36:18.000Z</time>
      </trkpt>
      <trkpt lat="38.114333" lon="-77.813477">
        <ele>97.12854</ele>
        <time>2023-10-13T12:36:22.000Z</time>
      </trkpt>
      <trkpt lat="38.114007" lon="-77.814369">
        <ele>98.112718</ele>
        <time>2023-10-13T12:36:31.000Z</time>
      </trkpt>
      <trkpt lat="38.113981" lon="-77.814668">
        <ele>98.545625</ele>
        <time>2023-10-13T12:36:34.000Z</time>
      </trkpt>
      <trkpt lat="38.11399" lon="-77.815023">
        <ele>99.019849</ele>
        <time>2023-10-13T12:36:37.000Z</time>
      </trkpt>
      <trkpt lat="38.114247" lon="-77.81601">
        <ele>100.425875</ele>
        <time>2023-10-13T12:36:46.000Z</time>
      </trkpt>
      <trkpt lat="38.114261" lon="-77.816316">
        <ele>100.857374</ele>
        <time>2023-10-13T12:36:49.000Z</time>
      </trkpt>
      <trkpt lat="38.114094" lon="-77.817497">
        <ele>102.679324</ele>
        <time>2023-10-13T12:36:59.000Z</time>
      </trkpt>
      <trkpt lat="38.114127" lon="-77.817767">
        <ele>103.112092</ele>
        <time>2023-10-13T12:37:01.000Z</time>
      </trkpt>
      <trkpt lat="38.114358" lon="-77.81808">
        <ele>103.778216</ele>
        <time>2023-10-13T12:37:05.000Z</time>
      </trkpt>
      <trkpt lat="38.115674" lon="-77.818809">
        <ele>105.842101</ele>
        <time>2023-10-13T12:37:21.000Z</time>
      </trkpt>
      <trkpt lat="38.115902" lon="-77.818837">
        <ele>106.142781</ele>
        <time>2023-10-13T12:37:24.000Z</time>
      </trkpt>
      <trkpt lat="38.116662" lon="-77.818759">
        <ele>107.059859</ele>
        <time>2023-10-13T12:37:32.000Z</time>
      </trkpt>
      <trkpt lat="38.116954" lon="-77.818735">
        <ele>107.410661</ele>
        <time>2023-10-13T12:37:35.000Z</time>
      </trkpt>
      <trkpt lat="38.117197" lon="-77.818755">
        <ele>107.683306</ele>
        <time>2023-10-13T12:37:38.000Z</time>
      </trkpt>
      <trkpt lat="38.117336" lon="-77.818811">
        <ele>107.854834</ele>
        <time>2023-10-13T12:37:40.000Z</time>
      </trkpt>
      <trkpt lat="38.117571" lon="-77.819078">
        <ele>108.200037</ele>
        <time>2023-10-13T12:37:44.000Z</time>
      </trkpt>
      <trkpt lat="38.117666" lon="-77.819296">
        <ele>108.430086</ele>
        <time>2023-10-13T12:37:46.000Z</time>
      </trkpt>
      <trkpt lat="38.117693" lon="-77.8204">
        <ele>109.521871</ele>
        <time>2023-10-13T12:37:56.000Z</time>
      </trkpt>
      <trkpt lat="38.117817" lon="-77.820818">
        <ele>109.981738</ele>
        <time>2023-10-13T12:38:00.000Z</time>
      </trkpt>
      <trkpt lat="38.117977" lon="-77.821057">
        <ele>110.301179</ele>
        <time>2023-10-13T12:38:03.000Z</time>
      </trkpt>
      <trkpt lat="38.118456" lon="-77.821586">
        <ele>111.159242</ele>
        <time>2023-10-13T12:38:10.000Z</time>
      </trkpt>
      <trkpt lat="38.118707" lon="-77.821939">
        <ele>111.311411</ele>
        <time>2023-10-13T12:38:14.000Z</time>
      </trkpt>
      <trkpt lat="38.11899" lon="-77.822796">
        <ele>111.604807</ele>
        <time>2023-10-13T12:38:22.000Z</time>
      </trkpt>
      <trkpt lat="38.119171" lon="-77.823177">
        <ele>111.748636</ele>
        <time>2023-10-13T12:38:26.000Z</time>
      </trkpt>
      <trkpt lat="38.119396" lon="-77.823005">
        <ele>111.853105</ele>
        <time>2023-10-13T12:38:29.000Z</time>
      </trkpt>
      <trkpt lat="38.119767" lon="-77.822864">
        <ele>111.804967</ele>
        <time>2023-10-13T12:38:33.000Z</time>
      </trkpt>
      <trkpt lat="38.11998" lon="-77.822883">
        <ele>111.743117</ele>
        <time>2023-10-13T12:38:35.000Z</time>
      </trkpt>
      <trkpt lat="38.120202" lon="-77.822957">
        <ele>111.6728</ele>
        <time>2023-10-13T12:38:38.000Z</time>
      </trkpt>
      <trkpt lat="38.120633" lon="-77.823172">
        <ele>111.530497</ele>
        <time>2023-10-13T12:38:43.000Z</time>
      </trkpt>
      <trkpt lat="38.121127" lon="-77.82328">
        <ele>111.37702</ele>
        <time>2023-10-13T12:38:49.000Z</time>
      </trkpt>
      <trkpt lat="38.12191" lon="-77.8232">
        <ele>111.594804</ele>
        <time>2023-10-13T12:38:58.000Z</time>
      </trkpt>
      <trkpt lat="38.122742" lon="-77.823276">
        <ele>111.891853</ele>
        <time>2023-10-13T12:39:07.000Z</time>
      </trkpt>
      <trkpt lat="38.123036" lon="-77.823257">
        <ele>112.009748</ele>
        <time>2023-10-13T12:39:10.000Z</time>
      </trkpt>
      <trkpt lat="38.124189" lon="-77.822906">
        <ele>112.673583</ele>
        <time>2023-10-13T12:39:23.000Z</time>
      </trkpt>
      <trkpt lat="38.124783" lon="-77.822475">
        <ele>113.036213</ele>
        <time>2023-10-13T12:39:31.000Z</time>
      </trkpt>
      <trkpt lat="38.125318" lon="-77.822173">
        <ele>113.21585</ele>
        <time>2023-10-13T12:39:38.000Z</time>
      </trkpt>
      <trkpt lat="38.126353" lon="-77.821242">
        <ele>113.628105</ele>
        <time>2023-10-13T12:39:52.000Z</time>
      </trkpt>
      <trkpt lat="38.128386" lon="-77.820213">
        <ele>114.429733</ele>
        <time>2023-10-13T12:40:16.000Z</time>
      </trkpt>
      <trkpt lat="38.129342" lon="-77.819612">
        <ele>114.741232</ele>
        <time>2023-10-13T12:40:28.000Z</time>
      </trkpt>
      <trkpt lat="38.130252" lon="-77.819345">
        <ele>114.951052</ele>
        <time>2023-10-13T12:40:38.000Z</time>
      </trkpt>
      <trkpt lat="38.130972" lon="-77.818913">
        <ele>115.113602</ele>
        <time>2023-10-13T12:40:47.000Z</time>
      </trkpt>
      <trkpt lat="38.131216" lon="-77.818897">
        <ele>115.160832</ele>
        <time>2023-10-13T12:40:50.000Z</time>
      </trkpt>
      <trkpt lat="38.131838" lon="-77.818984">
        <ele>115.290211</ele>
        <time>2023-10-13T12:40:57.000Z</time>
      </trkpt>
      <trkpt lat="38.133012" lon="-77.818821">
        <ele>115.528368</ele>
        <time>2023-10-13T12:41:10.000Z</time>
      </trkpt>
      <trkpt lat="38.133387" lon="-77.818677">
        <ele>115.649715</ele>
        <time>2023-10-13T12:41:14.000Z</time>
      </trkpt>
      <trkpt lat="38.134941" lon="-77.817779">
        <ele>116.178445</ele>
        <time>2023-10-13T12:41:33.000Z</time>
      </trkpt>
      <trkpt lat="38.135363" lon="-77.817603">
        <ele>116.292688</ele>
        <time>2023-10-13T12:41:38.000Z</time>
      </trkpt>
      <trkpt lat="38.135809" lon="-77.817547">
        <ele>116.400675</ele>
        <time>2023-10-13T12:41:43.000Z</time>
      </trkpt>
      <trkpt lat="38.136646" lon="-77.817755">
        <ele>116.588232</ele>
        <time>2023-10-13T12:41:52.000Z</time>
      </trkpt>
      <trkpt lat="38.137481" lon="-77.817802">
        <ele>116.699318</ele>
        <time>2023-10-13T12:42:01.000Z</time>
      </trkpt>
      <trkpt lat="38.138294" lon="-77.818111">
        <ele>116.881077</ele>
        <time>2023-10-13T12:42:10.000Z</time>
      </trkpt>
      <trkpt lat="38.139059" lon="-77.818289">
        <ele>117.415763</ele>
        <time>2023-10-13T12:42:19.000Z</time>
      </trkpt>
      <trkpt lat="38.139437" lon="-77.818277">
        <ele>117.685368</ele>
        <time>2023-10-13T12:42:23.000Z</time>
      </trkpt>
      <trkpt lat="38.140185" lon="-77.817959">
        <ele>118.164336</ele>
        <time>2023-10-13T12:42:32.000Z</time>
      </trkpt>
      <trkpt lat="38.141292" lon="-77.817387">
        <ele>118.710339</ele>
        <time>2023-10-13T12:42:45.000Z</time>
      </trkpt>
      <trkpt lat="38.141373" lon="-77.817316">
        <ele>118.754539</ele>
        <time>2023-10-13T12:42:46.000Z</time>
      </trkpt>
      <trkpt lat="38.141374" lon="-77.817314">
        <ele>118.755519</ele>
        <time>2023-10-13T12:42:46.000Z</time>
      </trkpt>
      <trkpt lat="38.141378" lon="-77.817325">
        <ele>118.756675</ele>
        <time>2023-10-13T12:42:46.000Z</time>
      </trkpt>
      <trkpt lat="38.141376" lon="-77.817306">
        <ele>118.760534</ele>
        <time>2023-10-13T12:42:46.000Z</time>
      </trkpt>
      <trkpt lat="38.141388" lon="-77.817315">
        <ele>118.761396</ele>
        <time>2023-10-13T12:42:46.000Z</time>
      </trkpt>
      <trkpt lat="38.141385" lon="-77.8173">
        <ele>118.762948</ele>
        <time>2023-10-13T12:42:46.000Z</time>
      </trkpt>
      <trkpt lat="38.141381" lon="-77.817305">
        <ele>118.763522</ele>
        <time>2023-10-13T12:42:46.000Z</time>
      </trkpt>
      <trkpt lat="38.141396" lon="-77.817308">
        <ele>118.76468</ele>
        <time>2023-10-13T12:42:46.000Z</time>
      </trkpt>
      <trkpt lat="38.14141" lon="-77.8173">
        <ele>118.77241</ele>
        <time>2023-10-13T12:42:46.000Z</time>
      </trkpt>
      <trkpt lat="38.141392" lon="-77.817303">
        <ele>118.780118</ele>
        <time>2023-10-13T12:42:46.000Z</time>
      </trkpt>
      <trkpt lat="38.14138" lon="-77.817308">
        <ele>118.781279</ele>
        <time>2023-10-13T12:42:46.000Z</time>
      </trkpt>
      <trkpt lat="38.141384" lon="-77.817313">
        <ele>118.781865</ele>
        <time>2023-10-13T12:42:46.000Z</time>
      </trkpt>
      <trkpt lat="38.141384" lon="-77.817308">
        <ele>118.783418</ele>
        <time>2023-10-13T12:42:46.000Z</time>
      </trkpt>
      <trkpt lat="38.141387" lon="-77.81732">
        <ele>118.784262</ele>
        <time>2023-10-13T12:42:46.000Z</time>
      </trkpt>
      <trkpt lat="38.141378" lon="-77.817328">
        <ele>118.788131</ele>
        <time>2023-10-13T12:42:46.000Z</time>
      </trkpt>
      <trkpt lat="38.141378" lon="-77.817313">
        <ele>118.789284</ele>
        <time>2023-10-13T12:42:46.000Z</time>
      </trkpt>
      <trkpt lat="38.14138" lon="-77.817321">
        <ele>118.790277</ele>
        <time>2023-10-13T12:42:46.000Z</time>
      </trkpt>
      <trkpt lat="38.141295" lon="-77.8174">
        <ele>118.834468</ele>
        <time>2023-10-13T12:42:47.000Z</time>
      </trkpt>
      <trkpt lat="38.140178" lon="-77.817949">
        <ele>118.146254</ele>
        <time>2023-10-13T12:43:00.000Z</time>
      </trkpt>
      <trkpt lat="38.139448" lon="-77.818287">
        <ele>117.652177</ele>
        <time>2023-10-13T12:43:09.000Z</time>
      </trkpt>
      <trkpt lat="38.139052" lon="-77.818302">
        <ele>117.427193</ele>
        <time>2023-10-13T12:43:13.000Z</time>
      </trkpt>
      <trkpt lat="38.138293" lon="-77.818115">
        <ele>116.980986</ele>
        <time>2023-10-13T12:43:22.000Z</time>
      </trkpt>
      <trkpt lat="38.13747" lon="-77.817809">
        <ele>116.642869</ele>
        <time>2023-10-13T12:43:32.000Z</time>
      </trkpt>
      <trkpt lat="38.13666" lon="-77.817762">
        <ele>116.565522</ele>
        <time>2023-10-13T12:43:41.000Z</time>
      </trkpt>
      <trkpt lat="38.1358" lon="-77.81755">
        <ele>116.439439</ele>
        <time>2023-10-13T12:43:51.000Z</time>
      </trkpt>
      <trkpt lat="38.135374" lon="-77.817611">
        <ele>116.307145</ele>
        <time>2023-10-13T12:43:56.000Z</time>
      </trkpt>
      <trkpt lat="38.134926" lon="-77.817782">
        <ele>116.167173</ele>
        <time>2023-10-13T12:44:01.000Z</time>
      </trkpt>
      <trkpt lat="38.133378" lon="-77.818667">
        <ele>115.665176</ele>
        <time>2023-10-13T12:44:20.000Z</time>
      </trkpt>
      <trkpt lat="38.133016" lon="-77.818824">
        <ele>115.555886</ele>
        <time>2023-10-13T12:44:24.000Z</time>
      </trkpt>
      <trkpt lat="38.131845" lon="-77.818973">
        <ele>115.280105</ele>
        <time>2023-10-13T12:44:37.000Z</time>
      </trkpt>
      <trkpt lat="38.131208" lon="-77.818892">
        <ele>115.149469</ele>
        <time>2023-10-13T12:44:44.000Z</time>
      </trkpt>
      <trkpt lat="38.130977" lon="-77.818912">
        <ele>115.102715</ele>
        <time>2023-10-13T12:44:47.000Z</time>
      </trkpt>
      <trkpt lat="38.130257" lon="-77.81934">
        <ele>114.945461</ele>
        <time>2023-10-13T12:44:56.000Z</time>
      </trkpt>
      <trkpt lat="38.129338" lon="-77.819601">
        <ele>114.759444</ele>
        <time>2023-10-13T12:45:06.000Z</time>
      </trkpt>
      <trkpt lat="38.128383" lon="-77.820206">
        <ele>114.428686</ele>
        <time>2023-10-13T12:45:18.000Z</time>
      </trkpt>
      <trkpt lat="38.126358" lon="-77.821247">
        <ele>113.642287</ele>
        <time>2023-10-13T12:45:42.000Z</time>
      </trkpt>
      <trkpt lat="38.125321" lon="-77.822189">
        <ele>113.190668</ele>
        <time>2023-10-13T12:45:56.000Z</time>
      </trkpt>
      <trkpt lat="38.124793" lon="-77.822471">
        <ele>112.999745</ele>
        <time>2023-10-13T12:46:02.000Z</time>
      </trkpt>
      <trkpt lat="38.124191" lon="-77.822917">
        <ele>112.723382</ele>
        <time>2023-10-13T12:46:10.000Z</time>
      </trkpt>
      <trkpt lat="38.12305" lon="-77.823246">
        <ele>112.006229</ele>
        <time>2023-10-13T12:46:23.000Z</time>
      </trkpt>
      <trkpt lat="38.122726" lon="-77.823283">
        <ele>111.816318</ele>
        <time>2023-10-13T12:46:27.000Z</time>
      </trkpt>
      <trkpt lat="38.121906" lon="-77.823195">
        <ele>111.610916</ele>
        <time>2023-10-13T12:46:36.000Z</time>
      </trkpt>
      <trkpt lat="38.121139" lon="-77.823289">
        <ele>111.471716</ele>
        <time>2023-10-13T12:46:45.000Z</time>
      </trkpt>
      <trkpt lat="38.120639" lon="-77.823178">
        <ele>111.468755</ele>
        <time>2023-10-13T12:46:51.000Z</time>
      </trkpt>
      <trkpt lat="38.120198" lon="-77.822951">
        <ele>111.606887</ele>
        <time>2023-10-13T12:46:56.000Z</time>
      </trkpt>
      <trkpt lat="38.119981" lon="-77.822884">
        <ele>111.675142</ele>
        <time>2023-10-13T12:46:58.000Z</time>
      </trkpt>
      <trkpt lat="38.119775" lon="-77.822874">
        <ele>111.735204</ele>
        <time>2023-10-13T12:47:00.000Z</time>
      </trkpt>
      <trkpt lat="38.11939" lon="-77.823018">
        <ele>111.851902</ele>
        <time>2023-10-13T12:47:04.000Z</time>
      </trkpt>
      <trkpt lat="38.119159" lon="-77.823172">
        <ele>111.927947</ele>
        <time>2023-10-13T12:47:07.000Z</time>
      </trkpt>
      <trkpt lat="38.118997" lon="-77.822789">
        <ele>111.734206</ele>
        <time>2023-10-13T12:47:11.000Z</time>
      </trkpt>
      <trkpt lat="38.118702" lon="-77.82194">
        <ele>111.231637</ele>
        <time>2023-10-13T12:47:19.000Z</time>
      </trkpt>
      <trkpt lat="38.118463" lon="-77.821601">
        <ele>110.98037</ele>
        <time>2023-10-13T12:47:23.000Z</time>
      </trkpt>
      <trkpt lat="38.117986" lon="-77.821042">
        <ele>110.369915</ele>
        <time>2023-10-13T12:47:30.000Z</time>
      </trkpt>
      <trkpt lat="38.117833" lon="-77.820808">
        <ele>110.038949</ele>
        <time>2023-10-13T12:47:33.000Z</time>
      </trkpt>
      <trkpt lat="38.117696" lon="-77.820395">
        <ele>109.562472</ele>
        <time>2023-10-13T12:47:37.000Z</time>
      </trkpt>
      <trkpt lat="38.117665" lon="-77.819306">
        <ele>108.372583</ele>
        <time>2023-10-13T12:47:47.000Z</time>
      </trkpt>
      <trkpt lat="38.117572" lon="-77.819079">
        <ele>108.123498</ele>
        <time>2023-10-13T12:47:49.000Z</time>
      </trkpt>
      <trkpt lat="38.117343" lon="-77.818822">
        <ele>107.798886</ele>
        <time>2023-10-13T12:47:52.000Z</time>
      </trkpt>
      <trkpt lat="38.117207" lon="-77.818743">
        <ele>107.637579</ele>
        <time>2023-10-13T12:47:54.000Z</time>
      </trkpt>
      <trkpt lat="38.116969" lon="-77.818728">
        <ele>107.381175</ele>
        <time>2023-10-13T12:47:57.000Z</time>
      </trkpt>
      <trkpt lat="38.116655" lon="-77.818761">
        <ele>107.051289</ele>
        <time>2023-10-13T12:48:01.000Z</time>
      </trkpt>
      <trkpt lat="38.115909" lon="-77.818839">
        <ele>106.231259</ele>
        <time>2023-10-13T12:48:09.000Z</time>
      </trkpt>
      <trkpt lat="38.115679" lon="-77.818795">
        <ele>105.892409</ele>
        <time>2023-10-13T12:48:12.000Z</time>
      </trkpt>
      <trkpt lat="38.114353" lon="-77.818092">
        <ele>103.821044</ele>
        <time>2023-10-13T12:48:28.000Z</time>
      </trkpt>
      <trkpt lat="38.114116" lon="-77.81776">
        <ele>103.183993</ele>
        <time>2023-10-13T12:48:32.000Z</time>
      </trkpt>
      <trkpt lat="38.114098" lon="-77.817495">
        <ele>102.739897</ele>
        <time>2023-10-13T12:48:34.000Z</time>
      </trkpt>
      <trkpt lat="38.114274" lon="-77.816322">
        <ele>100.863432</ele>
        <time>2023-10-13T12:48:44.000Z</time>
      </trkpt>
      <trkpt lat="38.114232" lon="-77.816006">
        <ele>100.362844</ele>
        <time>2023-10-13T12:48:47.000Z</time>
      </trkpt>
      <trkpt lat="38.114006" lon="-77.815029">
        <ele>99.004625</ele>
        <time>2023-10-13T12:48:56.000Z</time>
      </trkpt>
      <trkpt lat="38.113974" lon="-77.814676">
        <ele>98.564867</ele>
        <time>2023-10-13T12:48:59.000Z</time>
      </trkpt>
      <trkpt lat="38.114008" lon="-77.814354">
        <ele>98.163434</ele>
        <time>2023-10-13T12:49:02.000Z</time>
      </trkpt>
      <trkpt lat="38.114338" lon="-77.813487">
        <ele>97.061287</ele>
        <time>2023-10-13T12:49:10.000Z</time>
      </trkpt>
      <trkpt lat="38.114359" lon="-77.813073">
        <ele>96.768051</ele>
        <time>2023-10-13T12:49:14.000Z</time>
      </trkpt>
      <trkpt lat="38.114251" lon="-77.812778">
        <ele>96.537372</ele>
        <time>2023-10-13T12:49:17.000Z</time>
      </trkpt>
      <trkpt lat="38.113627" lon="-77.811652">
        <ele>95.594268</ele>
        <time>2023-10-13T12:49:29.000Z</time>
      </trkpt>
      <trkpt lat="38.113455" lon="-77.811756">
        <ele>95.713296</ele>
        <time>2023-10-13T12:49:31.000Z</time>
      </trkpt>
      <trkpt lat="38.113442" lon="-77.811763">
        <ele>95.713303</ele>
        <time>2023-10-13T12:49:31.000Z</time>
      </trkpt>
      <trkpt lat="38.113444" lon="-77.811747">
        <ele>95.713299</ele>
        <time>2023-10-13T12:49:31.000Z</time>
      </trkpt>
      <trkpt lat="38.113633" lon="-77.811637">
        <ele>95.832334</ele>
        <time>2023-10-13T12:49:33.000Z</time>
      </trkpt>
      <trkpt lat="38.114249" lon="-77.812786">
        <ele>96.454736</ele>
        <time>2023-10-13T12:49:45.000Z</time>
      </trkpt>
      <trkpt lat="38.114348" lon="-77.813077">
        <ele>96.601903</ele>
        <time>2023-10-13T12:49:48.000Z</time>
      </trkpt>
      <trkpt lat="38.114325" lon="-77.813486">
        <ele>97.054631</ele>
        <time>2023-10-13T12:49:52.000Z</time>
      </trkpt>
      <trkpt lat="38.114022" lon="-77.814354">
        <ele>98.164124</ele>
        <time>2023-10-13T12:50:00.000Z</time>
      </trkpt>
      <trkpt lat="38.113968" lon="-77.814678">
        <ele>98.531009</ele>
        <time>2023-10-13T12:50:03.000Z</time>
      </trkpt>
      <trkpt lat="38.114005" lon="-77.815023">
        <ele>98.932915</ele>
        <time>2023-10-13T12:50:06.000Z</time>
      </trkpt>
      <trkpt lat="38.114242" lon="-77.816008">
        <ele>100.431795</ele>
        <time>2023-10-13T12:50:15.000Z</time>
      </trkpt>
      <trkpt lat="38.114259" lon="-77.816329">
        <ele>100.926832</ele>
        <time>2023-10-13T12:50:18.000Z</time>
      </trkpt>
      <trkpt lat="38.114098" lon="-77.817487">
        <ele>102.78249</ele>
        <time>2023-10-13T12:50:28.000Z</time>
      </trkpt>
      <trkpt lat="38.114113" lon="-77.817776">
        <ele>103.150571</ele>
        <time>2023-10-13T12:50:31.000Z</time>
      </trkpt>
      <trkpt lat="38.114348" lon="-77.818078">
        <ele>103.704733</ele>
        <time>2023-10-13T12:50:35.000Z</time>
      </trkpt>
      <trkpt lat="38.115683" lon="-77.818801">
        <ele>105.946897</ele>
        <time>2023-10-13T12:50:51.000Z</time>
      </trkpt>
      <trkpt lat="38.115907" lon="-77.818826">
        <ele>106.197573</ele>
        <time>2023-10-13T12:50:54.000Z</time>
      </trkpt>
      <trkpt lat="38.116652" lon="-77.818768">
        <ele>106.99505</ele>
        <time>2023-10-13T12:51:02.000Z</time>
      </trkpt>
      <trkpt lat="38.116956" lon="-77.818731">
        <ele>107.321914</ele>
        <time>2023-10-13T12:51:05.000Z</time>
      </trkpt>
      <trkpt lat="38.117196" lon="-77.818759">
        <ele>107.575961</ele>
        <time>2023-10-13T12:51:08.000Z</time>
      </trkpt>
      <trkpt lat="38.117337" lon="-77.818828">
        <ele>107.753787</ele>
        <time>2023-10-13T12:51:10.000Z</time>
      </trkpt>
      <trkpt lat="38.117564" lon="-77.819083">
        <ele>108.162759</ele>
        <time>2023-10-13T12:51:13.000Z</time>
      </trkpt>
      <trkpt lat="38.117652" lon="-77.819295">
        <ele>108.435304</ele>
        <time>2023-10-13T12:51:15.000Z</time>
      </trkpt>
      <trkpt lat="38.117693" lon="-77.820392">
        <ele>109.605708</ele>
        <time>2023-10-13T12:51:25.000Z</time>
      </trkpt>
      <trkpt lat="38.117818" lon="-77.820806">
        <ele>110.074361</ele>
        <time>2023-10-13T12:51:29.000Z</time>
      </trkpt>
      <trkpt lat="38.117972" lon="-77.821039">
        <ele>110.317157</ele>
        <time>2023-10-13T12:51:32.000Z</time>
      </trkpt>
      <trkpt lat="38.118464" lon="-77.821588">
        <ele>110.94736</ele>
        <time>2023-10-13T12:51:39.000Z</time>
      </trkpt>
      <trkpt lat="38.118702" lon="-77.821943">
        <ele>111.30124</ele>
        <time>2023-10-13T12:51:43.000Z</time>
      </trkpt>
      <trkpt lat="38.118988" lon="-77.822791">
        <ele>111.831085</ele>
        <time>2023-10-13T12:51:51.000Z</time>
      </trkpt>
      <trkpt lat="38.119161" lon="-77.82318">
        <ele>111.769468</ele>
        <time>2023-10-13T12:51:55.000Z</time>
      </trkpt>
      <trkpt lat="38.119397" lon="-77.823007">
        <ele>111.724726</ele>
        <time>2023-10-13T12:51:58.000Z</time>
      </trkpt>
      <trkpt lat="38.119772" lon="-77.822872">
        <ele>111.65606</ele>
        <time>2023-10-13T12:52:02.000Z</time>
      </trkpt>
      <trkpt lat="38.119965" lon="-77.822869">
        <ele>111.62071</ele>
        <time>2023-10-13T12:52:04.000Z</time>
      </trkpt>
      <trkpt lat="38.120197" lon="-77.822951">
        <ele>111.580558</ele>
        <time>2023-10-13T12:52:07.000Z</time>
      </trkpt>
      <trkpt lat="38.120628" lon="-77.823178">
        <ele>111.542206</ele>
        <time>2023-10-13T12:52:12.000Z</time>
      </trkpt>
      <trkpt lat="38.121137" lon="-77.823289">
        <ele>111.534337</ele>
        <time>2023-10-13T12:52:18.000Z</time>
      </trkpt>
      <trkpt lat="38.121915" lon="-77.823194">
        <ele>111.522214</ele>
        <time>2023-10-13T12:52:27.000Z</time>
      </trkpt>
      <trkpt lat="38.122728" lon="-77.823276">
        <ele>111.867834</ele>
        <time>2023-10-13T12:52:36.000Z</time>
      </trkpt>
      <trkpt lat="38.123041" lon="-77.823241">
        <ele>112.052478</ele>
        <time>2023-10-13T12:52:39.000Z</time>
      </trkpt>
      <trkpt lat="38.124192" lon="-77.822915">
        <ele>112.694626</ele>
        <time>2023-10-13T12:52:52.000Z</time>
      </trkpt>
      <trkpt lat="38.124796" lon="-77.822487">
        <ele>112.966199</ele>
        <time>2023-10-13T12:53:00.000Z</time>
      </trkpt>
      <trkpt lat="38.125321" lon="-77.822178">
        <ele>113.194235</ele>
        <time>2023-10-13T12:53:06.000Z</time>
      </trkpt>
      <trkpt lat="38.126353" lon="-77.82124">
        <ele>113.651477</ele>
        <time>2023-10-13T12:53:20.000Z</time>
      </trkpt>
      <trkpt lat="38.128381" lon="-77.820207">
        <ele>114.450106</ele>
        <time>2023-10-13T12:53:44.000Z</time>
      </trkpt>
      <trkpt lat="38.129345" lon="-77.819618">
        <ele>114.738543</ele>
        <time>2023-10-13T12:53:56.000Z</time>
      </trkpt>
      <trkpt lat="38.130266" lon="-77.819334">
        <ele>114.933322</ele>
        <time>2023-10-13T12:54:07.000Z</time>
      </trkpt>
      <trkpt lat="38.13097" lon="-77.818917">
        <ele>115.101012</ele>
        <time>2023-10-13T12:54:16.000Z</time>
      </trkpt>
      <trkpt lat="38.131199" lon="-77.818888">
        <ele>115.150079</ele>
        <time>2023-10-13T12:54:19.000Z</time>
      </trkpt>
      <trkpt lat="38.131841" lon="-77.818972">
        <ele>115.287176</ele>
        <time>2023-10-13T12:54:26.000Z</time>
      </trkpt>
      <trkpt lat="38.133019" lon="-77.818821">
        <ele>115.568511</ele>
        <time>2023-10-13T12:54:39.000Z</time>
      </trkpt>
      <trkpt lat="38.133385" lon="-77.818668">
        <ele>115.661732</ele>
        <time>2023-10-13T12:54:43.000Z</time>
      </trkpt>
      <trkpt lat="38.134927" lon="-77.817781">
        <ele>116.183886</ele>
        <time>2023-10-13T12:55:02.000Z</time>
      </trkpt>
      <trkpt lat="38.135373" lon="-77.817608">
        <ele>116.338871</ele>
        <time>2023-10-13T12:55:07.000Z</time>
      </trkpt>
      <trkpt lat="38.135796" lon="-77.817561">
        <ele>116.43243</ele>
        <time>2023-10-13T12:55:12.000Z</time>
      </trkpt>
      <trkpt lat="38.136659" lon="-77.817762">
        <ele>116.535508</ele>
        <time>2023-10-13T12:55:22.000Z</time>
      </trkpt>
      <trkpt lat="38.137468" lon="-77.817807">
        <ele>116.671155</ele>
        <time>2023-10-13T12:55:31.000Z</time>
      </trkpt>
      <trkpt lat="38.138302" lon="-77.81812">
        <ele>117.01465</ele>
        <time>2023-10-13T12:55:41.000Z</time>
      </trkpt>
      <trkpt lat="38.139051" lon="-77.818298">
        <ele>117.324342</ele>
        <time>2023-10-13T12:55:49.000Z</time>
      </trkpt>
      <trkpt lat="38.139438" lon="-77.818276">
        <ele>117.606775</ele>
        <time>2023-10-13T12:55:53.000Z</time>
      </trkpt>
      <trkpt lat="38.140192" lon="-77.817949">
        <ele>118.199777</ele>
        <time>2023-10-13T12:56:02.000Z</time>
      </trkpt>
      <trkpt lat="38.141294" lon="-77.817394">
        <ele>118.59834</ele>
        <time>2023-10-13T12:56:15.000Z</time>
      </trkpt>
      <trkpt lat="38.141369" lon="-77.817321">
        <ele>118.578695</ele>
        <time>2023-10-13T12:56:16.000Z</time>
      </trkpt>
      <trkpt lat="38.1413" lon="-77.817393">
        <ele>118.55904</ele>
        <time>2023-10-13T12:56:17.000Z</time>
      </trkpt>
      <trkpt lat="38.140192" lon="-77.817963">
        <ele>118.251073</ele>
        <time>2023-10-13T12:56:30.000Z</time>
      </trkpt>
      <trkpt lat="38.139449" lon="-77.818278">
        <ele>117.659642</ele>
        <time>2023-10-13T12:56:39.000Z</time>
      </trkpt>
      <trkpt lat="38.139049" lon="-77.818306">
        <ele>117.36469</ele>
        <time>2023-10-13T12:56:43.000Z</time>
      </trkpt>
      <trkpt lat="38.138293" lon="-77.818112">
        <ele>116.920066</ele>
        <time>2023-10-13T12:56:52.000Z</time>
      </trkpt>
      <trkpt lat="38.137474" lon="-77.817812">
        <ele>116.732457</ele>
        <time>2023-10-13T12:57:01.000Z</time>
      </trkpt>
      <trkpt lat="38.136662" lon="-77.817761">
        <ele>116.556352</ele>
        <time>2023-10-13T12:57:10.000Z</time>
      </trkpt>
      <trkpt lat="38.135808" lon="-77.817558">
        <ele>116.392499</ele>
        <time>2023-10-13T12:57:20.000Z</time>
      </trkpt>
      <trkpt lat="38.135373" lon="-77.817604">
        <ele>116.309976</ele>
        <time>2023-10-13T12:57:25.000Z</time>
      </trkpt>
      <trkpt lat="38.134926" lon="-77.817787">
        <ele>116.206829</ele>
        <time>2023-10-13T12:57:30.000Z</time>
      </trkpt>
      <trkpt lat="38.133387" lon="-77.818676">
        <ele>115.627501</ele>
        <time>2023-10-13T12:57:49.000Z</time>
      </trkpt>
      <trkpt lat="38.133028" lon="-77.81882">
        <ele>115.547997</ele>
        <time>2023-10-13T12:57:53.000Z</time>
      </trkpt>
      <trkpt lat="38.131837" lon="-77.818978">
        <ele>115.299099</ele>
        <time>2023-10-13T12:58:06.000Z</time>
      </trkpt>
      <trkpt lat="38.131216" lon="-77.818886">
        <ele>115.162997</ele>
        <time>2023-10-13T12:58:13.000Z</time>
      </trkpt>
      <trkpt lat="38.130976" lon="-77.818914">
        <ele>115.114058</ele>
        <time>2023-10-13T12:58:16.000Z</time>
      </trkpt>
      <trkpt lat="38.130267" lon="-77.819342">
        <ele>114.94564</ele>
        <time>2023-10-13T12:58:25.000Z</time>
      </trkpt>
      <trkpt lat="38.129348" lon="-77.819611">
        <ele>114.723392</ele>
        <time>2023-10-13T12:58:35.000Z</time>
      </trkpt>
      <trkpt lat="38.12838" lon="-77.82022">
        <ele>114.454335</ele>
        <time>2023-10-13T12:58:47.000Z</time>
      </trkpt>
      <trkpt lat="38.126356" lon="-77.821243">
        <ele>113.634354</ele>
        <time>2023-10-13T12:59:11.000Z</time>
      </trkpt>
      <trkpt lat="38.125309" lon="-77.822186">
        <ele>113.228302</ele>
        <time>2023-10-13T12:59:25.000Z</time>
      </trkpt>
      <trkpt lat="38.124794" lon="-77.822485">
        <ele>112.994507</ele>
        <time>2023-10-13T12:59:31.000Z</time>
      </trkpt>
      <trkpt lat="38.124187" lon="-77.822906">
        <ele>112.652946</ele>
        <time>2023-10-13T12:59:39.000Z</time>
      </trkpt>
      <trkpt lat="38.12305" lon="-77.823256">
        <ele>112.071353</ele>
        <time>2023-10-13T12:59:52.000Z</time>
      </trkpt>
      <trkpt lat="38.122732" lon="-77.823271">
        <ele>111.920243</ele>
        <time>2023-10-13T12:59:56.000Z</time>
      </trkpt>
      <trkpt lat="38.121914" lon="-77.823201">
        <ele>111.517805</ele>
        <time>2023-10-13T13:00:05.000Z</time>
      </trkpt>
      <trkpt lat="38.121129" lon="-77.823297">
        <ele>111.4721</ele>
        <time>2023-10-13T13:00:14.000Z</time>
      </trkpt>
      <trkpt lat="38.120637" lon="-77.823172">
        <ele>111.583279</ele>
        <time>2023-10-13T13:00:20.000Z</time>
      </trkpt>
      <trkpt lat="38.120193" lon="-77.822964">
        <ele>111.686362</ele>
        <time>2023-10-13T13:00:25.000Z</time>
      </trkpt>
      <trkpt lat="38.119977" lon="-77.822886">
        <ele>111.737286</ele>
        <time>2023-10-13T13:00:27.000Z</time>
      </trkpt>
      <trkpt lat="38.11977" lon="-77.822864">
        <ele>111.752145</ele>
        <time>2023-10-13T13:00:29.000Z</time>
      </trkpt>
      <trkpt lat="38.119383" lon="-77.823016">
        <ele>111.69867</ele>
        <time>2023-10-13T13:00:34.000Z</time>
      </trkpt>
      <trkpt lat="38.119174" lon="-77.823185">
        <ele>111.663832</ele>
        <time>2023-10-13T13:00:37.000Z</time>
      </trkpt>
      <trkpt lat="38.118997" lon="-77.822787">
        <ele>111.615856</ele>
        <time>2023-10-13T13:00:41.000Z</time>
      </trkpt>
      <trkpt lat="38.118691" lon="-77.821933">
        <ele>111.493799</ele>
        <time>2023-10-13T13:00:49.000Z</time>
      </trkpt>
      <trkpt lat="38.118463" lon="-77.821586">
        <ele>111.051003</ele>
        <time>2023-10-13T13:00:53.000Z</time>
      </trkpt>
      <trkpt lat="38.117984" lon="-77.821042">
        <ele>110.262451</ele>
        <time>2023-10-13T13:01:00.000Z</time>
      </trkpt>
      <trkpt lat="38.117826" lon="-77.820801">
        <ele>109.968879</ele>
        <time>2023-10-13T13:01:03.000Z</time>
      </trkpt>
      <trkpt lat="38.117698" lon="-77.8204">
        <ele>109.546256</ele>
        <time>2023-10-13T13:01:07.000Z</time>
      </trkpt>
      <trkpt lat="38.117666" lon="-77.819299">
        <ele>108.476058</ele>
        <time>2023-10-13T13:01:17.000Z</time>
      </trkpt>
      <trkpt lat="38.117564" lon="-77.819067">
        <ele>108.225923</ele>
        <time>2023-10-13T13:01:19.000Z</time>
      </trkpt>
      <trkpt lat="38.117345" lon="-77.81881">
        <ele>107.850587</ele>
        <time>2023-10-13T13:01:22.000Z</time>
      </trkpt>
      <trkpt lat="38.117195" lon="-77.818743">
        <ele>107.66409</ele>
        <time>2023-10-13T13:01:24.000Z</time>
      </trkpt>
      <trkpt lat="38.116959" lon="-77.818722">
        <ele>107.367631</ele>
        <time>2023-10-13T13:01:27.000Z</time>
      </trkpt>
      <trkpt lat="38.116656" lon="-77.818759">
        <ele>106.994195</ele>
        <time>2023-10-13T13:01:30.000Z</time>
      </trkpt>
      <trkpt lat="38.115906" lon="-77.81883">
        <ele>106.133701</ele>
        <time>2023-10-13T13:01:38.000Z</time>
      </trkpt>
      <trkpt lat="38.115684" lon="-77.818798">
        <ele>105.863216</ele>
        <time>2023-10-13T13:01:40.000Z</time>
      </trkpt>
      <trkpt lat="38.114351" lon="-77.818086">
        <ele>103.707056</ele>
        <time>2023-10-13T13:01:56.000Z</time>
      </trkpt>
      <trkpt lat="38.114113" lon="-77.817777">
        <ele>103.07545</ele>
        <time>2023-10-13T13:02:00.000Z</time>
      </trkpt>
      <trkpt lat="38.114085" lon="-77.817481">
        <ele>102.665135</ele>
        <time>2023-10-13T13:02:03.000Z</time>
      </trkpt>
      <trkpt lat="38.114273" lon="-77.816319">
        <ele>100.93272</ele>
        <time>2023-10-13T13:02:13.000Z</time>
      </trkpt>
      <trkpt lat="38.114237" lon="-77.816015">
        <ele>100.471038</ele>
        <time>2023-10-13T13:02:16.000Z</time>
      </trkpt>
      <trkpt lat="38.114001" lon="-77.815029">
        <ele>98.96665</ele>
        <time>2023-10-13T13:02:25.000Z</time>
      </trkpt>
      <trkpt lat="38.113972" lon="-77.814668">
        <ele>98.459266</ele>
        <time>2023-10-13T13:02:28.000Z</time>
      </trkpt>
      <trkpt lat="38.114006" lon="-77.814353">
        <ele>98.108992</ele>
        <time>2023-10-13T13:02:31.000Z</time>
      </trkpt>
      <trkpt lat="38.114339" lon="-77.813486">
        <ele>97.144629</ele>
        <time>2023-10-13T13:02:39.000Z</time>
      </trkpt>
      <trkpt lat="38.114353" lon="-77.813066">
        <ele>96.730391</ele>
        <time>2023-10-13T13:02:43.000Z</time>
      </trkpt>
      <trkpt lat="38.114244" lon="-77.812774">
        <ele>96.404526</ele>
        <time>2023-10-13T13:02:46.000Z</time>
      </trkpt>
      <trkpt lat="38.113637" lon="-77.811635">
        <ele>95.944464</ele>
        <time>2023-10-13T13:02:58.000Z</time>
      </trkpt>
      <trkpt lat="38.113454" lon="-77.811755">
        <ele>95.913839</ele>
        <time>2023-10-13T13:03:00.000Z</time>
      </trkpt>
      <trkpt lat="38.113454" lon="-77.811756">
        <ele>95.913642</ele>
        <time>2023-10-13T13:03:00.000Z</time>
      </trkpt>
      <trkpt lat="38.113447" lon="-77.81176">
        <ele>95.913652</ele>
        <time>2023-10-13T13:03:00.000Z</time>
      </trkpt>
      <trkpt lat="38.113457" lon="-77.811765">
        <ele>95.913643</ele>
        <time>2023-10-13T13:03:00.000Z</time>
      </trkpt>
      <trkpt lat="38.113629" lon="-77.811643">
        <ele>95.882824</ele>
        <time>2023-10-13T13:03:02.000Z</time>
      </trkpt>
      <trkpt lat="38.114247" lon="-77.812773">
        <ele>96.422546</ele>
        <time>2023-10-13T13:03:14.000Z</time>
      </trkpt>
      <trkpt lat="38.114344" lon="-77.813078">
        <ele>96.733361</ele>
        <time>2023-10-13T13:03:17.000Z</time>
      </trkpt>
      <trkpt lat="38.114331" lon="-77.813486">
        <ele>97.128502</ele>
        <time>2023-10-13T13:03:21.000Z</time>
      </trkpt>
      <trkpt lat="38.114016" lon="-77.814363">
        <ele>98.076957</ele>
        <time>2023-10-13T13:03:29.000Z</time>
      </trkpt>
      <trkpt lat="38.113967" lon="-77.814677">
        <ele>98.520725</ele>
        <time>2023-10-13T13:03:32.000Z</time>
      </trkpt>
      <trkpt lat="38.113994" lon="-77.815028">
        <ele>99.006877</ele>
        <time>2023-10-13T13:03:35.000Z</time>
      </trkpt>
      <trkpt lat="38.114238" lon="-77.816013">
        <ele>100.448239</ele>
        <time>2023-10-13T13:03:44.000Z</time>
      </trkpt>
      <trkpt lat="38.114275" lon="-77.816314">
        <ele>100.890581</ele>
        <time>2023-10-13T13:03:47.000Z</time>
      </trkpt>
      <trkpt lat="38.114093" lon="-77.81748">
        <ele>102.667416</ele>
        <time>2023-10-13T13:03:57.000Z</time>
      </trkpt>
      <trkpt lat="38.114115" lon="-77.817771">
        <ele>103.093815</ele>
        <time>2023-10-13T13:04:00.000Z</time>
      </trkpt>
      <trkpt lat="38.114348" lon="-77.81808">
        <ele>103.750138</ele>
        <time>2023-10-13T13:04:04.000Z</time>
      </trkpt>
      <trkpt lat="38.115673" lon="-77.818801">
        <ele>105.843426</ele>
        <time>2023-10-13T13:04:20.000Z</time>
      </trkpt>
      <trkpt lat="38.115909" lon="-77.818835">
        <ele>106.132703</ele>
        <time>2023-10-13T13:04:23.000Z</time>
      </trkpt>
      <trkpt lat="38.116654" lon="-77.818756">
        <ele>107.044157</ele>
        <time>2023-10-13T13:04:31.000Z</time>
      </trkpt>
      <trkpt lat="38.116959" lon="-77.818723">
        <ele>107.404522</ele>
        <time>2023-10-13T13:04:34.000Z</time>
      </trkpt>
      <trkpt lat="38.117195" lon="-77.818751">
        <ele>107.6846</ele>
        <time>2023-10-13T13:04:37.000Z</time>
      </trkpt>
      <trkpt lat="38.117348" lon="-77.818811">
        <ele>107.860789</ele>
        <time>2023-10-13T13:04:39.000Z</time>
      </trkpt>
      <trkpt lat="38.11757" lon="-77.819077">
        <ele>108.2154</ele>
        <time>2023-10-13T13:04:42.000Z</time>
      </trkpt>
      <trkpt lat="38.117651" lon="-77.819301">
        <ele>108.451723</ele>
        <time>2023-10-13T13:04:44.000Z</time>
      </trkpt>
      <trkpt lat="38.11769" lon="-77.820402">
        <ele>109.520095</ele>
        <time>2023-10-13T13:04:54.000Z</time>
      </trkpt>
      <trkpt lat="38.117827" lon="-77.820812">
        <ele>109.969864</ele>
        <time>2023-10-13T13:04:58.000Z</time>
      </trkpt>
      <trkpt lat="38.117985" lon="-77.821053">
        <ele>110.282264</ele>
        <time>2023-10-13T13:05:01.000Z</time>
      </trkpt>
      <trkpt lat="38.118462" lon="-77.821592">
        <ele>111.121478</ele>
        <time>2023-10-13T13:05:08.000Z</time>
      </trkpt>
      <trkpt lat="38.118704" lon="-77.821948">
        <ele>111.370349</ele>
        <time>2023-10-13T13:05:12.000Z</time>
      </trkpt>
      <trkpt lat="38.118991" lon="-77.822791">
        <ele>111.59429</ele>
        <time>2023-10-13T13:05:20.000Z</time>
      </trkpt>
      <trkpt lat="38.119166" lon="-77.823187">
        <ele>111.704083</ele>
        <time>2023-10-13T13:05:24.000Z</time>
      </trkpt>
      <trkpt lat="38.119386" lon="-77.823007">
        <ele>111.78383</ele>
        <time>2023-10-13T13:05:27.000Z</time>
      </trkpt>
      <trkpt lat="38.119762" lon="-77.822877">
        <ele>111.810117</ele>
        <time>2023-10-13T13:05:31.000Z</time>
      </trkpt>
      <trkpt lat="38.119963" lon="-77.822883">
        <ele>111.75231</ele>
        <time>2023-10-13T13:05:33.000Z</time>
      </trkpt>
      <trkpt lat="38.120195" lon="-77.82296">
        <ele>111.686618</ele>
        <time>2023-10-13T13:05:36.000Z</time>
      </trkpt>
      <trkpt lat="38.12063" lon="-77.823173">
        <ele>111.553682</ele>
        <time>2023-10-13T13:05:41.000Z</time>
      </trkpt>
      <trkpt lat="38.121137" lon="-77.82328">
        <ele>111.410277</ele>
        <time>2023-10-13T13:05:47.000Z</time>
      </trkpt>
      <trkpt lat="38.12191" lon="-77.823197">
        <ele>111.572321</ele>
        <time>2023-10-13T13:05:56.000Z</time>
      </trkpt>
      <trkpt lat="38.122734" lon="-77.823285">
        <ele>111.910118</ele>
        <time>2023-10-13T13:06:05.000Z</time>
      </trkpt>
      <trkpt lat="38.123046" lon="-77.823251">
        <ele>112.036957</ele>
        <time>2023-10-13T13:06:08.000Z</time>
      </trkpt>
      <trkpt lat="38.124189" lon="-77.822908">
        <ele>112.662385</ele>
        <time>2023-10-13T13:06:21.000Z</time>
      </trkpt>
      <trkpt lat="38.12479" lon="-77.822481">
        <ele>113.03486</ele>
        <time>2023-10-13T13:06:29.000Z</time>
      </trkpt>
      <trkpt lat="38.125311" lon="-77.822182">
        <ele>113.222606</ele>
        <time>2023-10-13T13:06:35.000Z</time>
      </trkpt>
      <trkpt lat="38.126354" lon="-77.821238">
        <ele>113.623458</ele>
        <time>2023-10-13T13:06:49.000Z</time>
      </trkpt>
      <trkpt lat="38.128391" lon="-77.820215">
        <ele>114.435902</ele>
        <time>2023-10-13T13:07:13.000Z</time>
      </trkpt>
      <trkpt lat="38.129337" lon="-77.819611">
        <ele>114.73202</ele>
        <time>2023-10-13T13:07:25.000Z</time>
      </trkpt>
      <trkpt lat="38.130257" lon="-77.819336">
        <ele>114.950224</ele>
        <time>2023-10-13T13:07:36.000Z</time>
      </trkpt>
      <trkpt lat="38.130971" lon="-77.818919">
        <ele>115.115061</ele>
        <time>2023-10-13T13:07:45.000Z</time>
      </trkpt>
      <trkpt lat="38.131202" lon="-77.818885">
        <ele>115.162944</ele>
        <time>2023-10-13T13:07:48.000Z</time>
      </trkpt>
      <trkpt lat="38.131838" lon="-77.818989">
        <ele>115.294199</ele>
        <time>2023-10-13T13:07:55.000Z</time>
      </trkpt>
      <trkpt lat="38.133021" lon="-77.818818">
        <ele>115.534518</ele>
        <time>2023-10-13T13:08:08.000Z</time>
      </trkpt>
      <trkpt lat="38.133376" lon="-77.818674">
        <ele>115.64194</ele>
        <time>2023-10-13T13:08:12.000Z</time>
      </trkpt>
      <trkpt lat="38.13493" lon="-77.817794">
        <ele>116.190108</ele>
        <time>2023-10-13T13:08:31.000Z</time>
      </trkpt>
      <trkpt lat="38.135365" lon="-77.817603">
        <ele>116.295002</ele>
        <time>2023-10-13T13:08:36.000Z</time>
      </trkpt>
      <trkpt lat="38.135797" lon="-77.817558">
        <ele>116.394142</ele>
        <time>2023-10-13T13:08:41.000Z</time>
      </trkpt>
      <trkpt lat="38.136663" lon="-77.817762">
        <ele>116.583844</ele>
        <time>2023-10-13T13:08:51.000Z</time>
      </trkpt>
      <trkpt lat="38.137484" lon="-77.817819">
        <ele>116.715477</ele>
        <time>2023-10-13T13:09:00.000Z</time>
      </trkpt>
      <trkpt lat="38.138288" lon="-77.818117">
        <ele>116.852436</ele>
        <time>2023-10-13T13:09:09.000Z</time>
      </trkpt>
      <trkpt lat="38.139064" lon="-77.818301">
        <ele>117.400194</ele>
        <time>2023-10-13T13:09:18.000Z</time>
      </trkpt>
      <trkpt lat="38.139438" lon="-77.818279">
        <ele>117.680241</ele>
        <time>2023-10-13T13:09:22.000Z</time>
      </trkpt>
      <trkpt lat="38.140185" lon="-77.817965">
        <ele>118.195785</ele>
        <time>2023-10-13T13:09:31.000Z</time>
      </trkpt>
      <trkpt lat="38.1413" lon="-77.817396">
        <ele>118.630307</ele>
        <time>2023-10-13T13:09:44.000Z</time>
      </trkpt>
      <trkpt lat="38.141378" lon="-77.81732">
        <ele>118.665479</ele>
        <time>2023-10-13T13:09:45.000Z</time>
      </trkpt>
      <trkpt lat="38.141364" lon="-77.817317">
        <ele>118.666258</ele>
        <time>2023-10-13T13:09:45.000Z</time>
      </trkpt>
      <trkpt lat="38.141362" lon="-77.817324">
        <ele>118.667035</ele>
        <time>2023-10-13T13:09:45.000Z</time>
      </trkpt>
      <trkpt lat="38.141289" lon="-77.817386">
        <ele>118.702213</ele>
        <time>2023-10-13T13:09:46.000Z</time>
      </trkpt>
      <trkpt lat="38.140192" lon="-77.817959">
        <ele>118.160977</ele>
        <time>2023-10-13T13:09:59.000Z</time>
      </trkpt>
      <trkpt lat="38.139449" lon="-77.818282">
        <ele>117.614511</ele>
        <time>2023-10-13T13:10:08.000Z</time>
      </trkpt>
      <trkpt lat="38.139051" lon="-77.81829">
        <ele>117.398703</ele>
        <time>2023-10-13T13:10:12.000Z</time>
      </trkpt>
      <trkpt lat="38.138302" lon="-77.818112">
        <ele>117.010083</ele>
        <time>2023-10-13T13:10:20.000Z</time>
      </trkpt>
      <trkpt lat="38.137482" lon="-77.817819">
        <ele>116.626901</ele>
        <time>2023-10-13T13:10:29.000Z</time>
      </trkpt>
      <trkpt lat="38.136658" lon="-77.817753">
        <ele>116.547047</ele>
        <time>2023-10-13T13:10:38.000Z</time>
      </trkpt>
      <trkpt lat="38.135796" lon="-77.817552">
        <ele>116.46142</ele>
        <time>2023-10-13T13:10:48.000Z</time>
      </trkpt>
      <trkpt lat="38.13537" lon="-77.817604">
        <ele>116.321112</ele>
        <time>2023-10-13T13:10:53.000Z</time>
      </trkpt>
      <trkpt lat="38.134931" lon="-77.817794">
        <ele>116.172675</ele>
        <time>2023-10-13T13:10:58.000Z</time>
      </trkpt>
      <trkpt lat="38.133377" lon="-77.818668">
        <ele>115.666762</ele>
        <time>2023-10-13T13:11:17.000Z</time>
      </trkpt>
      <trkpt lat="38.133025" lon="-77.818824">
        <ele>115.564694</ele>
        <time>2023-10-13T13:11:21.000Z</time>
      </trkpt>
      <trkpt lat="38.131837" lon="-77.818973">
        <ele>115.280733</ele>
        <time>2023-10-13T13:11:34.000Z</time>
      </trkpt>
      <trkpt lat="38.131201" lon="-77.818886">
        <ele>115.147561</ele>
        <time>2023-10-13T13:11:41.000Z</time>
      </trkpt>
      <trkpt lat="38.130971" lon="-77.81892">
        <ele>115.09989</ele>
        <time>2023-10-13T13:11:44.000Z</time>
      </trkpt>
      <trkpt lat="38.130264" lon="-77.819337">
        <ele>114.939446</ele>
        <time>2023-10-13T13:11:53.000Z</time>
      </trkpt>
      <trkpt lat="38.129336" lon="-77.819606">
        <ele>114.752157</ele>
        <time>2023-10-13T13:12:04.000Z</time>
      </trkpt>
      <trkpt lat="38.128387" lon="-77.820203">
        <ele>114.436656</ele>
        <time>2023-10-13T13:12:16.000Z</time>
      </trkpt>
      <trkpt lat="38.12637" lon="-77.821231">
        <ele>113.648158</ele>
        <time>2023-10-13T13:12:40.000Z</time>
      </trkpt>
      <trkpt lat="38.125321" lon="-77.822188">
        <ele>113.184773</ele>
        <time>2023-10-13T13:12:54.000Z</time>
      </trkpt>
      <trkpt lat="38.124798" lon="-77.822473">
        <ele>112.980382</ele>
        <time>2023-10-13T13:13:00.000Z</time>
      </trkpt>
      <trkpt lat="38.124199" lon="-77.822913">
        <ele>112.736995</ele>
        <time>2023-10-13T13:13:08.000Z</time>
      </trkpt>
      <trkpt lat="38.123043" lon="-77.823239">
        <ele>112.025329</ele>
        <time>2023-10-13T13:13:21.000Z</time>
      </trkpt>
      <trkpt lat="38.122742" lon="-77.823282">
        <ele>111.834857</ele>
        <time>2023-10-13T13:13:24.000Z</time>
      </trkpt>
      <trkpt lat="38.121912" lon="-77.823198">
        <ele>111.583839</ele>
        <time>2023-10-13T13:13:33.000Z</time>
      </trkpt>
      <trkpt lat="38.121131" lon="-77.823294">
        <ele>111.513991</ele>
        <time>2023-10-13T13:13:42.000Z</time>
      </trkpt>
      <trkpt lat="38.120625" lon="-77.823175">
        <ele>111.468598</ele>
        <time>2023-10-13T13:13:48.000Z</time>
      </trkpt>
      <trkpt lat="38.12019" lon="-77.822962">
        <ele>111.446024547</ele>
        <time>2023-10-13T13:13:53.000Z</time>
      </trkpt>
      <trkpt lat="38.119973" lon="-77.822875">
        <ele>111.435006168</ele>
        <time>2023-10-13T13:13:56.000Z</time>
      </trkpt>
      <trkpt lat="38.119767" lon="-77.822868">
        <ele>111.425027199</ele>
        <time>2023-10-13T13:13:58.000Z</time>
      </trkpt>
      <trkpt lat="38.119394" lon="-77.823015">
        <ele>111.406116685</ele>
        <time>2023-10-13T13:14:02.000Z</time>
      </trkpt>
      <trkpt lat="38.119168" lon="-77.823176">
        <ele>111.39357119</ele>
        <time>2023-10-13T13:14:05.000Z</time>
      </trkpt>
    </trkseg>
  </trk>
</gpx>

<!--
Performance optimized by W3 Total Cache. Learn more: https://www.boldgrid.com/w3-total-cache/?utm_source=w3tc&utm_medium=footer_comment&utm_campaign=free_plugin

Page Caching using Disk: Enhanced{w3tc_pagecache_reject_reason} 

Served from: www.aquabike.world @ 2026-05-08 11:01:19 by W3 Total Cache
-->